<?xml version="1.0" encoding="UTF-8" standalone="no" ?>
<gpx xmlns="http://www.topografix.com/GPX/1/1" xmlns:xsi="http://www.w3.org/2001/XMLSchema-instance" xsi:schemaLocation="http://www.topografix.com/GPX/1/1 http://www.topografix.com/GPX/1/1/gpx.xsd" version="1.1" creator="VisuGPX - https://www.visugpx.com">
  <metadata>
    <name>Carantec</name>
  </metadata>
  <trk>
    <name><![CDATA[Carantec_1]]></name>
    <trkseg>
      <trkpt lat="48.65918" lon="-3.91881">
        <ele>51.6</ele>
        <time>2024-05-09T08:08:38Z</time>
      </trkpt>
      <trkpt lat="48.65925" lon="-3.91882">
        <ele>51.2</ele>
        <time>2024-05-09T08:08:46Z</time>
      </trkpt>
      <trkpt lat="48.6594" lon="-3.91886">
        <ele>51.4</ele>
        <time>2024-05-09T08:08:56Z</time>
      </trkpt>
      <trkpt lat="48.65949" lon="-3.91892">
        <ele>51.4</ele>
        <time>2024-05-09T08:09:04Z</time>
      </trkpt>
      <trkpt lat="48.65952" lon="-3.91892">
        <ele>51.4</ele>
        <time>2024-05-09T08:09:07Z</time>
      </trkpt>
      <trkpt lat="48.65968" lon="-3.91901">
        <ele>51.8</ele>
        <time>2024-05-09T08:09:20Z</time>
      </trkpt>
      <trkpt lat="48.65971" lon="-3.91901">
        <ele>52</ele>
        <time>2024-05-09T08:09:22Z</time>
      </trkpt>
      <trkpt lat="48.65981" lon="-3.91904">
        <ele>52</ele>
        <time>2024-05-09T08:09:30Z</time>
      </trkpt>
      <trkpt lat="48.65994" lon="-3.91911">
        <ele>52.2</ele>
        <time>2024-05-09T08:09:41Z</time>
      </trkpt>
      <trkpt lat="48.65998" lon="-3.91914">
        <ele>52.2</ele>
        <time>2024-05-09T08:09:44Z</time>
      </trkpt>
      <trkpt lat="48.66004" lon="-3.91921">
        <ele>52.2</ele>
        <time>2024-05-09T08:09:49Z</time>
      </trkpt>
      <trkpt lat="48.66012" lon="-3.91929">
        <ele>52</ele>
        <time>2024-05-09T08:09:56Z</time>
      </trkpt>
      <trkpt lat="48.66024" lon="-3.91935">
        <ele>52.4</ele>
        <time>2024-05-09T08:10:05Z</time>
      </trkpt>
      <trkpt lat="48.66034" lon="-3.91939">
        <ele>52</ele>
        <time>2024-05-09T08:10:13Z</time>
      </trkpt>
      <trkpt lat="48.66044" lon="-3.9194">
        <ele>51.8</ele>
        <time>2024-05-09T08:10:19Z</time>
      </trkpt>
      <trkpt lat="48.66052" lon="-3.91945">
        <ele>51.8</ele>
        <time>2024-05-09T08:10:26Z</time>
      </trkpt>
      <trkpt lat="48.66053" lon="-3.91945">
        <ele>51.6</ele>
        <time>2024-05-09T08:10:27Z</time>
      </trkpt>
      <trkpt lat="48.6606" lon="-3.91946">
        <ele>51.4</ele>
        <time>2024-05-09T08:10:31Z</time>
      </trkpt>
      <trkpt lat="48.66071" lon="-3.91951">
        <ele>51.4</ele>
        <time>2024-05-09T08:10:38Z</time>
      </trkpt>
      <trkpt lat="48.66082" lon="-3.91953">
        <ele>51.2</ele>
        <time>2024-05-09T08:10:46Z</time>
      </trkpt>
      <trkpt lat="48.66091" lon="-3.91955">
        <ele>51</ele>
        <time>2024-05-09T08:10:53Z</time>
      </trkpt>
      <trkpt lat="48.66099" lon="-3.91957">
        <ele>50.8</ele>
        <time>2024-05-09T08:10:59Z</time>
      </trkpt>
      <trkpt lat="48.661" lon="-3.91958">
        <ele>51</ele>
        <time>2024-05-09T08:11:00Z</time>
      </trkpt>
      <trkpt lat="48.66101" lon="-3.91959">
        <ele>51</ele>
        <time>2024-05-09T08:11:01Z</time>
      </trkpt>
      <trkpt lat="48.66103" lon="-3.91967">
        <ele>51</ele>
        <time>2024-05-09T08:11:05Z</time>
      </trkpt>
      <trkpt lat="48.66105" lon="-3.91968">
        <ele>51</ele>
        <time>2024-05-09T08:11:07Z</time>
      </trkpt>
      <trkpt lat="48.66112" lon="-3.91972">
        <ele>51</ele>
        <time>2024-05-09T08:11:13Z</time>
      </trkpt>
      <trkpt lat="48.66121" lon="-3.91985">
        <ele>50.8</ele>
        <time>2024-05-09T08:11:21Z</time>
      </trkpt>
      <trkpt lat="48.66132" lon="-3.91996">
        <ele>50.8</ele>
        <time>2024-05-09T08:11:30Z</time>
      </trkpt>
      <trkpt lat="48.66133" lon="-3.92">
        <ele>50.4</ele>
        <time>2024-05-09T08:11:32Z</time>
      </trkpt>
      <trkpt lat="48.66131" lon="-3.9201">
        <ele>50.2</ele>
        <time>2024-05-09T08:11:37Z</time>
      </trkpt>
      <trkpt lat="48.66127" lon="-3.92028">
        <ele>49.8</ele>
        <time>2024-05-09T08:11:46Z</time>
      </trkpt>
      <trkpt lat="48.66125" lon="-3.92034">
        <ele>49.6</ele>
        <time>2024-05-09T08:11:49Z</time>
      </trkpt>
      <trkpt lat="48.6612" lon="-3.92052">
        <ele>49.6</ele>
        <time>2024-05-09T08:11:58Z</time>
      </trkpt>
      <trkpt lat="48.66117" lon="-3.9206">
        <ele>49.6</ele>
        <time>2024-05-09T08:12:02Z</time>
      </trkpt>
      <trkpt lat="48.66117" lon="-3.92064">
        <ele>49.6</ele>
        <time>2024-05-09T08:12:04Z</time>
      </trkpt>
      <trkpt lat="48.66116" lon="-3.92069">
        <ele>49.4</ele>
        <time>2024-05-09T08:12:06Z</time>
      </trkpt>
      <trkpt lat="48.66114" lon="-3.92072">
        <ele>49.2</ele>
        <time>2024-05-09T08:12:08Z</time>
      </trkpt>
      <trkpt lat="48.66106" lon="-3.92095">
        <ele>48.6</ele>
        <time>2024-05-09T08:12:20Z</time>
      </trkpt>
      <trkpt lat="48.66102" lon="-3.92111">
        <ele>48.2</ele>
        <time>2024-05-09T08:12:27Z</time>
      </trkpt>
      <trkpt lat="48.66098" lon="-3.92121">
        <ele>48</ele>
        <time>2024-05-09T08:12:32Z</time>
      </trkpt>
      <trkpt lat="48.66093" lon="-3.9214">
        <ele>48</ele>
        <time>2024-05-09T08:12:41Z</time>
      </trkpt>
      <trkpt lat="48.66087" lon="-3.92161">
        <ele>47.8</ele>
        <time>2024-05-09T08:12:51Z</time>
      </trkpt>
      <trkpt lat="48.66081" lon="-3.92178">
        <ele>47.8</ele>
        <time>2024-05-09T08:12:59Z</time>
      </trkpt>
      <trkpt lat="48.66078" lon="-3.92198">
        <ele>47.4</ele>
        <time>2024-05-09T08:13:09Z</time>
      </trkpt>
      <trkpt lat="48.66075" lon="-3.92206">
        <ele>47.2</ele>
        <time>2024-05-09T08:13:13Z</time>
      </trkpt>
      <trkpt lat="48.66073" lon="-3.92212">
        <ele>47.2</ele>
        <time>2024-05-09T08:13:16Z</time>
      </trkpt>
      <trkpt lat="48.66066" lon="-3.92238">
        <ele>46.4</ele>
        <time>2024-05-09T08:13:29Z</time>
      </trkpt>
      <trkpt lat="48.66066" lon="-3.92241">
        <ele>46.2</ele>
        <time>2024-05-09T08:13:30Z</time>
      </trkpt>
      <trkpt lat="48.66064" lon="-3.92251">
        <ele>45.6</ele>
        <time>2024-05-09T08:13:35Z</time>
      </trkpt>
      <trkpt lat="48.66064" lon="-3.92253">
        <ele>45.4</ele>
        <time>2024-05-09T08:13:36Z</time>
      </trkpt>
      <trkpt lat="48.66061" lon="-3.92261">
        <ele>45</ele>
        <time>2024-05-09T08:13:40Z</time>
      </trkpt>
      <trkpt lat="48.6606" lon="-3.92274">
        <ele>44.4</ele>
        <time>2024-05-09T08:13:46Z</time>
      </trkpt>
      <trkpt lat="48.66058" lon="-3.92284">
        <ele>44</ele>
        <time>2024-05-09T08:13:50Z</time>
      </trkpt>
      <trkpt lat="48.66058" lon="-3.92299">
        <ele>43.4</ele>
        <time>2024-05-09T08:13:57Z</time>
      </trkpt>
      <trkpt lat="48.66057" lon="-3.92308">
        <ele>43</ele>
        <time>2024-05-09T08:14:01Z</time>
      </trkpt>
      <trkpt lat="48.66056" lon="-3.92322">
        <ele>42.2</ele>
        <time>2024-05-09T08:14:07Z</time>
      </trkpt>
      <trkpt lat="48.66056" lon="-3.92323">
        <ele>42</ele>
        <time>2024-05-09T08:14:08Z</time>
      </trkpt>
      <trkpt lat="48.66055" lon="-3.92335">
        <ele>40.8</ele>
        <time>2024-05-09T08:14:13Z</time>
      </trkpt>
      <trkpt lat="48.66055" lon="-3.92346">
        <ele>40.2</ele>
        <time>2024-05-09T08:14:18Z</time>
      </trkpt>
      <trkpt lat="48.66054" lon="-3.92356">
        <ele>39.8</ele>
        <time>2024-05-09T08:14:22Z</time>
      </trkpt>
      <trkpt lat="48.66052" lon="-3.92369">
        <ele>38.8</ele>
        <time>2024-05-09T08:14:28Z</time>
      </trkpt>
      <trkpt lat="48.66051" lon="-3.92371">
        <ele>38.6</ele>
        <time>2024-05-09T08:14:29Z</time>
      </trkpt>
      <trkpt lat="48.66046" lon="-3.92384">
        <ele>37.6</ele>
        <time>2024-05-09T08:14:36Z</time>
      </trkpt>
      <trkpt lat="48.66044" lon="-3.9239">
        <ele>37.2</ele>
        <time>2024-05-09T08:14:39Z</time>
      </trkpt>
      <trkpt lat="48.66043" lon="-3.92397">
        <ele>36.4</ele>
        <time>2024-05-09T08:14:43Z</time>
      </trkpt>
      <trkpt lat="48.66042" lon="-3.92399">
        <ele>36.2</ele>
        <time>2024-05-09T08:14:44Z</time>
      </trkpt>
      <trkpt lat="48.6604" lon="-3.92402">
        <ele>36.2</ele>
        <time>2024-05-09T08:14:46Z</time>
      </trkpt>
      <trkpt lat="48.66032" lon="-3.92413">
        <ele>35.4</ele>
        <time>2024-05-09T08:14:52Z</time>
      </trkpt>
      <trkpt lat="48.6603" lon="-3.92415">
        <ele>35.2</ele>
        <time>2024-05-09T08:14:53Z</time>
      </trkpt>
      <trkpt lat="48.66027" lon="-3.9242">
        <ele>35</ele>
        <time>2024-05-09T08:14:55Z</time>
      </trkpt>
      <trkpt lat="48.66026" lon="-3.92425">
        <ele>34.6</ele>
        <time>2024-05-09T08:14:58Z</time>
      </trkpt>
      <trkpt lat="48.66025" lon="-3.92432">
        <ele>34.4</ele>
        <time>2024-05-09T08:15:01Z</time>
      </trkpt>
      <trkpt lat="48.66024" lon="-3.92434">
        <ele>34.2</ele>
        <time>2024-05-09T08:15:02Z</time>
      </trkpt>
      <trkpt lat="48.66024" lon="-3.92435">
        <ele>34</ele>
        <time>2024-05-09T08:15:03Z</time>
      </trkpt>
      <trkpt lat="48.6602" lon="-3.92446">
        <ele>33.2</ele>
        <time>2024-05-09T08:15:10Z</time>
      </trkpt>
      <trkpt lat="48.6602" lon="-3.92448">
        <ele>33</ele>
        <time>2024-05-09T08:15:11Z</time>
      </trkpt>
      <trkpt lat="48.66015" lon="-3.92463">
        <ele>32.2</ele>
        <time>2024-05-09T08:15:19Z</time>
      </trkpt>
      <trkpt lat="48.66014" lon="-3.92465">
        <ele>32</ele>
        <time>2024-05-09T08:15:20Z</time>
      </trkpt>
      <trkpt lat="48.6601" lon="-3.92477">
        <ele>31.6</ele>
        <time>2024-05-09T08:15:26Z</time>
      </trkpt>
      <trkpt lat="48.66008" lon="-3.92482">
        <ele>30.8</ele>
        <time>2024-05-09T08:15:29Z</time>
      </trkpt>
      <trkpt lat="48.66003" lon="-3.92495">
        <ele>29.8</ele>
        <time>2024-05-09T08:15:35Z</time>
      </trkpt>
      <trkpt lat="48.66001" lon="-3.92499">
        <ele>29.6</ele>
        <time>2024-05-09T08:15:37Z</time>
      </trkpt>
      <trkpt lat="48.65997" lon="-3.92511">
        <ele>29</ele>
        <time>2024-05-09T08:15:43Z</time>
      </trkpt>
      <trkpt lat="48.65993" lon="-3.92518">
        <ele>28.6</ele>
        <time>2024-05-09T08:15:47Z</time>
      </trkpt>
      <trkpt lat="48.65991" lon="-3.92525">
        <ele>28.4</ele>
        <time>2024-05-09T08:15:50Z</time>
      </trkpt>
      <trkpt lat="48.6599" lon="-3.92527">
        <ele>28.2</ele>
        <time>2024-05-09T08:15:51Z</time>
      </trkpt>
      <trkpt lat="48.65987" lon="-3.92542">
        <ele>27.6</ele>
        <time>2024-05-09T08:15:58Z</time>
      </trkpt>
      <trkpt lat="48.65987" lon="-3.92546">
        <ele>27.4</ele>
        <time>2024-05-09T08:16:00Z</time>
      </trkpt>
      <trkpt lat="48.65991" lon="-3.92558">
        <ele>26.4</ele>
        <time>2024-05-09T08:16:06Z</time>
      </trkpt>
      <trkpt lat="48.65994" lon="-3.92562">
        <ele>26</ele>
        <time>2024-05-09T08:16:08Z</time>
      </trkpt>
      <trkpt lat="48.65999" lon="-3.92565">
        <ele>25.2</ele>
        <time>2024-05-09T08:16:12Z</time>
      </trkpt>
      <trkpt lat="48.66006" lon="-3.92568">
        <ele>24.2</ele>
        <time>2024-05-09T08:16:17Z</time>
      </trkpt>
      <trkpt lat="48.66007" lon="-3.92569">
        <ele>24</ele>
        <time>2024-05-09T08:16:18Z</time>
      </trkpt>
      <trkpt lat="48.66016" lon="-3.92571">
        <ele>23.2</ele>
        <time>2024-05-09T08:16:24Z</time>
      </trkpt>
      <trkpt lat="48.66019" lon="-3.92572">
        <ele>22.8</ele>
        <time>2024-05-09T08:16:26Z</time>
      </trkpt>
      <trkpt lat="48.66032" lon="-3.92574">
        <ele>22</ele>
        <time>2024-05-09T08:16:34Z</time>
      </trkpt>
      <trkpt lat="48.66045" lon="-3.92578">
        <ele>21</ele>
        <time>2024-05-09T08:16:43Z</time>
      </trkpt>
      <trkpt lat="48.66046" lon="-3.92579">
        <ele>21</ele>
        <time>2024-05-09T08:16:44Z</time>
      </trkpt>
      <trkpt lat="48.66058" lon="-3.92583">
        <ele>20.4</ele>
        <time>2024-05-09T08:16:52Z</time>
      </trkpt>
      <trkpt lat="48.66065" lon="-3.92586">
        <ele>20</ele>
        <time>2024-05-09T08:16:57Z</time>
      </trkpt>
      <trkpt lat="48.66066" lon="-3.92587">
        <ele>19.8</ele>
        <time>2024-05-09T08:16:58Z</time>
      </trkpt>
      <trkpt lat="48.66069" lon="-3.92589">
        <ele>19.6</ele>
        <time>2024-05-09T08:17:00Z</time>
      </trkpt>
      <trkpt lat="48.66075" lon="-3.92593">
        <ele>19.4</ele>
        <time>2024-05-09T08:17:05Z</time>
      </trkpt>
      <trkpt lat="48.66077" lon="-3.92596">
        <ele>19.2</ele>
        <time>2024-05-09T08:17:07Z</time>
      </trkpt>
      <trkpt lat="48.66081" lon="-3.92599">
        <ele>19</ele>
        <time>2024-05-09T08:17:10Z</time>
      </trkpt>
      <trkpt lat="48.66088" lon="-3.92611">
        <ele>18.2</ele>
        <time>2024-05-09T08:17:17Z</time>
      </trkpt>
      <trkpt lat="48.66095" lon="-3.92622">
        <ele>17.6</ele>
        <time>2024-05-09T08:17:24Z</time>
      </trkpt>
      <trkpt lat="48.66097" lon="-3.92626">
        <ele>17</ele>
        <time>2024-05-09T08:17:26Z</time>
      </trkpt>
      <trkpt lat="48.661" lon="-3.92631">
        <ele>16.4</ele>
        <time>2024-05-09T08:17:29Z</time>
      </trkpt>
      <trkpt lat="48.66105" lon="-3.92643">
        <ele>15.6</ele>
        <time>2024-05-09T08:17:35Z</time>
      </trkpt>
      <trkpt lat="48.66106" lon="-3.92645">
        <ele>15.4</ele>
        <time>2024-05-09T08:17:36Z</time>
      </trkpt>
      <trkpt lat="48.66112" lon="-3.92659">
        <ele>15.2</ele>
        <time>2024-05-09T08:17:43Z</time>
      </trkpt>
      <trkpt lat="48.66117" lon="-3.92666">
        <ele>14.2</ele>
        <time>2024-05-09T08:17:48Z</time>
      </trkpt>
      <trkpt lat="48.66118" lon="-3.92668">
        <ele>14</ele>
        <time>2024-05-09T08:17:49Z</time>
      </trkpt>
      <trkpt lat="48.66124" lon="-3.92681">
        <ele>13.4</ele>
        <time>2024-05-09T08:17:56Z</time>
      </trkpt>
      <trkpt lat="48.66126" lon="-3.92685">
        <ele>13.2</ele>
        <time>2024-05-09T08:17:58Z</time>
      </trkpt>
      <trkpt lat="48.66136" lon="-3.92703">
        <ele>12.2</ele>
        <time>2024-05-09T08:18:08Z</time>
      </trkpt>
      <trkpt lat="48.66146" lon="-3.92709">
        <ele>12.2</ele>
        <time>2024-05-09T08:18:15Z</time>
      </trkpt>
      <trkpt lat="48.66147" lon="-3.9271">
        <ele>12</ele>
        <time>2024-05-09T08:18:16Z</time>
      </trkpt>
      <trkpt lat="48.66157" lon="-3.92715">
        <ele>11.4</ele>
        <time>2024-05-09T08:18:23Z</time>
      </trkpt>
      <trkpt lat="48.66173" lon="-3.92716">
        <ele>11</ele>
        <time>2024-05-09T08:18:33Z</time>
      </trkpt>
      <trkpt lat="48.66174" lon="-3.92717">
        <ele>11</ele>
        <time>2024-05-09T08:18:34Z</time>
      </trkpt>
      <trkpt lat="48.66192" lon="-3.92717">
        <ele>10.8</ele>
        <time>2024-05-09T08:18:46Z</time>
      </trkpt>
      <trkpt lat="48.66204" lon="-3.92717">
        <ele>10.4</ele>
        <time>2024-05-09T08:18:54Z</time>
      </trkpt>
      <trkpt lat="48.66219" lon="-3.92723">
        <ele>10.2</ele>
        <time>2024-05-09T08:19:06Z</time>
      </trkpt>
      <trkpt lat="48.66236" lon="-3.92722">
        <ele>10</ele>
        <time>2024-05-09T08:19:17Z</time>
      </trkpt>
      <trkpt lat="48.66237" lon="-3.92722">
        <ele>9.8</ele>
        <time>2024-05-09T08:19:18Z</time>
      </trkpt>
      <trkpt lat="48.66255" lon="-3.92721">
        <ele>9.8</ele>
        <time>2024-05-09T08:19:29Z</time>
      </trkpt>
      <trkpt lat="48.66267" lon="-3.92722">
        <ele>9.6</ele>
        <time>2024-05-09T08:19:36Z</time>
      </trkpt>
      <trkpt lat="48.66277" lon="-3.92726">
        <ele>9.2</ele>
        <time>2024-05-09T08:19:44Z</time>
      </trkpt>
      <trkpt lat="48.66291" lon="-3.92725">
        <ele>9.2</ele>
        <time>2024-05-09T08:19:52Z</time>
      </trkpt>
      <trkpt lat="48.66304" lon="-3.92726">
        <ele>9.4</ele>
        <time>2024-05-09T08:20:01Z</time>
      </trkpt>
      <trkpt lat="48.6632" lon="-3.92726">
        <ele>9</ele>
        <time>2024-05-09T08:20:12Z</time>
      </trkpt>
      <trkpt lat="48.66338" lon="-3.92725">
        <ele>9.2</ele>
        <time>2024-05-09T08:20:24Z</time>
      </trkpt>
      <trkpt lat="48.66354" lon="-3.92724">
        <ele>9.2</ele>
        <time>2024-05-09T08:20:35Z</time>
      </trkpt>
      <trkpt lat="48.66369" lon="-3.9272">
        <ele>9</ele>
        <time>2024-05-09T08:20:45Z</time>
      </trkpt>
      <trkpt lat="48.66381" lon="-3.92717">
        <ele>9</ele>
        <time>2024-05-09T08:20:52Z</time>
      </trkpt>
      <trkpt lat="48.66383" lon="-3.92717">
        <ele>8.8</ele>
        <time>2024-05-09T08:20:53Z</time>
      </trkpt>
      <trkpt lat="48.66393" lon="-3.92714">
        <ele>8.4</ele>
        <time>2024-05-09T08:21:00Z</time>
      </trkpt>
      <trkpt lat="48.66406" lon="-3.92707">
        <ele>9</ele>
        <time>2024-05-09T08:21:09Z</time>
      </trkpt>
      <trkpt lat="48.66422" lon="-3.92698">
        <ele>8.8</ele>
        <time>2024-05-09T08:21:21Z</time>
      </trkpt>
      <trkpt lat="48.66438" lon="-3.92689">
        <ele>9</ele>
        <time>2024-05-09T08:21:31Z</time>
      </trkpt>
      <trkpt lat="48.66445" lon="-3.92684">
        <ele>8.8</ele>
        <time>2024-05-09T08:21:37Z</time>
      </trkpt>
      <trkpt lat="48.66459" lon="-3.92676">
        <ele>9</ele>
        <time>2024-05-09T08:21:46Z</time>
      </trkpt>
      <trkpt lat="48.6647" lon="-3.9267">
        <ele>8.8</ele>
        <time>2024-05-09T08:21:54Z</time>
      </trkpt>
      <trkpt lat="48.66487" lon="-3.92661">
        <ele>9.4</ele>
        <time>2024-05-09T08:22:05Z</time>
      </trkpt>
      <trkpt lat="48.66499" lon="-3.92655">
        <ele>9.8</ele>
        <time>2024-05-09T08:22:14Z</time>
      </trkpt>
      <trkpt lat="48.66501" lon="-3.92654">
        <ele>9.8</ele>
        <time>2024-05-09T08:22:15Z</time>
      </trkpt>
      <trkpt lat="48.66509" lon="-3.92641">
        <ele>10.2</ele>
        <time>2024-05-09T08:22:23Z</time>
      </trkpt>
      <trkpt lat="48.66511" lon="-3.92628">
        <ele>11</ele>
        <time>2024-05-09T08:22:29Z</time>
      </trkpt>
      <trkpt lat="48.66511" lon="-3.92622">
        <ele>11.2</ele>
        <time>2024-05-09T08:22:32Z</time>
      </trkpt>
      <trkpt lat="48.6651" lon="-3.9262">
        <ele>11.2</ele>
        <time>2024-05-09T08:22:33Z</time>
      </trkpt>
      <trkpt lat="48.66511" lon="-3.92611">
        <ele>11.4</ele>
        <time>2024-05-09T08:22:37Z</time>
      </trkpt>
      <trkpt lat="48.66511" lon="-3.92604">
        <ele>12</ele>
        <time>2024-05-09T08:22:40Z</time>
      </trkpt>
      <trkpt lat="48.66511" lon="-3.92589">
        <ele>12.8</ele>
        <time>2024-05-09T08:22:46Z</time>
      </trkpt>
      <trkpt lat="48.66511" lon="-3.92582">
        <ele>13.2</ele>
        <time>2024-05-09T08:22:49Z</time>
      </trkpt>
      <trkpt lat="48.66511" lon="-3.92573">
        <ele>13.8</ele>
        <time>2024-05-09T08:22:53Z</time>
      </trkpt>
      <trkpt lat="48.6651" lon="-3.9257">
        <ele>14.2</ele>
        <time>2024-05-09T08:22:55Z</time>
      </trkpt>
      <trkpt lat="48.66512" lon="-3.92559">
        <ele>14.8</ele>
        <time>2024-05-09T08:23:00Z</time>
      </trkpt>
      <trkpt lat="48.66511" lon="-3.92554">
        <ele>15.2</ele>
        <time>2024-05-09T08:23:03Z</time>
      </trkpt>
      <trkpt lat="48.6651" lon="-3.92546">
        <ele>16.2</ele>
        <time>2024-05-09T08:23:07Z</time>
      </trkpt>
      <trkpt lat="48.6651" lon="-3.92542">
        <ele>16.4</ele>
        <time>2024-05-09T08:23:09Z</time>
      </trkpt>
      <trkpt lat="48.66511" lon="-3.92529">
        <ele>17.4</ele>
        <time>2024-05-09T08:23:15Z</time>
      </trkpt>
      <trkpt lat="48.66511" lon="-3.92527">
        <ele>17.4</ele>
        <time>2024-05-09T08:23:16Z</time>
      </trkpt>
      <trkpt lat="48.6651" lon="-3.92512">
        <ele>18.6</ele>
        <time>2024-05-09T08:23:24Z</time>
      </trkpt>
      <trkpt lat="48.66511" lon="-3.92499">
        <ele>19.4</ele>
        <time>2024-05-09T08:23:30Z</time>
      </trkpt>
      <trkpt lat="48.66511" lon="-3.92497">
        <ele>19.6</ele>
        <time>2024-05-09T08:23:31Z</time>
      </trkpt>
      <trkpt lat="48.66513" lon="-3.92485">
        <ele>20.2</ele>
        <time>2024-05-09T08:23:37Z</time>
      </trkpt>
      <trkpt lat="48.66513" lon="-3.92481">
        <ele>20.8</ele>
        <time>2024-05-09T08:23:39Z</time>
      </trkpt>
      <trkpt lat="48.66512" lon="-3.92471">
        <ele>21.8</ele>
        <time>2024-05-09T08:23:44Z</time>
      </trkpt>
      <trkpt lat="48.66511" lon="-3.92466">
        <ele>22.4</ele>
        <time>2024-05-09T08:23:47Z</time>
      </trkpt>
      <trkpt lat="48.66511" lon="-3.92459">
        <ele>23</ele>
        <time>2024-05-09T08:23:51Z</time>
      </trkpt>
      <trkpt lat="48.66513" lon="-3.92454">
        <ele>23.8</ele>
        <time>2024-05-09T08:23:55Z</time>
      </trkpt>
      <trkpt lat="48.66515" lon="-3.92451">
        <ele>24.2</ele>
        <time>2024-05-09T08:23:57Z</time>
      </trkpt>
      <trkpt lat="48.66516" lon="-3.92449">
        <ele>24.4</ele>
        <time>2024-05-09T08:23:58Z</time>
      </trkpt>
      <trkpt lat="48.66519" lon="-3.92447">
        <ele>24.6</ele>
        <time>2024-05-09T08:24:02Z</time>
      </trkpt>
      <trkpt lat="48.66521" lon="-3.92446">
        <ele>25.2</ele>
        <time>2024-05-09T08:24:04Z</time>
      </trkpt>
      <trkpt lat="48.66521" lon="-3.92447">
        <ele>25.4</ele>
        <time>2024-05-09T08:24:05Z</time>
      </trkpt>
      <trkpt lat="48.66527" lon="-3.92446">
        <ele>26.2</ele>
        <time>2024-05-09T08:24:08Z</time>
      </trkpt>
      <trkpt lat="48.66528" lon="-3.92446">
        <ele>26.4</ele>
        <time>2024-05-09T08:24:09Z</time>
      </trkpt>
      <trkpt lat="48.66534" lon="-3.92449">
        <ele>27</ele>
        <time>2024-05-09T08:24:13Z</time>
      </trkpt>
      <trkpt lat="48.66538" lon="-3.92447">
        <ele>27</ele>
        <time>2024-05-09T08:24:16Z</time>
      </trkpt>
      <trkpt lat="48.6655" lon="-3.92439">
        <ele>27.4</ele>
        <time>2024-05-09T08:24:24Z</time>
      </trkpt>
      <trkpt lat="48.66551" lon="-3.92438">
        <ele>27.6</ele>
        <time>2024-05-09T08:24:25Z</time>
      </trkpt>
      <trkpt lat="48.66556" lon="-3.92431">
        <ele>28</ele>
        <time>2024-05-09T08:24:30Z</time>
      </trkpt>
      <trkpt lat="48.66559" lon="-3.92423">
        <ele>28.6</ele>
        <time>2024-05-09T08:24:35Z</time>
      </trkpt>
      <trkpt lat="48.6656" lon="-3.92419">
        <ele>28.8</ele>
        <time>2024-05-09T08:24:37Z</time>
      </trkpt>
      <trkpt lat="48.66566" lon="-3.92407">
        <ele>29.6</ele>
        <time>2024-05-09T08:24:43Z</time>
      </trkpt>
      <trkpt lat="48.66566" lon="-3.92404">
        <ele>29.8</ele>
        <time>2024-05-09T08:24:44Z</time>
      </trkpt>
      <trkpt lat="48.66566" lon="-3.92389">
        <ele>30.6</ele>
        <time>2024-05-09T08:24:51Z</time>
      </trkpt>
      <trkpt lat="48.66566" lon="-3.92387">
        <ele>30.6</ele>
        <time>2024-05-09T08:24:52Z</time>
      </trkpt>
      <trkpt lat="48.66566" lon="-3.92375">
        <ele>31.8</ele>
        <time>2024-05-09T08:24:57Z</time>
      </trkpt>
      <trkpt lat="48.66565" lon="-3.92367">
        <ele>32.2</ele>
        <time>2024-05-09T08:25:01Z</time>
      </trkpt>
      <trkpt lat="48.66565" lon="-3.92353">
        <ele>32.4</ele>
        <time>2024-05-09T08:25:07Z</time>
      </trkpt>
      <trkpt lat="48.66565" lon="-3.92336">
        <ele>32.8</ele>
        <time>2024-05-09T08:25:15Z</time>
      </trkpt>
      <trkpt lat="48.66565" lon="-3.92331">
        <ele>33.2</ele>
        <time>2024-05-09T08:25:17Z</time>
      </trkpt>
      <trkpt lat="48.66564" lon="-3.92313">
        <ele>33.8</ele>
        <time>2024-05-09T08:25:25Z</time>
      </trkpt>
      <trkpt lat="48.66564" lon="-3.92311">
        <ele>34</ele>
        <time>2024-05-09T08:25:26Z</time>
      </trkpt>
      <trkpt lat="48.66564" lon="-3.92292">
        <ele>34.6</ele>
        <time>2024-05-09T08:25:35Z</time>
      </trkpt>
      <trkpt lat="48.66564" lon="-3.92288">
        <ele>35</ele>
        <time>2024-05-09T08:25:37Z</time>
      </trkpt>
      <trkpt lat="48.66564" lon="-3.92274">
        <ele>35.4</ele>
        <time>2024-05-09T08:25:43Z</time>
      </trkpt>
      <trkpt lat="48.66565" lon="-3.92263">
        <ele>36</ele>
        <time>2024-05-09T08:25:48Z</time>
      </trkpt>
      <trkpt lat="48.66566" lon="-3.92257">
        <ele>36</ele>
        <time>2024-05-09T08:25:51Z</time>
      </trkpt>
      <trkpt lat="48.66565" lon="-3.92244">
        <ele>36.8</ele>
        <time>2024-05-09T08:25:57Z</time>
      </trkpt>
      <trkpt lat="48.66564" lon="-3.92239">
        <ele>37</ele>
        <time>2024-05-09T08:25:59Z</time>
      </trkpt>
      <trkpt lat="48.66563" lon="-3.92233">
        <ele>37.2</ele>
        <time>2024-05-09T08:26:02Z</time>
      </trkpt>
      <trkpt lat="48.66563" lon="-3.92231">
        <ele>37.2</ele>
        <time>2024-05-09T08:26:03Z</time>
      </trkpt>
      <trkpt lat="48.66565" lon="-3.92214">
        <ele>38</ele>
        <time>2024-05-09T08:26:11Z</time>
      </trkpt>
      <trkpt lat="48.66566" lon="-3.92212">
        <ele>38</ele>
        <time>2024-05-09T08:26:12Z</time>
      </trkpt>
      <trkpt lat="48.66566" lon="-3.92207">
        <ele>38.2</ele>
        <time>2024-05-09T08:26:15Z</time>
      </trkpt>
      <trkpt lat="48.66567" lon="-3.92204">
        <ele>38.4</ele>
        <time>2024-05-09T08:26:17Z</time>
      </trkpt>
      <trkpt lat="48.66574" lon="-3.92193">
        <ele>38.6</ele>
        <time>2024-05-09T08:26:24Z</time>
      </trkpt>
      <trkpt lat="48.66588" lon="-3.92197">
        <ele>37.2</ele>
        <time>2024-05-09T08:26:33Z</time>
      </trkpt>
      <trkpt lat="48.66594" lon="-3.922">
        <ele>37</ele>
        <time>2024-05-09T08:26:37Z</time>
      </trkpt>
      <trkpt lat="48.66604" lon="-3.92202">
        <ele>36.2</ele>
        <time>2024-05-09T08:26:43Z</time>
      </trkpt>
      <trkpt lat="48.66609" lon="-3.92204">
        <ele>35.8</ele>
        <time>2024-05-09T08:26:46Z</time>
      </trkpt>
      <trkpt lat="48.66614" lon="-3.92206">
        <ele>35.6</ele>
        <time>2024-05-09T08:26:50Z</time>
      </trkpt>
      <trkpt lat="48.66626" lon="-3.92209">
        <ele>35.2</ele>
        <time>2024-05-09T08:26:57Z</time>
      </trkpt>
      <trkpt lat="48.66636" lon="-3.92212">
        <ele>35</ele>
        <time>2024-05-09T08:27:04Z</time>
      </trkpt>
      <trkpt lat="48.66648" lon="-3.92215">
        <ele>34.8</ele>
        <time>2024-05-09T08:27:12Z</time>
      </trkpt>
      <trkpt lat="48.66649" lon="-3.92216">
        <ele>34.8</ele>
        <time>2024-05-09T08:27:13Z</time>
      </trkpt>
      <trkpt lat="48.66662" lon="-3.92225">
        <ele>34.6</ele>
        <time>2024-05-09T08:27:22Z</time>
      </trkpt>
      <trkpt lat="48.66671" lon="-3.92229">
        <ele>34.2</ele>
        <time>2024-05-09T08:27:29Z</time>
      </trkpt>
      <trkpt lat="48.66687" lon="-3.92235">
        <ele>34.4</ele>
        <time>2024-05-09T08:27:39Z</time>
      </trkpt>
      <trkpt lat="48.66693" lon="-3.92238">
        <ele>34</ele>
        <time>2024-05-09T08:27:43Z</time>
      </trkpt>
      <trkpt lat="48.66696" lon="-3.92239">
        <ele>34</ele>
        <time>2024-05-09T08:27:46Z</time>
      </trkpt>
      <trkpt lat="48.66709" lon="-3.92244">
        <ele>34</ele>
        <time>2024-05-09T08:27:55Z</time>
      </trkpt>
      <trkpt lat="48.66719" lon="-3.92245">
        <ele>34</ele>
        <time>2024-05-09T08:28:03Z</time>
      </trkpt>
      <trkpt lat="48.66732" lon="-3.92248">
        <ele>33.8</ele>
        <time>2024-05-09T08:28:11Z</time>
      </trkpt>
      <trkpt lat="48.66734" lon="-3.92249">
        <ele>33.8</ele>
        <time>2024-05-09T08:28:12Z</time>
      </trkpt>
      <trkpt lat="48.66752" lon="-3.92253">
        <ele>33.2</ele>
        <time>2024-05-09T08:28:24Z</time>
      </trkpt>
      <trkpt lat="48.6676" lon="-3.92254">
        <ele>32.8</ele>
        <time>2024-05-09T08:28:30Z</time>
      </trkpt>
      <trkpt lat="48.66767" lon="-3.92255">
        <ele>32.6</ele>
        <time>2024-05-09T08:28:34Z</time>
      </trkpt>
      <trkpt lat="48.66779" lon="-3.92254">
        <ele>32.2</ele>
        <time>2024-05-09T08:28:42Z</time>
      </trkpt>
      <trkpt lat="48.66782" lon="-3.92254">
        <ele>32</ele>
        <time>2024-05-09T08:28:44Z</time>
      </trkpt>
      <trkpt lat="48.66784" lon="-3.92254">
        <ele>31.8</ele>
        <time>2024-05-09T08:28:45Z</time>
      </trkpt>
      <trkpt lat="48.66798" lon="-3.92251">
        <ele>31.2</ele>
        <time>2024-05-09T08:28:55Z</time>
      </trkpt>
      <trkpt lat="48.66808" lon="-3.92252">
        <ele>30.6</ele>
        <time>2024-05-09T08:29:01Z</time>
      </trkpt>
      <trkpt lat="48.66812" lon="-3.92251">
        <ele>30.2</ele>
        <time>2024-05-09T08:29:03Z</time>
      </trkpt>
      <trkpt lat="48.66823" lon="-3.9225">
        <ele>30</ele>
        <time>2024-05-09T08:29:11Z</time>
      </trkpt>
      <trkpt lat="48.66839" lon="-3.92251">
        <ele>29.6</ele>
        <time>2024-05-09T08:29:22Z</time>
      </trkpt>
      <trkpt lat="48.6684" lon="-3.92252">
        <ele>29.4</ele>
        <time>2024-05-09T08:29:23Z</time>
      </trkpt>
      <trkpt lat="48.66842" lon="-3.92262">
        <ele>28.8</ele>
        <time>2024-05-09T08:29:28Z</time>
      </trkpt>
      <trkpt lat="48.66843" lon="-3.92274">
        <ele>28.4</ele>
        <time>2024-05-09T08:29:33Z</time>
      </trkpt>
      <trkpt lat="48.66842" lon="-3.92284">
        <ele>28</ele>
        <time>2024-05-09T08:29:37Z</time>
      </trkpt>
      <trkpt lat="48.6684" lon="-3.92294">
        <ele>27.2</ele>
        <time>2024-05-09T08:29:41Z</time>
      </trkpt>
      <trkpt lat="48.66837" lon="-3.92306">
        <ele>26</ele>
        <time>2024-05-09T08:29:46Z</time>
      </trkpt>
      <trkpt lat="48.66835" lon="-3.92317">
        <ele>25</ele>
        <time>2024-05-09T08:29:51Z</time>
      </trkpt>
      <trkpt lat="48.66833" lon="-3.92324">
        <ele>24.2</ele>
        <time>2024-05-09T08:29:55Z</time>
      </trkpt>
      <trkpt lat="48.66833" lon="-3.92326">
        <ele>23.8</ele>
        <time>2024-05-09T08:29:56Z</time>
      </trkpt>
      <trkpt lat="48.66831" lon="-3.92341">
        <ele>22.8</ele>
        <time>2024-05-09T08:30:03Z</time>
      </trkpt>
      <trkpt lat="48.66831" lon="-3.92343">
        <ele>22.4</ele>
        <time>2024-05-09T08:30:04Z</time>
      </trkpt>
      <trkpt lat="48.66831" lon="-3.92357">
        <ele>21.6</ele>
        <time>2024-05-09T08:30:10Z</time>
      </trkpt>
      <trkpt lat="48.66831" lon="-3.92359">
        <ele>21.6</ele>
        <time>2024-05-09T08:30:11Z</time>
      </trkpt>
      <trkpt lat="48.6683" lon="-3.92367">
        <ele>21</ele>
        <time>2024-05-09T08:30:14Z</time>
      </trkpt>
      <trkpt lat="48.66828" lon="-3.92374">
        <ele>20.4</ele>
        <time>2024-05-09T08:30:17Z</time>
      </trkpt>
      <trkpt lat="48.66827" lon="-3.9238">
        <ele>20</ele>
        <time>2024-05-09T08:30:20Z</time>
      </trkpt>
      <trkpt lat="48.66826" lon="-3.92388">
        <ele>19.2</ele>
        <time>2024-05-09T08:30:24Z</time>
      </trkpt>
      <trkpt lat="48.66823" lon="-3.92401">
        <ele>18.4</ele>
        <time>2024-05-09T08:30:30Z</time>
      </trkpt>
      <trkpt lat="48.66823" lon="-3.92403">
        <ele>18.2</ele>
        <time>2024-05-09T08:30:31Z</time>
      </trkpt>
      <trkpt lat="48.66824" lon="-3.92408">
        <ele>18</ele>
        <time>2024-05-09T08:30:33Z</time>
      </trkpt>
      <trkpt lat="48.66823" lon="-3.92418">
        <ele>17.2</ele>
        <time>2024-05-09T08:30:37Z</time>
      </trkpt>
      <trkpt lat="48.66823" lon="-3.9242">
        <ele>17</ele>
        <time>2024-05-09T08:30:38Z</time>
      </trkpt>
      <trkpt lat="48.66821" lon="-3.92433">
        <ele>16</ele>
        <time>2024-05-09T08:30:43Z</time>
      </trkpt>
      <trkpt lat="48.6682" lon="-3.92439">
        <ele>15.6</ele>
        <time>2024-05-09T08:30:46Z</time>
      </trkpt>
      <trkpt lat="48.6682" lon="-3.92446">
        <ele>14.8</ele>
        <time>2024-05-09T08:30:49Z</time>
      </trkpt>
      <trkpt lat="48.66819" lon="-3.92457">
        <ele>13.6</ele>
        <time>2024-05-09T08:30:54Z</time>
      </trkpt>
      <trkpt lat="48.66819" lon="-3.92462">
        <ele>13.2</ele>
        <time>2024-05-09T08:30:56Z</time>
      </trkpt>
      <trkpt lat="48.66817" lon="-3.92474">
        <ele>12.6</ele>
        <time>2024-05-09T08:31:02Z</time>
      </trkpt>
      <trkpt lat="48.66817" lon="-3.92476">
        <ele>12.6</ele>
        <time>2024-05-09T08:31:03Z</time>
      </trkpt>
      <trkpt lat="48.66817" lon="-3.9248">
        <ele>12.2</ele>
        <time>2024-05-09T08:31:05Z</time>
      </trkpt>
      <trkpt lat="48.66817" lon="-3.92489">
        <ele>11.6</ele>
        <time>2024-05-09T08:31:09Z</time>
      </trkpt>
      <trkpt lat="48.66816" lon="-3.92499">
        <ele>11</ele>
        <time>2024-05-09T08:31:13Z</time>
      </trkpt>
      <trkpt lat="48.66816" lon="-3.92504">
        <ele>10.6</ele>
        <time>2024-05-09T08:31:16Z</time>
      </trkpt>
      <trkpt lat="48.66818" lon="-3.92515">
        <ele>9.8</ele>
        <time>2024-05-09T08:31:22Z</time>
      </trkpt>
      <trkpt lat="48.66819" lon="-3.92518">
        <ele>9.2</ele>
        <time>2024-05-09T08:31:24Z</time>
      </trkpt>
      <trkpt lat="48.6682" lon="-3.92521">
        <ele>8.4</ele>
        <time>2024-05-09T08:31:26Z</time>
      </trkpt>
      <trkpt lat="48.66823" lon="-3.92522">
        <ele>8</ele>
        <time>2024-05-09T08:31:28Z</time>
      </trkpt>
      <trkpt lat="48.66831" lon="-3.92519">
        <ele>7.8</ele>
        <time>2024-05-09T08:31:33Z</time>
      </trkpt>
      <trkpt lat="48.66832" lon="-3.92518">
        <ele>7</ele>
        <time>2024-05-09T08:31:38Z</time>
      </trkpt>
      <trkpt lat="48.66833" lon="-3.92518">
        <ele>7</ele>
        <time>2024-05-09T08:31:39Z</time>
      </trkpt>
      <trkpt lat="48.66838" lon="-3.92513">
        <ele>7</ele>
        <time>2024-05-09T08:31:44Z</time>
      </trkpt>
      <trkpt lat="48.66851" lon="-3.92501">
        <ele>6.8</ele>
        <time>2024-05-09T08:31:57Z</time>
      </trkpt>
      <trkpt lat="48.66855" lon="-3.92495">
        <ele>6.6</ele>
        <time>2024-05-09T08:32:01Z</time>
      </trkpt>
      <trkpt lat="48.66859" lon="-3.9249">
        <ele>6.4</ele>
        <time>2024-05-09T08:32:05Z</time>
      </trkpt>
      <trkpt lat="48.66865" lon="-3.92482">
        <ele>6.6</ele>
        <time>2024-05-09T08:32:12Z</time>
      </trkpt>
      <trkpt lat="48.66873" lon="-3.92475">
        <ele>6.8</ele>
        <time>2024-05-09T08:32:20Z</time>
      </trkpt>
      <trkpt lat="48.66879" lon="-3.9247">
        <ele>6.8</ele>
        <time>2024-05-09T08:32:27Z</time>
      </trkpt>
      <trkpt lat="48.66883" lon="-3.92466">
        <ele>6.8</ele>
        <time>2024-05-09T08:32:34Z</time>
      </trkpt>
      <trkpt lat="48.66883" lon="-3.92462">
        <ele>6.6</ele>
        <time>2024-05-09T08:32:40Z</time>
      </trkpt>
      <trkpt lat="48.66885" lon="-3.92461">
        <ele>6.4</ele>
        <time>2024-05-09T08:32:45Z</time>
      </trkpt>
      <trkpt lat="48.66895" lon="-3.92453">
        <ele>6.8</ele>
        <time>2024-05-09T08:32:54Z</time>
      </trkpt>
      <trkpt lat="48.66893" lon="-3.92453">
        <ele>6.6</ele>
        <time>2024-05-09T08:32:59Z</time>
      </trkpt>
      <trkpt lat="48.66891" lon="-3.92451">
        <ele>6.6</ele>
        <time>2024-05-09T08:33:05Z</time>
      </trkpt>
      <trkpt lat="48.66895" lon="-3.92449">
        <ele>6.8</ele>
        <time>2024-05-09T08:33:13Z</time>
      </trkpt>
      <trkpt lat="48.66904" lon="-3.92443">
        <ele>6.8</ele>
        <time>2024-05-09T08:33:19Z</time>
      </trkpt>
      <trkpt lat="48.66913" lon="-3.92436">
        <ele>6.6</ele>
        <time>2024-05-09T08:33:29Z</time>
      </trkpt>
      <trkpt lat="48.66917" lon="-3.92434">
        <ele>6.6</ele>
        <time>2024-05-09T08:33:36Z</time>
      </trkpt>
      <trkpt lat="48.66922" lon="-3.92428">
        <ele>6.8</ele>
        <time>2024-05-09T08:33:44Z</time>
      </trkpt>
      <trkpt lat="48.66922" lon="-3.92428">
        <ele>6.8</ele>
        <time>2024-05-09T08:33:48Z</time>
      </trkpt>
      <trkpt lat="48.66928" lon="-3.92424">
        <ele>6.8</ele>
        <time>2024-05-09T08:33:54Z</time>
      </trkpt>
      <trkpt lat="48.66935" lon="-3.92421">
        <ele>6.8</ele>
        <time>2024-05-09T08:34:01Z</time>
      </trkpt>
      <trkpt lat="48.66941" lon="-3.92417">
        <ele>6.8</ele>
        <time>2024-05-09T08:34:07Z</time>
      </trkpt>
      <trkpt lat="48.66943" lon="-3.92416">
        <ele>6.8</ele>
        <time>2024-05-09T08:34:09Z</time>
      </trkpt>
      <trkpt lat="48.66955" lon="-3.92408">
        <ele>6.6</ele>
        <time>2024-05-09T08:34:19Z</time>
      </trkpt>
      <trkpt lat="48.66961" lon="-3.924">
        <ele>6.6</ele>
        <time>2024-05-09T08:34:26Z</time>
      </trkpt>
      <trkpt lat="48.66964" lon="-3.92398">
        <ele>6.8</ele>
        <time>2024-05-09T08:34:30Z</time>
      </trkpt>
      <trkpt lat="48.66968" lon="-3.92394">
        <ele>6.8</ele>
        <time>2024-05-09T08:34:33Z</time>
      </trkpt>
      <trkpt lat="48.66976" lon="-3.92388">
        <ele>6.6</ele>
        <time>2024-05-09T08:34:40Z</time>
      </trkpt>
      <trkpt lat="48.66982" lon="-3.92386">
        <ele>7</ele>
        <time>2024-05-09T08:34:46Z</time>
      </trkpt>
      <trkpt lat="48.66983" lon="-3.92384">
        <ele>7</ele>
        <time>2024-05-09T08:34:47Z</time>
      </trkpt>
      <trkpt lat="48.66994" lon="-3.92375">
        <ele>7.2</ele>
        <time>2024-05-09T08:34:57Z</time>
      </trkpt>
      <trkpt lat="48.67002" lon="-3.92368">
        <ele>7.4</ele>
        <time>2024-05-09T08:35:06Z</time>
      </trkpt>
      <trkpt lat="48.67011" lon="-3.9236">
        <ele>7.6</ele>
        <time>2024-05-09T08:35:16Z</time>
      </trkpt>
      <trkpt lat="48.67016" lon="-3.92358">
        <ele>7.6</ele>
        <time>2024-05-09T08:35:20Z</time>
      </trkpt>
      <trkpt lat="48.67019" lon="-3.92356">
        <ele>7.8</ele>
        <time>2024-05-09T08:35:22Z</time>
      </trkpt>
      <trkpt lat="48.67033" lon="-3.92345">
        <ele>7.8</ele>
        <time>2024-05-09T08:35:32Z</time>
      </trkpt>
      <trkpt lat="48.67042" lon="-3.92338">
        <ele>8</ele>
        <time>2024-05-09T08:35:40Z</time>
      </trkpt>
      <trkpt lat="48.67055" lon="-3.92327">
        <ele>7.8</ele>
        <time>2024-05-09T08:35:50Z</time>
      </trkpt>
      <trkpt lat="48.67056" lon="-3.92326">
        <ele>7.8</ele>
        <time>2024-05-09T08:35:51Z</time>
      </trkpt>
      <trkpt lat="48.67064" lon="-3.92324">
        <ele>8</ele>
        <time>2024-05-09T08:35:56Z</time>
      </trkpt>
      <trkpt lat="48.67069" lon="-3.92321">
        <ele>8</ele>
        <time>2024-05-09T08:36:00Z</time>
      </trkpt>
      <trkpt lat="48.67081" lon="-3.92315">
        <ele>8</ele>
        <time>2024-05-09T08:36:09Z</time>
      </trkpt>
      <trkpt lat="48.67095" lon="-3.92309">
        <ele>7.8</ele>
        <time>2024-05-09T08:36:19Z</time>
      </trkpt>
      <trkpt lat="48.67109" lon="-3.92304">
        <ele>8</ele>
        <time>2024-05-09T08:36:29Z</time>
      </trkpt>
      <trkpt lat="48.67126" lon="-3.92298">
        <ele>7.8</ele>
        <time>2024-05-09T08:36:41Z</time>
      </trkpt>
      <trkpt lat="48.67137" lon="-3.92295">
        <ele>7.8</ele>
        <time>2024-05-09T08:36:49Z</time>
      </trkpt>
      <trkpt lat="48.67154" lon="-3.92289">
        <ele>8</ele>
        <time>2024-05-09T08:37:00Z</time>
      </trkpt>
      <trkpt lat="48.67164" lon="-3.92283">
        <ele>8.2</ele>
        <time>2024-05-09T08:37:09Z</time>
      </trkpt>
      <trkpt lat="48.67165" lon="-3.9228">
        <ele>8.4</ele>
        <time>2024-05-09T08:37:11Z</time>
      </trkpt>
      <trkpt lat="48.67171" lon="-3.92277">
        <ele>8.8</ele>
        <time>2024-05-09T08:37:15Z</time>
      </trkpt>
      <trkpt lat="48.67179" lon="-3.92268">
        <ele>9</ele>
        <time>2024-05-09T08:37:22Z</time>
      </trkpt>
      <trkpt lat="48.67181" lon="-3.92267">
        <ele>9</ele>
        <time>2024-05-09T08:37:23Z</time>
      </trkpt>
      <trkpt lat="48.6719" lon="-3.92267">
        <ele>9.2</ele>
        <time>2024-05-09T08:37:29Z</time>
      </trkpt>
      <trkpt lat="48.67202" lon="-3.92267">
        <ele>9.6</ele>
        <time>2024-05-09T08:37:37Z</time>
      </trkpt>
      <trkpt lat="48.67212" lon="-3.92265">
        <ele>9.4</ele>
        <time>2024-05-09T08:37:44Z</time>
      </trkpt>
      <trkpt lat="48.6722" lon="-3.92262">
        <ele>9.8</ele>
        <time>2024-05-09T08:37:51Z</time>
      </trkpt>
      <trkpt lat="48.67233" lon="-3.92263">
        <ele>9.8</ele>
        <time>2024-05-09T08:38:00Z</time>
      </trkpt>
      <trkpt lat="48.67248" lon="-3.92265">
        <ele>10</ele>
        <time>2024-05-09T08:38:10Z</time>
      </trkpt>
      <trkpt lat="48.6725" lon="-3.92265">
        <ele>10.2</ele>
        <time>2024-05-09T08:38:12Z</time>
      </trkpt>
      <trkpt lat="48.6726" lon="-3.92265">
        <ele>10.2</ele>
        <time>2024-05-09T08:38:19Z</time>
      </trkpt>
      <trkpt lat="48.67263" lon="-3.92266">
        <ele>10.2</ele>
        <time>2024-05-09T08:38:21Z</time>
      </trkpt>
      <trkpt lat="48.67276" lon="-3.92271">
        <ele>10.4</ele>
        <time>2024-05-09T08:38:30Z</time>
      </trkpt>
      <trkpt lat="48.67288" lon="-3.92275">
        <ele>10.6</ele>
        <time>2024-05-09T08:38:38Z</time>
      </trkpt>
      <trkpt lat="48.67303" lon="-3.92279">
        <ele>10.6</ele>
        <time>2024-05-09T08:38:48Z</time>
      </trkpt>
      <trkpt lat="48.67314" lon="-3.92288">
        <ele>10.4</ele>
        <time>2024-05-09T08:38:56Z</time>
      </trkpt>
      <trkpt lat="48.6732" lon="-3.92292">
        <ele>10.4</ele>
        <time>2024-05-09T08:39:01Z</time>
      </trkpt>
      <trkpt lat="48.67323" lon="-3.92298">
        <ele>10.4</ele>
        <time>2024-05-09T08:39:04Z</time>
      </trkpt>
      <trkpt lat="48.67333" lon="-3.92309">
        <ele>9.8</ele>
        <time>2024-05-09T08:39:13Z</time>
      </trkpt>
      <trkpt lat="48.67344" lon="-3.92315">
        <ele>9</ele>
        <time>2024-05-09T08:39:21Z</time>
      </trkpt>
      <trkpt lat="48.67354" lon="-3.92321">
        <ele>8</ele>
        <time>2024-05-09T08:39:28Z</time>
      </trkpt>
      <trkpt lat="48.67361" lon="-3.92324">
        <ele>8</ele>
        <time>2024-05-09T08:39:33Z</time>
      </trkpt>
      <trkpt lat="48.6737" lon="-3.9233">
        <ele>7.6</ele>
        <time>2024-05-09T08:39:40Z</time>
      </trkpt>
      <trkpt lat="48.6737" lon="-3.92333">
        <ele>8</ele>
        <time>2024-05-09T08:39:46Z</time>
      </trkpt>
      <trkpt lat="48.67369" lon="-3.92332">
        <ele>8</ele>
        <time>2024-05-09T08:39:47Z</time>
      </trkpt>
      <trkpt lat="48.67361" lon="-3.92328">
        <ele>7.8</ele>
        <time>2024-05-09T08:39:53Z</time>
      </trkpt>
      <trkpt lat="48.67351" lon="-3.92322">
        <ele>8.2</ele>
        <time>2024-05-09T08:40:00Z</time>
      </trkpt>
      <trkpt lat="48.67339" lon="-3.92316">
        <ele>8.6</ele>
        <time>2024-05-09T08:40:08Z</time>
      </trkpt>
      <trkpt lat="48.67338" lon="-3.92315">
        <ele>9.4</ele>
        <time>2024-05-09T08:40:09Z</time>
      </trkpt>
      <trkpt lat="48.67327" lon="-3.92306">
        <ele>10</ele>
        <time>2024-05-09T08:40:18Z</time>
      </trkpt>
      <trkpt lat="48.67322" lon="-3.92291">
        <ele>10.4</ele>
        <time>2024-05-09T08:40:27Z</time>
      </trkpt>
      <trkpt lat="48.67327" lon="-3.9228">
        <ele>11</ele>
        <time>2024-05-09T08:40:34Z</time>
      </trkpt>
      <trkpt lat="48.67329" lon="-3.92275">
        <ele>10.8</ele>
        <time>2024-05-09T08:40:37Z</time>
      </trkpt>
      <trkpt lat="48.67331" lon="-3.92274">
        <ele>10.8</ele>
        <time>2024-05-09T08:40:39Z</time>
      </trkpt>
      <trkpt lat="48.67334" lon="-3.92273">
        <ele>10.8</ele>
        <time>2024-05-09T08:40:41Z</time>
      </trkpt>
      <trkpt lat="48.6734" lon="-3.92273">
        <ele>11</ele>
        <time>2024-05-09T08:40:45Z</time>
      </trkpt>
      <trkpt lat="48.67345" lon="-3.92273">
        <ele>10.6</ele>
        <time>2024-05-09T08:40:49Z</time>
      </trkpt>
      <trkpt lat="48.6735" lon="-3.92274">
        <ele>10.6</ele>
        <time>2024-05-09T08:40:52Z</time>
      </trkpt>
      <trkpt lat="48.67363" lon="-3.92281">
        <ele>10.8</ele>
        <time>2024-05-09T08:41:00Z</time>
      </trkpt>
      <trkpt lat="48.67374" lon="-3.92284">
        <ele>11</ele>
        <time>2024-05-09T08:41:08Z</time>
      </trkpt>
      <trkpt lat="48.67389" lon="-3.92292">
        <ele>11.4</ele>
        <time>2024-05-09T08:41:18Z</time>
      </trkpt>
      <trkpt lat="48.67404" lon="-3.92298">
        <ele>11.2</ele>
        <time>2024-05-09T08:41:28Z</time>
      </trkpt>
      <trkpt lat="48.67411" lon="-3.92299">
        <ele>11.4</ele>
        <time>2024-05-09T08:41:33Z</time>
      </trkpt>
      <trkpt lat="48.67414" lon="-3.92299">
        <ele>11.6</ele>
        <time>2024-05-09T08:41:35Z</time>
      </trkpt>
      <trkpt lat="48.67417" lon="-3.92299">
        <ele>11.6</ele>
        <time>2024-05-09T08:41:37Z</time>
      </trkpt>
      <trkpt lat="48.67419" lon="-3.92297">
        <ele>11.6</ele>
        <time>2024-05-09T08:41:39Z</time>
      </trkpt>
      <trkpt lat="48.67422" lon="-3.92296">
        <ele>11.4</ele>
        <time>2024-05-09T08:41:41Z</time>
      </trkpt>
      <trkpt lat="48.67432" lon="-3.92289">
        <ele>11.6</ele>
        <time>2024-05-09T08:41:48Z</time>
      </trkpt>
      <trkpt lat="48.67434" lon="-3.92288">
        <ele>11.6</ele>
        <time>2024-05-09T08:41:49Z</time>
      </trkpt>
      <trkpt lat="48.67435" lon="-3.92277">
        <ele>11.8</ele>
        <time>2024-05-09T08:41:54Z</time>
      </trkpt>
      <trkpt lat="48.67436" lon="-3.92274">
        <ele>11.8</ele>
        <time>2024-05-09T08:41:56Z</time>
      </trkpt>
      <trkpt lat="48.67438" lon="-3.92274">
        <ele>12</ele>
        <time>2024-05-09T08:41:58Z</time>
      </trkpt>
      <trkpt lat="48.67448" lon="-3.92273">
        <ele>12.4</ele>
        <time>2024-05-09T08:42:05Z</time>
      </trkpt>
      <trkpt lat="48.67458" lon="-3.92265">
        <ele>11.8</ele>
        <time>2024-05-09T08:42:13Z</time>
      </trkpt>
      <trkpt lat="48.67465" lon="-3.9226">
        <ele>11.6</ele>
        <time>2024-05-09T08:42:19Z</time>
      </trkpt>
      <trkpt lat="48.67476" lon="-3.92249">
        <ele>11.4</ele>
        <time>2024-05-09T08:42:28Z</time>
      </trkpt>
      <trkpt lat="48.67485" lon="-3.92244">
        <ele>11</ele>
        <time>2024-05-09T08:42:36Z</time>
      </trkpt>
      <trkpt lat="48.67486" lon="-3.92246">
        <ele>11</ele>
        <time>2024-05-09T08:42:37Z</time>
      </trkpt>
      <trkpt lat="48.67486" lon="-3.92247">
        <ele>11</ele>
        <time>2024-05-09T08:42:38Z</time>
      </trkpt>
      <trkpt lat="48.67486" lon="-3.92255">
        <ele>11</ele>
        <time>2024-05-09T08:42:43Z</time>
      </trkpt>
      <trkpt lat="48.67485" lon="-3.92258">
        <ele>10.8</ele>
        <time>2024-05-09T08:42:47Z</time>
      </trkpt>
      <trkpt lat="48.67498" lon="-3.92258">
        <ele>10</ele>
        <time>2024-05-09T08:43:29Z</time>
      </trkpt>
      <trkpt lat="48.675" lon="-3.92247">
        <ele>9.6</ele>
        <time>2024-05-09T08:43:35Z</time>
      </trkpt>
      <trkpt lat="48.67513" lon="-3.92238">
        <ele>9.8</ele>
        <time>2024-05-09T08:43:45Z</time>
      </trkpt>
      <trkpt lat="48.67521" lon="-3.92229">
        <ele>9.6</ele>
        <time>2024-05-09T08:43:52Z</time>
      </trkpt>
      <trkpt lat="48.6753" lon="-3.92217">
        <ele>9.6</ele>
        <time>2024-05-09T08:44:01Z</time>
      </trkpt>
      <trkpt lat="48.67533" lon="-3.92202">
        <ele>9.2</ele>
        <time>2024-05-09T08:44:10Z</time>
      </trkpt>
      <trkpt lat="48.67533" lon="-3.922">
        <ele>9.2</ele>
        <time>2024-05-09T08:44:11Z</time>
      </trkpt>
      <trkpt lat="48.67533" lon="-3.92193">
        <ele>8.8</ele>
        <time>2024-05-09T08:44:14Z</time>
      </trkpt>
      <trkpt lat="48.67531" lon="-3.92188">
        <ele>8.2</ele>
        <time>2024-05-09T08:44:17Z</time>
      </trkpt>
      <trkpt lat="48.6753" lon="-3.92187">
        <ele>7.8</ele>
        <time>2024-05-09T08:44:18Z</time>
      </trkpt>
      <trkpt lat="48.67526" lon="-3.92175">
        <ele>6.8</ele>
        <time>2024-05-09T08:44:24Z</time>
      </trkpt>
      <trkpt lat="48.67525" lon="-3.92174">
        <ele>6.8</ele>
        <time>2024-05-09T08:44:25Z</time>
      </trkpt>
      <trkpt lat="48.67518" lon="-3.92163">
        <ele>6.2</ele>
        <time>2024-05-09T08:44:33Z</time>
      </trkpt>
      <trkpt lat="48.67509" lon="-3.92144">
        <ele>5.8</ele>
        <time>2024-05-09T08:44:46Z</time>
      </trkpt>
      <trkpt lat="48.67506" lon="-3.92137">
        <ele>5.6</ele>
        <time>2024-05-09T08:44:51Z</time>
      </trkpt>
      <trkpt lat="48.67506" lon="-3.92135">
        <ele>5.6</ele>
        <time>2024-05-09T08:44:53Z</time>
      </trkpt>
      <trkpt lat="48.67506" lon="-3.92134">
        <ele>5.6</ele>
        <time>2024-05-09T08:44:55Z</time>
      </trkpt>
      <trkpt lat="48.67504" lon="-3.92135">
        <ele>5.4</ele>
        <time>2024-05-09T08:45:02Z</time>
      </trkpt>
      <trkpt lat="48.67508" lon="-3.92139">
        <ele>5.4</ele>
        <time>2024-05-09T08:45:08Z</time>
      </trkpt>
      <trkpt lat="48.67511" lon="-3.92145">
        <ele>5.2</ele>
        <time>2024-05-09T08:45:15Z</time>
      </trkpt>
      <trkpt lat="48.67515" lon="-3.9215">
        <ele>5.4</ele>
        <time>2024-05-09T08:45:21Z</time>
      </trkpt>
      <trkpt lat="48.67523" lon="-3.92164">
        <ele>5.6</ele>
        <time>2024-05-09T08:45:31Z</time>
      </trkpt>
      <trkpt lat="48.67531" lon="-3.92174">
        <ele>5.8</ele>
        <time>2024-05-09T08:45:40Z</time>
      </trkpt>
      <trkpt lat="48.67533" lon="-3.92175">
        <ele>5.8</ele>
        <time>2024-05-09T08:45:41Z</time>
      </trkpt>
      <trkpt lat="48.67537" lon="-3.92178">
        <ele>6</ele>
        <time>2024-05-09T08:45:45Z</time>
      </trkpt>
      <trkpt lat="48.6754" lon="-3.92177">
        <ele>6</ele>
        <time>2024-05-09T08:45:47Z</time>
      </trkpt>
      <trkpt lat="48.67547" lon="-3.92175">
        <ele>6</ele>
        <time>2024-05-09T08:45:54Z</time>
      </trkpt>
      <trkpt lat="48.67556" lon="-3.92173">
        <ele>5.4</ele>
        <time>2024-05-09T08:46:01Z</time>
      </trkpt>
      <trkpt lat="48.67568" lon="-3.92177">
        <ele>5.6</ele>
        <time>2024-05-09T08:46:11Z</time>
      </trkpt>
      <trkpt lat="48.67584" lon="-3.92182">
        <ele>5</ele>
        <time>2024-05-09T08:46:24Z</time>
      </trkpt>
      <trkpt lat="48.67585" lon="-3.92184">
        <ele>5</ele>
        <time>2024-05-09T08:46:26Z</time>
      </trkpt>
      <trkpt lat="48.67586" lon="-3.92185">
        <ele>5</ele>
        <time>2024-05-09T08:46:29Z</time>
      </trkpt>
      <trkpt lat="48.67588" lon="-3.92183">
        <ele>5.2</ele>
        <time>2024-05-09T08:46:33Z</time>
      </trkpt>
      <trkpt lat="48.6759" lon="-3.92182">
        <ele>5</ele>
        <time>2024-05-09T08:46:34Z</time>
      </trkpt>
      <trkpt lat="48.67594" lon="-3.92183">
        <ele>4.6</ele>
        <time>2024-05-09T08:46:37Z</time>
      </trkpt>
      <trkpt lat="48.67596" lon="-3.92184">
        <ele>4.4</ele>
        <time>2024-05-09T08:46:39Z</time>
      </trkpt>
      <trkpt lat="48.67613" lon="-3.92186">
        <ele>4.2</ele>
        <time>2024-05-09T08:46:50Z</time>
      </trkpt>
      <trkpt lat="48.67624" lon="-3.92179">
        <ele>4.2</ele>
        <time>2024-05-09T08:47:00Z</time>
      </trkpt>
      <trkpt lat="48.67632" lon="-3.9217">
        <ele>4.8</ele>
        <time>2024-05-09T08:47:09Z</time>
      </trkpt>
      <trkpt lat="48.67639" lon="-3.9216">
        <ele>4.8</ele>
        <time>2024-05-09T08:47:18Z</time>
      </trkpt>
      <trkpt lat="48.67641" lon="-3.92158">
        <ele>4.8</ele>
        <time>2024-05-09T08:47:21Z</time>
      </trkpt>
      <trkpt lat="48.67633" lon="-3.92168">
        <ele>5.4</ele>
        <time>2024-05-09T08:48:25Z</time>
      </trkpt>
      <trkpt lat="48.67633" lon="-3.92168">
        <ele>5.4</ele>
        <time>2024-05-09T08:48:27Z</time>
      </trkpt>
      <trkpt lat="48.67631" lon="-3.92174">
        <ele>5.2</ele>
        <time>2024-05-09T08:48:32Z</time>
      </trkpt>
      <trkpt lat="48.6763" lon="-3.92187">
        <ele>5</ele>
        <time>2024-05-09T08:48:39Z</time>
      </trkpt>
      <trkpt lat="48.6763" lon="-3.92188">
        <ele>5</ele>
        <time>2024-05-09T08:48:40Z</time>
      </trkpt>
      <trkpt lat="48.67627" lon="-3.92198">
        <ele>4.8</ele>
        <time>2024-05-09T08:48:48Z</time>
      </trkpt>
      <trkpt lat="48.67628" lon="-3.922">
        <ele>4.8</ele>
        <time>2024-05-09T08:48:49Z</time>
      </trkpt>
      <trkpt lat="48.67627" lon="-3.92203">
        <ele>4.6</ele>
        <time>2024-05-09T08:48:53Z</time>
      </trkpt>
      <trkpt lat="48.67626" lon="-3.92207">
        <ele>4.6</ele>
        <time>2024-05-09T08:48:55Z</time>
      </trkpt>
      <trkpt lat="48.67625" lon="-3.92217">
        <ele>4.2</ele>
        <time>2024-05-09T08:49:01Z</time>
      </trkpt>
      <trkpt lat="48.67624" lon="-3.92217">
        <ele>4.2</ele>
        <time>2024-05-09T08:49:02Z</time>
      </trkpt>
      <trkpt lat="48.67617" lon="-3.92225">
        <ele>4</ele>
        <time>2024-05-09T08:49:10Z</time>
      </trkpt>
      <trkpt lat="48.67609" lon="-3.92229">
        <ele>4.4</ele>
        <time>2024-05-09T08:49:20Z</time>
      </trkpt>
      <trkpt lat="48.67607" lon="-3.9223">
        <ele>4.6</ele>
        <time>2024-05-09T08:49:22Z</time>
      </trkpt>
      <trkpt lat="48.67606" lon="-3.9223">
        <ele>4.6</ele>
        <time>2024-05-09T08:49:24Z</time>
      </trkpt>
      <trkpt lat="48.67604" lon="-3.92232">
        <ele>4.6</ele>
        <time>2024-05-09T08:49:26Z</time>
      </trkpt>
      <trkpt lat="48.67601" lon="-3.92237">
        <ele>5</ele>
        <time>2024-05-09T08:49:32Z</time>
      </trkpt>
      <trkpt lat="48.67596" lon="-3.92239">
        <ele>5.2</ele>
        <time>2024-05-09T08:49:39Z</time>
      </trkpt>
      <trkpt lat="48.67594" lon="-3.92243">
        <ele>5.4</ele>
        <time>2024-05-09T08:49:44Z</time>
      </trkpt>
      <trkpt lat="48.6759" lon="-3.92246">
        <ele>5.4</ele>
        <time>2024-05-09T08:49:50Z</time>
      </trkpt>
      <trkpt lat="48.67586" lon="-3.92249">
        <ele>5.4</ele>
        <time>2024-05-09T08:49:57Z</time>
      </trkpt>
      <trkpt lat="48.67582" lon="-3.9225">
        <ele>4.8</ele>
        <time>2024-05-09T08:50:04Z</time>
      </trkpt>
      <trkpt lat="48.67574" lon="-3.92252">
        <ele>4.8</ele>
        <time>2024-05-09T08:50:11Z</time>
      </trkpt>
      <trkpt lat="48.67565" lon="-3.92258">
        <ele>4.6</ele>
        <time>2024-05-09T08:50:19Z</time>
      </trkpt>
      <trkpt lat="48.67553" lon="-3.92263">
        <ele>4.4</ele>
        <time>2024-05-09T08:50:30Z</time>
      </trkpt>
      <trkpt lat="48.67545" lon="-3.92262">
        <ele>5</ele>
        <time>2024-05-09T08:50:37Z</time>
      </trkpt>
      <trkpt lat="48.67542" lon="-3.92262">
        <ele>5.2</ele>
        <time>2024-05-09T08:50:39Z</time>
      </trkpt>
      <trkpt lat="48.67536" lon="-3.92264">
        <ele>5.8</ele>
        <time>2024-05-09T08:50:44Z</time>
      </trkpt>
      <trkpt lat="48.67531" lon="-3.92266">
        <ele>6.4</ele>
        <time>2024-05-09T08:50:48Z</time>
      </trkpt>
      <trkpt lat="48.6753" lon="-3.92266">
        <ele>6.6</ele>
        <time>2024-05-09T08:50:50Z</time>
      </trkpt>
      <trkpt lat="48.67526" lon="-3.92264">
        <ele>7</ele>
        <time>2024-05-09T08:50:54Z</time>
      </trkpt>
      <trkpt lat="48.67517" lon="-3.92256">
        <ele>8</ele>
        <time>2024-05-09T08:51:04Z</time>
      </trkpt>
      <trkpt lat="48.67517" lon="-3.92255">
        <ele>8</ele>
        <time>2024-05-09T08:51:05Z</time>
      </trkpt>
      <trkpt lat="48.67514" lon="-3.92249">
        <ele>8.4</ele>
        <time>2024-05-09T08:51:10Z</time>
      </trkpt>
      <trkpt lat="48.67512" lon="-3.92246">
        <ele>8.8</ele>
        <time>2024-05-09T08:51:13Z</time>
      </trkpt>
      <trkpt lat="48.67508" lon="-3.92244">
        <ele>9</ele>
        <time>2024-05-09T08:51:16Z</time>
      </trkpt>
      <trkpt lat="48.67508" lon="-3.92243">
        <ele>9</ele>
        <time>2024-05-09T08:51:17Z</time>
      </trkpt>
      <trkpt lat="48.67506" lon="-3.92241">
        <ele>9.2</ele>
        <time>2024-05-09T08:51:19Z</time>
      </trkpt>
      <trkpt lat="48.675" lon="-3.92245">
        <ele>9.4</ele>
        <time>2024-05-09T08:51:25Z</time>
      </trkpt>
      <trkpt lat="48.67487" lon="-3.92251">
        <ele>9.2</ele>
        <time>2024-05-09T08:51:35Z</time>
      </trkpt>
      <trkpt lat="48.67478" lon="-3.92251">
        <ele>9.4</ele>
        <time>2024-05-09T08:51:44Z</time>
      </trkpt>
      <trkpt lat="48.67478" lon="-3.92251">
        <ele>9.4</ele>
        <time>2024-05-09T08:51:45Z</time>
      </trkpt>
      <trkpt lat="48.67478" lon="-3.92252">
        <ele>9.4</ele>
        <time>2024-05-09T08:51:46Z</time>
      </trkpt>
      <trkpt lat="48.6748" lon="-3.92254">
        <ele>8.6</ele>
        <time>2024-05-09T08:51:49Z</time>
      </trkpt>
      <trkpt lat="48.67481" lon="-3.92255">
        <ele>7.8</ele>
        <time>2024-05-09T08:51:51Z</time>
      </trkpt>
      <trkpt lat="48.67482" lon="-3.92257">
        <ele>6.6</ele>
        <time>2024-05-09T08:51:55Z</time>
      </trkpt>
      <trkpt lat="48.67484" lon="-3.92258">
        <ele>5.6</ele>
        <time>2024-05-09T08:51:58Z</time>
      </trkpt>
      <trkpt lat="48.67485" lon="-3.9226">
        <ele>5.6</ele>
        <time>2024-05-09T08:51:59Z</time>
      </trkpt>
      <trkpt lat="48.67483" lon="-3.92273">
        <ele>4.8</ele>
        <time>2024-05-09T08:52:05Z</time>
      </trkpt>
      <trkpt lat="48.67483" lon="-3.92276">
        <ele>5</ele>
        <time>2024-05-09T08:52:08Z</time>
      </trkpt>
      <trkpt lat="48.67481" lon="-3.92281">
        <ele>5</ele>
        <time>2024-05-09T08:52:11Z</time>
      </trkpt>
      <trkpt lat="48.67478" lon="-3.92286">
        <ele>4.8</ele>
        <time>2024-05-09T08:52:15Z</time>
      </trkpt>
      <trkpt lat="48.67479" lon="-3.92289">
        <ele>4.8</ele>
        <time>2024-05-09T08:52:17Z</time>
      </trkpt>
      <trkpt lat="48.67478" lon="-3.92292">
        <ele>4.8</ele>
        <time>2024-05-09T08:52:19Z</time>
      </trkpt>
      <trkpt lat="48.67474" lon="-3.92297">
        <ele>4.6</ele>
        <time>2024-05-09T08:52:23Z</time>
      </trkpt>
      <trkpt lat="48.67463" lon="-3.92306">
        <ele>4.8</ele>
        <time>2024-05-09T08:52:32Z</time>
      </trkpt>
      <trkpt lat="48.67456" lon="-3.92318">
        <ele>5.2</ele>
        <time>2024-05-09T08:52:40Z</time>
      </trkpt>
      <trkpt lat="48.67447" lon="-3.92328">
        <ele>5.6</ele>
        <time>2024-05-09T08:52:50Z</time>
      </trkpt>
      <trkpt lat="48.67437" lon="-3.92343">
        <ele>5.8</ele>
        <time>2024-05-09T08:53:00Z</time>
      </trkpt>
      <trkpt lat="48.67436" lon="-3.92349">
        <ele>5.2</ele>
        <time>2024-05-09T08:53:07Z</time>
      </trkpt>
      <trkpt lat="48.67435" lon="-3.92352">
        <ele>4.8</ele>
        <time>2024-05-09T08:53:13Z</time>
      </trkpt>
      <trkpt lat="48.6743" lon="-3.92363">
        <ele>4.4</ele>
        <time>2024-05-09T08:53:19Z</time>
      </trkpt>
      <trkpt lat="48.67427" lon="-3.92376">
        <ele>4.4</ele>
        <time>2024-05-09T08:53:26Z</time>
      </trkpt>
      <trkpt lat="48.6743" lon="-3.92394">
        <ele>3.8</ele>
        <time>2024-05-09T08:53:35Z</time>
      </trkpt>
      <trkpt lat="48.67435" lon="-3.92407">
        <ele>3.6</ele>
        <time>2024-05-09T08:53:42Z</time>
      </trkpt>
      <trkpt lat="48.67434" lon="-3.92413">
        <ele>3.8</ele>
        <time>2024-05-09T08:53:49Z</time>
      </trkpt>
      <trkpt lat="48.67434" lon="-3.92423">
        <ele>3.6</ele>
        <time>2024-05-09T08:53:54Z</time>
      </trkpt>
      <trkpt lat="48.67435" lon="-3.92425">
        <ele>3.4</ele>
        <time>2024-05-09T08:53:55Z</time>
      </trkpt>
      <trkpt lat="48.67438" lon="-3.92444">
        <ele>2.6</ele>
        <time>2024-05-09T08:54:04Z</time>
      </trkpt>
      <trkpt lat="48.67447" lon="-3.92459">
        <ele>2.8</ele>
        <time>2024-05-09T08:54:13Z</time>
      </trkpt>
      <trkpt lat="48.67453" lon="-3.92466">
        <ele>2.6</ele>
        <time>2024-05-09T08:54:19Z</time>
      </trkpt>
      <trkpt lat="48.67467" lon="-3.92477">
        <ele>2.6</ele>
        <time>2024-05-09T08:54:30Z</time>
      </trkpt>
      <trkpt lat="48.67479" lon="-3.9248">
        <ele>3</ele>
        <time>2024-05-09T08:54:39Z</time>
      </trkpt>
      <trkpt lat="48.67493" lon="-3.92476">
        <ele>3</ele>
        <time>2024-05-09T08:54:49Z</time>
      </trkpt>
      <trkpt lat="48.67509" lon="-3.92472">
        <ele>3.2</ele>
        <time>2024-05-09T08:55:01Z</time>
      </trkpt>
      <trkpt lat="48.6751" lon="-3.92471">
        <ele>3.2</ele>
        <time>2024-05-09T08:55:02Z</time>
      </trkpt>
      <trkpt lat="48.67521" lon="-3.92472">
        <ele>3</ele>
        <time>2024-05-09T08:55:10Z</time>
      </trkpt>
      <trkpt lat="48.67536" lon="-3.92474">
        <ele>2.8</ele>
        <time>2024-05-09T08:55:21Z</time>
      </trkpt>
      <trkpt lat="48.67546" lon="-3.92473">
        <ele>2.8</ele>
        <time>2024-05-09T08:55:29Z</time>
      </trkpt>
      <trkpt lat="48.6756" lon="-3.92472">
        <ele>2.6</ele>
        <time>2024-05-09T08:55:39Z</time>
      </trkpt>
      <trkpt lat="48.67564" lon="-3.92473">
        <ele>2.4</ele>
        <time>2024-05-09T08:56:14Z</time>
      </trkpt>
      <trkpt lat="48.67564" lon="-3.92473">
        <ele>2.4</ele>
        <time>2024-05-09T08:56:15Z</time>
      </trkpt>
      <trkpt lat="48.67559" lon="-3.92474">
        <ele>2.4</ele>
        <time>2024-05-09T08:56:20Z</time>
      </trkpt>
      <trkpt lat="48.67558" lon="-3.92473">
        <ele>2.4</ele>
        <time>2024-05-09T08:56:21Z</time>
      </trkpt>
      <trkpt lat="48.67546" lon="-3.92475">
        <ele>2.2</ele>
        <time>2024-05-09T08:56:28Z</time>
      </trkpt>
      <trkpt lat="48.67539" lon="-3.92481">
        <ele>2.2</ele>
        <time>2024-05-09T08:56:35Z</time>
      </trkpt>
      <trkpt lat="48.67527" lon="-3.92488">
        <ele>2.6</ele>
        <time>2024-05-09T08:56:46Z</time>
      </trkpt>
      <trkpt lat="48.67517" lon="-3.92496">
        <ele>2.6</ele>
        <time>2024-05-09T08:56:55Z</time>
      </trkpt>
      <trkpt lat="48.67508" lon="-3.92506">
        <ele>2.8</ele>
        <time>2024-05-09T08:57:04Z</time>
      </trkpt>
      <trkpt lat="48.67501" lon="-3.92521">
        <ele>3.2</ele>
        <time>2024-05-09T08:57:14Z</time>
      </trkpt>
      <trkpt lat="48.67496" lon="-3.92535">
        <ele>3.4</ele>
        <time>2024-05-09T08:57:23Z</time>
      </trkpt>
      <trkpt lat="48.67495" lon="-3.92537">
        <ele>3.4</ele>
        <time>2024-05-09T08:57:24Z</time>
      </trkpt>
      <trkpt lat="48.67495" lon="-3.92552">
        <ele>3.6</ele>
        <time>2024-05-09T08:57:32Z</time>
      </trkpt>
      <trkpt lat="48.67495" lon="-3.92572">
        <ele>3.4</ele>
        <time>2024-05-09T08:57:43Z</time>
      </trkpt>
      <trkpt lat="48.67497" lon="-3.92586">
        <ele>3.4</ele>
        <time>2024-05-09T08:57:50Z</time>
      </trkpt>
      <trkpt lat="48.67503" lon="-3.92608">
        <ele>3.4</ele>
        <time>2024-05-09T08:58:04Z</time>
      </trkpt>
      <trkpt lat="48.67508" lon="-3.92619">
        <ele>3.2</ele>
        <time>2024-05-09T08:58:12Z</time>
      </trkpt>
      <trkpt lat="48.67517" lon="-3.92634">
        <ele>3.2</ele>
        <time>2024-05-09T08:58:23Z</time>
      </trkpt>
      <trkpt lat="48.67519" lon="-3.92636">
        <ele>3.2</ele>
        <time>2024-05-09T08:58:26Z</time>
      </trkpt>
      <trkpt lat="48.6752" lon="-3.92638">
        <ele>3.2</ele>
        <time>2024-05-09T08:58:29Z</time>
      </trkpt>
      <trkpt lat="48.67521" lon="-3.92639">
        <ele>3.2</ele>
        <time>2024-05-09T08:58:30Z</time>
      </trkpt>
      <trkpt lat="48.67529" lon="-3.92649">
        <ele>3.6</ele>
        <time>2024-05-09T08:58:39Z</time>
      </trkpt>
      <trkpt lat="48.67541" lon="-3.92662">
        <ele>3.2</ele>
        <time>2024-05-09T08:58:50Z</time>
      </trkpt>
      <trkpt lat="48.67555" lon="-3.92671">
        <ele>3.2</ele>
        <time>2024-05-09T08:59:03Z</time>
      </trkpt>
      <trkpt lat="48.67565" lon="-3.92679">
        <ele>3.6</ele>
        <time>2024-05-09T08:59:13Z</time>
      </trkpt>
      <trkpt lat="48.67577" lon="-3.92684">
        <ele>3.8</ele>
        <time>2024-05-09T08:59:24Z</time>
      </trkpt>
      <trkpt lat="48.67583" lon="-3.92677">
        <ele>3.8</ele>
        <time>2024-05-09T08:59:32Z</time>
      </trkpt>
      <trkpt lat="48.67583" lon="-3.92674">
        <ele>3.4</ele>
        <time>2024-05-09T08:59:34Z</time>
      </trkpt>
      <trkpt lat="48.67585" lon="-3.92673">
        <ele>3.4</ele>
        <time>2024-05-09T09:00:13Z</time>
      </trkpt>
      <trkpt lat="48.67586" lon="-3.92674">
        <ele>3.4</ele>
        <time>2024-05-09T09:00:17Z</time>
      </trkpt>
      <trkpt lat="48.67586" lon="-3.92682">
        <ele>3.2</ele>
        <time>2024-05-09T09:00:21Z</time>
      </trkpt>
      <trkpt lat="48.6759" lon="-3.92697">
        <ele>2.8</ele>
        <time>2024-05-09T09:00:29Z</time>
      </trkpt>
      <trkpt lat="48.6759" lon="-3.92698">
        <ele>2.8</ele>
        <time>2024-05-09T09:00:31Z</time>
      </trkpt>
      <trkpt lat="48.67595" lon="-3.92711">
        <ele>2</ele>
        <time>2024-05-09T09:03:08Z</time>
      </trkpt>
      <trkpt lat="48.67594" lon="-3.92711">
        <ele>2</ele>
        <time>2024-05-09T09:03:10Z</time>
      </trkpt>
      <trkpt lat="48.67588" lon="-3.92715">
        <ele>1.4</ele>
        <time>2024-05-09T09:03:18Z</time>
      </trkpt>
      <trkpt lat="48.67584" lon="-3.92725">
        <ele>1.2</ele>
        <time>2024-05-09T09:03:27Z</time>
      </trkpt>
      <trkpt lat="48.67584" lon="-3.92727">
        <ele>1.2</ele>
        <time>2024-05-09T09:03:31Z</time>
      </trkpt>
      <trkpt lat="48.67584" lon="-3.92728">
        <ele>0.80000000000001</ele>
        <time>2024-05-09T09:03:48Z</time>
      </trkpt>
      <trkpt lat="48.67584" lon="-3.92728">
        <ele>0.80000000000001</ele>
        <time>2024-05-09T09:03:50Z</time>
      </trkpt>
      <trkpt lat="48.67588" lon="-3.92733">
        <ele>0.80000000000001</ele>
        <time>2024-05-09T09:03:54Z</time>
      </trkpt>
      <trkpt lat="48.67599" lon="-3.92747">
        <ele>1</ele>
        <time>2024-05-09T09:04:02Z</time>
      </trkpt>
      <trkpt lat="48.67609" lon="-3.92761">
        <ele>1.2</ele>
        <time>2024-05-09T09:04:12Z</time>
      </trkpt>
      <trkpt lat="48.67616" lon="-3.92774">
        <ele>1.4</ele>
        <time>2024-05-09T09:04:20Z</time>
      </trkpt>
      <trkpt lat="48.67621" lon="-3.92788">
        <ele>1.4</ele>
        <time>2024-05-09T09:04:29Z</time>
      </trkpt>
      <trkpt lat="48.67621" lon="-3.9279">
        <ele>1.2</ele>
        <time>2024-05-09T09:04:33Z</time>
      </trkpt>
      <trkpt lat="48.6762" lon="-3.92789">
        <ele>1.2</ele>
        <time>2024-05-09T09:04:51Z</time>
      </trkpt>
      <trkpt lat="48.67624" lon="-3.92796">
        <ele>1.4</ele>
        <time>2024-05-09T09:04:57Z</time>
      </trkpt>
      <trkpt lat="48.67634" lon="-3.92812">
        <ele>1.2</ele>
        <time>2024-05-09T09:05:06Z</time>
      </trkpt>
      <trkpt lat="48.67644" lon="-3.92829">
        <ele>1.4</ele>
        <time>2024-05-09T09:05:17Z</time>
      </trkpt>
      <trkpt lat="48.67657" lon="-3.92841">
        <ele>1.2</ele>
        <time>2024-05-09T09:05:28Z</time>
      </trkpt>
      <trkpt lat="48.67661" lon="-3.92841">
        <ele>1.8</ele>
        <time>2024-05-09T09:05:31Z</time>
      </trkpt>
      <trkpt lat="48.67667" lon="-3.92844">
        <ele>1.8</ele>
        <time>2024-05-09T09:05:36Z</time>
      </trkpt>
      <trkpt lat="48.67668" lon="-3.92844">
        <ele>1.6</ele>
        <time>2024-05-09T09:05:37Z</time>
      </trkpt>
      <trkpt lat="48.67674" lon="-3.92846">
        <ele>0.80000000000001</ele>
        <time>2024-05-09T09:05:41Z</time>
      </trkpt>
      <trkpt lat="48.67675" lon="-3.92846">
        <ele>0.60000000000002</ele>
        <time>2024-05-09T09:05:42Z</time>
      </trkpt>
      <trkpt lat="48.67687" lon="-3.92848">
        <ele>1</ele>
        <time>2024-05-09T09:05:52Z</time>
      </trkpt>
      <trkpt lat="48.67691" lon="-3.92849">
        <ele>1.2</ele>
        <time>2024-05-09T09:05:55Z</time>
      </trkpt>
      <trkpt lat="48.67699" lon="-3.9285">
        <ele>1.2</ele>
        <time>2024-05-09T09:06:02Z</time>
      </trkpt>
      <trkpt lat="48.67713" lon="-3.92846">
        <ele>1.4</ele>
        <time>2024-05-09T09:06:14Z</time>
      </trkpt>
      <trkpt lat="48.67716" lon="-3.92845">
        <ele>1.8</ele>
        <time>2024-05-09T09:06:16Z</time>
      </trkpt>
      <trkpt lat="48.67729" lon="-3.92838">
        <ele>2.6</ele>
        <time>2024-05-09T09:06:26Z</time>
      </trkpt>
      <trkpt lat="48.67735" lon="-3.92836">
        <ele>2.4</ele>
        <time>2024-05-09T09:06:30Z</time>
      </trkpt>
      <trkpt lat="48.67738" lon="-3.92834">
        <ele>2.6</ele>
        <time>2024-05-09T09:06:33Z</time>
      </trkpt>
      <trkpt lat="48.67745" lon="-3.92825">
        <ele>2.8</ele>
        <time>2024-05-09T09:06:40Z</time>
      </trkpt>
      <trkpt lat="48.67745" lon="-3.92824">
        <ele>3</ele>
        <time>2024-05-09T09:06:41Z</time>
      </trkpt>
      <trkpt lat="48.67751" lon="-3.92815">
        <ele>4.2</ele>
        <time>2024-05-09T09:06:47Z</time>
      </trkpt>
      <trkpt lat="48.67757" lon="-3.92807">
        <ele>4</ele>
        <time>2024-05-09T09:06:53Z</time>
      </trkpt>
      <trkpt lat="48.67763" lon="-3.92792">
        <ele>3.4</ele>
        <time>2024-05-09T09:07:01Z</time>
      </trkpt>
      <trkpt lat="48.67768" lon="-3.92785">
        <ele>3.2</ele>
        <time>2024-05-09T09:07:06Z</time>
      </trkpt>
      <trkpt lat="48.67769" lon="-3.92784">
        <ele>3</ele>
        <time>2024-05-09T09:07:07Z</time>
      </trkpt>
      <trkpt lat="48.6777" lon="-3.92782">
        <ele>2.8</ele>
        <time>2024-05-09T09:07:08Z</time>
      </trkpt>
      <trkpt lat="48.67771" lon="-3.92779">
        <ele>2.6</ele>
        <time>2024-05-09T09:07:10Z</time>
      </trkpt>
      <trkpt lat="48.67775" lon="-3.92774">
        <ele>2.4</ele>
        <time>2024-05-09T09:07:14Z</time>
      </trkpt>
      <trkpt lat="48.67784" lon="-3.92758">
        <ele>2.4</ele>
        <time>2024-05-09T09:07:26Z</time>
      </trkpt>
      <trkpt lat="48.67797" lon="-3.92747">
        <ele>2.8</ele>
        <time>2024-05-09T09:07:38Z</time>
      </trkpt>
      <trkpt lat="48.67809" lon="-3.92745">
        <ele>2.2</ele>
        <time>2024-05-09T09:07:49Z</time>
      </trkpt>
      <trkpt lat="48.67822" lon="-3.92742">
        <ele>2</ele>
        <time>2024-05-09T09:07:59Z</time>
      </trkpt>
      <trkpt lat="48.67824" lon="-3.92741">
        <ele>2</ele>
        <time>2024-05-09T09:08:01Z</time>
      </trkpt>
      <trkpt lat="48.67832" lon="-3.92737">
        <ele>1.4</ele>
        <time>2024-05-09T09:08:07Z</time>
      </trkpt>
      <trkpt lat="48.67833" lon="-3.92737">
        <ele>1.2</ele>
        <time>2024-05-09T09:08:08Z</time>
      </trkpt>
      <trkpt lat="48.67836" lon="-3.92733">
        <ele>1.2</ele>
        <time>2024-05-09T09:08:15Z</time>
      </trkpt>
      <trkpt lat="48.67841" lon="-3.92726">
        <ele>1</ele>
        <time>2024-05-09T09:08:20Z</time>
      </trkpt>
      <trkpt lat="48.67849" lon="-3.92716">
        <ele>1.4</ele>
        <time>2024-05-09T09:08:28Z</time>
      </trkpt>
      <trkpt lat="48.67857" lon="-3.92715">
        <ele>1.4</ele>
        <time>2024-05-09T09:08:35Z</time>
      </trkpt>
      <trkpt lat="48.67869" lon="-3.92712">
        <ele>1.4</ele>
        <time>2024-05-09T09:08:44Z</time>
      </trkpt>
      <trkpt lat="48.67875" lon="-3.92712">
        <ele>1.6</ele>
        <time>2024-05-09T09:08:50Z</time>
      </trkpt>
      <trkpt lat="48.67879" lon="-3.92713">
        <ele>1.8</ele>
        <time>2024-05-09T09:08:53Z</time>
      </trkpt>
      <trkpt lat="48.67892" lon="-3.92709">
        <ele>1.4</ele>
        <time>2024-05-09T09:09:03Z</time>
      </trkpt>
      <trkpt lat="48.67905" lon="-3.92705">
        <ele>1.4</ele>
        <time>2024-05-09T09:09:12Z</time>
      </trkpt>
      <trkpt lat="48.67913" lon="-3.92703">
        <ele>1</ele>
        <time>2024-05-09T09:09:19Z</time>
      </trkpt>
      <trkpt lat="48.67923" lon="-3.927">
        <ele>1</ele>
        <time>2024-05-09T09:09:27Z</time>
      </trkpt>
      <trkpt lat="48.67924" lon="-3.927">
        <ele>0.80000000000001</ele>
        <time>2024-05-09T09:09:28Z</time>
      </trkpt>
      <trkpt lat="48.67936" lon="-3.92701">
        <ele>0.80000000000001</ele>
        <time>2024-05-09T09:09:37Z</time>
      </trkpt>
      <trkpt lat="48.67946" lon="-3.92702">
        <ele>0.19999999999999</ele>
        <time>2024-05-09T09:09:46Z</time>
      </trkpt>
      <trkpt lat="48.67958" lon="-3.92699">
        <ele>0.80000000000001</ele>
        <time>2024-05-09T09:09:55Z</time>
      </trkpt>
      <trkpt lat="48.67959" lon="-3.92699">
        <ele>0.80000000000001</ele>
        <time>2024-05-09T09:09:56Z</time>
      </trkpt>
      <trkpt lat="48.67969" lon="-3.927">
        <ele>1.2</ele>
        <time>2024-05-09T09:10:04Z</time>
      </trkpt>
      <trkpt lat="48.6798" lon="-3.92696">
        <ele>1.2</ele>
        <time>2024-05-09T09:10:13Z</time>
      </trkpt>
      <trkpt lat="48.67988" lon="-3.92698">
        <ele>1.8</ele>
        <time>2024-05-09T09:10:20Z</time>
      </trkpt>
      <trkpt lat="48.6799" lon="-3.92702">
        <ele>2.2</ele>
        <time>2024-05-09T09:10:23Z</time>
      </trkpt>
      <trkpt lat="48.67995" lon="-3.92707">
        <ele>2.4</ele>
        <time>2024-05-09T09:10:28Z</time>
      </trkpt>
      <trkpt lat="48.68002" lon="-3.92711">
        <ele>3.2</ele>
        <time>2024-05-09T09:10:36Z</time>
      </trkpt>
      <trkpt lat="48.68005" lon="-3.92716">
        <ele>3.4</ele>
        <time>2024-05-09T09:10:42Z</time>
      </trkpt>
      <trkpt lat="48.68008" lon="-3.92719">
        <ele>2.8</ele>
        <time>2024-05-09T09:10:47Z</time>
      </trkpt>
      <trkpt lat="48.68009" lon="-3.92719">
        <ele>2.4</ele>
        <time>2024-05-09T09:10:48Z</time>
      </trkpt>
      <trkpt lat="48.6801" lon="-3.92719">
        <ele>2.2</ele>
        <time>2024-05-09T09:10:49Z</time>
      </trkpt>
      <trkpt lat="48.68019" lon="-3.92714">
        <ele>1.6</ele>
        <time>2024-05-09T09:10:55Z</time>
      </trkpt>
      <trkpt lat="48.68027" lon="-3.92709">
        <ele>2.2</ele>
        <time>2024-05-09T09:11:02Z</time>
      </trkpt>
      <trkpt lat="48.68039" lon="-3.92706">
        <ele>2.2</ele>
        <time>2024-05-09T09:11:10Z</time>
      </trkpt>
      <trkpt lat="48.68052" lon="-3.92703">
        <ele>2</ele>
        <time>2024-05-09T09:11:20Z</time>
      </trkpt>
      <trkpt lat="48.68063" lon="-3.92697">
        <ele>1.6</ele>
        <time>2024-05-09T09:11:30Z</time>
      </trkpt>
      <trkpt lat="48.68072" lon="-3.92698">
        <ele>2.2</ele>
        <time>2024-05-09T09:11:37Z</time>
      </trkpt>
      <trkpt lat="48.6808" lon="-3.92694">
        <ele>2.2</ele>
        <time>2024-05-09T09:11:44Z</time>
      </trkpt>
      <trkpt lat="48.68086" lon="-3.92693">
        <ele>2.4</ele>
        <time>2024-05-09T09:11:48Z</time>
      </trkpt>
      <trkpt lat="48.68091" lon="-3.92693">
        <ele>2.6</ele>
        <time>2024-05-09T09:11:52Z</time>
      </trkpt>
      <trkpt lat="48.681" lon="-3.92688">
        <ele>2.6</ele>
        <time>2024-05-09T09:12:00Z</time>
      </trkpt>
      <trkpt lat="48.68107" lon="-3.92678">
        <ele>2.8</ele>
        <time>2024-05-09T09:12:07Z</time>
      </trkpt>
      <trkpt lat="48.6811" lon="-3.92671">
        <ele>3.2</ele>
        <time>2024-05-09T09:12:12Z</time>
      </trkpt>
      <trkpt lat="48.6811" lon="-3.9267">
        <ele>3.4</ele>
        <time>2024-05-09T09:12:13Z</time>
      </trkpt>
      <trkpt lat="48.68112" lon="-3.92668">
        <ele>3.6</ele>
        <time>2024-05-09T09:12:15Z</time>
      </trkpt>
      <trkpt lat="48.68114" lon="-3.92664">
        <ele>3.6</ele>
        <time>2024-05-09T09:12:18Z</time>
      </trkpt>
      <trkpt lat="48.68116" lon="-3.92659">
        <ele>3.6</ele>
        <time>2024-05-09T09:12:22Z</time>
      </trkpt>
      <trkpt lat="48.68123" lon="-3.92647">
        <ele>3.8</ele>
        <time>2024-05-09T09:12:31Z</time>
      </trkpt>
      <trkpt lat="48.68125" lon="-3.92644">
        <ele>3.8</ele>
        <time>2024-05-09T09:12:33Z</time>
      </trkpt>
      <trkpt lat="48.68126" lon="-3.92638">
        <ele>3.8</ele>
        <time>2024-05-09T09:12:36Z</time>
      </trkpt>
      <trkpt lat="48.6813" lon="-3.92625">
        <ele>4.4</ele>
        <time>2024-05-09T09:12:43Z</time>
      </trkpt>
      <trkpt lat="48.6813" lon="-3.92623">
        <ele>4.2</ele>
        <time>2024-05-09T09:12:44Z</time>
      </trkpt>
      <trkpt lat="48.6813" lon="-3.92608">
        <ele>4.6</ele>
        <time>2024-05-09T09:12:52Z</time>
      </trkpt>
      <trkpt lat="48.68129" lon="-3.92591">
        <ele>4.4</ele>
        <time>2024-05-09T09:13:01Z</time>
      </trkpt>
      <trkpt lat="48.68128" lon="-3.92571">
        <ele>4.2</ele>
        <time>2024-05-09T09:13:12Z</time>
      </trkpt>
      <trkpt lat="48.68132" lon="-3.92556">
        <ele>4.4</ele>
        <time>2024-05-09T09:13:21Z</time>
      </trkpt>
      <trkpt lat="48.68136" lon="-3.92542">
        <ele>4.4</ele>
        <time>2024-05-09T09:13:29Z</time>
      </trkpt>
      <trkpt lat="48.68139" lon="-3.92529">
        <ele>4.6</ele>
        <time>2024-05-09T09:13:37Z</time>
      </trkpt>
      <trkpt lat="48.68134" lon="-3.92521">
        <ele>5.4</ele>
        <time>2024-05-09T09:13:43Z</time>
      </trkpt>
      <trkpt lat="48.68129" lon="-3.92511">
        <ele>6</ele>
        <time>2024-05-09T09:13:51Z</time>
      </trkpt>
      <trkpt lat="48.6813" lon="-3.92509">
        <ele>6</ele>
        <time>2024-05-09T09:13:52Z</time>
      </trkpt>
      <trkpt lat="48.68133" lon="-3.925">
        <ele>6.2</ele>
        <time>2024-05-09T09:13:57Z</time>
      </trkpt>
      <trkpt lat="48.68139" lon="-3.92482">
        <ele>6.2</ele>
        <time>2024-05-09T09:14:07Z</time>
      </trkpt>
      <trkpt lat="48.68141" lon="-3.92478">
        <ele>6.4</ele>
        <time>2024-05-09T09:14:09Z</time>
      </trkpt>
      <trkpt lat="48.68145" lon="-3.92469">
        <ele>6</ele>
        <time>2024-05-09T09:14:14Z</time>
      </trkpt>
      <trkpt lat="48.68148" lon="-3.92463">
        <ele>6.2</ele>
        <time>2024-05-09T09:14:18Z</time>
      </trkpt>
      <trkpt lat="48.6815" lon="-3.92458">
        <ele>6.8</ele>
        <time>2024-05-09T09:14:21Z</time>
      </trkpt>
      <trkpt lat="48.68155" lon="-3.92447">
        <ele>6.2</ele>
        <time>2024-05-09T09:14:28Z</time>
      </trkpt>
      <trkpt lat="48.68157" lon="-3.92443">
        <ele>6.4</ele>
        <time>2024-05-09T09:14:30Z</time>
      </trkpt>
      <trkpt lat="48.68164" lon="-3.92429">
        <ele>6.2</ele>
        <time>2024-05-09T09:14:39Z</time>
      </trkpt>
      <trkpt lat="48.68173" lon="-3.92418">
        <ele>5.6</ele>
        <time>2024-05-09T09:14:48Z</time>
      </trkpt>
      <trkpt lat="48.68181" lon="-3.92403">
        <ele>6.2</ele>
        <time>2024-05-09T09:14:58Z</time>
      </trkpt>
      <trkpt lat="48.68189" lon="-3.9239">
        <ele>6.6</ele>
        <time>2024-05-09T09:15:06Z</time>
      </trkpt>
      <trkpt lat="48.68195" lon="-3.92374">
        <ele>6.8</ele>
        <time>2024-05-09T09:15:15Z</time>
      </trkpt>
      <trkpt lat="48.68202" lon="-3.92361">
        <ele>7</ele>
        <time>2024-05-09T09:15:23Z</time>
      </trkpt>
      <trkpt lat="48.6821" lon="-3.92344">
        <ele>7</ele>
        <time>2024-05-09T09:15:33Z</time>
      </trkpt>
      <trkpt lat="48.68217" lon="-3.92332">
        <ele>6.6</ele>
        <time>2024-05-09T09:15:41Z</time>
      </trkpt>
      <trkpt lat="48.68224" lon="-3.92316">
        <ele>6.4</ele>
        <time>2024-05-09T09:15:50Z</time>
      </trkpt>
      <trkpt lat="48.68233" lon="-3.92307">
        <ele>6.4</ele>
        <time>2024-05-09T09:15:58Z</time>
      </trkpt>
      <trkpt lat="48.68248" lon="-3.92299">
        <ele>6.6</ele>
        <time>2024-05-09T09:16:10Z</time>
      </trkpt>
      <trkpt lat="48.68266" lon="-3.9229">
        <ele>6.8</ele>
        <time>2024-05-09T09:16:23Z</time>
      </trkpt>
      <trkpt lat="48.6828" lon="-3.92285">
        <ele>7.2</ele>
        <time>2024-05-09T09:16:33Z</time>
      </trkpt>
      <trkpt lat="48.68294" lon="-3.92278">
        <ele>7.2</ele>
        <time>2024-05-09T09:16:43Z</time>
      </trkpt>
      <trkpt lat="48.68297" lon="-3.92277">
        <ele>7.6</ele>
        <time>2024-05-09T09:16:45Z</time>
      </trkpt>
      <trkpt lat="48.68303" lon="-3.92272">
        <ele>7.6</ele>
        <time>2024-05-09T09:16:50Z</time>
      </trkpt>
      <trkpt lat="48.68318" lon="-3.92263">
        <ele>7.2</ele>
        <time>2024-05-09T09:17:01Z</time>
      </trkpt>
      <trkpt lat="48.68331" lon="-3.92257">
        <ele>7.8</ele>
        <time>2024-05-09T09:17:10Z</time>
      </trkpt>
      <trkpt lat="48.68348" lon="-3.92253">
        <ele>6.8</ele>
        <time>2024-05-09T09:17:20Z</time>
      </trkpt>
      <trkpt lat="48.68367" lon="-3.92254">
        <ele>7.8</ele>
        <time>2024-05-09T09:17:33Z</time>
      </trkpt>
      <trkpt lat="48.6837" lon="-3.92255">
        <ele>7.8</ele>
        <time>2024-05-09T09:17:35Z</time>
      </trkpt>
      <trkpt lat="48.68384" lon="-3.92262">
        <ele>8</ele>
        <time>2024-05-09T09:17:45Z</time>
      </trkpt>
      <trkpt lat="48.68397" lon="-3.92272">
        <ele>7.4</ele>
        <time>2024-05-09T09:17:55Z</time>
      </trkpt>
      <trkpt lat="48.68412" lon="-3.92284">
        <ele>7.2</ele>
        <time>2024-05-09T09:18:06Z</time>
      </trkpt>
      <trkpt lat="48.68426" lon="-3.92293">
        <ele>7</ele>
        <time>2024-05-09T09:18:16Z</time>
      </trkpt>
      <trkpt lat="48.68443" lon="-3.92307">
        <ele>7</ele>
        <time>2024-05-09T09:18:28Z</time>
      </trkpt>
      <trkpt lat="48.68444" lon="-3.92309">
        <ele>6.8</ele>
        <time>2024-05-09T09:18:29Z</time>
      </trkpt>
      <trkpt lat="48.68448" lon="-3.92311">
        <ele>7</ele>
        <time>2024-05-09T09:18:32Z</time>
      </trkpt>
      <trkpt lat="48.68452" lon="-3.92314">
        <ele>7.2</ele>
        <time>2024-05-09T09:18:35Z</time>
      </trkpt>
      <trkpt lat="48.68457" lon="-3.92318">
        <ele>7</ele>
        <time>2024-05-09T09:18:39Z</time>
      </trkpt>
      <trkpt lat="48.68463" lon="-3.92324">
        <ele>6.8</ele>
        <time>2024-05-09T09:18:43Z</time>
      </trkpt>
      <trkpt lat="48.68475" lon="-3.92335">
        <ele>7</ele>
        <time>2024-05-09T09:18:53Z</time>
      </trkpt>
      <trkpt lat="48.6849" lon="-3.92348">
        <ele>6.8</ele>
        <time>2024-05-09T09:19:04Z</time>
      </trkpt>
      <trkpt lat="48.68504" lon="-3.92359">
        <ele>7</ele>
        <time>2024-05-09T09:19:14Z</time>
      </trkpt>
      <trkpt lat="48.68516" lon="-3.92368">
        <ele>6.8</ele>
        <time>2024-05-09T09:19:24Z</time>
      </trkpt>
      <trkpt lat="48.68529" lon="-3.92377">
        <ele>7.2</ele>
        <time>2024-05-09T09:19:33Z</time>
      </trkpt>
      <trkpt lat="48.68538" lon="-3.92382">
        <ele>7</ele>
        <time>2024-05-09T09:19:40Z</time>
      </trkpt>
      <trkpt lat="48.68554" lon="-3.92396">
        <ele>7</ele>
        <time>2024-05-09T09:19:52Z</time>
      </trkpt>
      <trkpt lat="48.68563" lon="-3.92402">
        <ele>7.6</ele>
        <time>2024-05-09T09:19:59Z</time>
      </trkpt>
      <trkpt lat="48.68579" lon="-3.92416">
        <ele>7.4</ele>
        <time>2024-05-09T09:20:11Z</time>
      </trkpt>
      <trkpt lat="48.68589" lon="-3.92426">
        <ele>7.6</ele>
        <time>2024-05-09T09:20:19Z</time>
      </trkpt>
      <trkpt lat="48.68602" lon="-3.92438">
        <ele>7.6</ele>
        <time>2024-05-09T09:20:28Z</time>
      </trkpt>
      <trkpt lat="48.6861" lon="-3.92448">
        <ele>7.4</ele>
        <time>2024-05-09T09:20:36Z</time>
      </trkpt>
      <trkpt lat="48.68621" lon="-3.92461">
        <ele>7.4</ele>
        <time>2024-05-09T09:20:45Z</time>
      </trkpt>
      <trkpt lat="48.68631" lon="-3.92472">
        <ele>7.8</ele>
        <time>2024-05-09T09:20:53Z</time>
      </trkpt>
      <trkpt lat="48.68638" lon="-3.9248">
        <ele>7.6</ele>
        <time>2024-05-09T09:21:00Z</time>
      </trkpt>
      <trkpt lat="48.68653" lon="-3.92495">
        <ele>7.8</ele>
        <time>2024-05-09T09:21:11Z</time>
      </trkpt>
      <trkpt lat="48.68663" lon="-3.925">
        <ele>7.4</ele>
        <time>2024-05-09T09:21:19Z</time>
      </trkpt>
      <trkpt lat="48.68672" lon="-3.92507">
        <ele>8.2</ele>
        <time>2024-05-09T09:21:26Z</time>
      </trkpt>
      <trkpt lat="48.68681" lon="-3.92513">
        <ele>8.2</ele>
        <time>2024-05-09T09:21:32Z</time>
      </trkpt>
      <trkpt lat="48.68691" lon="-3.92516">
        <ele>8</ele>
        <time>2024-05-09T09:21:39Z</time>
      </trkpt>
      <trkpt lat="48.68704" lon="-3.92523">
        <ele>8.4</ele>
        <time>2024-05-09T09:21:48Z</time>
      </trkpt>
      <trkpt lat="48.68712" lon="-3.92529">
        <ele>8.6</ele>
        <time>2024-05-09T09:21:55Z</time>
      </trkpt>
      <trkpt lat="48.68714" lon="-3.92532">
        <ele>8.8</ele>
        <time>2024-05-09T09:21:57Z</time>
      </trkpt>
      <trkpt lat="48.68724" lon="-3.9254">
        <ele>9</ele>
        <time>2024-05-09T09:22:05Z</time>
      </trkpt>
      <trkpt lat="48.68739" lon="-3.92556">
        <ele>9</ele>
        <time>2024-05-09T09:22:16Z</time>
      </trkpt>
      <trkpt lat="48.68752" lon="-3.92566">
        <ele>9.2</ele>
        <time>2024-05-09T09:22:25Z</time>
      </trkpt>
      <trkpt lat="48.68762" lon="-3.92575">
        <ele>9.2</ele>
        <time>2024-05-09T09:22:33Z</time>
      </trkpt>
      <trkpt lat="48.68764" lon="-3.92577">
        <ele>9.2</ele>
        <time>2024-05-09T09:22:34Z</time>
      </trkpt>
      <trkpt lat="48.68768" lon="-3.9258">
        <ele>9.6</ele>
        <time>2024-05-09T09:22:37Z</time>
      </trkpt>
      <trkpt lat="48.6877" lon="-3.92581">
        <ele>9.6</ele>
        <time>2024-05-09T09:22:39Z</time>
      </trkpt>
      <trkpt lat="48.68784" lon="-3.92586">
        <ele>9.8</ele>
        <time>2024-05-09T09:22:49Z</time>
      </trkpt>
      <trkpt lat="48.68798" lon="-3.92586">
        <ele>9.4</ele>
        <time>2024-05-09T09:22:58Z</time>
      </trkpt>
      <trkpt lat="48.68815" lon="-3.92576">
        <ele>9</ele>
        <time>2024-05-09T09:23:11Z</time>
      </trkpt>
      <trkpt lat="48.6883" lon="-3.92568">
        <ele>9.2</ele>
        <time>2024-05-09T09:23:22Z</time>
      </trkpt>
      <trkpt lat="48.68843" lon="-3.92562">
        <ele>9.4</ele>
        <time>2024-05-09T09:23:32Z</time>
      </trkpt>
      <trkpt lat="48.68853" lon="-3.92553">
        <ele>9.2</ele>
        <time>2024-05-09T09:23:40Z</time>
      </trkpt>
      <trkpt lat="48.68871" lon="-3.92543">
        <ele>9.4</ele>
        <time>2024-05-09T09:23:53Z</time>
      </trkpt>
      <trkpt lat="48.68884" lon="-3.92535">
        <ele>9.4</ele>
        <time>2024-05-09T09:24:03Z</time>
      </trkpt>
      <trkpt lat="48.68897" lon="-3.92527">
        <ele>9.4</ele>
        <time>2024-05-09T09:24:13Z</time>
      </trkpt>
      <trkpt lat="48.68908" lon="-3.92521">
        <ele>9.4</ele>
        <time>2024-05-09T09:24:21Z</time>
      </trkpt>
      <trkpt lat="48.68917" lon="-3.92512">
        <ele>9.4</ele>
        <time>2024-05-09T09:24:29Z</time>
      </trkpt>
      <trkpt lat="48.6892" lon="-3.92508">
        <ele>9.4</ele>
        <time>2024-05-09T09:24:32Z</time>
      </trkpt>
      <trkpt lat="48.68925" lon="-3.92505">
        <ele>9.4</ele>
        <time>2024-05-09T09:24:36Z</time>
      </trkpt>
      <trkpt lat="48.68933" lon="-3.92504">
        <ele>9.4</ele>
        <time>2024-05-09T09:24:42Z</time>
      </trkpt>
      <trkpt lat="48.6895" lon="-3.92506">
        <ele>9.4</ele>
        <time>2024-05-09T09:24:53Z</time>
      </trkpt>
      <trkpt lat="48.68964" lon="-3.92514">
        <ele>9.4</ele>
        <time>2024-05-09T09:25:03Z</time>
      </trkpt>
      <trkpt lat="48.68975" lon="-3.9252">
        <ele>9.4</ele>
        <time>2024-05-09T09:25:11Z</time>
      </trkpt>
      <trkpt lat="48.68986" lon="-3.92533">
        <ele>9.4</ele>
        <time>2024-05-09T09:25:20Z</time>
      </trkpt>
      <trkpt lat="48.68999" lon="-3.92552">
        <ele>9.4</ele>
        <time>2024-05-09T09:25:32Z</time>
      </trkpt>
      <trkpt lat="48.69013" lon="-3.92567">
        <ele>9.4</ele>
        <time>2024-05-09T09:25:44Z</time>
      </trkpt>
      <trkpt lat="48.69029" lon="-3.9258">
        <ele>9.4</ele>
        <time>2024-05-09T09:25:56Z</time>
      </trkpt>
      <trkpt lat="48.69046" lon="-3.9259">
        <ele>9.4</ele>
        <time>2024-05-09T09:26:08Z</time>
      </trkpt>
      <trkpt lat="48.69058" lon="-3.92594">
        <ele>9.4</ele>
        <time>2024-05-09T09:26:16Z</time>
      </trkpt>
      <trkpt lat="48.69069" lon="-3.926">
        <ele>9.4</ele>
        <time>2024-05-09T09:26:24Z</time>
      </trkpt>
      <trkpt lat="48.69075" lon="-3.92607">
        <ele>9.4</ele>
        <time>2024-05-09T09:26:30Z</time>
      </trkpt>
      <trkpt lat="48.69075" lon="-3.92606">
        <ele>9.4</ele>
        <time>2024-05-09T09:26:31Z</time>
      </trkpt>
      <trkpt lat="48.69073" lon="-3.92605">
        <ele>9.4</ele>
        <time>2024-05-09T09:26:34Z</time>
      </trkpt>
      <trkpt lat="48.69073" lon="-3.92603">
        <ele>9.4</ele>
        <time>2024-05-09T09:26:36Z</time>
      </trkpt>
      <trkpt lat="48.69071" lon="-3.92602">
        <ele>9.4</ele>
        <time>2024-05-09T09:26:41Z</time>
      </trkpt>
      <trkpt lat="48.69073" lon="-3.92606">
        <ele>9.4</ele>
        <time>2024-05-09T09:26:54Z</time>
      </trkpt>
      <trkpt lat="48.69075" lon="-3.92607">
        <ele>9.4</ele>
        <time>2024-05-09T09:26:55Z</time>
      </trkpt>
      <trkpt lat="48.6908" lon="-3.92615">
        <ele>9.4</ele>
        <time>2024-05-09T09:27:00Z</time>
      </trkpt>
      <trkpt lat="48.6909" lon="-3.92628">
        <ele>9.4</ele>
        <time>2024-05-09T09:27:10Z</time>
      </trkpt>
      <trkpt lat="48.69099" lon="-3.92631">
        <ele>9.4</ele>
        <time>2024-05-09T09:27:18Z</time>
      </trkpt>
      <trkpt lat="48.69114" lon="-3.92631">
        <ele>9.4</ele>
        <time>2024-05-09T09:27:28Z</time>
      </trkpt>
      <trkpt lat="48.6912" lon="-3.9263">
        <ele>9.4</ele>
        <time>2024-05-09T09:27:33Z</time>
      </trkpt>
      <trkpt lat="48.69124" lon="-3.92628">
        <ele>9.4</ele>
        <time>2024-05-09T09:27:37Z</time>
      </trkpt>
      <trkpt lat="48.69134" lon="-3.92626">
        <ele>16</ele>
        <time>2024-05-09T09:27:45Z</time>
      </trkpt>
      <trkpt lat="48.69136" lon="-3.92626">
        <ele>16</ele>
        <time>2024-05-09T09:27:46Z</time>
      </trkpt>
      <trkpt lat="48.6915" lon="-3.92621">
        <ele>16.6</ele>
        <time>2024-05-09T09:27:57Z</time>
      </trkpt>
      <trkpt lat="48.69156" lon="-3.92616">
        <ele>17</ele>
        <time>2024-05-09T09:28:03Z</time>
      </trkpt>
      <trkpt lat="48.69161" lon="-3.9261">
        <ele>17.8</ele>
        <time>2024-05-09T09:28:07Z</time>
      </trkpt>
      <trkpt lat="48.69164" lon="-3.92607">
        <ele>18</ele>
        <time>2024-05-09T09:28:10Z</time>
      </trkpt>
      <trkpt lat="48.69167" lon="-3.926">
        <ele>18.4</ele>
        <time>2024-05-09T09:28:14Z</time>
      </trkpt>
      <trkpt lat="48.69168" lon="-3.92596">
        <ele>18.6</ele>
        <time>2024-05-09T09:28:16Z</time>
      </trkpt>
      <trkpt lat="48.69167" lon="-3.92595">
        <ele>18.6</ele>
        <time>2024-05-09T09:28:17Z</time>
      </trkpt>
      <trkpt lat="48.69165" lon="-3.92588">
        <ele>18.8</ele>
        <time>2024-05-09T09:28:21Z</time>
      </trkpt>
      <trkpt lat="48.69163" lon="-3.92586">
        <ele>18.8</ele>
        <time>2024-05-09T09:28:23Z</time>
      </trkpt>
      <trkpt lat="48.6916" lon="-3.92583">
        <ele>19.2</ele>
        <time>2024-05-09T09:28:26Z</time>
      </trkpt>
      <trkpt lat="48.69159" lon="-3.92582">
        <ele>19.2</ele>
        <time>2024-05-09T09:28:27Z</time>
      </trkpt>
      <trkpt lat="48.69157" lon="-3.92579">
        <ele>19.6</ele>
        <time>2024-05-09T09:28:30Z</time>
      </trkpt>
      <trkpt lat="48.69155" lon="-3.92574">
        <ele>20.2</ele>
        <time>2024-05-09T09:28:33Z</time>
      </trkpt>
      <trkpt lat="48.69155" lon="-3.9257">
        <ele>20.2</ele>
        <time>2024-05-09T09:28:35Z</time>
      </trkpt>
      <trkpt lat="48.69156" lon="-3.92569">
        <ele>20.4</ele>
        <time>2024-05-09T09:28:36Z</time>
      </trkpt>
      <trkpt lat="48.69156" lon="-3.92562">
        <ele>21.2</ele>
        <time>2024-05-09T09:28:40Z</time>
      </trkpt>
      <trkpt lat="48.69156" lon="-3.92562">
        <ele>21.2</ele>
        <time>2024-05-09T09:28:41Z</time>
      </trkpt>
      <trkpt lat="48.69156" lon="-3.92562">
        <ele>21</ele>
        <time>2024-05-09T09:28:43Z</time>
      </trkpt>
      <trkpt lat="48.69158" lon="-3.92553">
        <ele>21</ele>
        <time>2024-05-09T09:28:48Z</time>
      </trkpt>
      <trkpt lat="48.69159" lon="-3.92548">
        <ele>21.2</ele>
        <time>2024-05-09T09:28:50Z</time>
      </trkpt>
      <trkpt lat="48.69157" lon="-3.92543">
        <ele>21.4</ele>
        <time>2024-05-09T09:28:53Z</time>
      </trkpt>
      <trkpt lat="48.69155" lon="-3.92539">
        <ele>22.2</ele>
        <time>2024-05-09T09:28:56Z</time>
      </trkpt>
      <trkpt lat="48.6915" lon="-3.9253">
        <ele>22.8</ele>
        <time>2024-05-09T09:29:02Z</time>
      </trkpt>
      <trkpt lat="48.69148" lon="-3.92528">
        <ele>22.6</ele>
        <time>2024-05-09T09:29:08Z</time>
      </trkpt>
      <trkpt lat="48.69147" lon="-3.92527">
        <ele>22.8</ele>
        <time>2024-05-09T09:29:15Z</time>
      </trkpt>
      <trkpt lat="48.69148" lon="-3.92519">
        <ele>22.2</ele>
        <time>2024-05-09T09:29:23Z</time>
      </trkpt>
      <trkpt lat="48.69149" lon="-3.92516">
        <ele>22.2</ele>
        <time>2024-05-09T09:29:25Z</time>
      </trkpt>
      <trkpt lat="48.6915" lon="-3.92509">
        <ele>22.4</ele>
        <time>2024-05-09T09:29:31Z</time>
      </trkpt>
      <trkpt lat="48.69151" lon="-3.92508">
        <ele>22.6</ele>
        <time>2024-05-09T09:29:33Z</time>
      </trkpt>
      <trkpt lat="48.69153" lon="-3.92507">
        <ele>22.6</ele>
        <time>2024-05-09T09:29:35Z</time>
      </trkpt>
      <trkpt lat="48.6916" lon="-3.92502">
        <ele>21</ele>
        <time>2024-05-09T09:32:56Z</time>
      </trkpt>
      <trkpt lat="48.69158" lon="-3.92502">
        <ele>21</ele>
        <time>2024-05-09T09:32:57Z</time>
      </trkpt>
      <trkpt lat="48.69155" lon="-3.92499">
        <ele>20.2</ele>
        <time>2024-05-09T09:33:02Z</time>
      </trkpt>
      <trkpt lat="48.69154" lon="-3.92497">
        <ele>20.2</ele>
        <time>2024-05-09T09:33:04Z</time>
      </trkpt>
      <trkpt lat="48.69153" lon="-3.92495">
        <ele>19.8</ele>
        <time>2024-05-09T09:33:06Z</time>
      </trkpt>
      <trkpt lat="48.69153" lon="-3.92494">
        <ele>19.6</ele>
        <time>2024-05-09T09:33:07Z</time>
      </trkpt>
      <trkpt lat="48.69154" lon="-3.92489">
        <ele>18.6</ele>
        <time>2024-05-09T09:33:10Z</time>
      </trkpt>
      <trkpt lat="48.69155" lon="-3.92488">
        <ele>18.2</ele>
        <time>2024-05-09T09:33:11Z</time>
      </trkpt>
      <trkpt lat="48.69162" lon="-3.92478">
        <ele>18</ele>
        <time>2024-05-09T09:33:19Z</time>
      </trkpt>
      <trkpt lat="48.69167" lon="-3.92469">
        <ele>17.6</ele>
        <time>2024-05-09T09:33:25Z</time>
      </trkpt>
      <trkpt lat="48.69169" lon="-3.92467">
        <ele>17.6</ele>
        <time>2024-05-09T09:33:27Z</time>
      </trkpt>
      <trkpt lat="48.69181" lon="-3.92455">
        <ele>17.8</ele>
        <time>2024-05-09T09:33:38Z</time>
      </trkpt>
      <trkpt lat="48.69193" lon="-3.92454">
        <ele>18.4</ele>
        <time>2024-05-09T09:33:47Z</time>
      </trkpt>
      <trkpt lat="48.69203" lon="-3.92452">
        <ele>18</ele>
        <time>2024-05-09T09:33:55Z</time>
      </trkpt>
      <trkpt lat="48.69203" lon="-3.92452">
        <ele>18</ele>
        <time>2024-05-09T09:33:56Z</time>
      </trkpt>
      <trkpt lat="48.69201" lon="-3.92456">
        <ele>17</ele>
        <time>2024-05-09T09:36:46Z</time>
      </trkpt>
      <trkpt lat="48.69212" lon="-3.92453">
        <ele>17</ele>
        <time>2024-05-09T09:36:54Z</time>
      </trkpt>
      <trkpt lat="48.69214" lon="-3.92452">
        <ele>16.6</ele>
        <time>2024-05-09T09:36:56Z</time>
      </trkpt>
      <trkpt lat="48.69225" lon="-3.92449">
        <ele>16.2</ele>
        <time>2024-05-09T09:37:04Z</time>
      </trkpt>
      <trkpt lat="48.69238" lon="-3.9245">
        <ele>15.8</ele>
        <time>2024-05-09T09:37:13Z</time>
      </trkpt>
      <trkpt lat="48.6925" lon="-3.92448">
        <ele>15.8</ele>
        <time>2024-05-09T09:37:22Z</time>
      </trkpt>
      <trkpt lat="48.69261" lon="-3.92452">
        <ele>15.8</ele>
        <time>2024-05-09T09:37:30Z</time>
      </trkpt>
      <trkpt lat="48.69273" lon="-3.92455">
        <ele>15.4</ele>
        <time>2024-05-09T09:37:38Z</time>
      </trkpt>
      <trkpt lat="48.69276" lon="-3.92456">
        <ele>15.2</ele>
        <time>2024-05-09T09:37:40Z</time>
      </trkpt>
      <trkpt lat="48.69288" lon="-3.92457">
        <ele>14.8</ele>
        <time>2024-05-09T09:37:48Z</time>
      </trkpt>
      <trkpt lat="48.69295" lon="-3.92459">
        <ele>14.4</ele>
        <time>2024-05-09T09:37:53Z</time>
      </trkpt>
      <trkpt lat="48.69302" lon="-3.92461">
        <ele>14.2</ele>
        <time>2024-05-09T09:37:58Z</time>
      </trkpt>
      <trkpt lat="48.69314" lon="-3.92468">
        <ele>13.6</ele>
        <time>2024-05-09T09:38:07Z</time>
      </trkpt>
      <trkpt lat="48.69318" lon="-3.92471">
        <ele>13.4</ele>
        <time>2024-05-09T09:38:10Z</time>
      </trkpt>
      <trkpt lat="48.69323" lon="-3.92473">
        <ele>13.2</ele>
        <time>2024-05-09T09:38:14Z</time>
      </trkpt>
      <trkpt lat="48.69334" lon="-3.92481">
        <ele>12.8</ele>
        <time>2024-05-09T09:38:22Z</time>
      </trkpt>
      <trkpt lat="48.69344" lon="-3.9249">
        <ele>12.2</ele>
        <time>2024-05-09T09:38:30Z</time>
      </trkpt>
      <trkpt lat="48.69355" lon="-3.92505">
        <ele>11.8</ele>
        <time>2024-05-09T09:38:40Z</time>
      </trkpt>
      <trkpt lat="48.69363" lon="-3.92511">
        <ele>11.2</ele>
        <time>2024-05-09T09:38:45Z</time>
      </trkpt>
      <trkpt lat="48.69368" lon="-3.92516">
        <ele>10.8</ele>
        <time>2024-05-09T09:38:49Z</time>
      </trkpt>
      <trkpt lat="48.69382" lon="-3.92526">
        <ele>10.8</ele>
        <time>2024-05-09T09:38:59Z</time>
      </trkpt>
      <trkpt lat="48.69392" lon="-3.92532">
        <ele>10.2</ele>
        <time>2024-05-09T09:39:07Z</time>
      </trkpt>
      <trkpt lat="48.69401" lon="-3.92535">
        <ele>10.2</ele>
        <time>2024-05-09T09:39:13Z</time>
      </trkpt>
      <trkpt lat="48.69404" lon="-3.92537">
        <ele>10</ele>
        <time>2024-05-09T09:39:15Z</time>
      </trkpt>
      <trkpt lat="48.69419" lon="-3.92541">
        <ele>9.8</ele>
        <time>2024-05-09T09:39:26Z</time>
      </trkpt>
      <trkpt lat="48.69425" lon="-3.92544">
        <ele>9</ele>
        <time>2024-05-09T09:39:30Z</time>
      </trkpt>
      <trkpt lat="48.69427" lon="-3.92544">
        <ele>8.8</ele>
        <time>2024-05-09T09:39:32Z</time>
      </trkpt>
      <trkpt lat="48.69442" lon="-3.92546">
        <ele>9.2</ele>
        <time>2024-05-09T09:39:41Z</time>
      </trkpt>
      <trkpt lat="48.69448" lon="-3.92547">
        <ele>9</ele>
        <time>2024-05-09T09:39:45Z</time>
      </trkpt>
      <trkpt lat="48.69463" lon="-3.92547">
        <ele>9.2</ele>
        <time>2024-05-09T09:39:55Z</time>
      </trkpt>
      <trkpt lat="48.69478" lon="-3.92549">
        <ele>8.8</ele>
        <time>2024-05-09T09:40:06Z</time>
      </trkpt>
      <trkpt lat="48.69492" lon="-3.92554">
        <ele>9</ele>
        <time>2024-05-09T09:40:15Z</time>
      </trkpt>
      <trkpt lat="48.69503" lon="-3.92558">
        <ele>8.8</ele>
        <time>2024-05-09T09:40:23Z</time>
      </trkpt>
      <trkpt lat="48.69515" lon="-3.92563">
        <ele>8.4</ele>
        <time>2024-05-09T09:40:31Z</time>
      </trkpt>
      <trkpt lat="48.6953" lon="-3.92568">
        <ele>8.8</ele>
        <time>2024-05-09T09:40:41Z</time>
      </trkpt>
      <trkpt lat="48.69542" lon="-3.92567">
        <ele>8.6</ele>
        <time>2024-05-09T09:40:49Z</time>
      </trkpt>
      <trkpt lat="48.69543" lon="-3.92567">
        <ele>8.8</ele>
        <time>2024-05-09T09:40:50Z</time>
      </trkpt>
      <trkpt lat="48.69559" lon="-3.92563">
        <ele>9.4</ele>
        <time>2024-05-09T09:41:02Z</time>
      </trkpt>
      <trkpt lat="48.6957" lon="-3.92563">
        <ele>10</ele>
        <time>2024-05-09T09:41:10Z</time>
      </trkpt>
      <trkpt lat="48.69571" lon="-3.92563">
        <ele>10</ele>
        <time>2024-05-09T09:41:11Z</time>
      </trkpt>
      <trkpt lat="48.69582" lon="-3.92563">
        <ele>9.8</ele>
        <time>2024-05-09T09:41:18Z</time>
      </trkpt>
      <trkpt lat="48.69591" lon="-3.92563">
        <ele>9</ele>
        <time>2024-05-09T09:41:24Z</time>
      </trkpt>
      <trkpt lat="48.69597" lon="-3.92563">
        <ele>8.4</ele>
        <time>2024-05-09T09:41:29Z</time>
      </trkpt>
      <trkpt lat="48.69613" lon="-3.9256">
        <ele>8.4</ele>
        <time>2024-05-09T09:41:39Z</time>
      </trkpt>
      <trkpt lat="48.69625" lon="-3.92555">
        <ele>8.4</ele>
        <time>2024-05-09T09:41:48Z</time>
      </trkpt>
      <trkpt lat="48.69638" lon="-3.92549">
        <ele>8.2</ele>
        <time>2024-05-09T09:41:58Z</time>
      </trkpt>
      <trkpt lat="48.6965" lon="-3.92545">
        <ele>8.2</ele>
        <time>2024-05-09T09:42:06Z</time>
      </trkpt>
      <trkpt lat="48.69652" lon="-3.92552">
        <ele>7.8</ele>
        <time>2024-05-09T09:42:10Z</time>
      </trkpt>
      <trkpt lat="48.69654" lon="-3.92556">
        <ele>7.8</ele>
        <time>2024-05-09T09:42:12Z</time>
      </trkpt>
      <trkpt lat="48.6966" lon="-3.92563">
        <ele>7.8</ele>
        <time>2024-05-09T09:42:19Z</time>
      </trkpt>
      <trkpt lat="48.69668" lon="-3.92564">
        <ele>9</ele>
        <time>2024-05-09T09:42:27Z</time>
      </trkpt>
      <trkpt lat="48.69668" lon="-3.92564">
        <ele>9</ele>
        <time>2024-05-09T09:42:28Z</time>
      </trkpt>
      <trkpt lat="48.69673" lon="-3.92564">
        <ele>9</ele>
        <time>2024-05-09T09:42:36Z</time>
      </trkpt>
      <trkpt lat="48.6968" lon="-3.92562">
        <ele>8.8</ele>
        <time>2024-05-09T09:42:41Z</time>
      </trkpt>
      <trkpt lat="48.69682" lon="-3.92562">
        <ele>8.8</ele>
        <time>2024-05-09T09:42:42Z</time>
      </trkpt>
      <trkpt lat="48.6969" lon="-3.92567">
        <ele>8.6</ele>
        <time>2024-05-09T09:42:49Z</time>
      </trkpt>
      <trkpt lat="48.697" lon="-3.92572">
        <ele>8.8</ele>
        <time>2024-05-09T09:42:56Z</time>
      </trkpt>
      <trkpt lat="48.69709" lon="-3.92577">
        <ele>9</ele>
        <time>2024-05-09T09:43:03Z</time>
      </trkpt>
      <trkpt lat="48.69724" lon="-3.9259">
        <ele>8.6</ele>
        <time>2024-05-09T09:43:15Z</time>
      </trkpt>
      <trkpt lat="48.69732" lon="-3.92601">
        <ele>8</ele>
        <time>2024-05-09T09:43:23Z</time>
      </trkpt>
      <trkpt lat="48.69735" lon="-3.92605">
        <ele>7.8</ele>
        <time>2024-05-09T09:43:26Z</time>
      </trkpt>
      <trkpt lat="48.6974" lon="-3.92621">
        <ele>8</ele>
        <time>2024-05-09T09:43:36Z</time>
      </trkpt>
      <trkpt lat="48.6974" lon="-3.92641">
        <ele>8.2</ele>
        <time>2024-05-09T09:43:46Z</time>
      </trkpt>
      <trkpt lat="48.69735" lon="-3.92655">
        <ele>8.6</ele>
        <time>2024-05-09T09:43:54Z</time>
      </trkpt>
      <trkpt lat="48.69734" lon="-3.92657">
        <ele>9</ele>
        <time>2024-05-09T09:43:56Z</time>
      </trkpt>
      <trkpt lat="48.69726" lon="-3.92666">
        <ele>9.6</ele>
        <time>2024-05-09T09:44:03Z</time>
      </trkpt>
      <trkpt lat="48.69724" lon="-3.92684">
        <ele>9.4</ele>
        <time>2024-05-09T09:44:12Z</time>
      </trkpt>
      <trkpt lat="48.69726" lon="-3.927">
        <ele>9</ele>
        <time>2024-05-09T09:44:20Z</time>
      </trkpt>
      <trkpt lat="48.69728" lon="-3.92707">
        <ele>8.6</ele>
        <time>2024-05-09T09:44:24Z</time>
      </trkpt>
      <trkpt lat="48.69731" lon="-3.92709">
        <ele>8.6</ele>
        <time>2024-05-09T09:44:27Z</time>
      </trkpt>
      <trkpt lat="48.6974" lon="-3.92713">
        <ele>9.4</ele>
        <time>2024-05-09T09:44:34Z</time>
      </trkpt>
      <trkpt lat="48.69742" lon="-3.92715">
        <ele>9.8</ele>
        <time>2024-05-09T09:44:36Z</time>
      </trkpt>
      <trkpt lat="48.69749" lon="-3.92714">
        <ele>10</ele>
        <time>2024-05-09T09:44:42Z</time>
      </trkpt>
      <trkpt lat="48.69751" lon="-3.92713">
        <ele>10.2</ele>
        <time>2024-05-09T09:44:44Z</time>
      </trkpt>
      <trkpt lat="48.69751" lon="-3.92713">
        <ele>10.2</ele>
        <time>2024-05-09T09:44:45Z</time>
      </trkpt>
      <trkpt lat="48.6975" lon="-3.92714">
        <ele>10.4</ele>
        <time>2024-05-09T09:44:57Z</time>
      </trkpt>
      <trkpt lat="48.6975" lon="-3.92714">
        <ele>10.8</ele>
        <time>2024-05-09T09:45:04Z</time>
      </trkpt>
      <trkpt lat="48.69756" lon="-3.9271">
        <ele>10.8</ele>
        <time>2024-05-09T09:45:19Z</time>
      </trkpt>
      <trkpt lat="48.69768" lon="-3.92701">
        <ele>10.6</ele>
        <time>2024-05-09T09:45:28Z</time>
      </trkpt>
      <trkpt lat="48.69769" lon="-3.92701">
        <ele>10.2</ele>
        <time>2024-05-09T09:45:33Z</time>
      </trkpt>
      <trkpt lat="48.69769" lon="-3.92698">
        <ele>10.2</ele>
        <time>2024-05-09T09:45:41Z</time>
      </trkpt>
      <trkpt lat="48.6977" lon="-3.92692">
        <ele>10</ele>
        <time>2024-05-09T09:45:48Z</time>
      </trkpt>
      <trkpt lat="48.69771" lon="-3.92679">
        <ele>9.4</ele>
        <time>2024-05-09T09:45:55Z</time>
      </trkpt>
      <trkpt lat="48.69772" lon="-3.92677">
        <ele>9</ele>
        <time>2024-05-09T09:45:57Z</time>
      </trkpt>
      <trkpt lat="48.69774" lon="-3.92668">
        <ele>8.4</ele>
        <time>2024-05-09T09:46:01Z</time>
      </trkpt>
      <trkpt lat="48.6978" lon="-3.92651">
        <ele>7.8</ele>
        <time>2024-05-09T09:46:10Z</time>
      </trkpt>
      <trkpt lat="48.69782" lon="-3.92648">
        <ele>7.6</ele>
        <time>2024-05-09T09:46:12Z</time>
      </trkpt>
      <trkpt lat="48.69789" lon="-3.92634">
        <ele>7.6</ele>
        <time>2024-05-09T09:46:20Z</time>
      </trkpt>
      <trkpt lat="48.69796" lon="-3.92622">
        <ele>7.6</ele>
        <time>2024-05-09T09:46:28Z</time>
      </trkpt>
      <trkpt lat="48.69804" lon="-3.92609">
        <ele>7.6</ele>
        <time>2024-05-09T09:46:36Z</time>
      </trkpt>
      <trkpt lat="48.69805" lon="-3.92605">
        <ele>7.8</ele>
        <time>2024-05-09T09:46:38Z</time>
      </trkpt>
      <trkpt lat="48.6981" lon="-3.92597">
        <ele>8.4</ele>
        <time>2024-05-09T09:46:44Z</time>
      </trkpt>
      <trkpt lat="48.69811" lon="-3.92596">
        <ele>8.6</ele>
        <time>2024-05-09T09:46:45Z</time>
      </trkpt>
      <trkpt lat="48.6982" lon="-3.92587">
        <ele>8.6</ele>
        <time>2024-05-09T09:46:54Z</time>
      </trkpt>
      <trkpt lat="48.69826" lon="-3.92586">
        <ele>8.8</ele>
        <time>2024-05-09T09:46:58Z</time>
      </trkpt>
      <trkpt lat="48.69833" lon="-3.92584">
        <ele>8.8</ele>
        <time>2024-05-09T09:47:04Z</time>
      </trkpt>
      <trkpt lat="48.69848" lon="-3.9258">
        <ele>8.8</ele>
        <time>2024-05-09T09:47:15Z</time>
      </trkpt>
      <trkpt lat="48.69861" lon="-3.92578">
        <ele>8.8</ele>
        <time>2024-05-09T09:47:25Z</time>
      </trkpt>
      <trkpt lat="48.69876" lon="-3.92573">
        <ele>8.6</ele>
        <time>2024-05-09T09:47:36Z</time>
      </trkpt>
      <trkpt lat="48.69884" lon="-3.92567">
        <ele>8.6</ele>
        <time>2024-05-09T09:47:42Z</time>
      </trkpt>
      <trkpt lat="48.69885" lon="-3.92565">
        <ele>8.6</ele>
        <time>2024-05-09T09:47:43Z</time>
      </trkpt>
      <trkpt lat="48.6989" lon="-3.92558">
        <ele>8.6</ele>
        <time>2024-05-09T09:47:48Z</time>
      </trkpt>
      <trkpt lat="48.69892" lon="-3.92556">
        <ele>8.6</ele>
        <time>2024-05-09T09:47:50Z</time>
      </trkpt>
      <trkpt lat="48.69902" lon="-3.9255">
        <ele>9.2</ele>
        <time>2024-05-09T09:47:58Z</time>
      </trkpt>
      <trkpt lat="48.69906" lon="-3.92549">
        <ele>10.2</ele>
        <time>2024-05-09T09:48:02Z</time>
      </trkpt>
      <trkpt lat="48.69909" lon="-3.92548">
        <ele>10.4</ele>
        <time>2024-05-09T09:48:06Z</time>
      </trkpt>
      <trkpt lat="48.69909" lon="-3.92548">
        <ele>10.4</ele>
        <time>2024-05-09T09:48:08Z</time>
      </trkpt>
      <trkpt lat="48.69908" lon="-3.92554">
        <ele>11</ele>
        <time>2024-05-09T09:49:08Z</time>
      </trkpt>
      <trkpt lat="48.69906" lon="-3.92553">
        <ele>10</ele>
        <time>2024-05-09T09:49:12Z</time>
      </trkpt>
      <trkpt lat="48.69892" lon="-3.92545">
        <ele>9.8</ele>
        <time>2024-05-09T09:49:20Z</time>
      </trkpt>
      <trkpt lat="48.69889" lon="-3.92532">
        <ele>10</ele>
        <time>2024-05-09T09:49:27Z</time>
      </trkpt>
      <trkpt lat="48.69884" lon="-3.92518">
        <ele>10.4</ele>
        <time>2024-05-09T09:49:35Z</time>
      </trkpt>
      <trkpt lat="48.69879" lon="-3.92507">
        <ele>11.2</ele>
        <time>2024-05-09T09:49:41Z</time>
      </trkpt>
      <trkpt lat="48.69875" lon="-3.92499">
        <ele>11.6</ele>
        <time>2024-05-09T09:49:46Z</time>
      </trkpt>
      <trkpt lat="48.6987" lon="-3.92478">
        <ele>11.8</ele>
        <time>2024-05-09T09:49:56Z</time>
      </trkpt>
      <trkpt lat="48.69866" lon="-3.92462">
        <ele>12</ele>
        <time>2024-05-09T09:50:04Z</time>
      </trkpt>
      <trkpt lat="48.69861" lon="-3.92453">
        <ele>12.2</ele>
        <time>2024-05-09T09:50:08Z</time>
      </trkpt>
      <trkpt lat="48.69854" lon="-3.92444">
        <ele>12.6</ele>
        <time>2024-05-09T09:50:15Z</time>
      </trkpt>
      <trkpt lat="48.69839" lon="-3.92432">
        <ele>12.2</ele>
        <time>2024-05-09T09:50:26Z</time>
      </trkpt>
      <trkpt lat="48.69832" lon="-3.92429">
        <ele>11.6</ele>
        <time>2024-05-09T09:50:31Z</time>
      </trkpt>
      <trkpt lat="48.69821" lon="-3.92424">
        <ele>11.4</ele>
        <time>2024-05-09T09:50:38Z</time>
      </trkpt>
      <trkpt lat="48.69814" lon="-3.92423">
        <ele>11.2</ele>
        <time>2024-05-09T09:50:43Z</time>
      </trkpt>
      <trkpt lat="48.69809" lon="-3.92422">
        <ele>11.2</ele>
        <time>2024-05-09T09:50:46Z</time>
      </trkpt>
      <trkpt lat="48.69799" lon="-3.92409">
        <ele>10.8</ele>
        <time>2024-05-09T09:50:54Z</time>
      </trkpt>
      <trkpt lat="48.69792" lon="-3.92398">
        <ele>10.6</ele>
        <time>2024-05-09T09:51:01Z</time>
      </trkpt>
      <trkpt lat="48.69783" lon="-3.92385">
        <ele>9.8</ele>
        <time>2024-05-09T09:51:09Z</time>
      </trkpt>
      <trkpt lat="48.69782" lon="-3.92381">
        <ele>9</ele>
        <time>2024-05-09T09:51:11Z</time>
      </trkpt>
      <trkpt lat="48.69783" lon="-3.92361">
        <ele>8.6</ele>
        <time>2024-05-09T09:51:20Z</time>
      </trkpt>
      <trkpt lat="48.69778" lon="-3.92344">
        <ele>7.8</ele>
        <time>2024-05-09T09:51:28Z</time>
      </trkpt>
      <trkpt lat="48.69765" lon="-3.92337">
        <ele>8</ele>
        <time>2024-05-09T09:51:37Z</time>
      </trkpt>
      <trkpt lat="48.6975" lon="-3.92342">
        <ele>8.8</ele>
        <time>2024-05-09T09:51:48Z</time>
      </trkpt>
      <trkpt lat="48.69738" lon="-3.92351">
        <ele>9.8</ele>
        <time>2024-05-09T09:51:58Z</time>
      </trkpt>
      <trkpt lat="48.69737" lon="-3.92352">
        <ele>10</ele>
        <time>2024-05-09T09:51:59Z</time>
      </trkpt>
      <trkpt lat="48.69736" lon="-3.92353">
        <ele>10.2</ele>
        <time>2024-05-09T09:52:00Z</time>
      </trkpt>
      <trkpt lat="48.69731" lon="-3.92348">
        <ele>10.6</ele>
        <time>2024-05-09T09:52:04Z</time>
      </trkpt>
      <trkpt lat="48.6973" lon="-3.92347">
        <ele>10.8</ele>
        <time>2024-05-09T09:52:05Z</time>
      </trkpt>
      <trkpt lat="48.69727" lon="-3.92346">
        <ele>10.6</ele>
        <time>2024-05-09T09:52:07Z</time>
      </trkpt>
      <trkpt lat="48.69722" lon="-3.92348">
        <ele>10.2</ele>
        <time>2024-05-09T09:52:11Z</time>
      </trkpt>
      <trkpt lat="48.69718" lon="-3.92348">
        <ele>9.8</ele>
        <time>2024-05-09T09:52:14Z</time>
      </trkpt>
      <trkpt lat="48.6971" lon="-3.92346">
        <ele>10.4</ele>
        <time>2024-05-09T09:52:20Z</time>
      </trkpt>
      <trkpt lat="48.69709" lon="-3.92345">
        <ele>10.8</ele>
        <time>2024-05-09T09:52:22Z</time>
      </trkpt>
      <trkpt lat="48.69709" lon="-3.92344">
        <ele>11.2</ele>
        <time>2024-05-09T09:52:23Z</time>
      </trkpt>
      <trkpt lat="48.69707" lon="-3.92343">
        <ele>11.8</ele>
        <time>2024-05-09T09:52:25Z</time>
      </trkpt>
      <trkpt lat="48.69705" lon="-3.92341">
        <ele>12.2</ele>
        <time>2024-05-09T09:52:27Z</time>
      </trkpt>
      <trkpt lat="48.69703" lon="-3.92339">
        <ele>13.2</ele>
        <time>2024-05-09T09:52:30Z</time>
      </trkpt>
      <trkpt lat="48.69702" lon="-3.92334">
        <ele>13.6</ele>
        <time>2024-05-09T09:52:33Z</time>
      </trkpt>
      <trkpt lat="48.69701" lon="-3.92333">
        <ele>13.8</ele>
        <time>2024-05-09T09:52:34Z</time>
      </trkpt>
      <trkpt lat="48.697" lon="-3.92331">
        <ele>14.2</ele>
        <time>2024-05-09T09:52:36Z</time>
      </trkpt>
      <trkpt lat="48.69699" lon="-3.92331">
        <ele>14.2</ele>
        <time>2024-05-09T09:52:37Z</time>
      </trkpt>
      <trkpt lat="48.69697" lon="-3.92331">
        <ele>14.6</ele>
        <time>2024-05-09T09:52:39Z</time>
      </trkpt>
      <trkpt lat="48.69695" lon="-3.92333">
        <ele>15.2</ele>
        <time>2024-05-09T09:52:41Z</time>
      </trkpt>
      <trkpt lat="48.69694" lon="-3.92334">
        <ele>15.6</ele>
        <time>2024-05-09T09:52:43Z</time>
      </trkpt>
      <trkpt lat="48.69692" lon="-3.92335">
        <ele>13.6</ele>
        <time>2024-05-09T09:54:36Z</time>
      </trkpt>
      <trkpt lat="48.69693" lon="-3.92334">
        <ele>13.6</ele>
        <time>2024-05-09T09:54:37Z</time>
      </trkpt>
      <trkpt lat="48.69701" lon="-3.92336">
        <ele>13</ele>
        <time>2024-05-09T09:54:45Z</time>
      </trkpt>
      <trkpt lat="48.69703" lon="-3.92338">
        <ele>12.6</ele>
        <time>2024-05-09T09:54:49Z</time>
      </trkpt>
      <trkpt lat="48.69706" lon="-3.92339">
        <ele>12</ele>
        <time>2024-05-09T09:54:52Z</time>
      </trkpt>
      <trkpt lat="48.69708" lon="-3.92342">
        <ele>11.2</ele>
        <time>2024-05-09T09:54:55Z</time>
      </trkpt>
      <trkpt lat="48.6971" lon="-3.92343">
        <ele>10.6</ele>
        <time>2024-05-09T09:54:57Z</time>
      </trkpt>
      <trkpt lat="48.6971" lon="-3.92343">
        <ele>10.2</ele>
        <time>2024-05-09T09:54:58Z</time>
      </trkpt>
      <trkpt lat="48.69714" lon="-3.92348">
        <ele>8.8</ele>
        <time>2024-05-09T09:55:02Z</time>
      </trkpt>
      <trkpt lat="48.69715" lon="-3.92352">
        <ele>8</ele>
        <time>2024-05-09T09:55:04Z</time>
      </trkpt>
      <trkpt lat="48.69715" lon="-3.92357">
        <ele>7.8</ele>
        <time>2024-05-09T09:55:06Z</time>
      </trkpt>
      <trkpt lat="48.69717" lon="-3.92369">
        <ele>7</ele>
        <time>2024-05-09T09:55:12Z</time>
      </trkpt>
      <trkpt lat="48.69718" lon="-3.92373">
        <ele>6.6</ele>
        <time>2024-05-09T09:55:14Z</time>
      </trkpt>
      <trkpt lat="48.69724" lon="-3.92392">
        <ele>6.2</ele>
        <time>2024-05-09T09:55:23Z</time>
      </trkpt>
      <trkpt lat="48.69727" lon="-3.92415">
        <ele>6.8</ele>
        <time>2024-05-09T09:55:33Z</time>
      </trkpt>
      <trkpt lat="48.69728" lon="-3.92429">
        <ele>7.2</ele>
        <time>2024-05-09T09:55:40Z</time>
      </trkpt>
      <trkpt lat="48.69725" lon="-3.92439">
        <ele>7.6</ele>
        <time>2024-05-09T09:55:45Z</time>
      </trkpt>
      <trkpt lat="48.6972" lon="-3.92451">
        <ele>7.8</ele>
        <time>2024-05-09T09:55:51Z</time>
      </trkpt>
      <trkpt lat="48.69713" lon="-3.92459">
        <ele>7.8</ele>
        <time>2024-05-09T09:55:57Z</time>
      </trkpt>
      <trkpt lat="48.69708" lon="-3.92473">
        <ele>7</ele>
        <time>2024-05-09T09:56:04Z</time>
      </trkpt>
      <trkpt lat="48.69708" lon="-3.92478">
        <ele>6.8</ele>
        <time>2024-05-09T09:56:06Z</time>
      </trkpt>
      <trkpt lat="48.69708" lon="-3.92483">
        <ele>6.6</ele>
        <time>2024-05-09T09:56:08Z</time>
      </trkpt>
      <trkpt lat="48.69708" lon="-3.92491">
        <ele>6</ele>
        <time>2024-05-09T09:56:11Z</time>
      </trkpt>
      <trkpt lat="48.6971" lon="-3.92499">
        <ele>5.4</ele>
        <time>2024-05-09T09:56:15Z</time>
      </trkpt>
      <trkpt lat="48.6971" lon="-3.92508">
        <ele>5</ele>
        <time>2024-05-09T09:56:20Z</time>
      </trkpt>
      <trkpt lat="48.69708" lon="-3.92523">
        <ele>4.6</ele>
        <time>2024-05-09T09:56:27Z</time>
      </trkpt>
      <trkpt lat="48.69706" lon="-3.92524">
        <ele>4.4</ele>
        <time>2024-05-09T09:56:28Z</time>
      </trkpt>
      <trkpt lat="48.69697" lon="-3.92524">
        <ele>4</ele>
        <time>2024-05-09T09:56:33Z</time>
      </trkpt>
      <trkpt lat="48.69687" lon="-3.92523">
        <ele>4</ele>
        <time>2024-05-09T09:56:42Z</time>
      </trkpt>
      <trkpt lat="48.69674" lon="-3.9252">
        <ele>4.6</ele>
        <time>2024-05-09T09:56:50Z</time>
      </trkpt>
      <trkpt lat="48.69661" lon="-3.9252">
        <ele>5.2</ele>
        <time>2024-05-09T09:56:59Z</time>
      </trkpt>
      <trkpt lat="48.6965" lon="-3.92521">
        <ele>5.2</ele>
        <time>2024-05-09T09:57:06Z</time>
      </trkpt>
      <trkpt lat="48.69633" lon="-3.9253">
        <ele>5</ele>
        <time>2024-05-09T09:57:18Z</time>
      </trkpt>
      <trkpt lat="48.69632" lon="-3.92531">
        <ele>5</ele>
        <time>2024-05-09T09:57:19Z</time>
      </trkpt>
      <trkpt lat="48.6962" lon="-3.92535">
        <ele>5.4</ele>
        <time>2024-05-09T09:57:28Z</time>
      </trkpt>
      <trkpt lat="48.69619" lon="-3.92536">
        <ele>5.4</ele>
        <time>2024-05-09T09:57:29Z</time>
      </trkpt>
      <trkpt lat="48.69608" lon="-3.9254">
        <ele>5.2</ele>
        <time>2024-05-09T09:57:37Z</time>
      </trkpt>
      <trkpt lat="48.69606" lon="-3.92541">
        <ele>5.2</ele>
        <time>2024-05-09T09:57:39Z</time>
      </trkpt>
      <trkpt lat="48.69597" lon="-3.92543">
        <ele>5.2</ele>
        <time>2024-05-09T09:57:45Z</time>
      </trkpt>
      <trkpt lat="48.69586" lon="-3.92546">
        <ele>5</ele>
        <time>2024-05-09T09:57:53Z</time>
      </trkpt>
      <trkpt lat="48.69571" lon="-3.92555">
        <ele>5.8</ele>
        <time>2024-05-09T09:58:03Z</time>
      </trkpt>
      <trkpt lat="48.69561" lon="-3.92562">
        <ele>5.6</ele>
        <time>2024-05-09T09:58:11Z</time>
      </trkpt>
      <trkpt lat="48.69552" lon="-3.92564">
        <ele>5</ele>
        <time>2024-05-09T09:58:17Z</time>
      </trkpt>
      <trkpt lat="48.69543" lon="-3.92567">
        <ele>4.6</ele>
        <time>2024-05-09T09:58:24Z</time>
      </trkpt>
      <trkpt lat="48.69538" lon="-3.92568">
        <ele>4.4</ele>
        <time>2024-05-09T09:58:27Z</time>
      </trkpt>
      <trkpt lat="48.69529" lon="-3.9257">
        <ele>3.8</ele>
        <time>2024-05-09T09:58:33Z</time>
      </trkpt>
      <trkpt lat="48.69526" lon="-3.92568">
        <ele>3.8</ele>
        <time>2024-05-09T09:58:35Z</time>
      </trkpt>
      <trkpt lat="48.69511" lon="-3.92562">
        <ele>3.4</ele>
        <time>2024-05-09T09:58:45Z</time>
      </trkpt>
      <trkpt lat="48.69509" lon="-3.92562">
        <ele>3.2</ele>
        <time>2024-05-09T09:58:47Z</time>
      </trkpt>
      <trkpt lat="48.69494" lon="-3.92554">
        <ele>3.8</ele>
        <time>2024-05-09T09:58:58Z</time>
      </trkpt>
      <trkpt lat="48.69478" lon="-3.92547">
        <ele>3.6</ele>
        <time>2024-05-09T09:59:10Z</time>
      </trkpt>
      <trkpt lat="48.69467" lon="-3.92547">
        <ele>3.6</ele>
        <time>2024-05-09T09:59:18Z</time>
      </trkpt>
      <trkpt lat="48.6946" lon="-3.92546">
        <ele>3.6</ele>
        <time>2024-05-09T09:59:23Z</time>
      </trkpt>
      <trkpt lat="48.69451" lon="-3.92545">
        <ele>4.2</ele>
        <time>2024-05-09T09:59:29Z</time>
      </trkpt>
      <trkpt lat="48.69436" lon="-3.92541">
        <ele>4.2</ele>
        <time>2024-05-09T09:59:39Z</time>
      </trkpt>
      <trkpt lat="48.69423" lon="-3.92541">
        <ele>4.4</ele>
        <time>2024-05-09T09:59:47Z</time>
      </trkpt>
      <trkpt lat="48.69421" lon="-3.92541">
        <ele>4.6</ele>
        <time>2024-05-09T09:59:49Z</time>
      </trkpt>
      <trkpt lat="48.69414" lon="-3.9254">
        <ele>4.6</ele>
        <time>2024-05-09T09:59:55Z</time>
      </trkpt>
      <trkpt lat="48.69411" lon="-3.92539">
        <ele>4.8</ele>
        <time>2024-05-09T09:59:57Z</time>
      </trkpt>
      <trkpt lat="48.69396" lon="-3.92534">
        <ele>4.8</ele>
        <time>2024-05-09T10:00:07Z</time>
      </trkpt>
      <trkpt lat="48.69395" lon="-3.92533">
        <ele>5</ele>
        <time>2024-05-09T10:00:08Z</time>
      </trkpt>
      <trkpt lat="48.69383" lon="-3.92525">
        <ele>5.4</ele>
        <time>2024-05-09T10:00:17Z</time>
      </trkpt>
      <trkpt lat="48.69381" lon="-3.92523">
        <ele>5.4</ele>
        <time>2024-05-09T10:00:19Z</time>
      </trkpt>
      <trkpt lat="48.69372" lon="-3.92516">
        <ele>5.6</ele>
        <time>2024-05-09T10:00:25Z</time>
      </trkpt>
      <trkpt lat="48.69366" lon="-3.92512">
        <ele>5.8</ele>
        <time>2024-05-09T10:00:31Z</time>
      </trkpt>
      <trkpt lat="48.69355" lon="-3.92501">
        <ele>6.4</ele>
        <time>2024-05-09T10:00:39Z</time>
      </trkpt>
      <trkpt lat="48.69352" lon="-3.925">
        <ele>6.4</ele>
        <time>2024-05-09T10:00:42Z</time>
      </trkpt>
      <trkpt lat="48.6935" lon="-3.92497">
        <ele>6.6</ele>
        <time>2024-05-09T10:00:44Z</time>
      </trkpt>
      <trkpt lat="48.69348" lon="-3.92495">
        <ele>6.6</ele>
        <time>2024-05-09T10:00:45Z</time>
      </trkpt>
      <trkpt lat="48.69341" lon="-3.92489">
        <ele>7</ele>
        <time>2024-05-09T10:00:52Z</time>
      </trkpt>
      <trkpt lat="48.69331" lon="-3.92477">
        <ele>7.6</ele>
        <time>2024-05-09T10:01:02Z</time>
      </trkpt>
      <trkpt lat="48.69329" lon="-3.92477">
        <ele>7.6</ele>
        <time>2024-05-09T10:01:03Z</time>
      </trkpt>
      <trkpt lat="48.69326" lon="-3.92474">
        <ele>7.8</ele>
        <time>2024-05-09T10:01:06Z</time>
      </trkpt>
      <trkpt lat="48.69322" lon="-3.92472">
        <ele>7.8</ele>
        <time>2024-05-09T10:01:09Z</time>
      </trkpt>
      <trkpt lat="48.6932" lon="-3.9247">
        <ele>7.8</ele>
        <time>2024-05-09T10:01:10Z</time>
      </trkpt>
      <trkpt lat="48.69315" lon="-3.92467">
        <ele>8.2</ele>
        <time>2024-05-09T10:01:14Z</time>
      </trkpt>
      <trkpt lat="48.69312" lon="-3.92465">
        <ele>8.2</ele>
        <time>2024-05-09T10:01:16Z</time>
      </trkpt>
      <trkpt lat="48.6931" lon="-3.92463">
        <ele>8.4</ele>
        <time>2024-05-09T10:01:18Z</time>
      </trkpt>
      <trkpt lat="48.69307" lon="-3.92458">
        <ele>8.6</ele>
        <time>2024-05-09T10:01:21Z</time>
      </trkpt>
      <trkpt lat="48.69305" lon="-3.92457">
        <ele>8.8</ele>
        <time>2024-05-09T10:01:22Z</time>
      </trkpt>
      <trkpt lat="48.69291" lon="-3.92453">
        <ele>9.4</ele>
        <time>2024-05-09T10:01:31Z</time>
      </trkpt>
      <trkpt lat="48.69284" lon="-3.92453">
        <ele>9.8</ele>
        <time>2024-05-09T10:01:36Z</time>
      </trkpt>
      <trkpt lat="48.69282" lon="-3.92453">
        <ele>9.8</ele>
        <time>2024-05-09T10:01:38Z</time>
      </trkpt>
      <trkpt lat="48.69264" lon="-3.92449">
        <ele>10.6</ele>
        <time>2024-05-09T10:01:51Z</time>
      </trkpt>
      <trkpt lat="48.69256" lon="-3.92448">
        <ele>10.8</ele>
        <time>2024-05-09T10:01:57Z</time>
      </trkpt>
      <trkpt lat="48.69248" lon="-3.92445">
        <ele>11</ele>
        <time>2024-05-09T10:02:03Z</time>
      </trkpt>
      <trkpt lat="48.69239" lon="-3.92446">
        <ele>11.8</ele>
        <time>2024-05-09T10:02:10Z</time>
      </trkpt>
      <trkpt lat="48.6923" lon="-3.92444">
        <ele>12</ele>
        <time>2024-05-09T10:02:17Z</time>
      </trkpt>
      <trkpt lat="48.6922" lon="-3.92448">
        <ele>12.2</ele>
        <time>2024-05-09T10:02:25Z</time>
      </trkpt>
      <trkpt lat="48.69208" lon="-3.92449">
        <ele>12.4</ele>
        <time>2024-05-09T10:02:32Z</time>
      </trkpt>
      <trkpt lat="48.69196" lon="-3.92452">
        <ele>12.6</ele>
        <time>2024-05-09T10:02:41Z</time>
      </trkpt>
      <trkpt lat="48.69196" lon="-3.92452">
        <ele>11.4</ele>
        <time>2024-05-09T10:02:45Z</time>
      </trkpt>
      <trkpt lat="48.69193" lon="-3.92454">
        <ele>11.4</ele>
        <time>2024-05-09T10:03:02Z</time>
      </trkpt>
      <trkpt lat="48.69188" lon="-3.92454">
        <ele>11.4</ele>
        <time>2024-05-09T10:03:05Z</time>
      </trkpt>
      <trkpt lat="48.69176" lon="-3.92456">
        <ele>10.8</ele>
        <time>2024-05-09T10:03:12Z</time>
      </trkpt>
      <trkpt lat="48.69173" lon="-3.92456">
        <ele>10.8</ele>
        <time>2024-05-09T10:03:15Z</time>
      </trkpt>
      <trkpt lat="48.69167" lon="-3.92456">
        <ele>10.6</ele>
        <time>2024-05-09T10:03:19Z</time>
      </trkpt>
      <trkpt lat="48.69156" lon="-3.92453">
        <ele>9.6</ele>
        <time>2024-05-09T10:03:27Z</time>
      </trkpt>
      <trkpt lat="48.69154" lon="-3.92453">
        <ele>9.6</ele>
        <time>2024-05-09T10:03:28Z</time>
      </trkpt>
      <trkpt lat="48.69146" lon="-3.92453">
        <ele>9</ele>
        <time>2024-05-09T10:03:34Z</time>
      </trkpt>
      <trkpt lat="48.69146" lon="-3.92457">
        <ele>8.8</ele>
        <time>2024-05-09T10:03:36Z</time>
      </trkpt>
      <trkpt lat="48.69148" lon="-3.92471">
        <ele>9.4</ele>
        <time>2024-05-09T10:03:43Z</time>
      </trkpt>
      <trkpt lat="48.69147" lon="-3.92473">
        <ele>9.4</ele>
        <time>2024-05-09T10:03:44Z</time>
      </trkpt>
      <trkpt lat="48.69144" lon="-3.9248">
        <ele>8.6</ele>
        <time>2024-05-09T10:03:48Z</time>
      </trkpt>
      <trkpt lat="48.6914" lon="-3.92483">
        <ele>8.2</ele>
        <time>2024-05-09T10:03:51Z</time>
      </trkpt>
      <trkpt lat="48.69136" lon="-3.92488">
        <ele>7.6</ele>
        <time>2024-05-09T10:03:55Z</time>
      </trkpt>
      <trkpt lat="48.69132" lon="-3.92492">
        <ele>7.6</ele>
        <time>2024-05-09T10:03:59Z</time>
      </trkpt>
      <trkpt lat="48.69131" lon="-3.92493">
        <ele>7.6</ele>
        <time>2024-05-09T10:04:00Z</time>
      </trkpt>
      <trkpt lat="48.69123" lon="-3.92505">
        <ele>7</ele>
        <time>2024-05-09T10:04:08Z</time>
      </trkpt>
      <trkpt lat="48.69121" lon="-3.92513">
        <ele>6.6</ele>
        <time>2024-05-09T10:04:12Z</time>
      </trkpt>
      <trkpt lat="48.69118" lon="-3.92515">
        <ele>6.4</ele>
        <time>2024-05-09T10:04:14Z</time>
      </trkpt>
      <trkpt lat="48.69107" lon="-3.92524">
        <ele>5.4</ele>
        <time>2024-05-09T10:04:23Z</time>
      </trkpt>
      <trkpt lat="48.691" lon="-3.9253">
        <ele>4.6</ele>
        <time>2024-05-09T10:04:29Z</time>
      </trkpt>
      <trkpt lat="48.69092" lon="-3.92538">
        <ele>4.4</ele>
        <time>2024-05-09T10:04:35Z</time>
      </trkpt>
      <trkpt lat="48.69089" lon="-3.92542">
        <ele>4</ele>
        <time>2024-05-09T10:04:37Z</time>
      </trkpt>
      <trkpt lat="48.69085" lon="-3.9255">
        <ele>3.2</ele>
        <time>2024-05-09T10:04:43Z</time>
      </trkpt>
      <trkpt lat="48.69083" lon="-3.92553">
        <ele>2.6</ele>
        <time>2024-05-09T10:04:45Z</time>
      </trkpt>
      <trkpt lat="48.69079" lon="-3.92557">
        <ele>2.2</ele>
        <time>2024-05-09T10:04:48Z</time>
      </trkpt>
      <trkpt lat="48.69074" lon="-3.92566">
        <ele>1.6</ele>
        <time>2024-05-09T10:04:53Z</time>
      </trkpt>
      <trkpt lat="48.69073" lon="-3.92575">
        <ele>1</ele>
        <time>2024-05-09T10:04:57Z</time>
      </trkpt>
      <trkpt lat="48.69069" lon="-3.92586">
        <ele>0.60000000000002</ele>
        <time>2024-05-09T10:05:02Z</time>
      </trkpt>
      <trkpt lat="48.69068" lon="-3.9259">
        <ele>0.19999999999999</ele>
        <time>2024-05-09T10:05:05Z</time>
      </trkpt>
      <trkpt lat="48.69065" lon="-3.92593">
        <ele>0.19999999999999</ele>
        <time>2024-05-09T10:05:08Z</time>
      </trkpt>
      <trkpt lat="48.6906" lon="-3.92594">
        <ele>0.19999999999999</ele>
        <time>2024-05-09T10:05:11Z</time>
      </trkpt>
      <trkpt lat="48.69057" lon="-3.92593">
        <ele>-0.19999999999999</ele>
        <time>2024-05-09T10:05:14Z</time>
      </trkpt>
      <trkpt lat="48.69056" lon="-3.92592">
        <ele>-0.19999999999999</ele>
        <time>2024-05-09T10:05:15Z</time>
      </trkpt>
      <trkpt lat="48.69053" lon="-3.92591">
        <ele>-0.19999999999999</ele>
        <time>2024-05-09T10:05:19Z</time>
      </trkpt>
      <trkpt lat="48.69052" lon="-3.92591">
        <ele>-0.19999999999999</ele>
        <time>2024-05-09T10:05:20Z</time>
      </trkpt>
      <trkpt lat="48.69048" lon="-3.92588">
        <ele>-0.19999999999999</ele>
        <time>2024-05-09T10:05:23Z</time>
      </trkpt>
      <trkpt lat="48.69047" lon="-3.92587">
        <ele>-0.19999999999999</ele>
        <time>2024-05-09T10:05:24Z</time>
      </trkpt>
      <trkpt lat="48.69038" lon="-3.92582">
        <ele>-0.60000000000002</ele>
        <time>2024-05-09T10:05:30Z</time>
      </trkpt>
      <trkpt lat="48.69024" lon="-3.92575">
        <ele>-0.60000000000002</ele>
        <time>2024-05-09T10:05:38Z</time>
      </trkpt>
      <trkpt lat="48.69019" lon="-3.92573">
        <ele>-0.39999999999998</ele>
        <time>2024-05-09T10:05:43Z</time>
      </trkpt>
      <trkpt lat="48.69008" lon="-3.92561">
        <ele>-0.60000000000002</ele>
        <time>2024-05-09T10:05:52Z</time>
      </trkpt>
      <trkpt lat="48.69003" lon="-3.92547">
        <ele>-0.19999999999999</ele>
        <time>2024-05-09T10:06:00Z</time>
      </trkpt>
      <trkpt lat="48.69004" lon="-3.92533">
        <ele>1</ele>
        <time>2024-05-09T10:06:07Z</time>
      </trkpt>
      <trkpt lat="48.69005" lon="-3.92528">
        <ele>1.4</ele>
        <time>2024-05-09T10:06:10Z</time>
      </trkpt>
      <trkpt lat="48.69006" lon="-3.92511">
        <ele>1.8</ele>
        <time>2024-05-09T10:06:19Z</time>
      </trkpt>
      <trkpt lat="48.69007" lon="-3.92508">
        <ele>1.4</ele>
        <time>2024-05-09T10:06:22Z</time>
      </trkpt>
      <trkpt lat="48.69009" lon="-3.92502">
        <ele>0.19999999999999</ele>
        <time>2024-05-09T10:06:27Z</time>
      </trkpt>
      <trkpt lat="48.69009" lon="-3.925">
        <ele>-0.19999999999999</ele>
        <time>2024-05-09T10:06:28Z</time>
      </trkpt>
      <trkpt lat="48.6901" lon="-3.92499">
        <ele>-0.60000000000002</ele>
        <time>2024-05-09T10:06:29Z</time>
      </trkpt>
      <trkpt lat="48.69008" lon="-3.92493">
        <ele>-1.4</ele>
        <time>2024-05-09T10:06:32Z</time>
      </trkpt>
      <trkpt lat="48.69007" lon="-3.9249">
        <ele>-1.8</ele>
        <time>2024-05-09T10:06:34Z</time>
      </trkpt>
      <trkpt lat="48.69002" lon="-3.92476">
        <ele>-2.4</ele>
        <time>2024-05-09T10:06:41Z</time>
      </trkpt>
      <trkpt lat="48.68999" lon="-3.92471">
        <ele>-2.8</ele>
        <time>2024-05-09T10:06:44Z</time>
      </trkpt>
      <trkpt lat="48.68992" lon="-3.92453">
        <ele>-3</ele>
        <time>2024-05-09T10:06:54Z</time>
      </trkpt>
      <trkpt lat="48.6899" lon="-3.92449">
        <ele>-3.4</ele>
        <time>2024-05-09T10:06:56Z</time>
      </trkpt>
      <trkpt lat="48.68984" lon="-3.92432">
        <ele>-4</ele>
        <time>2024-05-09T10:07:05Z</time>
      </trkpt>
      <trkpt lat="48.68976" lon="-3.92415">
        <ele>-3.8</ele>
        <time>2024-05-09T10:07:14Z</time>
      </trkpt>
      <trkpt lat="48.68974" lon="-3.9241">
        <ele>-3.4</ele>
        <time>2024-05-09T10:07:17Z</time>
      </trkpt>
      <trkpt lat="48.68965" lon="-3.92396">
        <ele>-3.6</ele>
        <time>2024-05-09T10:07:26Z</time>
      </trkpt>
      <trkpt lat="48.68958" lon="-3.92383">
        <ele>-3.8</ele>
        <time>2024-05-09T10:07:34Z</time>
      </trkpt>
      <trkpt lat="48.68947" lon="-3.92364">
        <ele>-4.2</ele>
        <time>2024-05-09T10:07:46Z</time>
      </trkpt>
      <trkpt lat="48.68943" lon="-3.92359">
        <ele>-4.2</ele>
        <time>2024-05-09T10:07:49Z</time>
      </trkpt>
      <trkpt lat="48.68936" lon="-3.92348">
        <ele>-4.2</ele>
        <time>2024-05-09T10:07:56Z</time>
      </trkpt>
      <trkpt lat="48.68928" lon="-3.92334">
        <ele>-3.6</ele>
        <time>2024-05-09T10:08:07Z</time>
      </trkpt>
      <trkpt lat="48.68921" lon="-3.9232">
        <ele>-3.4</ele>
        <time>2024-05-09T10:08:16Z</time>
      </trkpt>
      <trkpt lat="48.68924" lon="-3.92307">
        <ele>-3.6</ele>
        <time>2024-05-09T10:08:22Z</time>
      </trkpt>
      <trkpt lat="48.68924" lon="-3.92305">
        <ele>-3.8</ele>
        <time>2024-05-09T10:08:23Z</time>
      </trkpt>
      <trkpt lat="48.68927" lon="-3.92301">
        <ele>-4.2</ele>
        <time>2024-05-09T10:08:26Z</time>
      </trkpt>
      <trkpt lat="48.68929" lon="-3.92295">
        <ele>-4</ele>
        <time>2024-05-09T10:08:29Z</time>
      </trkpt>
      <trkpt lat="48.68935" lon="-3.92281">
        <ele>-4.6</ele>
        <time>2024-05-09T10:08:37Z</time>
      </trkpt>
      <trkpt lat="48.68936" lon="-3.92279">
        <ele>-4.8</ele>
        <time>2024-05-09T10:08:38Z</time>
      </trkpt>
      <trkpt lat="48.68946" lon="-3.92265">
        <ele>-5.4</ele>
        <time>2024-05-09T10:08:47Z</time>
      </trkpt>
      <trkpt lat="48.68949" lon="-3.92262">
        <ele>-5.6</ele>
        <time>2024-05-09T10:08:49Z</time>
      </trkpt>
      <trkpt lat="48.68955" lon="-3.92255">
        <ele>-6</ele>
        <time>2024-05-09T10:08:55Z</time>
      </trkpt>
      <trkpt lat="48.68957" lon="-3.92246">
        <ele>-5.8</ele>
        <time>2024-05-09T10:08:59Z</time>
      </trkpt>
      <trkpt lat="48.68957" lon="-3.92238">
        <ele>-5.6</ele>
        <time>2024-05-09T10:09:03Z</time>
      </trkpt>
      <trkpt lat="48.68951" lon="-3.92217">
        <ele>-5</ele>
        <time>2024-05-09T10:09:14Z</time>
      </trkpt>
      <trkpt lat="48.68947" lon="-3.92212">
        <ele>-4.6</ele>
        <time>2024-05-09T10:09:17Z</time>
      </trkpt>
      <trkpt lat="48.6894" lon="-3.92203">
        <ele>-4</ele>
        <time>2024-05-09T10:09:24Z</time>
      </trkpt>
      <trkpt lat="48.68935" lon="-3.92196">
        <ele>-3.4</ele>
        <time>2024-05-09T10:09:28Z</time>
      </trkpt>
      <trkpt lat="48.68926" lon="-3.92191">
        <ele>-3</ele>
        <time>2024-05-09T10:09:35Z</time>
      </trkpt>
      <trkpt lat="48.68924" lon="-3.9219">
        <ele>-3</ele>
        <time>2024-05-09T10:09:36Z</time>
      </trkpt>
      <trkpt lat="48.68918" lon="-3.92182">
        <ele>-2.4</ele>
        <time>2024-05-09T10:09:42Z</time>
      </trkpt>
      <trkpt lat="48.68913" lon="-3.92178">
        <ele>-2</ele>
        <time>2024-05-09T10:09:46Z</time>
      </trkpt>
      <trkpt lat="48.68905" lon="-3.92171">
        <ele>-1.4</ele>
        <time>2024-05-09T10:09:55Z</time>
      </trkpt>
      <trkpt lat="48.68903" lon="-3.9217">
        <ele>-1.2</ele>
        <time>2024-05-09T10:09:56Z</time>
      </trkpt>
      <trkpt lat="48.68897" lon="-3.92155">
        <ele>-0.60000000000002</ele>
        <time>2024-05-09T10:10:06Z</time>
      </trkpt>
      <trkpt lat="48.68897" lon="-3.92151">
        <ele>-0.19999999999999</ele>
        <time>2024-05-09T10:10:08Z</time>
      </trkpt>
      <trkpt lat="48.68898" lon="-3.92136">
        <ele>-0.60000000000002</ele>
        <time>2024-05-09T10:10:15Z</time>
      </trkpt>
      <trkpt lat="48.68896" lon="-3.92123">
        <ele>-0.60000000000002</ele>
        <time>2024-05-09T10:10:22Z</time>
      </trkpt>
      <trkpt lat="48.68886" lon="-3.92107">
        <ele>-1.4</ele>
        <time>2024-05-09T10:10:33Z</time>
      </trkpt>
      <trkpt lat="48.68881" lon="-3.92101">
        <ele>-1.8</ele>
        <time>2024-05-09T10:10:38Z</time>
      </trkpt>
      <trkpt lat="48.68877" lon="-3.92099">
        <ele>-2.2</ele>
        <time>2024-05-09T10:10:41Z</time>
      </trkpt>
      <trkpt lat="48.68875" lon="-3.92096">
        <ele>-2.4</ele>
        <time>2024-05-09T10:10:43Z</time>
      </trkpt>
      <trkpt lat="48.68868" lon="-3.92087">
        <ele>-3.2</ele>
        <time>2024-05-09T10:10:49Z</time>
      </trkpt>
      <trkpt lat="48.68866" lon="-3.92085">
        <ele>-3.4</ele>
        <time>2024-05-09T10:10:51Z</time>
      </trkpt>
      <trkpt lat="48.68865" lon="-3.92085">
        <ele>-3.4</ele>
        <time>2024-05-09T10:10:52Z</time>
      </trkpt>
      <trkpt lat="48.68862" lon="-3.92083">
        <ele>-3.8</ele>
        <time>2024-05-09T10:10:55Z</time>
      </trkpt>
      <trkpt lat="48.68847" lon="-3.92078">
        <ele>-4.4</ele>
        <time>2024-05-09T10:11:06Z</time>
      </trkpt>
      <trkpt lat="48.68845" lon="-3.92078">
        <ele>-4.8</ele>
        <time>2024-05-09T10:11:08Z</time>
      </trkpt>
      <trkpt lat="48.68834" lon="-3.9208">
        <ele>-5</ele>
        <time>2024-05-09T10:11:16Z</time>
      </trkpt>
      <trkpt lat="48.6883" lon="-3.92082">
        <ele>-5</ele>
        <time>2024-05-09T10:11:19Z</time>
      </trkpt>
      <trkpt lat="48.68822" lon="-3.92082">
        <ele>-5.2</ele>
        <time>2024-05-09T10:11:27Z</time>
      </trkpt>
      <trkpt lat="48.68818" lon="-3.92081">
        <ele>-5.2</ele>
        <time>2024-05-09T10:11:31Z</time>
      </trkpt>
      <trkpt lat="48.68807" lon="-3.9208">
        <ele>-5</ele>
        <time>2024-05-09T10:11:41Z</time>
      </trkpt>
      <trkpt lat="48.68802" lon="-3.92081">
        <ele>-4.6</ele>
        <time>2024-05-09T10:11:48Z</time>
      </trkpt>
      <trkpt lat="48.68795" lon="-3.92084">
        <ele>-5</ele>
        <time>2024-05-09T10:11:56Z</time>
      </trkpt>
      <trkpt lat="48.68791" lon="-3.92088">
        <ele>-5</ele>
        <time>2024-05-09T10:12:02Z</time>
      </trkpt>
      <trkpt lat="48.68787" lon="-3.92092">
        <ele>-5</ele>
        <time>2024-05-09T10:12:09Z</time>
      </trkpt>
      <trkpt lat="48.68785" lon="-3.92092">
        <ele>-5</ele>
        <time>2024-05-09T10:12:11Z</time>
      </trkpt>
      <trkpt lat="48.68784" lon="-3.92092">
        <ele>-5</ele>
        <time>2024-05-09T10:12:12Z</time>
      </trkpt>
      <trkpt lat="48.68781" lon="-3.92093">
        <ele>-4.8</ele>
        <time>2024-05-09T10:12:15Z</time>
      </trkpt>
      <trkpt lat="48.68777" lon="-3.92095">
        <ele>-4.6</ele>
        <time>2024-05-09T10:12:19Z</time>
      </trkpt>
      <trkpt lat="48.68773" lon="-3.921">
        <ele>-4.8</ele>
        <time>2024-05-09T10:12:24Z</time>
      </trkpt>
      <trkpt lat="48.68768" lon="-3.92113">
        <ele>-4.6</ele>
        <time>2024-05-09T10:12:34Z</time>
      </trkpt>
      <trkpt lat="48.68766" lon="-3.92118">
        <ele>-4.6</ele>
        <time>2024-05-09T10:12:38Z</time>
      </trkpt>
      <trkpt lat="48.68764" lon="-3.92123">
        <ele>-4.4</ele>
        <time>2024-05-09T10:12:42Z</time>
      </trkpt>
      <trkpt lat="48.68764" lon="-3.92124">
        <ele>-4.4</ele>
        <time>2024-05-09T10:12:43Z</time>
      </trkpt>
      <trkpt lat="48.68762" lon="-3.92127">
        <ele>-4.6</ele>
        <time>2024-05-09T10:12:45Z</time>
      </trkpt>
      <trkpt lat="48.68758" lon="-3.92129">
        <ele>-4.4</ele>
        <time>2024-05-09T10:12:49Z</time>
      </trkpt>
      <trkpt lat="48.68754" lon="-3.92132">
        <ele>-4</ele>
        <time>2024-05-09T10:12:53Z</time>
      </trkpt>
      <trkpt lat="48.68749" lon="-3.92134">
        <ele>-4</ele>
        <time>2024-05-09T10:12:58Z</time>
      </trkpt>
      <trkpt lat="48.68748" lon="-3.92135">
        <ele>-4.4</ele>
        <time>2024-05-09T10:13:00Z</time>
      </trkpt>
      <trkpt lat="48.68749" lon="-3.92139">
        <ele>-4.6</ele>
        <time>2024-05-09T10:13:02Z</time>
      </trkpt>
      <trkpt lat="48.68749" lon="-3.92142">
        <ele>-4.8</ele>
        <time>2024-05-09T10:13:04Z</time>
      </trkpt>
      <trkpt lat="48.6875" lon="-3.9215">
        <ele>-4.6</ele>
        <time>2024-05-09T10:13:09Z</time>
      </trkpt>
      <trkpt lat="48.68748" lon="-3.92152">
        <ele>-4.6</ele>
        <time>2024-05-09T10:13:11Z</time>
      </trkpt>
      <trkpt lat="48.68743" lon="-3.92167">
        <ele>-4.8</ele>
        <time>2024-05-09T10:13:21Z</time>
      </trkpt>
      <trkpt lat="48.6874" lon="-3.92174">
        <ele>-4.8</ele>
        <time>2024-05-09T10:13:26Z</time>
      </trkpt>
      <trkpt lat="48.68738" lon="-3.92174">
        <ele>-4.8</ele>
        <time>2024-05-09T10:13:28Z</time>
      </trkpt>
      <trkpt lat="48.68729" lon="-3.92177">
        <ele>-4.6</ele>
        <time>2024-05-09T10:13:36Z</time>
      </trkpt>
      <trkpt lat="48.68726" lon="-3.92177">
        <ele>-4.4</ele>
        <time>2024-05-09T10:13:38Z</time>
      </trkpt>
      <trkpt lat="48.68714" lon="-3.9218">
        <ele>-3.8</ele>
        <time>2024-05-09T10:13:47Z</time>
      </trkpt>
      <trkpt lat="48.68704" lon="-3.92177">
        <ele>-3.8</ele>
        <time>2024-05-09T10:13:56Z</time>
      </trkpt>
      <trkpt lat="48.68694" lon="-3.92174">
        <ele>-3.8</ele>
        <time>2024-05-09T10:14:04Z</time>
      </trkpt>
      <trkpt lat="48.68683" lon="-3.92167">
        <ele>-3.6</ele>
        <time>2024-05-09T10:14:12Z</time>
      </trkpt>
      <trkpt lat="48.68674" lon="-3.92162">
        <ele>-3.8</ele>
        <time>2024-05-09T10:14:20Z</time>
      </trkpt>
      <trkpt lat="48.68666" lon="-3.92152">
        <ele>-3.6</ele>
        <time>2024-05-09T10:14:27Z</time>
      </trkpt>
      <trkpt lat="48.68661" lon="-3.92146">
        <ele>-3.4</ele>
        <time>2024-05-09T10:14:33Z</time>
      </trkpt>
      <trkpt lat="48.68658" lon="-3.92143">
        <ele>-3.6</ele>
        <time>2024-05-09T10:14:36Z</time>
      </trkpt>
      <trkpt lat="48.6865" lon="-3.92131">
        <ele>-3.6</ele>
        <time>2024-05-09T10:14:45Z</time>
      </trkpt>
      <trkpt lat="48.68642" lon="-3.92123">
        <ele>-3.6</ele>
        <time>2024-05-09T10:14:53Z</time>
      </trkpt>
      <trkpt lat="48.68641" lon="-3.92126">
        <ele>-3.6</ele>
        <time>2024-05-09T10:14:55Z</time>
      </trkpt>
      <trkpt lat="48.68638" lon="-3.92131">
        <ele>-3.4</ele>
        <time>2024-05-09T10:14:59Z</time>
      </trkpt>
      <trkpt lat="48.68636" lon="-3.92132">
        <ele>-3</ele>
        <time>2024-05-09T10:15:01Z</time>
      </trkpt>
      <trkpt lat="48.6863" lon="-3.92133">
        <ele>-2.8</ele>
        <time>2024-05-09T10:15:06Z</time>
      </trkpt>
      <trkpt lat="48.68624" lon="-3.92138">
        <ele>-2.4</ele>
        <time>2024-05-09T10:15:11Z</time>
      </trkpt>
      <trkpt lat="48.6862" lon="-3.92142">
        <ele>-2</ele>
        <time>2024-05-09T10:15:16Z</time>
      </trkpt>
      <trkpt lat="48.68614" lon="-3.92147">
        <ele>-1.4</ele>
        <time>2024-05-09T10:15:22Z</time>
      </trkpt>
      <trkpt lat="48.68611" lon="-3.92149">
        <ele>-1</ele>
        <time>2024-05-09T10:15:25Z</time>
      </trkpt>
      <trkpt lat="48.6861" lon="-3.9215">
        <ele>-0.80000000000001</ele>
        <time>2024-05-09T10:15:26Z</time>
      </trkpt>
      <trkpt lat="48.68607" lon="-3.92154">
        <ele>-0.19999999999999</ele>
        <time>2024-05-09T10:15:30Z</time>
      </trkpt>
      <trkpt lat="48.68606" lon="-3.92159">
        <ele>-0.19999999999999</ele>
        <time>2024-05-09T10:15:33Z</time>
      </trkpt>
      <trkpt lat="48.68601" lon="-3.92173">
        <ele>0.19999999999999</ele>
        <time>2024-05-09T10:15:41Z</time>
      </trkpt>
      <trkpt lat="48.686" lon="-3.92178">
        <ele>0.19999999999999</ele>
        <time>2024-05-09T10:15:44Z</time>
      </trkpt>
      <trkpt lat="48.68599" lon="-3.9218">
        <ele>0.19999999999999</ele>
        <time>2024-05-09T10:15:46Z</time>
      </trkpt>
      <trkpt lat="48.68598" lon="-3.92181">
        <ele>0.19999999999999</ele>
        <time>2024-05-09T10:15:47Z</time>
      </trkpt>
      <trkpt lat="48.68598" lon="-3.92181">
        <ele>0.19999999999999</ele>
        <time>2024-05-09T10:15:48Z</time>
      </trkpt>
      <trkpt lat="48.68596" lon="-3.92182">
        <ele>0.39999999999998</ele>
        <time>2024-05-09T10:15:52Z</time>
      </trkpt>
      <trkpt lat="48.68595" lon="-3.92183">
        <ele>0.80000000000001</ele>
        <time>2024-05-09T10:15:54Z</time>
      </trkpt>
      <trkpt lat="48.68595" lon="-3.92186">
        <ele>1.2</ele>
        <time>2024-05-09T10:15:58Z</time>
      </trkpt>
      <trkpt lat="48.68596" lon="-3.92187">
        <ele>1.8</ele>
        <time>2024-05-09T10:16:03Z</time>
      </trkpt>
      <trkpt lat="48.68596" lon="-3.92187">
        <ele>2</ele>
        <time>2024-05-09T10:16:04Z</time>
      </trkpt>
      <trkpt lat="48.68595" lon="-3.92189">
        <ele>3.2</ele>
        <time>2024-05-09T10:16:08Z</time>
      </trkpt>
      <trkpt lat="48.68594" lon="-3.92194">
        <ele>4.2</ele>
        <time>2024-05-09T10:16:12Z</time>
      </trkpt>
      <trkpt lat="48.68592" lon="-3.92199">
        <ele>4.6</ele>
        <time>2024-05-09T10:16:14Z</time>
      </trkpt>
      <trkpt lat="48.68587" lon="-3.92201">
        <ele>4.8</ele>
        <time>2024-05-09T10:16:20Z</time>
      </trkpt>
      <trkpt lat="48.68579" lon="-3.92192">
        <ele>4.8</ele>
        <time>2024-05-09T10:16:28Z</time>
      </trkpt>
      <trkpt lat="48.68577" lon="-3.92192">
        <ele>4.8</ele>
        <time>2024-05-09T10:16:30Z</time>
      </trkpt>
      <trkpt lat="48.68575" lon="-3.92195">
        <ele>4.4</ele>
        <time>2024-05-09T10:16:33Z</time>
      </trkpt>
      <trkpt lat="48.68575" lon="-3.92197">
        <ele>4.4</ele>
        <time>2024-05-09T10:16:34Z</time>
      </trkpt>
      <trkpt lat="48.68575" lon="-3.92211">
        <ele>3.8</ele>
        <time>2024-05-09T10:16:40Z</time>
      </trkpt>
      <trkpt lat="48.68574" lon="-3.92224">
        <ele>3.2</ele>
        <time>2024-05-09T10:16:47Z</time>
      </trkpt>
      <trkpt lat="48.68574" lon="-3.92248">
        <ele>2.4</ele>
        <time>2024-05-09T10:16:59Z</time>
      </trkpt>
      <trkpt lat="48.68575" lon="-3.92264">
        <ele>2.4</ele>
        <time>2024-05-09T10:17:06Z</time>
      </trkpt>
      <trkpt lat="48.68577" lon="-3.9228">
        <ele>2.4</ele>
        <time>2024-05-09T10:17:14Z</time>
      </trkpt>
      <trkpt lat="48.68572" lon="-3.9229">
        <ele>2.4</ele>
        <time>2024-05-09T10:17:21Z</time>
      </trkpt>
      <trkpt lat="48.68571" lon="-3.9229">
        <ele>2.2</ele>
        <time>2024-05-09T10:17:22Z</time>
      </trkpt>
      <trkpt lat="48.68558" lon="-3.92286">
        <ele>2.2</ele>
        <time>2024-05-09T10:17:30Z</time>
      </trkpt>
      <trkpt lat="48.68549" lon="-3.92285">
        <ele>2.4</ele>
        <time>2024-05-09T10:17:37Z</time>
      </trkpt>
      <trkpt lat="48.68537" lon="-3.9228">
        <ele>2.8</ele>
        <time>2024-05-09T10:17:44Z</time>
      </trkpt>
      <trkpt lat="48.68531" lon="-3.92279">
        <ele>2.6</ele>
        <time>2024-05-09T10:17:48Z</time>
      </trkpt>
      <trkpt lat="48.6853" lon="-3.92277">
        <ele>2.6</ele>
        <time>2024-05-09T10:17:50Z</time>
      </trkpt>
      <trkpt lat="48.68521" lon="-3.92271">
        <ele>3</ele>
        <time>2024-05-09T10:17:57Z</time>
      </trkpt>
      <trkpt lat="48.68512" lon="-3.92268">
        <ele>3.2</ele>
        <time>2024-05-09T10:18:03Z</time>
      </trkpt>
      <trkpt lat="48.68507" lon="-3.92268">
        <ele>3.2</ele>
        <time>2024-05-09T10:18:06Z</time>
      </trkpt>
      <trkpt lat="48.68499" lon="-3.92266">
        <ele>3.4</ele>
        <time>2024-05-09T10:18:12Z</time>
      </trkpt>
      <trkpt lat="48.68481" lon="-3.92264">
        <ele>3.4</ele>
        <time>2024-05-09T10:18:24Z</time>
      </trkpt>
      <trkpt lat="48.68479" lon="-3.92264">
        <ele>3.4</ele>
        <time>2024-05-09T10:18:25Z</time>
      </trkpt>
      <trkpt lat="48.6847" lon="-3.9226">
        <ele>3.4</ele>
        <time>2024-05-09T10:18:31Z</time>
      </trkpt>
      <trkpt lat="48.6846" lon="-3.92256">
        <ele>3.4</ele>
        <time>2024-05-09T10:18:39Z</time>
      </trkpt>
      <trkpt lat="48.68442" lon="-3.92249">
        <ele>3.4</ele>
        <time>2024-05-09T10:18:52Z</time>
      </trkpt>
      <trkpt lat="48.68431" lon="-3.92245">
        <ele>3.6</ele>
        <time>2024-05-09T10:19:00Z</time>
      </trkpt>
      <trkpt lat="48.68418" lon="-3.92242">
        <ele>3.8</ele>
        <time>2024-05-09T10:19:09Z</time>
      </trkpt>
      <trkpt lat="48.68404" lon="-3.92239">
        <ele>3.6</ele>
        <time>2024-05-09T10:19:19Z</time>
      </trkpt>
      <trkpt lat="48.68394" lon="-3.92238">
        <ele>3.4</ele>
        <time>2024-05-09T10:19:28Z</time>
      </trkpt>
      <trkpt lat="48.68378" lon="-3.92238">
        <ele>3.2</ele>
        <time>2024-05-09T10:19:39Z</time>
      </trkpt>
      <trkpt lat="48.68365" lon="-3.9224">
        <ele>3.2</ele>
        <time>2024-05-09T10:19:47Z</time>
      </trkpt>
      <trkpt lat="48.68349" lon="-3.92243">
        <ele>3.2</ele>
        <time>2024-05-09T10:19:59Z</time>
      </trkpt>
      <trkpt lat="48.68348" lon="-3.92243">
        <ele>3.2</ele>
        <time>2024-05-09T10:20:00Z</time>
      </trkpt>
      <trkpt lat="48.68339" lon="-3.92242">
        <ele>3.2</ele>
        <time>2024-05-09T10:20:06Z</time>
      </trkpt>
      <trkpt lat="48.6833" lon="-3.92245">
        <ele>3</ele>
        <time>2024-05-09T10:20:13Z</time>
      </trkpt>
      <trkpt lat="48.68315" lon="-3.92246">
        <ele>3.4</ele>
        <time>2024-05-09T10:20:23Z</time>
      </trkpt>
      <trkpt lat="48.68302" lon="-3.92254">
        <ele>3.6</ele>
        <time>2024-05-09T10:20:33Z</time>
      </trkpt>
      <trkpt lat="48.6829" lon="-3.92258">
        <ele>3.6</ele>
        <time>2024-05-09T10:20:43Z</time>
      </trkpt>
      <trkpt lat="48.6828" lon="-3.92264">
        <ele>3.8</ele>
        <time>2024-05-09T10:20:51Z</time>
      </trkpt>
      <trkpt lat="48.68266" lon="-3.92267">
        <ele>4</ele>
        <time>2024-05-09T10:21:01Z</time>
      </trkpt>
      <trkpt lat="48.68254" lon="-3.9227">
        <ele>3.8</ele>
        <time>2024-05-09T10:21:10Z</time>
      </trkpt>
      <trkpt lat="48.68241" lon="-3.92273">
        <ele>3.6</ele>
        <time>2024-05-09T10:21:20Z</time>
      </trkpt>
      <trkpt lat="48.68233" lon="-3.92273">
        <ele>4</ele>
        <time>2024-05-09T10:21:26Z</time>
      </trkpt>
      <trkpt lat="48.68228" lon="-3.92273">
        <ele>4</ele>
        <time>2024-05-09T10:21:30Z</time>
      </trkpt>
      <trkpt lat="48.68224" lon="-3.92272">
        <ele>3.8</ele>
        <time>2024-05-09T10:21:33Z</time>
      </trkpt>
      <trkpt lat="48.68215" lon="-3.92268">
        <ele>2.8</ele>
        <time>2024-05-09T10:21:40Z</time>
      </trkpt>
      <trkpt lat="48.68213" lon="-3.92267">
        <ele>2.6</ele>
        <time>2024-05-09T10:21:42Z</time>
      </trkpt>
      <trkpt lat="48.68204" lon="-3.92266">
        <ele>2.8</ele>
        <time>2024-05-09T10:21:48Z</time>
      </trkpt>
      <trkpt lat="48.68203" lon="-3.92269">
        <ele>2.4</ele>
        <time>2024-05-09T10:22:37Z</time>
      </trkpt>
      <trkpt lat="48.68198" lon="-3.92266">
        <ele>2.6</ele>
        <time>2024-05-09T10:22:44Z</time>
      </trkpt>
      <trkpt lat="48.68187" lon="-3.92255">
        <ele>2.2</ele>
        <time>2024-05-09T10:22:50Z</time>
      </trkpt>
      <trkpt lat="48.68185" lon="-3.92254">
        <ele>2.2</ele>
        <time>2024-05-09T10:22:51Z</time>
      </trkpt>
      <trkpt lat="48.68173" lon="-3.92251">
        <ele>1.4</ele>
        <time>2024-05-09T10:23:00Z</time>
      </trkpt>
      <trkpt lat="48.68171" lon="-3.92253">
        <ele>1.2</ele>
        <time>2024-05-09T10:23:02Z</time>
      </trkpt>
      <trkpt lat="48.6817" lon="-3.92253">
        <ele>1.2</ele>
        <time>2024-05-09T10:23:03Z</time>
      </trkpt>
      <trkpt lat="48.68167" lon="-3.92249">
        <ele>1.4</ele>
        <time>2024-05-09T10:23:06Z</time>
      </trkpt>
      <trkpt lat="48.68159" lon="-3.92239">
        <ele>1.8</ele>
        <time>2024-05-09T10:23:14Z</time>
      </trkpt>
      <trkpt lat="48.68148" lon="-3.92237">
        <ele>2</ele>
        <time>2024-05-09T10:23:23Z</time>
      </trkpt>
      <trkpt lat="48.68147" lon="-3.92236">
        <ele>2</ele>
        <time>2024-05-09T10:23:24Z</time>
      </trkpt>
      <trkpt lat="48.68139" lon="-3.92234">
        <ele>2.2</ele>
        <time>2024-05-09T10:23:30Z</time>
      </trkpt>
      <trkpt lat="48.68136" lon="-3.92232">
        <ele>2.2</ele>
        <time>2024-05-09T10:23:32Z</time>
      </trkpt>
      <trkpt lat="48.68124" lon="-3.92227">
        <ele>2.8</ele>
        <time>2024-05-09T10:23:41Z</time>
      </trkpt>
      <trkpt lat="48.68119" lon="-3.92223">
        <ele>2.6</ele>
        <time>2024-05-09T10:23:49Z</time>
      </trkpt>
      <trkpt lat="48.68116" lon="-3.92219">
        <ele>1.2</ele>
        <time>2024-05-09T10:23:54Z</time>
      </trkpt>
      <trkpt lat="48.68115" lon="-3.92218">
        <ele>1</ele>
        <time>2024-05-09T10:23:55Z</time>
      </trkpt>
      <trkpt lat="48.68113" lon="-3.92216">
        <ele>1</ele>
        <time>2024-05-09T10:23:56Z</time>
      </trkpt>
      <trkpt lat="48.68111" lon="-3.92216">
        <ele>0.39999999999998</ele>
        <time>2024-05-09T10:24:02Z</time>
      </trkpt>
      <trkpt lat="48.68112" lon="-3.92215">
        <ele>0.39999999999998</ele>
        <time>2024-05-09T10:24:10Z</time>
      </trkpt>
      <trkpt lat="48.68107" lon="-3.92211">
        <ele>0.39999999999998</ele>
        <time>2024-05-09T10:24:16Z</time>
      </trkpt>
      <trkpt lat="48.68107" lon="-3.92209">
        <ele>0.39999999999998</ele>
        <time>2024-05-09T10:24:20Z</time>
      </trkpt>
      <trkpt lat="48.68101" lon="-3.92206">
        <ele>0.39999999999998</ele>
        <time>2024-05-09T10:24:26Z</time>
      </trkpt>
      <trkpt lat="48.68092" lon="-3.92204">
        <ele>0.60000000000002</ele>
        <time>2024-05-09T10:24:33Z</time>
      </trkpt>
      <trkpt lat="48.68083" lon="-3.92199">
        <ele>0.60000000000002</ele>
        <time>2024-05-09T10:24:41Z</time>
      </trkpt>
      <trkpt lat="48.68082" lon="-3.92198">
        <ele>0.19999999999999</ele>
        <time>2024-05-09T10:24:43Z</time>
      </trkpt>
      <trkpt lat="48.68079" lon="-3.92195">
        <ele>0.19999999999999</ele>
        <time>2024-05-09T10:24:47Z</time>
      </trkpt>
      <trkpt lat="48.68077" lon="-3.92195">
        <ele>0.19999999999999</ele>
        <time>2024-05-09T10:24:49Z</time>
      </trkpt>
      <trkpt lat="48.68072" lon="-3.92193">
        <ele>0.80000000000001</ele>
        <time>2024-05-09T10:24:56Z</time>
      </trkpt>
      <trkpt lat="48.68071" lon="-3.92192">
        <ele>0.80000000000001</ele>
        <time>2024-05-09T10:24:57Z</time>
      </trkpt>
      <trkpt lat="48.68063" lon="-3.92192">
        <ele>0.80000000000001</ele>
        <time>2024-05-09T10:25:08Z</time>
      </trkpt>
      <trkpt lat="48.68056" lon="-3.92193">
        <ele>0.80000000000001</ele>
        <time>2024-05-09T10:25:15Z</time>
      </trkpt>
      <trkpt lat="48.68052" lon="-3.92194">
        <ele>0.60000000000002</ele>
        <time>2024-05-09T10:25:21Z</time>
      </trkpt>
      <trkpt lat="48.6805" lon="-3.92195">
        <ele>1.2</ele>
        <time>2024-05-09T10:25:24Z</time>
      </trkpt>
      <trkpt lat="48.68049" lon="-3.92196">
        <ele>1.4</ele>
        <time>2024-05-09T10:25:27Z</time>
      </trkpt>
      <trkpt lat="48.68045" lon="-3.92193">
        <ele>0.19999999999999</ele>
        <time>2024-05-09T10:25:33Z</time>
      </trkpt>
      <trkpt lat="48.68045" lon="-3.92192">
        <ele>0.19999999999999</ele>
        <time>2024-05-09T10:25:35Z</time>
      </trkpt>
      <trkpt lat="48.68043" lon="-3.92188">
        <ele>-0.19999999999999</ele>
        <time>2024-05-09T10:25:39Z</time>
      </trkpt>
      <trkpt lat="48.68042" lon="-3.92188">
        <ele>-0.19999999999999</ele>
        <time>2024-05-09T10:25:41Z</time>
      </trkpt>
      <trkpt lat="48.68038" lon="-3.92185">
        <ele>0.19999999999999</ele>
        <time>2024-05-09T10:25:49Z</time>
      </trkpt>
      <trkpt lat="48.68033" lon="-3.92184">
        <ele>0.39999999999998</ele>
        <time>2024-05-09T10:25:56Z</time>
      </trkpt>
      <trkpt lat="48.6803" lon="-3.92186">
        <ele>0.60000000000002</ele>
        <time>2024-05-09T10:26:03Z</time>
      </trkpt>
      <trkpt lat="48.68024" lon="-3.92192">
        <ele>0.60000000000002</ele>
        <time>2024-05-09T10:26:14Z</time>
      </trkpt>
      <trkpt lat="48.68021" lon="-3.92196">
        <ele>1</ele>
        <time>2024-05-09T10:26:22Z</time>
      </trkpt>
      <trkpt lat="48.68016" lon="-3.92198">
        <ele>1</ele>
        <time>2024-05-09T10:26:30Z</time>
      </trkpt>
      <trkpt lat="48.68011" lon="-3.922">
        <ele>0.60000000000002</ele>
        <time>2024-05-09T10:26:38Z</time>
      </trkpt>
      <trkpt lat="48.68011" lon="-3.92208">
        <ele>0.60000000000002</ele>
        <time>2024-05-09T10:26:45Z</time>
      </trkpt>
      <trkpt lat="48.6801" lon="-3.92216">
        <ele>0.80000000000001</ele>
        <time>2024-05-09T10:26:53Z</time>
      </trkpt>
      <trkpt lat="48.68011" lon="-3.92221">
        <ele>1</ele>
        <time>2024-05-09T10:26:58Z</time>
      </trkpt>
      <trkpt lat="48.6801" lon="-3.92225">
        <ele>1.2</ele>
        <time>2024-05-09T10:27:04Z</time>
      </trkpt>
      <trkpt lat="48.68009" lon="-3.92227">
        <ele>1.6</ele>
        <time>2024-05-09T10:27:07Z</time>
      </trkpt>
      <trkpt lat="48.68008" lon="-3.9223">
        <ele>1.2</ele>
        <time>2024-05-09T10:27:10Z</time>
      </trkpt>
      <trkpt lat="48.68009" lon="-3.92229">
        <ele>1.2</ele>
        <time>2024-05-09T10:27:42Z</time>
      </trkpt>
      <trkpt lat="48.68009" lon="-3.92229">
        <ele>1.2</ele>
        <time>2024-05-09T10:27:43Z</time>
      </trkpt>
      <trkpt lat="48.68005" lon="-3.92236">
        <ele>0.60000000000002</ele>
        <time>2024-05-09T10:27:51Z</time>
      </trkpt>
      <trkpt lat="48.67999" lon="-3.92238">
        <ele>0.80000000000001</ele>
        <time>2024-05-09T10:27:56Z</time>
      </trkpt>
      <trkpt lat="48.67999" lon="-3.92238">
        <ele>1</ele>
        <time>2024-05-09T10:27:57Z</time>
      </trkpt>
      <trkpt lat="48.67997" lon="-3.92242">
        <ele>1.4</ele>
        <time>2024-05-09T10:28:02Z</time>
      </trkpt>
      <trkpt lat="48.67994" lon="-3.92247">
        <ele>2.2</ele>
        <time>2024-05-09T10:28:09Z</time>
      </trkpt>
      <trkpt lat="48.67994" lon="-3.92248">
        <ele>2.6</ele>
        <time>2024-05-09T10:28:10Z</time>
      </trkpt>
      <trkpt lat="48.67993" lon="-3.92249">
        <ele>2.6</ele>
        <time>2024-05-09T10:28:11Z</time>
      </trkpt>
      <trkpt lat="48.67991" lon="-3.92254">
        <ele>2.4</ele>
        <time>2024-05-09T10:28:15Z</time>
      </trkpt>
      <trkpt lat="48.67991" lon="-3.92255">
        <ele>2.4</ele>
        <time>2024-05-09T10:28:16Z</time>
      </trkpt>
      <trkpt lat="48.6799" lon="-3.92256">
        <ele>2.4</ele>
        <time>2024-05-09T10:28:17Z</time>
      </trkpt>
      <trkpt lat="48.67987" lon="-3.92261">
        <ele>2</ele>
        <time>2024-05-09T10:28:21Z</time>
      </trkpt>
      <trkpt lat="48.67986" lon="-3.92263">
        <ele>2</ele>
        <time>2024-05-09T10:28:23Z</time>
      </trkpt>
      <trkpt lat="48.67984" lon="-3.92271">
        <ele>1.8</ele>
        <time>2024-05-09T10:28:28Z</time>
      </trkpt>
      <trkpt lat="48.67982" lon="-3.92275">
        <ele>1.8</ele>
        <time>2024-05-09T10:28:31Z</time>
      </trkpt>
      <trkpt lat="48.6798" lon="-3.92281">
        <ele>1.8</ele>
        <time>2024-05-09T10:28:37Z</time>
      </trkpt>
      <trkpt lat="48.67981" lon="-3.92284">
        <ele>1.8</ele>
        <time>2024-05-09T10:28:43Z</time>
      </trkpt>
      <trkpt lat="48.67981" lon="-3.92291">
        <ele>1.6</ele>
        <time>2024-05-09T10:28:50Z</time>
      </trkpt>
      <trkpt lat="48.67981" lon="-3.92293">
        <ele>1.4</ele>
        <time>2024-05-09T10:28:52Z</time>
      </trkpt>
      <trkpt lat="48.67982" lon="-3.92298">
        <ele>1.4</ele>
        <time>2024-05-09T10:28:58Z</time>
      </trkpt>
      <trkpt lat="48.67982" lon="-3.92301">
        <ele>1.2</ele>
        <time>2024-05-09T10:29:00Z</time>
      </trkpt>
      <trkpt lat="48.67981" lon="-3.9231">
        <ele>1.2</ele>
        <time>2024-05-09T10:29:07Z</time>
      </trkpt>
      <trkpt lat="48.67983" lon="-3.92317">
        <ele>1.2</ele>
        <time>2024-05-09T10:29:13Z</time>
      </trkpt>
      <trkpt lat="48.67984" lon="-3.92319">
        <ele>1.4</ele>
        <time>2024-05-09T10:29:15Z</time>
      </trkpt>
      <trkpt lat="48.67985" lon="-3.92322">
        <ele>1.4</ele>
        <time>2024-05-09T10:29:19Z</time>
      </trkpt>
      <trkpt lat="48.67986" lon="-3.92331">
        <ele>1.4</ele>
        <time>2024-05-09T10:29:27Z</time>
      </trkpt>
      <trkpt lat="48.67987" lon="-3.92331">
        <ele>1.8</ele>
        <time>2024-05-09T10:29:34Z</time>
      </trkpt>
      <trkpt lat="48.67987" lon="-3.92331">
        <ele>1.8</ele>
        <time>2024-05-09T10:29:39Z</time>
      </trkpt>
      <trkpt lat="48.67987" lon="-3.9233">
        <ele>1.6</ele>
        <time>2024-05-09T10:29:46Z</time>
      </trkpt>
      <trkpt lat="48.67983" lon="-3.92337">
        <ele>1</ele>
        <time>2024-05-09T10:30:00Z</time>
      </trkpt>
      <trkpt lat="48.67971" lon="-3.92342">
        <ele>0.39999999999998</ele>
        <time>2024-05-09T10:30:08Z</time>
      </trkpt>
      <trkpt lat="48.67971" lon="-3.92342">
        <ele>0.19999999999999</ele>
        <time>2024-05-09T10:30:09Z</time>
      </trkpt>
      <trkpt lat="48.67972" lon="-3.92344">
        <ele>0.19999999999999</ele>
        <time>2024-05-09T10:30:10Z</time>
      </trkpt>
      <trkpt lat="48.67974" lon="-3.92346">
        <ele>0.19999999999999</ele>
        <time>2024-05-09T10:30:12Z</time>
      </trkpt>
      <trkpt lat="48.67974" lon="-3.92349">
        <ele>0.39999999999998</ele>
        <time>2024-05-09T10:30:19Z</time>
      </trkpt>
      <trkpt lat="48.67973" lon="-3.92349">
        <ele>0.39999999999998</ele>
        <time>2024-05-09T10:30:20Z</time>
      </trkpt>
      <trkpt lat="48.6797" lon="-3.92349">
        <ele>0.19999999999999</ele>
        <time>2024-05-09T10:30:23Z</time>
      </trkpt>
      <trkpt lat="48.67969" lon="-3.92347">
        <ele>0.19999999999999</ele>
        <time>2024-05-09T10:30:24Z</time>
      </trkpt>
      <trkpt lat="48.67962" lon="-3.92345">
        <ele>-0.60000000000002</ele>
        <time>2024-05-09T10:30:31Z</time>
      </trkpt>
      <trkpt lat="48.67958" lon="-3.92344">
        <ele>-1</ele>
        <time>2024-05-09T10:30:35Z</time>
      </trkpt>
      <trkpt lat="48.67949" lon="-3.92348">
        <ele>-1.6</ele>
        <time>2024-05-09T10:30:41Z</time>
      </trkpt>
      <trkpt lat="48.67949" lon="-3.9235">
        <ele>-1.6</ele>
        <time>2024-05-09T10:30:42Z</time>
      </trkpt>
      <trkpt lat="48.67948" lon="-3.9236">
        <ele>-1.6</ele>
        <time>2024-05-09T10:30:47Z</time>
      </trkpt>
      <trkpt lat="48.67946" lon="-3.92372">
        <ele>-1.6</ele>
        <time>2024-05-09T10:30:54Z</time>
      </trkpt>
      <trkpt lat="48.67943" lon="-3.92391">
        <ele>-1.6</ele>
        <time>2024-05-09T10:31:04Z</time>
      </trkpt>
      <trkpt lat="48.67941" lon="-3.92407">
        <ele>-1.4</ele>
        <time>2024-05-09T10:31:13Z</time>
      </trkpt>
      <trkpt lat="48.67944" lon="-3.92414">
        <ele>-1.4</ele>
        <time>2024-05-09T10:32:04Z</time>
      </trkpt>
      <trkpt lat="48.67944" lon="-3.92414">
        <ele>-1.6</ele>
        <time>2024-05-09T10:32:08Z</time>
      </trkpt>
      <trkpt lat="48.67939" lon="-3.9241">
        <ele>-1.8</ele>
        <time>2024-05-09T10:32:12Z</time>
      </trkpt>
      <trkpt lat="48.67928" lon="-3.9241">
        <ele>-1.8</ele>
        <time>2024-05-09T10:32:19Z</time>
      </trkpt>
      <trkpt lat="48.67922" lon="-3.9241">
        <ele>-2</ele>
        <time>2024-05-09T10:32:23Z</time>
      </trkpt>
      <trkpt lat="48.67919" lon="-3.92411">
        <ele>-2</ele>
        <time>2024-05-09T10:32:26Z</time>
      </trkpt>
      <trkpt lat="48.67911" lon="-3.92413">
        <ele>-2</ele>
        <time>2024-05-09T10:32:32Z</time>
      </trkpt>
      <trkpt lat="48.67902" lon="-3.92415">
        <ele>-2.2</ele>
        <time>2024-05-09T10:32:39Z</time>
      </trkpt>
      <trkpt lat="48.679" lon="-3.92416">
        <ele>-2.2</ele>
        <time>2024-05-09T10:32:41Z</time>
      </trkpt>
      <trkpt lat="48.67892" lon="-3.92418">
        <ele>-2.4</ele>
        <time>2024-05-09T10:32:46Z</time>
      </trkpt>
      <trkpt lat="48.67882" lon="-3.92419">
        <ele>-2.6</ele>
        <time>2024-05-09T10:32:53Z</time>
      </trkpt>
      <trkpt lat="48.67868" lon="-3.92421">
        <ele>-2</ele>
        <time>2024-05-09T10:33:03Z</time>
      </trkpt>
      <trkpt lat="48.6785" lon="-3.92418">
        <ele>-2</ele>
        <time>2024-05-09T10:33:14Z</time>
      </trkpt>
      <trkpt lat="48.67832" lon="-3.92422">
        <ele>-2</ele>
        <time>2024-05-09T10:33:27Z</time>
      </trkpt>
      <trkpt lat="48.67829" lon="-3.92423">
        <ele>-2</ele>
        <time>2024-05-09T10:33:29Z</time>
      </trkpt>
      <trkpt lat="48.67819" lon="-3.92424">
        <ele>-2</ele>
        <time>2024-05-09T10:33:37Z</time>
      </trkpt>
      <trkpt lat="48.67802" lon="-3.92425">
        <ele>-2</ele>
        <time>2024-05-09T10:33:48Z</time>
      </trkpt>
      <trkpt lat="48.67788" lon="-3.92427">
        <ele>-2</ele>
        <time>2024-05-09T10:33:58Z</time>
      </trkpt>
      <trkpt lat="48.67771" lon="-3.92431">
        <ele>-2</ele>
        <time>2024-05-09T10:34:08Z</time>
      </trkpt>
      <trkpt lat="48.6777" lon="-3.92432">
        <ele>-2</ele>
        <time>2024-05-09T10:34:09Z</time>
      </trkpt>
      <trkpt lat="48.67753" lon="-3.92433">
        <ele>-2</ele>
        <time>2024-05-09T10:34:20Z</time>
      </trkpt>
      <trkpt lat="48.67739" lon="-3.92434">
        <ele>-2</ele>
        <time>2024-05-09T10:34:30Z</time>
      </trkpt>
      <trkpt lat="48.6772" lon="-3.92438">
        <ele>-2</ele>
        <time>2024-05-09T10:34:42Z</time>
      </trkpt>
      <trkpt lat="48.67707" lon="-3.92437">
        <ele>-2</ele>
        <time>2024-05-09T10:34:51Z</time>
      </trkpt>
      <trkpt lat="48.67694" lon="-3.92441">
        <ele>-2</ele>
        <time>2024-05-09T10:35:00Z</time>
      </trkpt>
      <trkpt lat="48.6768" lon="-3.92445">
        <ele>-2</ele>
        <time>2024-05-09T10:35:10Z</time>
      </trkpt>
      <trkpt lat="48.67678" lon="-3.92446">
        <ele>-2</ele>
        <time>2024-05-09T10:35:12Z</time>
      </trkpt>
      <trkpt lat="48.67667" lon="-3.92449">
        <ele>-2</ele>
        <time>2024-05-09T10:35:21Z</time>
      </trkpt>
      <trkpt lat="48.67648" lon="-3.92452">
        <ele>-2</ele>
        <time>2024-05-09T10:35:33Z</time>
      </trkpt>
      <trkpt lat="48.67634" lon="-3.92457">
        <ele>-2</ele>
        <time>2024-05-09T10:35:43Z</time>
      </trkpt>
      <trkpt lat="48.67622" lon="-3.92462">
        <ele>-2</ele>
        <time>2024-05-09T10:35:52Z</time>
      </trkpt>
      <trkpt lat="48.67606" lon="-3.92466">
        <ele>-2</ele>
        <time>2024-05-09T10:36:03Z</time>
      </trkpt>
      <trkpt lat="48.67594" lon="-3.92467">
        <ele>-2</ele>
        <time>2024-05-09T10:36:11Z</time>
      </trkpt>
      <trkpt lat="48.67583" lon="-3.92469">
        <ele>-2</ele>
        <time>2024-05-09T10:36:19Z</time>
      </trkpt>
      <trkpt lat="48.6757" lon="-3.92469">
        <ele>-2</ele>
        <time>2024-05-09T10:36:28Z</time>
      </trkpt>
      <trkpt lat="48.67556" lon="-3.92469">
        <ele>-2</ele>
        <time>2024-05-09T10:36:38Z</time>
      </trkpt>
      <trkpt lat="48.67542" lon="-3.92467">
        <ele>-2</ele>
        <time>2024-05-09T10:36:47Z</time>
      </trkpt>
      <trkpt lat="48.67541" lon="-3.92467">
        <ele>-2</ele>
        <time>2024-05-09T10:36:48Z</time>
      </trkpt>
      <trkpt lat="48.6753" lon="-3.92468">
        <ele>-2</ele>
        <time>2024-05-09T10:36:56Z</time>
      </trkpt>
      <trkpt lat="48.67516" lon="-3.92469">
        <ele>-2</ele>
        <time>2024-05-09T10:37:06Z</time>
      </trkpt>
      <trkpt lat="48.67502" lon="-3.92473">
        <ele>1.8</ele>
        <time>2024-05-09T10:37:16Z</time>
      </trkpt>
      <trkpt lat="48.67492" lon="-3.92475">
        <ele>1.4</ele>
        <time>2024-05-09T10:37:23Z</time>
      </trkpt>
      <trkpt lat="48.67478" lon="-3.92477">
        <ele>1</ele>
        <time>2024-05-09T10:37:34Z</time>
      </trkpt>
      <trkpt lat="48.67465" lon="-3.92474">
        <ele>0.80000000000001</ele>
        <time>2024-05-09T10:37:43Z</time>
      </trkpt>
      <trkpt lat="48.67454" lon="-3.92462">
        <ele>0.80000000000001</ele>
        <time>2024-05-09T10:37:53Z</time>
      </trkpt>
      <trkpt lat="48.67452" lon="-3.92461">
        <ele>0.80000000000001</ele>
        <time>2024-05-09T10:37:54Z</time>
      </trkpt>
      <trkpt lat="48.67442" lon="-3.9245">
        <ele>0.60000000000002</ele>
        <time>2024-05-09T10:38:03Z</time>
      </trkpt>
      <trkpt lat="48.67435" lon="-3.92433">
        <ele>1.2</ele>
        <time>2024-05-09T10:38:12Z</time>
      </trkpt>
      <trkpt lat="48.67434" lon="-3.92423">
        <ele>2.2</ele>
        <time>2024-05-09T10:38:17Z</time>
      </trkpt>
      <trkpt lat="48.67434" lon="-3.92414">
        <ele>2.2</ele>
        <time>2024-05-09T10:38:21Z</time>
      </trkpt>
      <trkpt lat="48.6743" lon="-3.92396">
        <ele>2.2</ele>
        <time>2024-05-09T10:38:30Z</time>
      </trkpt>
      <trkpt lat="48.67424" lon="-3.9238">
        <ele>2.2</ele>
        <time>2024-05-09T10:38:38Z</time>
      </trkpt>
      <trkpt lat="48.67417" lon="-3.92373">
        <ele>2.2</ele>
        <time>2024-05-09T10:38:45Z</time>
      </trkpt>
      <trkpt lat="48.67416" lon="-3.92372">
        <ele>2.2</ele>
        <time>2024-05-09T10:38:46Z</time>
      </trkpt>
      <trkpt lat="48.6741" lon="-3.92366">
        <ele>2.2</ele>
        <time>2024-05-09T10:38:51Z</time>
      </trkpt>
      <trkpt lat="48.67399" lon="-3.92358">
        <ele>2.2</ele>
        <time>2024-05-09T10:38:59Z</time>
      </trkpt>
      <trkpt lat="48.6739" lon="-3.92351">
        <ele>2.2</ele>
        <time>2024-05-09T10:39:07Z</time>
      </trkpt>
      <trkpt lat="48.67381" lon="-3.92343">
        <ele>2.2</ele>
        <time>2024-05-09T10:39:15Z</time>
      </trkpt>
      <trkpt lat="48.67376" lon="-3.92338">
        <ele>2.2</ele>
        <time>2024-05-09T10:39:20Z</time>
      </trkpt>
      <trkpt lat="48.67372" lon="-3.92333">
        <ele>2.2</ele>
        <time>2024-05-09T10:39:23Z</time>
      </trkpt>
      <trkpt lat="48.67368" lon="-3.92328">
        <ele>2.2</ele>
        <time>2024-05-09T10:39:27Z</time>
      </trkpt>
      <trkpt lat="48.67366" lon="-3.92327">
        <ele>2.2</ele>
        <time>2024-05-09T10:39:29Z</time>
      </trkpt>
      <trkpt lat="48.67354" lon="-3.92321">
        <ele>2.2</ele>
        <time>2024-05-09T10:39:37Z</time>
      </trkpt>
      <trkpt lat="48.67348" lon="-3.92315">
        <ele>2.2</ele>
        <time>2024-05-09T10:39:44Z</time>
      </trkpt>
      <trkpt lat="48.67339" lon="-3.92312">
        <ele>2.2</ele>
        <time>2024-05-09T10:39:51Z</time>
      </trkpt>
      <trkpt lat="48.67333" lon="-3.92306">
        <ele>2.2</ele>
        <time>2024-05-09T10:39:57Z</time>
      </trkpt>
      <trkpt lat="48.67324" lon="-3.92297">
        <ele>2.2</ele>
        <time>2024-05-09T10:40:06Z</time>
      </trkpt>
      <trkpt lat="48.67324" lon="-3.92296">
        <ele>2.2</ele>
        <time>2024-05-09T10:40:07Z</time>
      </trkpt>
      <trkpt lat="48.67323" lon="-3.92287">
        <ele>2.2</ele>
        <time>2024-05-09T10:40:12Z</time>
      </trkpt>
      <trkpt lat="48.67326" lon="-3.92278">
        <ele>2.2</ele>
        <time>2024-05-09T10:40:18Z</time>
      </trkpt>
      <trkpt lat="48.67326" lon="-3.92277">
        <ele>6</ele>
        <time>2024-05-09T10:40:19Z</time>
      </trkpt>
      <trkpt lat="48.67328" lon="-3.92277">
        <ele>6</ele>
        <time>2024-05-09T10:40:20Z</time>
      </trkpt>
      <trkpt lat="48.67333" lon="-3.92274">
        <ele>6.2</ele>
        <time>2024-05-09T10:40:25Z</time>
      </trkpt>
      <trkpt lat="48.67336" lon="-3.92276">
        <ele>6.4</ele>
        <time>2024-05-09T10:40:27Z</time>
      </trkpt>
      <trkpt lat="48.67344" lon="-3.92277">
        <ele>6.6</ele>
        <time>2024-05-09T10:40:34Z</time>
      </trkpt>
      <trkpt lat="48.67347" lon="-3.92275">
        <ele>6.6</ele>
        <time>2024-05-09T10:40:37Z</time>
      </trkpt>
      <trkpt lat="48.6735" lon="-3.92274">
        <ele>6.6</ele>
        <time>2024-05-09T10:40:39Z</time>
      </trkpt>
      <trkpt lat="48.67361" lon="-3.9228">
        <ele>7</ele>
        <time>2024-05-09T10:40:47Z</time>
      </trkpt>
      <trkpt lat="48.67363" lon="-3.92281">
        <ele>7</ele>
        <time>2024-05-09T10:40:48Z</time>
      </trkpt>
      <trkpt lat="48.67376" lon="-3.9229">
        <ele>7</ele>
        <time>2024-05-09T10:40:56Z</time>
      </trkpt>
      <trkpt lat="48.67385" lon="-3.92293">
        <ele>7.4</ele>
        <time>2024-05-09T10:41:03Z</time>
      </trkpt>
      <trkpt lat="48.67398" lon="-3.92299">
        <ele>7.8</ele>
        <time>2024-05-09T10:41:11Z</time>
      </trkpt>
      <trkpt lat="48.67402" lon="-3.92302">
        <ele>8</ele>
        <time>2024-05-09T10:41:14Z</time>
      </trkpt>
      <trkpt lat="48.67406" lon="-3.92302">
        <ele>7.4</ele>
        <time>2024-05-09T10:41:18Z</time>
      </trkpt>
      <trkpt lat="48.67407" lon="-3.92301">
        <ele>7.4</ele>
        <time>2024-05-09T10:41:19Z</time>
      </trkpt>
      <trkpt lat="48.67415" lon="-3.92303">
        <ele>7.8</ele>
        <time>2024-05-09T10:41:23Z</time>
      </trkpt>
      <trkpt lat="48.67421" lon="-3.92299">
        <ele>8</ele>
        <time>2024-05-09T10:41:29Z</time>
      </trkpt>
      <trkpt lat="48.67423" lon="-3.92298">
        <ele>8</ele>
        <time>2024-05-09T10:41:31Z</time>
      </trkpt>
      <trkpt lat="48.67427" lon="-3.92296">
        <ele>8.4</ele>
        <time>2024-05-09T10:41:35Z</time>
      </trkpt>
      <trkpt lat="48.67433" lon="-3.92296">
        <ele>8.4</ele>
        <time>2024-05-09T10:41:37Z</time>
      </trkpt>
      <trkpt lat="48.67435" lon="-3.92295">
        <ele>8.4</ele>
        <time>2024-05-09T10:41:38Z</time>
      </trkpt>
      <trkpt lat="48.67436" lon="-3.92292">
        <ele>8.4</ele>
        <time>2024-05-09T10:41:40Z</time>
      </trkpt>
      <trkpt lat="48.67436" lon="-3.92289">
        <ele>8.6</ele>
        <time>2024-05-09T10:41:42Z</time>
      </trkpt>
      <trkpt lat="48.6744" lon="-3.92278">
        <ele>8.4</ele>
        <time>2024-05-09T10:41:49Z</time>
      </trkpt>
      <trkpt lat="48.67452" lon="-3.92274">
        <ele>8.8</ele>
        <time>2024-05-09T10:41:57Z</time>
      </trkpt>
      <trkpt lat="48.67459" lon="-3.92266">
        <ele>8.6</ele>
        <time>2024-05-09T10:42:04Z</time>
      </trkpt>
      <trkpt lat="48.6746" lon="-3.92265">
        <ele>8.6</ele>
        <time>2024-05-09T10:42:05Z</time>
      </trkpt>
      <trkpt lat="48.6746" lon="-3.92264">
        <ele>8.4</ele>
        <time>2024-05-09T10:42:06Z</time>
      </trkpt>
      <trkpt lat="48.67463" lon="-3.92261">
        <ele>8.4</ele>
        <time>2024-05-09T10:42:08Z</time>
      </trkpt>
      <trkpt lat="48.67466" lon="-3.92259">
        <ele>8.6</ele>
        <time>2024-05-09T10:42:10Z</time>
      </trkpt>
      <trkpt lat="48.67478" lon="-3.92245">
        <ele>8.2</ele>
        <time>2024-05-09T10:42:21Z</time>
      </trkpt>
      <trkpt lat="48.67489" lon="-3.92236">
        <ele>8.2</ele>
        <time>2024-05-09T10:42:30Z</time>
      </trkpt>
      <trkpt lat="48.67498" lon="-3.9223">
        <ele>8.2</ele>
        <time>2024-05-09T10:42:38Z</time>
      </trkpt>
      <trkpt lat="48.67508" lon="-3.92221">
        <ele>8.2</ele>
        <time>2024-05-09T10:42:46Z</time>
      </trkpt>
      <trkpt lat="48.67515" lon="-3.92218">
        <ele>8.2</ele>
        <time>2024-05-09T10:42:51Z</time>
      </trkpt>
      <trkpt lat="48.67528" lon="-3.9221">
        <ele>8.2</ele>
        <time>2024-05-09T10:43:01Z</time>
      </trkpt>
      <trkpt lat="48.67532" lon="-3.92196">
        <ele>8.2</ele>
        <time>2024-05-09T10:43:08Z</time>
      </trkpt>
      <trkpt lat="48.67532" lon="-3.92188">
        <ele>8.2</ele>
        <time>2024-05-09T10:43:12Z</time>
      </trkpt>
      <trkpt lat="48.6753" lon="-3.92185">
        <ele>8.2</ele>
        <time>2024-05-09T10:43:14Z</time>
      </trkpt>
      <trkpt lat="48.67527" lon="-3.92168">
        <ele>3.8</ele>
        <time>2024-05-09T10:43:22Z</time>
      </trkpt>
      <trkpt lat="48.67519" lon="-3.92153">
        <ele>3.6</ele>
        <time>2024-05-09T10:43:33Z</time>
      </trkpt>
      <trkpt lat="48.67512" lon="-3.92136">
        <ele>3</ele>
        <time>2024-05-09T10:43:43Z</time>
      </trkpt>
      <trkpt lat="48.67505" lon="-3.9212">
        <ele>2.8</ele>
        <time>2024-05-09T10:43:53Z</time>
      </trkpt>
      <trkpt lat="48.67499" lon="-3.92108">
        <ele>3.8</ele>
        <time>2024-05-09T10:44:00Z</time>
      </trkpt>
      <trkpt lat="48.67495" lon="-3.92101">
        <ele>3.6</ele>
        <time>2024-05-09T10:44:04Z</time>
      </trkpt>
      <trkpt lat="48.6749" lon="-3.92093">
        <ele>3.6</ele>
        <time>2024-05-09T10:44:08Z</time>
      </trkpt>
      <trkpt lat="48.67483" lon="-3.92078">
        <ele>3.4</ele>
        <time>2024-05-09T10:44:17Z</time>
      </trkpt>
      <trkpt lat="48.67479" lon="-3.92072">
        <ele>3.6</ele>
        <time>2024-05-09T10:44:21Z</time>
      </trkpt>
      <trkpt lat="48.67477" lon="-3.92067">
        <ele>3.2</ele>
        <time>2024-05-09T10:44:24Z</time>
      </trkpt>
      <trkpt lat="48.6747" lon="-3.9205">
        <ele>3</ele>
        <time>2024-05-09T10:44:33Z</time>
      </trkpt>
      <trkpt lat="48.67463" lon="-3.92033">
        <ele>2.8</ele>
        <time>2024-05-09T10:44:42Z</time>
      </trkpt>
      <trkpt lat="48.6746" lon="-3.92025">
        <ele>2.8</ele>
        <time>2024-05-09T10:44:46Z</time>
      </trkpt>
      <trkpt lat="48.67457" lon="-3.92022">
        <ele>2.6</ele>
        <time>2024-05-09T10:44:49Z</time>
      </trkpt>
      <trkpt lat="48.6745" lon="-3.92002">
        <ele>2.6</ele>
        <time>2024-05-09T10:44:59Z</time>
      </trkpt>
      <trkpt lat="48.67447" lon="-3.91991">
        <ele>2.4</ele>
        <time>2024-05-09T10:45:05Z</time>
      </trkpt>
      <trkpt lat="48.67446" lon="-3.91989">
        <ele>2.4</ele>
        <time>2024-05-09T10:45:06Z</time>
      </trkpt>
      <trkpt lat="48.67441" lon="-3.91969">
        <ele>2</ele>
        <time>2024-05-09T10:45:16Z</time>
      </trkpt>
      <trkpt lat="48.6744" lon="-3.91962">
        <ele>1.6</ele>
        <time>2024-05-09T10:45:20Z</time>
      </trkpt>
      <trkpt lat="48.6744" lon="-3.91953">
        <ele>1.4</ele>
        <time>2024-05-09T10:45:24Z</time>
      </trkpt>
      <trkpt lat="48.6744" lon="-3.91947">
        <ele>1.4</ele>
        <time>2024-05-09T10:45:27Z</time>
      </trkpt>
      <trkpt lat="48.67439" lon="-3.91931">
        <ele>1.4</ele>
        <time>2024-05-09T10:45:34Z</time>
      </trkpt>
      <trkpt lat="48.67432" lon="-3.91909">
        <ele>1.4</ele>
        <time>2024-05-09T10:45:45Z</time>
      </trkpt>
      <trkpt lat="48.67421" lon="-3.919">
        <ele>1.4</ele>
        <time>2024-05-09T10:45:54Z</time>
      </trkpt>
      <trkpt lat="48.67408" lon="-3.91892">
        <ele>1.4</ele>
        <time>2024-05-09T10:46:04Z</time>
      </trkpt>
      <trkpt lat="48.674" lon="-3.91886">
        <ele>1.4</ele>
        <time>2024-05-09T10:46:11Z</time>
      </trkpt>
      <trkpt lat="48.67398" lon="-3.91886">
        <ele>1.4</ele>
        <time>2024-05-09T10:46:13Z</time>
      </trkpt>
      <trkpt lat="48.67386" lon="-3.91873">
        <ele>4</ele>
        <time>2024-05-09T10:46:25Z</time>
      </trkpt>
      <trkpt lat="48.67376" lon="-3.91863">
        <ele>4.6</ele>
        <time>2024-05-09T10:46:35Z</time>
      </trkpt>
      <trkpt lat="48.67372" lon="-3.9186">
        <ele>5.2</ele>
        <time>2024-05-09T10:46:39Z</time>
      </trkpt>
      <trkpt lat="48.67365" lon="-3.9186">
        <ele>5.6</ele>
        <time>2024-05-09T10:46:44Z</time>
      </trkpt>
      <trkpt lat="48.67358" lon="-3.91857">
        <ele>6.2</ele>
        <time>2024-05-09T10:46:50Z</time>
      </trkpt>
      <trkpt lat="48.67355" lon="-3.91855">
        <ele>6.6</ele>
        <time>2024-05-09T10:46:54Z</time>
      </trkpt>
      <trkpt lat="48.67353" lon="-3.9184">
        <ele>7.2</ele>
        <time>2024-05-09T10:47:02Z</time>
      </trkpt>
      <trkpt lat="48.67352" lon="-3.91838">
        <ele>7.4</ele>
        <time>2024-05-09T10:47:03Z</time>
      </trkpt>
      <trkpt lat="48.67349" lon="-3.91832">
        <ele>8.4</ele>
        <time>2024-05-09T10:47:07Z</time>
      </trkpt>
      <trkpt lat="48.67349" lon="-3.91831">
        <ele>8.6</ele>
        <time>2024-05-09T10:47:08Z</time>
      </trkpt>
      <trkpt lat="48.67345" lon="-3.9182">
        <ele>9.6</ele>
        <time>2024-05-09T10:47:15Z</time>
      </trkpt>
      <trkpt lat="48.67344" lon="-3.91818">
        <ele>9.8</ele>
        <time>2024-05-09T10:47:16Z</time>
      </trkpt>
      <trkpt lat="48.67343" lon="-3.91812">
        <ele>10.8</ele>
        <time>2024-05-09T10:47:20Z</time>
      </trkpt>
      <trkpt lat="48.67342" lon="-3.91803">
        <ele>11.6</ele>
        <time>2024-05-09T10:47:25Z</time>
      </trkpt>
      <trkpt lat="48.67342" lon="-3.918">
        <ele>11.8</ele>
        <time>2024-05-09T10:47:26Z</time>
      </trkpt>
      <trkpt lat="48.67342" lon="-3.91789">
        <ele>13</ele>
        <time>2024-05-09T10:47:31Z</time>
      </trkpt>
      <trkpt lat="48.67341" lon="-3.91785">
        <ele>13.4</ele>
        <time>2024-05-09T10:47:33Z</time>
      </trkpt>
      <trkpt lat="48.67341" lon="-3.91775">
        <ele>14</ele>
        <time>2024-05-09T10:47:37Z</time>
      </trkpt>
      <trkpt lat="48.67338" lon="-3.9177">
        <ele>14.6</ele>
        <time>2024-05-09T10:47:41Z</time>
      </trkpt>
      <trkpt lat="48.67334" lon="-3.91767">
        <ele>15.2</ele>
        <time>2024-05-09T10:47:44Z</time>
      </trkpt>
      <trkpt lat="48.67326" lon="-3.91763">
        <ele>15.6</ele>
        <time>2024-05-09T10:47:49Z</time>
      </trkpt>
      <trkpt lat="48.67319" lon="-3.91761">
        <ele>16.2</ele>
        <time>2024-05-09T10:47:54Z</time>
      </trkpt>
      <trkpt lat="48.67318" lon="-3.91761">
        <ele>16.2</ele>
        <time>2024-05-09T10:47:55Z</time>
      </trkpt>
      <trkpt lat="48.6731" lon="-3.91758">
        <ele>17.2</ele>
        <time>2024-05-09T10:48:02Z</time>
      </trkpt>
      <trkpt lat="48.67309" lon="-3.91758">
        <ele>17.4</ele>
        <time>2024-05-09T10:48:03Z</time>
      </trkpt>
      <trkpt lat="48.67298" lon="-3.91754">
        <ele>18.4</ele>
        <time>2024-05-09T10:48:11Z</time>
      </trkpt>
      <trkpt lat="48.67297" lon="-3.91754">
        <ele>18.6</ele>
        <time>2024-05-09T10:48:12Z</time>
      </trkpt>
      <trkpt lat="48.67295" lon="-3.9175">
        <ele>19</ele>
        <time>2024-05-09T10:48:15Z</time>
      </trkpt>
      <trkpt lat="48.67291" lon="-3.91744">
        <ele>19.4</ele>
        <time>2024-05-09T10:48:18Z</time>
      </trkpt>
      <trkpt lat="48.67287" lon="-3.91742">
        <ele>19.6</ele>
        <time>2024-05-09T10:48:21Z</time>
      </trkpt>
      <trkpt lat="48.67283" lon="-3.91738">
        <ele>20.2</ele>
        <time>2024-05-09T10:48:25Z</time>
      </trkpt>
      <trkpt lat="48.67281" lon="-3.91732">
        <ele>20.6</ele>
        <time>2024-05-09T10:48:28Z</time>
      </trkpt>
      <trkpt lat="48.6728" lon="-3.91731">
        <ele>21</ele>
        <time>2024-05-09T10:48:30Z</time>
      </trkpt>
      <trkpt lat="48.67281" lon="-3.9173">
        <ele>21</ele>
        <time>2024-05-09T10:48:31Z</time>
      </trkpt>
      <trkpt lat="48.67283" lon="-3.91726">
        <ele>21.6</ele>
        <time>2024-05-09T10:48:35Z</time>
      </trkpt>
      <trkpt lat="48.67284" lon="-3.91725">
        <ele>21.8</ele>
        <time>2024-05-09T10:48:36Z</time>
      </trkpt>
      <trkpt lat="48.67284" lon="-3.91722">
        <ele>21.8</ele>
        <time>2024-05-09T10:48:38Z</time>
      </trkpt>
      <trkpt lat="48.67285" lon="-3.91716">
        <ele>22.4</ele>
        <time>2024-05-09T10:48:42Z</time>
      </trkpt>
      <trkpt lat="48.67285" lon="-3.91714">
        <ele>22.4</ele>
        <time>2024-05-09T10:48:43Z</time>
      </trkpt>
      <trkpt lat="48.67285" lon="-3.91711">
        <ele>22.6</ele>
        <time>2024-05-09T10:48:45Z</time>
      </trkpt>
      <trkpt lat="48.67289" lon="-3.91709">
        <ele>22.6</ele>
        <time>2024-05-09T10:48:48Z</time>
      </trkpt>
      <trkpt lat="48.6729" lon="-3.91709">
        <ele>22.8</ele>
        <time>2024-05-09T10:48:49Z</time>
      </trkpt>
      <trkpt lat="48.67291" lon="-3.91707">
        <ele>22.8</ele>
        <time>2024-05-09T10:48:50Z</time>
      </trkpt>
      <trkpt lat="48.67294" lon="-3.91701">
        <ele>22.8</ele>
        <time>2024-05-09T10:48:53Z</time>
      </trkpt>
      <trkpt lat="48.67296" lon="-3.91696">
        <ele>22.8</ele>
        <time>2024-05-09T10:48:56Z</time>
      </trkpt>
      <trkpt lat="48.67296" lon="-3.91692">
        <ele>22.6</ele>
        <time>2024-05-09T10:48:58Z</time>
      </trkpt>
      <trkpt lat="48.67296" lon="-3.9169">
        <ele>22.6</ele>
        <time>2024-05-09T10:48:59Z</time>
      </trkpt>
      <trkpt lat="48.67298" lon="-3.91683">
        <ele>22.4</ele>
        <time>2024-05-09T10:49:02Z</time>
      </trkpt>
      <trkpt lat="48.67298" lon="-3.9168">
        <ele>22.4</ele>
        <time>2024-05-09T10:49:03Z</time>
      </trkpt>
      <trkpt lat="48.67298" lon="-3.91677">
        <ele>22</ele>
        <time>2024-05-09T10:49:05Z</time>
      </trkpt>
      <trkpt lat="48.67297" lon="-3.91675">
        <ele>21.8</ele>
        <time>2024-05-09T10:49:06Z</time>
      </trkpt>
      <trkpt lat="48.67297" lon="-3.9167">
        <ele>21.8</ele>
        <time>2024-05-09T10:49:08Z</time>
      </trkpt>
      <trkpt lat="48.67297" lon="-3.91667">
        <ele>21.6</ele>
        <time>2024-05-09T10:49:09Z</time>
      </trkpt>
      <trkpt lat="48.67297" lon="-3.91661">
        <ele>21.6</ele>
        <time>2024-05-09T10:49:11Z</time>
      </trkpt>
      <trkpt lat="48.67293" lon="-3.91646">
        <ele>21.6</ele>
        <time>2024-05-09T10:49:19Z</time>
      </trkpt>
      <trkpt lat="48.67292" lon="-3.91642">
        <ele>21.6</ele>
        <time>2024-05-09T10:49:21Z</time>
      </trkpt>
      <trkpt lat="48.6729" lon="-3.91638">
        <ele>22.2</ele>
        <time>2024-05-09T10:49:25Z</time>
      </trkpt>
      <trkpt lat="48.6729" lon="-3.91637">
        <ele>23</ele>
        <time>2024-05-09T10:49:28Z</time>
      </trkpt>
      <trkpt lat="48.6729" lon="-3.91634">
        <ele>23.6</ele>
        <time>2024-05-09T10:49:31Z</time>
      </trkpt>
      <trkpt lat="48.67292" lon="-3.91627">
        <ele>23.8</ele>
        <time>2024-05-09T10:49:34Z</time>
      </trkpt>
      <trkpt lat="48.67291" lon="-3.91621">
        <ele>23.6</ele>
        <time>2024-05-09T10:49:37Z</time>
      </trkpt>
      <trkpt lat="48.67292" lon="-3.91618">
        <ele>23.4</ele>
        <time>2024-05-09T10:49:39Z</time>
      </trkpt>
      <trkpt lat="48.67295" lon="-3.91614">
        <ele>23.4</ele>
        <time>2024-05-09T10:49:41Z</time>
      </trkpt>
      <trkpt lat="48.673" lon="-3.91606">
        <ele>22.6</ele>
        <time>2024-05-09T10:49:46Z</time>
      </trkpt>
      <trkpt lat="48.67301" lon="-3.91602">
        <ele>22.2</ele>
        <time>2024-05-09T10:49:48Z</time>
      </trkpt>
      <trkpt lat="48.67301" lon="-3.91598">
        <ele>22.2</ele>
        <time>2024-05-09T10:49:50Z</time>
      </trkpt>
      <trkpt lat="48.67302" lon="-3.91596">
        <ele>22</ele>
        <time>2024-05-09T10:49:51Z</time>
      </trkpt>
      <trkpt lat="48.67302" lon="-3.91594">
        <ele>21.8</ele>
        <time>2024-05-09T10:49:52Z</time>
      </trkpt>
      <trkpt lat="48.67304" lon="-3.91589">
        <ele>21</ele>
        <time>2024-05-09T10:49:55Z</time>
      </trkpt>
      <trkpt lat="48.67306" lon="-3.91588">
        <ele>20.6</ele>
        <time>2024-05-09T10:49:56Z</time>
      </trkpt>
      <trkpt lat="48.6731" lon="-3.91585">
        <ele>19.6</ele>
        <time>2024-05-09T10:50:00Z</time>
      </trkpt>
      <trkpt lat="48.67313" lon="-3.91582">
        <ele>19.2</ele>
        <time>2024-05-09T10:50:02Z</time>
      </trkpt>
      <trkpt lat="48.67315" lon="-3.91576">
        <ele>18.4</ele>
        <time>2024-05-09T10:50:06Z</time>
      </trkpt>
      <trkpt lat="48.67318" lon="-3.91568">
        <ele>18.2</ele>
        <time>2024-05-09T10:50:10Z</time>
      </trkpt>
      <trkpt lat="48.67319" lon="-3.91563">
        <ele>18.2</ele>
        <time>2024-05-09T10:50:12Z</time>
      </trkpt>
      <trkpt lat="48.67318" lon="-3.91553">
        <ele>18.2</ele>
        <time>2024-05-09T10:50:18Z</time>
      </trkpt>
      <trkpt lat="48.67318" lon="-3.91551">
        <ele>18.4</ele>
        <time>2024-05-09T10:50:24Z</time>
      </trkpt>
      <trkpt lat="48.67318" lon="-3.91543">
        <ele>18.6</ele>
        <time>2024-05-09T10:50:31Z</time>
      </trkpt>
      <trkpt lat="48.67318" lon="-3.91527">
        <ele>19.2</ele>
        <time>2024-05-09T10:50:39Z</time>
      </trkpt>
      <trkpt lat="48.67319" lon="-3.91524">
        <ele>19.6</ele>
        <time>2024-05-09T10:50:41Z</time>
      </trkpt>
      <trkpt lat="48.67318" lon="-3.91518">
        <ele>20.2</ele>
        <time>2024-05-09T10:50:44Z</time>
      </trkpt>
      <trkpt lat="48.67317" lon="-3.91514">
        <ele>20.6</ele>
        <time>2024-05-09T10:50:46Z</time>
      </trkpt>
      <trkpt lat="48.67317" lon="-3.9151">
        <ele>20.6</ele>
        <time>2024-05-09T10:50:49Z</time>
      </trkpt>
      <trkpt lat="48.67323" lon="-3.91496">
        <ele>21</ele>
        <time>2024-05-09T10:50:56Z</time>
      </trkpt>
      <trkpt lat="48.67327" lon="-3.91488">
        <ele>20.8</ele>
        <time>2024-05-09T10:51:00Z</time>
      </trkpt>
      <trkpt lat="48.67328" lon="-3.91484">
        <ele>20.8</ele>
        <time>2024-05-09T10:51:02Z</time>
      </trkpt>
      <trkpt lat="48.67329" lon="-3.91482">
        <ele>20.6</ele>
        <time>2024-05-09T10:51:05Z</time>
      </trkpt>
      <trkpt lat="48.67333" lon="-3.91481">
        <ele>20.4</ele>
        <time>2024-05-09T10:51:08Z</time>
      </trkpt>
      <trkpt lat="48.67339" lon="-3.91471">
        <ele>20</ele>
        <time>2024-05-09T10:51:13Z</time>
      </trkpt>
      <trkpt lat="48.6734" lon="-3.91468">
        <ele>19.8</ele>
        <time>2024-05-09T10:51:15Z</time>
      </trkpt>
      <trkpt lat="48.67345" lon="-3.9146">
        <ele>19.2</ele>
        <time>2024-05-09T10:51:20Z</time>
      </trkpt>
      <trkpt lat="48.67348" lon="-3.91458">
        <ele>19</ele>
        <time>2024-05-09T10:51:23Z</time>
      </trkpt>
      <trkpt lat="48.67353" lon="-3.91455">
        <ele>18</ele>
        <time>2024-05-09T10:51:27Z</time>
      </trkpt>
      <trkpt lat="48.67358" lon="-3.91449">
        <ele>17.6</ele>
        <time>2024-05-09T10:51:31Z</time>
      </trkpt>
      <trkpt lat="48.6736" lon="-3.91445">
        <ele>17.8</ele>
        <time>2024-05-09T10:51:33Z</time>
      </trkpt>
      <trkpt lat="48.6736" lon="-3.91436">
        <ele>18</ele>
        <time>2024-05-09T10:51:37Z</time>
      </trkpt>
      <trkpt lat="48.6736" lon="-3.91422">
        <ele>18.4</ele>
        <time>2024-05-09T10:51:44Z</time>
      </trkpt>
      <trkpt lat="48.67361" lon="-3.91417">
        <ele>18.4</ele>
        <time>2024-05-09T10:51:47Z</time>
      </trkpt>
      <trkpt lat="48.67363" lon="-3.91408">
        <ele>19</ele>
        <time>2024-05-09T10:51:52Z</time>
      </trkpt>
      <trkpt lat="48.67363" lon="-3.91404">
        <ele>19.2</ele>
        <time>2024-05-09T10:51:54Z</time>
      </trkpt>
      <trkpt lat="48.67363" lon="-3.91386">
        <ele>20</ele>
        <time>2024-05-09T10:52:03Z</time>
      </trkpt>
      <trkpt lat="48.67363" lon="-3.91384">
        <ele>20.2</ele>
        <time>2024-05-09T10:52:04Z</time>
      </trkpt>
      <trkpt lat="48.67361" lon="-3.91378">
        <ele>21.2</ele>
        <time>2024-05-09T10:52:08Z</time>
      </trkpt>
      <trkpt lat="48.67361" lon="-3.91377">
        <ele>21.4</ele>
        <time>2024-05-09T10:52:09Z</time>
      </trkpt>
      <trkpt lat="48.6736" lon="-3.91375">
        <ele>22</ele>
        <time>2024-05-09T10:52:11Z</time>
      </trkpt>
      <trkpt lat="48.67359" lon="-3.91371">
        <ele>22.8</ele>
        <time>2024-05-09T10:52:13Z</time>
      </trkpt>
      <trkpt lat="48.67358" lon="-3.91366">
        <ele>23.4</ele>
        <time>2024-05-09T10:52:15Z</time>
      </trkpt>
      <trkpt lat="48.67354" lon="-3.91359">
        <ele>23.8</ele>
        <time>2024-05-09T10:52:19Z</time>
      </trkpt>
      <trkpt lat="48.67353" lon="-3.91356">
        <ele>24</ele>
        <time>2024-05-09T10:52:21Z</time>
      </trkpt>
      <trkpt lat="48.67352" lon="-3.91356">
        <ele>24</ele>
        <time>2024-05-09T10:52:22Z</time>
      </trkpt>
      <trkpt lat="48.67348" lon="-3.91348">
        <ele>24.4</ele>
        <time>2024-05-09T10:52:27Z</time>
      </trkpt>
      <trkpt lat="48.67342" lon="-3.91334">
        <ele>23.6</ele>
        <time>2024-05-09T10:52:35Z</time>
      </trkpt>
      <trkpt lat="48.67339" lon="-3.91329">
        <ele>22.4</ele>
        <time>2024-05-09T10:52:39Z</time>
      </trkpt>
      <trkpt lat="48.67335" lon="-3.91326">
        <ele>21.4</ele>
        <time>2024-05-09T10:52:42Z</time>
      </trkpt>
      <trkpt lat="48.67332" lon="-3.91323">
        <ele>21</ele>
        <time>2024-05-09T10:52:44Z</time>
      </trkpt>
      <trkpt lat="48.67329" lon="-3.91317">
        <ele>20.4</ele>
        <time>2024-05-09T10:52:47Z</time>
      </trkpt>
      <trkpt lat="48.67323" lon="-3.91309">
        <ele>19.6</ele>
        <time>2024-05-09T10:52:52Z</time>
      </trkpt>
      <trkpt lat="48.67318" lon="-3.91306">
        <ele>19.4</ele>
        <time>2024-05-09T10:52:56Z</time>
      </trkpt>
      <trkpt lat="48.67314" lon="-3.91303">
        <ele>19.4</ele>
        <time>2024-05-09T10:52:59Z</time>
      </trkpt>
      <trkpt lat="48.67314" lon="-3.91301">
        <ele>19.4</ele>
        <time>2024-05-09T10:53:00Z</time>
      </trkpt>
      <trkpt lat="48.67312" lon="-3.91299">
        <ele>19.4</ele>
        <time>2024-05-09T10:53:02Z</time>
      </trkpt>
      <trkpt lat="48.67312" lon="-3.91298">
        <ele>19.4</ele>
        <time>2024-05-09T10:53:03Z</time>
      </trkpt>
      <trkpt lat="48.67304" lon="-3.9129">
        <ele>19.4</ele>
        <time>2024-05-09T10:53:10Z</time>
      </trkpt>
      <trkpt lat="48.67297" lon="-3.91282">
        <ele>18.6</ele>
        <time>2024-05-09T10:53:17Z</time>
      </trkpt>
      <trkpt lat="48.67295" lon="-3.91279">
        <ele>18.2</ele>
        <time>2024-05-09T10:53:19Z</time>
      </trkpt>
      <trkpt lat="48.67286" lon="-3.91268">
        <ele>17.4</ele>
        <time>2024-05-09T10:53:26Z</time>
      </trkpt>
      <trkpt lat="48.67282" lon="-3.91265">
        <ele>17.2</ele>
        <time>2024-05-09T10:53:29Z</time>
      </trkpt>
      <trkpt lat="48.67275" lon="-3.91255">
        <ele>17.6</ele>
        <time>2024-05-09T10:53:35Z</time>
      </trkpt>
      <trkpt lat="48.67265" lon="-3.91245">
        <ele>16.8</ele>
        <time>2024-05-09T10:53:44Z</time>
      </trkpt>
      <trkpt lat="48.67261" lon="-3.91239">
        <ele>16</ele>
        <time>2024-05-09T10:53:48Z</time>
      </trkpt>
      <trkpt lat="48.67255" lon="-3.91233">
        <ele>15.6</ele>
        <time>2024-05-09T10:53:52Z</time>
      </trkpt>
      <trkpt lat="48.6725" lon="-3.91229">
        <ele>15</ele>
        <time>2024-05-09T10:53:56Z</time>
      </trkpt>
      <trkpt lat="48.67246" lon="-3.91228">
        <ele>14.8</ele>
        <time>2024-05-09T10:53:59Z</time>
      </trkpt>
      <trkpt lat="48.67238" lon="-3.91226">
        <ele>14.8</ele>
        <time>2024-05-09T10:54:05Z</time>
      </trkpt>
      <trkpt lat="48.67227" lon="-3.91228">
        <ele>14.8</ele>
        <time>2024-05-09T10:54:13Z</time>
      </trkpt>
      <trkpt lat="48.67215" lon="-3.91228">
        <ele>14</ele>
        <time>2024-05-09T10:54:21Z</time>
      </trkpt>
      <trkpt lat="48.67214" lon="-3.91228">
        <ele>14</ele>
        <time>2024-05-09T10:54:22Z</time>
      </trkpt>
      <trkpt lat="48.67206" lon="-3.91232">
        <ele>14.2</ele>
        <time>2024-05-09T10:54:29Z</time>
      </trkpt>
      <trkpt lat="48.67197" lon="-3.91236">
        <ele>15</ele>
        <time>2024-05-09T10:54:36Z</time>
      </trkpt>
      <trkpt lat="48.67196" lon="-3.91236">
        <ele>15.4</ele>
        <time>2024-05-09T10:54:37Z</time>
      </trkpt>
      <trkpt lat="48.67195" lon="-3.9124">
        <ele>16.2</ele>
        <time>2024-05-09T10:54:40Z</time>
      </trkpt>
      <trkpt lat="48.67195" lon="-3.91241">
        <ele>16.8</ele>
        <time>2024-05-09T10:54:42Z</time>
      </trkpt>
      <trkpt lat="48.67196" lon="-3.91242">
        <ele>17.4</ele>
        <time>2024-05-09T10:54:45Z</time>
      </trkpt>
      <trkpt lat="48.67195" lon="-3.91243">
        <ele>18.4</ele>
        <time>2024-05-09T10:54:49Z</time>
      </trkpt>
      <trkpt lat="48.67192" lon="-3.91246">
        <ele>19.4</ele>
        <time>2024-05-09T10:54:53Z</time>
      </trkpt>
      <trkpt lat="48.67191" lon="-3.91247">
        <ele>19.6</ele>
        <time>2024-05-09T10:54:54Z</time>
      </trkpt>
      <trkpt lat="48.67188" lon="-3.91251">
        <ele>20.2</ele>
        <time>2024-05-09T10:54:57Z</time>
      </trkpt>
      <trkpt lat="48.67182" lon="-3.91256">
        <ele>20.4</ele>
        <time>2024-05-09T10:55:01Z</time>
      </trkpt>
      <trkpt lat="48.67178" lon="-3.91263">
        <ele>21</ele>
        <time>2024-05-09T10:55:06Z</time>
      </trkpt>
      <trkpt lat="48.67174" lon="-3.91264">
        <ele>21</ele>
        <time>2024-05-09T10:55:09Z</time>
      </trkpt>
      <trkpt lat="48.67172" lon="-3.91262">
        <ele>20.8</ele>
        <time>2024-05-09T10:55:11Z</time>
      </trkpt>
      <trkpt lat="48.67165" lon="-3.91261">
        <ele>20.6</ele>
        <time>2024-05-09T10:55:16Z</time>
      </trkpt>
      <trkpt lat="48.67163" lon="-3.91261">
        <ele>20.6</ele>
        <time>2024-05-09T10:55:17Z</time>
      </trkpt>
      <trkpt lat="48.67154" lon="-3.91259">
        <ele>20.8</ele>
        <time>2024-05-09T10:55:24Z</time>
      </trkpt>
      <trkpt lat="48.67153" lon="-3.91258">
        <ele>20.8</ele>
        <time>2024-05-09T10:55:25Z</time>
      </trkpt>
      <trkpt lat="48.67151" lon="-3.91256">
        <ele>21</ele>
        <time>2024-05-09T10:55:27Z</time>
      </trkpt>
      <trkpt lat="48.67146" lon="-3.91254">
        <ele>21.2</ele>
        <time>2024-05-09T10:55:31Z</time>
      </trkpt>
      <trkpt lat="48.67144" lon="-3.91251">
        <ele>21.2</ele>
        <time>2024-05-09T10:55:33Z</time>
      </trkpt>
      <trkpt lat="48.67139" lon="-3.91247">
        <ele>20.8</ele>
        <time>2024-05-09T10:55:37Z</time>
      </trkpt>
      <trkpt lat="48.67134" lon="-3.91241">
        <ele>20.2</ele>
        <time>2024-05-09T10:55:41Z</time>
      </trkpt>
      <trkpt lat="48.67132" lon="-3.91238">
        <ele>19.6</ele>
        <time>2024-05-09T10:55:44Z</time>
      </trkpt>
      <trkpt lat="48.67132" lon="-3.91236">
        <ele>19.4</ele>
        <time>2024-05-09T10:55:45Z</time>
      </trkpt>
      <trkpt lat="48.6713" lon="-3.91232">
        <ele>19</ele>
        <time>2024-05-09T10:55:48Z</time>
      </trkpt>
      <trkpt lat="48.6713" lon="-3.91228">
        <ele>18.4</ele>
        <time>2024-05-09T10:55:50Z</time>
      </trkpt>
      <trkpt lat="48.67127" lon="-3.91224">
        <ele>17.2</ele>
        <time>2024-05-09T10:55:54Z</time>
      </trkpt>
      <trkpt lat="48.67125" lon="-3.91223">
        <ele>16.8</ele>
        <time>2024-05-09T10:55:55Z</time>
      </trkpt>
      <trkpt lat="48.67121" lon="-3.9122">
        <ele>16.2</ele>
        <time>2024-05-09T10:55:58Z</time>
      </trkpt>
      <trkpt lat="48.67112" lon="-3.91213">
        <ele>15.2</ele>
        <time>2024-05-09T10:56:04Z</time>
      </trkpt>
      <trkpt lat="48.67109" lon="-3.9121">
        <ele>15</ele>
        <time>2024-05-09T10:56:07Z</time>
      </trkpt>
      <trkpt lat="48.67109" lon="-3.91209">
        <ele>14.8</ele>
        <time>2024-05-09T10:56:08Z</time>
      </trkpt>
      <trkpt lat="48.67096" lon="-3.91203">
        <ele>14.6</ele>
        <time>2024-05-09T10:56:15Z</time>
      </trkpt>
      <trkpt lat="48.67084" lon="-3.91195">
        <ele>14.4</ele>
        <time>2024-05-09T10:56:23Z</time>
      </trkpt>
      <trkpt lat="48.67072" lon="-3.91191">
        <ele>14.8</ele>
        <time>2024-05-09T10:56:31Z</time>
      </trkpt>
      <trkpt lat="48.67065" lon="-3.91189">
        <ele>15</ele>
        <time>2024-05-09T10:56:37Z</time>
      </trkpt>
      <trkpt lat="48.67063" lon="-3.9119">
        <ele>15.2</ele>
        <time>2024-05-09T10:56:39Z</time>
      </trkpt>
      <trkpt lat="48.67059" lon="-3.9119">
        <ele>15.4</ele>
        <time>2024-05-09T10:56:42Z</time>
      </trkpt>
      <trkpt lat="48.67058" lon="-3.91191">
        <ele>15.4</ele>
        <time>2024-05-09T10:56:44Z</time>
      </trkpt>
      <trkpt lat="48.67055" lon="-3.91189">
        <ele>15.4</ele>
        <time>2024-05-09T10:56:46Z</time>
      </trkpt>
      <trkpt lat="48.67044" lon="-3.91187">
        <ele>14.4</ele>
        <time>2024-05-09T10:56:54Z</time>
      </trkpt>
      <trkpt lat="48.67043" lon="-3.91186">
        <ele>14.2</ele>
        <time>2024-05-09T10:56:55Z</time>
      </trkpt>
      <trkpt lat="48.67041" lon="-3.91185">
        <ele>14</ele>
        <time>2024-05-09T10:56:57Z</time>
      </trkpt>
      <trkpt lat="48.6704" lon="-3.91183">
        <ele>13.6</ele>
        <time>2024-05-09T10:57:00Z</time>
      </trkpt>
      <trkpt lat="48.67038" lon="-3.91182">
        <ele>12.8</ele>
        <time>2024-05-09T10:57:02Z</time>
      </trkpt>
      <trkpt lat="48.67037" lon="-3.91178">
        <ele>11.6</ele>
        <time>2024-05-09T10:57:05Z</time>
      </trkpt>
      <trkpt lat="48.67035" lon="-3.91177">
        <ele>10</ele>
        <time>2024-05-09T10:57:08Z</time>
      </trkpt>
      <trkpt lat="48.67034" lon="-3.91176">
        <ele>9.2</ele>
        <time>2024-05-09T10:57:09Z</time>
      </trkpt>
      <trkpt lat="48.67034" lon="-3.91175">
        <ele>8.6</ele>
        <time>2024-05-09T10:57:10Z</time>
      </trkpt>
      <trkpt lat="48.67033" lon="-3.91172">
        <ele>7.6</ele>
        <time>2024-05-09T10:57:12Z</time>
      </trkpt>
      <trkpt lat="48.67028" lon="-3.91168">
        <ele>6.8</ele>
        <time>2024-05-09T10:57:15Z</time>
      </trkpt>
      <trkpt lat="48.67025" lon="-3.91164">
        <ele>6.4</ele>
        <time>2024-05-09T10:57:18Z</time>
      </trkpt>
      <trkpt lat="48.67024" lon="-3.91164">
        <ele>6.4</ele>
        <time>2024-05-09T10:57:19Z</time>
      </trkpt>
      <trkpt lat="48.67022" lon="-3.91161">
        <ele>6.4</ele>
        <time>2024-05-09T10:57:21Z</time>
      </trkpt>
      <trkpt lat="48.67018" lon="-3.91156">
        <ele>5.8</ele>
        <time>2024-05-09T10:57:26Z</time>
      </trkpt>
      <trkpt lat="48.67016" lon="-3.91149">
        <ele>5.6</ele>
        <time>2024-05-09T10:57:30Z</time>
      </trkpt>
      <trkpt lat="48.67015" lon="-3.91142">
        <ele>5.6</ele>
        <time>2024-05-09T10:57:34Z</time>
      </trkpt>
      <trkpt lat="48.67014" lon="-3.91139">
        <ele>5.6</ele>
        <time>2024-05-09T10:57:36Z</time>
      </trkpt>
      <trkpt lat="48.67014" lon="-3.91137">
        <ele>5.6</ele>
        <time>2024-05-09T10:57:37Z</time>
      </trkpt>
      <trkpt lat="48.67014" lon="-3.91136">
        <ele>5.6</ele>
        <time>2024-05-09T10:57:38Z</time>
      </trkpt>
      <trkpt lat="48.67009" lon="-3.91126">
        <ele>5.8</ele>
        <time>2024-05-09T10:57:46Z</time>
      </trkpt>
      <trkpt lat="48.67003" lon="-3.91118">
        <ele>6.4</ele>
        <time>2024-05-09T10:57:55Z</time>
      </trkpt>
      <trkpt lat="48.66991" lon="-3.91117">
        <ele>7.4</ele>
        <time>2024-05-09T10:58:04Z</time>
      </trkpt>
      <trkpt lat="48.6699" lon="-3.91118">
        <ele>7.6</ele>
        <time>2024-05-09T10:58:05Z</time>
      </trkpt>
      <trkpt lat="48.6698" lon="-3.91123">
        <ele>8.8</ele>
        <time>2024-05-09T10:58:15Z</time>
      </trkpt>
      <trkpt lat="48.66976" lon="-3.9112">
        <ele>9.2</ele>
        <time>2024-05-09T10:58:19Z</time>
      </trkpt>
      <trkpt lat="48.66976" lon="-3.91116">
        <ele>9.2</ele>
        <time>2024-05-09T10:58:21Z</time>
      </trkpt>
      <trkpt lat="48.6697" lon="-3.91103">
        <ele>9.2</ele>
        <time>2024-05-09T10:58:29Z</time>
      </trkpt>
      <trkpt lat="48.66969" lon="-3.911">
        <ele>9.2</ele>
        <time>2024-05-09T10:58:31Z</time>
      </trkpt>
      <trkpt lat="48.66966" lon="-3.91092">
        <ele>9.2</ele>
        <time>2024-05-09T10:58:36Z</time>
      </trkpt>
      <trkpt lat="48.66964" lon="-3.91084">
        <ele>9.2</ele>
        <time>2024-05-09T10:58:42Z</time>
      </trkpt>
      <trkpt lat="48.66961" lon="-3.91084">
        <ele>9.2</ele>
        <time>2024-05-09T10:58:44Z</time>
      </trkpt>
      <trkpt lat="48.6696" lon="-3.91082">
        <ele>9.6</ele>
        <time>2024-05-09T10:58:47Z</time>
      </trkpt>
      <trkpt lat="48.66954" lon="-3.91074">
        <ele>9</ele>
        <time>2024-05-09T12:04:45Z</time>
      </trkpt>
      <trkpt lat="48.66956" lon="-3.91074">
        <ele>9</ele>
        <time>2024-05-09T12:04:46Z</time>
      </trkpt>
      <trkpt lat="48.6696" lon="-3.91074">
        <ele>8.2</ele>
        <time>2024-05-09T12:04:50Z</time>
      </trkpt>
      <trkpt lat="48.66963" lon="-3.91071">
        <ele>7.6</ele>
        <time>2024-05-09T12:04:53Z</time>
      </trkpt>
      <trkpt lat="48.66966" lon="-3.91067">
        <ele>7</ele>
        <time>2024-05-09T12:04:57Z</time>
      </trkpt>
      <trkpt lat="48.66965" lon="-3.9106">
        <ele>7</ele>
        <time>2024-05-09T12:05:01Z</time>
      </trkpt>
      <trkpt lat="48.6696" lon="-3.91043">
        <ele>8</ele>
        <time>2024-05-09T12:05:12Z</time>
      </trkpt>
      <trkpt lat="48.66955" lon="-3.91026">
        <ele>6.8</ele>
        <time>2024-05-09T12:05:22Z</time>
      </trkpt>
      <trkpt lat="48.66955" lon="-3.91022">
        <ele>6.6</ele>
        <time>2024-05-09T12:05:24Z</time>
      </trkpt>
      <trkpt lat="48.66952" lon="-3.91015">
        <ele>7</ele>
        <time>2024-05-09T12:05:28Z</time>
      </trkpt>
      <trkpt lat="48.66951" lon="-3.91012">
        <ele>7</ele>
        <time>2024-05-09T12:05:30Z</time>
      </trkpt>
      <trkpt lat="48.66945" lon="-3.90997">
        <ele>7.2</ele>
        <time>2024-05-09T12:05:40Z</time>
      </trkpt>
      <trkpt lat="48.6694" lon="-3.9098">
        <ele>6.2</ele>
        <time>2024-05-09T12:05:49Z</time>
      </trkpt>
      <trkpt lat="48.66939" lon="-3.90976">
        <ele>5.6</ele>
        <time>2024-05-09T12:05:52Z</time>
      </trkpt>
      <trkpt lat="48.66939" lon="-3.90973">
        <ele>5.4</ele>
        <time>2024-05-09T12:05:54Z</time>
      </trkpt>
      <trkpt lat="48.66939" lon="-3.90967">
        <ele>5.2</ele>
        <time>2024-05-09T12:05:57Z</time>
      </trkpt>
      <trkpt lat="48.66938" lon="-3.90961">
        <ele>5.2</ele>
        <time>2024-05-09T12:06:00Z</time>
      </trkpt>
      <trkpt lat="48.66938" lon="-3.90959">
        <ele>5.2</ele>
        <time>2024-05-09T12:06:01Z</time>
      </trkpt>
      <trkpt lat="48.66937" lon="-3.90951">
        <ele>5.2</ele>
        <time>2024-05-09T12:06:05Z</time>
      </trkpt>
      <trkpt lat="48.66935" lon="-3.90928">
        <ele>4.8</ele>
        <time>2024-05-09T12:06:17Z</time>
      </trkpt>
      <trkpt lat="48.66935" lon="-3.90926">
        <ele>4.4</ele>
        <time>2024-05-09T12:06:18Z</time>
      </trkpt>
      <trkpt lat="48.66934" lon="-3.90909">
        <ele>4.6</ele>
        <time>2024-05-09T12:06:26Z</time>
      </trkpt>
      <trkpt lat="48.66933" lon="-3.90892">
        <ele>4.4</ele>
        <time>2024-05-09T12:06:35Z</time>
      </trkpt>
      <trkpt lat="48.66931" lon="-3.90867">
        <ele>4.8</ele>
        <time>2024-05-09T12:06:47Z</time>
      </trkpt>
      <trkpt lat="48.6693" lon="-3.90859">
        <ele>5.6</ele>
        <time>2024-05-09T12:06:51Z</time>
      </trkpt>
      <trkpt lat="48.66929" lon="-3.90844">
        <ele>5.8</ele>
        <time>2024-05-09T12:06:59Z</time>
      </trkpt>
      <trkpt lat="48.66928" lon="-3.9083">
        <ele>5</ele>
        <time>2024-05-09T12:07:07Z</time>
      </trkpt>
      <trkpt lat="48.66928" lon="-3.90827">
        <ele>4.4</ele>
        <time>2024-05-09T12:07:09Z</time>
      </trkpt>
      <trkpt lat="48.66926" lon="-3.90804">
        <ele>4.2</ele>
        <time>2024-05-09T12:07:21Z</time>
      </trkpt>
      <trkpt lat="48.66923" lon="-3.90782">
        <ele>4.2</ele>
        <time>2024-05-09T12:07:32Z</time>
      </trkpt>
      <trkpt lat="48.66921" lon="-3.90773">
        <ele>5.6</ele>
        <time>2024-05-09T12:07:37Z</time>
      </trkpt>
      <trkpt lat="48.66918" lon="-3.90762">
        <ele>6</ele>
        <time>2024-05-09T12:07:43Z</time>
      </trkpt>
      <trkpt lat="48.66915" lon="-3.90741">
        <ele>5.2</ele>
        <time>2024-05-09T12:07:55Z</time>
      </trkpt>
      <trkpt lat="48.66923" lon="-3.90731">
        <ele>6.2</ele>
        <time>2024-05-09T12:08:03Z</time>
      </trkpt>
      <trkpt lat="48.66933" lon="-3.90723">
        <ele>5.2</ele>
        <time>2024-05-09T12:08:12Z</time>
      </trkpt>
      <trkpt lat="48.6694" lon="-3.90706">
        <ele>5.8</ele>
        <time>2024-05-09T12:08:22Z</time>
      </trkpt>
      <trkpt lat="48.66945" lon="-3.90689">
        <ele>6.6</ele>
        <time>2024-05-09T12:08:31Z</time>
      </trkpt>
      <trkpt lat="48.66946" lon="-3.90687">
        <ele>6.6</ele>
        <time>2024-05-09T12:08:32Z</time>
      </trkpt>
      <trkpt lat="48.6695" lon="-3.9067">
        <ele>6.8</ele>
        <time>2024-05-09T12:08:42Z</time>
      </trkpt>
      <trkpt lat="48.66955" lon="-3.90654">
        <ele>7.2</ele>
        <time>2024-05-09T12:08:51Z</time>
      </trkpt>
      <trkpt lat="48.6696" lon="-3.90644">
        <ele>7.8</ele>
        <time>2024-05-09T12:08:58Z</time>
      </trkpt>
      <trkpt lat="48.66961" lon="-3.90641">
        <ele>7.8</ele>
        <time>2024-05-09T12:09:00Z</time>
      </trkpt>
      <trkpt lat="48.66967" lon="-3.90631">
        <ele>8.4</ele>
        <time>2024-05-09T12:09:07Z</time>
      </trkpt>
      <trkpt lat="48.66973" lon="-3.90625">
        <ele>8.8</ele>
        <time>2024-05-09T12:09:12Z</time>
      </trkpt>
      <trkpt lat="48.66976" lon="-3.90621">
        <ele>9.2</ele>
        <time>2024-05-09T12:09:15Z</time>
      </trkpt>
      <trkpt lat="48.66978" lon="-3.90619">
        <ele>9.4</ele>
        <time>2024-05-09T12:09:17Z</time>
      </trkpt>
      <trkpt lat="48.66979" lon="-3.90618">
        <ele>9.4</ele>
        <time>2024-05-09T12:09:19Z</time>
      </trkpt>
      <trkpt lat="48.6698" lon="-3.90619">
        <ele>9.4</ele>
        <time>2024-05-09T12:09:20Z</time>
      </trkpt>
      <trkpt lat="48.66987" lon="-3.90619">
        <ele>9.6</ele>
        <time>2024-05-09T12:09:27Z</time>
      </trkpt>
      <trkpt lat="48.66987" lon="-3.9062">
        <ele>9.6</ele>
        <time>2024-05-09T12:09:28Z</time>
      </trkpt>
      <trkpt lat="48.66988" lon="-3.90621">
        <ele>9.4</ele>
        <time>2024-05-09T12:09:29Z</time>
      </trkpt>
      <trkpt lat="48.66995" lon="-3.90628">
        <ele>9</ele>
        <time>2024-05-09T12:09:35Z</time>
      </trkpt>
      <trkpt lat="48.67006" lon="-3.90633">
        <ele>8.8</ele>
        <time>2024-05-09T12:09:45Z</time>
      </trkpt>
      <trkpt lat="48.67013" lon="-3.90633">
        <ele>9</ele>
        <time>2024-05-09T12:09:51Z</time>
      </trkpt>
      <trkpt lat="48.67015" lon="-3.90633">
        <ele>9.2</ele>
        <time>2024-05-09T12:09:53Z</time>
      </trkpt>
      <trkpt lat="48.67022" lon="-3.90633">
        <ele>9.2</ele>
        <time>2024-05-09T12:10:00Z</time>
      </trkpt>
      <trkpt lat="48.67025" lon="-3.90633">
        <ele>9.2</ele>
        <time>2024-05-09T12:10:04Z</time>
      </trkpt>
      <trkpt lat="48.67026" lon="-3.90635">
        <ele>9.4</ele>
        <time>2024-05-09T12:10:07Z</time>
      </trkpt>
      <trkpt lat="48.67027" lon="-3.90637">
        <ele>9.2</ele>
        <time>2024-05-09T12:10:09Z</time>
      </trkpt>
      <trkpt lat="48.67032" lon="-3.90641">
        <ele>8.6</ele>
        <time>2024-05-09T12:10:13Z</time>
      </trkpt>
      <trkpt lat="48.67034" lon="-3.90642">
        <ele>8.4</ele>
        <time>2024-05-09T12:10:15Z</time>
      </trkpt>
      <trkpt lat="48.67036" lon="-3.90639">
        <ele>8.2</ele>
        <time>2024-05-09T12:10:17Z</time>
      </trkpt>
      <trkpt lat="48.67036" lon="-3.90638">
        <ele>8.2</ele>
        <time>2024-05-09T12:10:18Z</time>
      </trkpt>
      <trkpt lat="48.67039" lon="-3.90631">
        <ele>9.2</ele>
        <time>2024-05-09T12:10:24Z</time>
      </trkpt>
      <trkpt lat="48.67041" lon="-3.9063">
        <ele>10</ele>
        <time>2024-05-09T12:10:27Z</time>
      </trkpt>
      <trkpt lat="48.67041" lon="-3.90629">
        <ele>10.2</ele>
        <time>2024-05-09T12:10:28Z</time>
      </trkpt>
      <trkpt lat="48.67042" lon="-3.90628">
        <ele>10.4</ele>
        <time>2024-05-09T12:10:29Z</time>
      </trkpt>
      <trkpt lat="48.67046" lon="-3.90624">
        <ele>11.2</ele>
        <time>2024-05-09T12:10:34Z</time>
      </trkpt>
      <trkpt lat="48.67048" lon="-3.90621">
        <ele>11.6</ele>
        <time>2024-05-09T12:10:37Z</time>
      </trkpt>
      <trkpt lat="48.67049" lon="-3.9062">
        <ele>12</ele>
        <time>2024-05-09T12:10:43Z</time>
      </trkpt>
      <trkpt lat="48.67045" lon="-3.90621">
        <ele>11.8</ele>
        <time>2024-05-09T12:10:49Z</time>
      </trkpt>
      <trkpt lat="48.67041" lon="-3.90616">
        <ele>12.4</ele>
        <time>2024-05-09T12:10:56Z</time>
      </trkpt>
      <trkpt lat="48.67041" lon="-3.90615">
        <ele>12.6</ele>
        <time>2024-05-09T12:10:57Z</time>
      </trkpt>
      <trkpt lat="48.67039" lon="-3.90611">
        <ele>13.4</ele>
        <time>2024-05-09T12:11:01Z</time>
      </trkpt>
      <trkpt lat="48.67038" lon="-3.9061">
        <ele>13.6</ele>
        <time>2024-05-09T12:11:03Z</time>
      </trkpt>
      <trkpt lat="48.67032" lon="-3.90607">
        <ele>13.4</ele>
        <time>2024-05-09T12:11:10Z</time>
      </trkpt>
      <trkpt lat="48.67026" lon="-3.90612">
        <ele>12.8</ele>
        <time>2024-05-09T12:11:17Z</time>
      </trkpt>
      <trkpt lat="48.67025" lon="-3.90613">
        <ele>12.4</ele>
        <time>2024-05-09T12:11:18Z</time>
      </trkpt>
      <trkpt lat="48.67023" lon="-3.90613">
        <ele>12</ele>
        <time>2024-05-09T12:11:24Z</time>
      </trkpt>
      <trkpt lat="48.67023" lon="-3.90611">
        <ele>11.8</ele>
        <time>2024-05-09T12:11:30Z</time>
      </trkpt>
      <trkpt lat="48.6702" lon="-3.90606">
        <ele>13</ele>
        <time>2024-05-09T12:11:37Z</time>
      </trkpt>
      <trkpt lat="48.67018" lon="-3.90604">
        <ele>13.4</ele>
        <time>2024-05-09T12:11:41Z</time>
      </trkpt>
      <trkpt lat="48.67017" lon="-3.90603">
        <ele>14</ele>
        <time>2024-05-09T12:11:45Z</time>
      </trkpt>
      <trkpt lat="48.67017" lon="-3.90604">
        <ele>14.2</ele>
        <time>2024-05-09T12:11:47Z</time>
      </trkpt>
      <trkpt lat="48.67017" lon="-3.90603">
        <ele>14.4</ele>
        <time>2024-05-09T12:11:52Z</time>
      </trkpt>
      <trkpt lat="48.67017" lon="-3.90603">
        <ele>14.4</ele>
        <time>2024-05-09T12:11:58Z</time>
      </trkpt>
      <trkpt lat="48.67018" lon="-3.90599">
        <ele>15.6</ele>
        <time>2024-05-09T12:12:16Z</time>
      </trkpt>
      <trkpt lat="48.67017" lon="-3.90597">
        <ele>16.2</ele>
        <time>2024-05-09T12:12:21Z</time>
      </trkpt>
      <trkpt lat="48.67016" lon="-3.90596">
        <ele>16.6</ele>
        <time>2024-05-09T12:12:23Z</time>
      </trkpt>
      <trkpt lat="48.67015" lon="-3.90595">
        <ele>16.8</ele>
        <time>2024-05-09T12:12:24Z</time>
      </trkpt>
      <trkpt lat="48.67009" lon="-3.90589">
        <ele>17.4</ele>
        <time>2024-05-09T12:12:35Z</time>
      </trkpt>
      <trkpt lat="48.67007" lon="-3.90588">
        <ele>17.6</ele>
        <time>2024-05-09T12:12:38Z</time>
      </trkpt>
      <trkpt lat="48.67006" lon="-3.90587">
        <ele>17.8</ele>
        <time>2024-05-09T12:12:41Z</time>
      </trkpt>
      <trkpt lat="48.67005" lon="-3.90586">
        <ele>17.8</ele>
        <time>2024-05-09T12:12:53Z</time>
      </trkpt>
      <trkpt lat="48.67005" lon="-3.90585">
        <ele>18</ele>
        <time>2024-05-09T12:13:00Z</time>
      </trkpt>
      <trkpt lat="48.67005" lon="-3.90584">
        <ele>16.6</ele>
        <time>2024-05-09T12:13:13Z</time>
      </trkpt>
      <trkpt lat="48.67005" lon="-3.90583">
        <ele>16.6</ele>
        <time>2024-05-09T12:13:14Z</time>
      </trkpt>
      <trkpt lat="48.66999" lon="-3.90573">
        <ele>17.2</ele>
        <time>2024-05-09T12:13:28Z</time>
      </trkpt>
      <trkpt lat="48.66996" lon="-3.90564">
        <ele>16.8</ele>
        <time>2024-05-09T12:13:37Z</time>
      </trkpt>
      <trkpt lat="48.66995" lon="-3.90559">
        <ele>15</ele>
        <time>2024-05-09T12:13:42Z</time>
      </trkpt>
      <trkpt lat="48.66995" lon="-3.90555">
        <ele>13.8</ele>
        <time>2024-05-09T12:13:45Z</time>
      </trkpt>
      <trkpt lat="48.66996" lon="-3.90554">
        <ele>13.4</ele>
        <time>2024-05-09T12:13:46Z</time>
      </trkpt>
      <trkpt lat="48.66997" lon="-3.90549">
        <ele>12.8</ele>
        <time>2024-05-09T12:13:50Z</time>
      </trkpt>
      <trkpt lat="48.67001" lon="-3.90543">
        <ele>12</ele>
        <time>2024-05-09T12:13:55Z</time>
      </trkpt>
      <trkpt lat="48.67001" lon="-3.90542">
        <ele>11.6</ele>
        <time>2024-05-09T12:13:56Z</time>
      </trkpt>
      <trkpt lat="48.67002" lon="-3.90541">
        <ele>11.4</ele>
        <time>2024-05-09T12:13:57Z</time>
      </trkpt>
      <trkpt lat="48.67001" lon="-3.90534">
        <ele>10.8</ele>
        <time>2024-05-09T12:14:01Z</time>
      </trkpt>
      <trkpt lat="48.67001" lon="-3.90529">
        <ele>10.6</ele>
        <time>2024-05-09T12:14:04Z</time>
      </trkpt>
      <trkpt lat="48.67002" lon="-3.90517">
        <ele>10</ele>
        <time>2024-05-09T12:14:10Z</time>
      </trkpt>
      <trkpt lat="48.67" lon="-3.90507">
        <ele>10</ele>
        <time>2024-05-09T12:14:18Z</time>
      </trkpt>
      <trkpt lat="48.66997" lon="-3.90497">
        <ele>10</ele>
        <time>2024-05-09T12:14:24Z</time>
      </trkpt>
      <trkpt lat="48.66995" lon="-3.90478">
        <ele>10</ele>
        <time>2024-05-09T12:14:33Z</time>
      </trkpt>
      <trkpt lat="48.66997" lon="-3.90456">
        <ele>9.8</ele>
        <time>2024-05-09T12:14:43Z</time>
      </trkpt>
      <trkpt lat="48.66997" lon="-3.90448">
        <ele>9.4</ele>
        <time>2024-05-09T12:14:47Z</time>
      </trkpt>
      <trkpt lat="48.66997" lon="-3.9044">
        <ele>9.6</ele>
        <time>2024-05-09T12:14:51Z</time>
      </trkpt>
      <trkpt lat="48.66998" lon="-3.90426">
        <ele>10</ele>
        <time>2024-05-09T12:14:58Z</time>
      </trkpt>
      <trkpt lat="48.67" lon="-3.90406">
        <ele>10.6</ele>
        <time>2024-05-09T12:15:08Z</time>
      </trkpt>
      <trkpt lat="48.67003" lon="-3.90391">
        <ele>11.4</ele>
        <time>2024-05-09T12:15:16Z</time>
      </trkpt>
      <trkpt lat="48.67007" lon="-3.90377">
        <ele>11.6</ele>
        <time>2024-05-09T12:15:24Z</time>
      </trkpt>
      <trkpt lat="48.6701" lon="-3.90373">
        <ele>11.6</ele>
        <time>2024-05-09T12:15:27Z</time>
      </trkpt>
      <trkpt lat="48.67016" lon="-3.90369">
        <ele>11.6</ele>
        <time>2024-05-09T12:15:32Z</time>
      </trkpt>
      <trkpt lat="48.67027" lon="-3.90362">
        <ele>11.8</ele>
        <time>2024-05-09T12:15:41Z</time>
      </trkpt>
      <trkpt lat="48.67036" lon="-3.90351">
        <ele>12</ele>
        <time>2024-05-09T12:15:49Z</time>
      </trkpt>
      <trkpt lat="48.67038" lon="-3.90337">
        <ele>12.6</ele>
        <time>2024-05-09T12:15:56Z</time>
      </trkpt>
      <trkpt lat="48.6704" lon="-3.90331">
        <ele>13.4</ele>
        <time>2024-05-09T12:16:00Z</time>
      </trkpt>
      <trkpt lat="48.67041" lon="-3.90325">
        <ele>13.8</ele>
        <time>2024-05-09T12:16:03Z</time>
      </trkpt>
      <trkpt lat="48.67041" lon="-3.90315">
        <ele>14.6</ele>
        <time>2024-05-09T12:16:08Z</time>
      </trkpt>
      <trkpt lat="48.67042" lon="-3.90297">
        <ele>14.2</ele>
        <time>2024-05-09T12:16:16Z</time>
      </trkpt>
      <trkpt lat="48.67041" lon="-3.90287">
        <ele>14.2</ele>
        <time>2024-05-09T12:16:21Z</time>
      </trkpt>
      <trkpt lat="48.67042" lon="-3.90282">
        <ele>13.8</ele>
        <time>2024-05-09T12:16:23Z</time>
      </trkpt>
      <trkpt lat="48.67042" lon="-3.90273">
        <ele>12.6</ele>
        <time>2024-05-09T12:16:27Z</time>
      </trkpt>
      <trkpt lat="48.67044" lon="-3.90266">
        <ele>12.2</ele>
        <time>2024-05-09T12:16:30Z</time>
      </trkpt>
      <trkpt lat="48.67045" lon="-3.90248">
        <ele>12.6</ele>
        <time>2024-05-09T12:16:38Z</time>
      </trkpt>
      <trkpt lat="48.67045" lon="-3.90243">
        <ele>12.6</ele>
        <time>2024-05-09T12:16:42Z</time>
      </trkpt>
      <trkpt lat="48.67043" lon="-3.90232">
        <ele>13.2</ele>
        <time>2024-05-09T12:16:49Z</time>
      </trkpt>
      <trkpt lat="48.67043" lon="-3.90221">
        <ele>13.4</ele>
        <time>2024-05-09T12:16:54Z</time>
      </trkpt>
      <trkpt lat="48.67043" lon="-3.90217">
        <ele>13.8</ele>
        <time>2024-05-09T12:16:56Z</time>
      </trkpt>
      <trkpt lat="48.67043" lon="-3.90215">
        <ele>14.2</ele>
        <time>2024-05-09T12:16:57Z</time>
      </trkpt>
      <trkpt lat="48.67043" lon="-3.9021">
        <ele>15</ele>
        <time>2024-05-09T12:17:00Z</time>
      </trkpt>
      <trkpt lat="48.67042" lon="-3.90203">
        <ele>15.8</ele>
        <time>2024-05-09T12:17:04Z</time>
      </trkpt>
      <trkpt lat="48.67039" lon="-3.90194">
        <ele>15.4</ele>
        <time>2024-05-09T12:17:11Z</time>
      </trkpt>
      <trkpt lat="48.67033" lon="-3.90177">
        <ele>14.4</ele>
        <time>2024-05-09T12:17:21Z</time>
      </trkpt>
      <trkpt lat="48.67032" lon="-3.90174">
        <ele>14</ele>
        <time>2024-05-09T12:17:23Z</time>
      </trkpt>
      <trkpt lat="48.6703" lon="-3.90168">
        <ele>13</ele>
        <time>2024-05-09T12:17:27Z</time>
      </trkpt>
      <trkpt lat="48.6703" lon="-3.90167">
        <ele>12.8</ele>
        <time>2024-05-09T12:17:28Z</time>
      </trkpt>
      <trkpt lat="48.67029" lon="-3.90165">
        <ele>12.6</ele>
        <time>2024-05-09T12:17:29Z</time>
      </trkpt>
      <trkpt lat="48.67028" lon="-3.90163">
        <ele>12.6</ele>
        <time>2024-05-09T12:17:30Z</time>
      </trkpt>
      <trkpt lat="48.67028" lon="-3.9016">
        <ele>12.4</ele>
        <time>2024-05-09T12:17:32Z</time>
      </trkpt>
      <trkpt lat="48.67029" lon="-3.90156">
        <ele>11.8</ele>
        <time>2024-05-09T12:17:34Z</time>
      </trkpt>
      <trkpt lat="48.6703" lon="-3.90144">
        <ele>10.8</ele>
        <time>2024-05-09T12:17:39Z</time>
      </trkpt>
      <trkpt lat="48.6703" lon="-3.90139">
        <ele>10.2</ele>
        <time>2024-05-09T12:17:41Z</time>
      </trkpt>
      <trkpt lat="48.67032" lon="-3.90122">
        <ele>9.6</ele>
        <time>2024-05-09T12:17:49Z</time>
      </trkpt>
      <trkpt lat="48.67037" lon="-3.90104">
        <ele>9</ele>
        <time>2024-05-09T12:17:58Z</time>
      </trkpt>
      <trkpt lat="48.67043" lon="-3.90081">
        <ele>9</ele>
        <time>2024-05-09T12:18:08Z</time>
      </trkpt>
      <trkpt lat="48.67043" lon="-3.90074">
        <ele>8.6</ele>
        <time>2024-05-09T12:18:11Z</time>
      </trkpt>
      <trkpt lat="48.67045" lon="-3.90061">
        <ele>8.4</ele>
        <time>2024-05-09T12:18:17Z</time>
      </trkpt>
      <trkpt lat="48.67047" lon="-3.90044">
        <ele>7.8</ele>
        <time>2024-05-09T12:18:25Z</time>
      </trkpt>
      <trkpt lat="48.67051" lon="-3.90022">
        <ele>8</ele>
        <time>2024-05-09T12:18:36Z</time>
      </trkpt>
      <trkpt lat="48.67055" lon="-3.90004">
        <ele>8.4</ele>
        <time>2024-05-09T12:18:45Z</time>
      </trkpt>
      <trkpt lat="48.67062" lon="-3.89981">
        <ele>8.2</ele>
        <time>2024-05-09T12:18:56Z</time>
      </trkpt>
      <trkpt lat="48.67068" lon="-3.89958">
        <ele>8.8</ele>
        <time>2024-05-09T12:19:07Z</time>
      </trkpt>
      <trkpt lat="48.67073" lon="-3.8994">
        <ele>8.8</ele>
        <time>2024-05-09T12:19:17Z</time>
      </trkpt>
      <trkpt lat="48.67077" lon="-3.89923">
        <ele>9.2</ele>
        <time>2024-05-09T12:19:27Z</time>
      </trkpt>
      <trkpt lat="48.67079" lon="-3.8992">
        <ele>9.6</ele>
        <time>2024-05-09T12:19:29Z</time>
      </trkpt>
      <trkpt lat="48.67082" lon="-3.89911">
        <ele>10.2</ele>
        <time>2024-05-09T12:19:35Z</time>
      </trkpt>
      <trkpt lat="48.67091" lon="-3.899">
        <ele>10.2</ele>
        <time>2024-05-09T12:19:44Z</time>
      </trkpt>
      <trkpt lat="48.671" lon="-3.89888">
        <ele>10.4</ele>
        <time>2024-05-09T12:19:52Z</time>
      </trkpt>
      <trkpt lat="48.67105" lon="-3.8988">
        <ele>10.6</ele>
        <time>2024-05-09T12:19:57Z</time>
      </trkpt>
      <trkpt lat="48.67106" lon="-3.89878">
        <ele>10.6</ele>
        <time>2024-05-09T12:19:58Z</time>
      </trkpt>
      <trkpt lat="48.67109" lon="-3.89871">
        <ele>10.8</ele>
        <time>2024-05-09T12:20:02Z</time>
      </trkpt>
      <trkpt lat="48.67112" lon="-3.89869">
        <ele>10.6</ele>
        <time>2024-05-09T12:20:05Z</time>
      </trkpt>
      <trkpt lat="48.67112" lon="-3.89869">
        <ele>10.6</ele>
        <time>2024-05-09T12:20:06Z</time>
      </trkpt>
      <trkpt lat="48.67119" lon="-3.89863">
        <ele>10.4</ele>
        <time>2024-05-09T12:20:11Z</time>
      </trkpt>
      <trkpt lat="48.67131" lon="-3.89852">
        <ele>10.8</ele>
        <time>2024-05-09T12:20:20Z</time>
      </trkpt>
      <trkpt lat="48.67137" lon="-3.89851">
        <ele>11.2</ele>
        <time>2024-05-09T12:20:25Z</time>
      </trkpt>
      <trkpt lat="48.67139" lon="-3.89851">
        <ele>11.2</ele>
        <time>2024-05-09T12:20:26Z</time>
      </trkpt>
      <trkpt lat="48.67142" lon="-3.89852">
        <ele>11.4</ele>
        <time>2024-05-09T12:20:28Z</time>
      </trkpt>
      <trkpt lat="48.67144" lon="-3.89853">
        <ele>11.6</ele>
        <time>2024-05-09T12:20:30Z</time>
      </trkpt>
      <trkpt lat="48.67145" lon="-3.89855">
        <ele>11.6</ele>
        <time>2024-05-09T12:20:31Z</time>
      </trkpt>
      <trkpt lat="48.67156" lon="-3.89855">
        <ele>12</ele>
        <time>2024-05-09T12:20:38Z</time>
      </trkpt>
      <trkpt lat="48.67157" lon="-3.89854">
        <ele>12</ele>
        <time>2024-05-09T12:20:39Z</time>
      </trkpt>
      <trkpt lat="48.67161" lon="-3.89851">
        <ele>12</ele>
        <time>2024-05-09T12:20:43Z</time>
      </trkpt>
      <trkpt lat="48.6717" lon="-3.8985">
        <ele>12.4</ele>
        <time>2024-05-09T12:20:49Z</time>
      </trkpt>
      <trkpt lat="48.67174" lon="-3.89849">
        <ele>12.6</ele>
        <time>2024-05-09T12:20:53Z</time>
      </trkpt>
      <trkpt lat="48.6718" lon="-3.89852">
        <ele>13.2</ele>
        <time>2024-05-09T12:20:58Z</time>
      </trkpt>
      <trkpt lat="48.67189" lon="-3.89853">
        <ele>13.8</ele>
        <time>2024-05-09T12:21:04Z</time>
      </trkpt>
      <trkpt lat="48.67196" lon="-3.89855">
        <ele>14.2</ele>
        <time>2024-05-09T12:21:08Z</time>
      </trkpt>
      <trkpt lat="48.67201" lon="-3.89853">
        <ele>15</ele>
        <time>2024-05-09T12:21:12Z</time>
      </trkpt>
      <trkpt lat="48.67207" lon="-3.8985">
        <ele>16</ele>
        <time>2024-05-09T12:21:18Z</time>
      </trkpt>
      <trkpt lat="48.67209" lon="-3.89849">
        <ele>16.2</ele>
        <time>2024-05-09T12:21:19Z</time>
      </trkpt>
      <trkpt lat="48.67216" lon="-3.89845">
        <ele>17.4</ele>
        <time>2024-05-09T12:21:25Z</time>
      </trkpt>
      <trkpt lat="48.67219" lon="-3.89844">
        <ele>17.6</ele>
        <time>2024-05-09T12:21:27Z</time>
      </trkpt>
      <trkpt lat="48.67223" lon="-3.89844">
        <ele>18.4</ele>
        <time>2024-05-09T12:21:31Z</time>
      </trkpt>
      <trkpt lat="48.67227" lon="-3.89842">
        <ele>19.2</ele>
        <time>2024-05-09T12:21:35Z</time>
      </trkpt>
      <trkpt lat="48.67228" lon="-3.8984">
        <ele>19.4</ele>
        <time>2024-05-09T12:21:36Z</time>
      </trkpt>
      <trkpt lat="48.67231" lon="-3.89836">
        <ele>20.2</ele>
        <time>2024-05-09T12:21:40Z</time>
      </trkpt>
      <trkpt lat="48.67232" lon="-3.89833">
        <ele>20.6</ele>
        <time>2024-05-09T12:21:42Z</time>
      </trkpt>
      <trkpt lat="48.67232" lon="-3.8983">
        <ele>21</ele>
        <time>2024-05-09T12:21:44Z</time>
      </trkpt>
      <trkpt lat="48.67231" lon="-3.89827">
        <ele>21.4</ele>
        <time>2024-05-09T12:21:46Z</time>
      </trkpt>
      <trkpt lat="48.6723" lon="-3.89826">
        <ele>21.6</ele>
        <time>2024-05-09T12:21:47Z</time>
      </trkpt>
      <trkpt lat="48.67229" lon="-3.89818">
        <ele>22.8</ele>
        <time>2024-05-09T12:21:52Z</time>
      </trkpt>
      <trkpt lat="48.67227" lon="-3.89814">
        <ele>23.6</ele>
        <time>2024-05-09T12:21:55Z</time>
      </trkpt>
      <trkpt lat="48.67227" lon="-3.89811">
        <ele>24</ele>
        <time>2024-05-09T12:21:57Z</time>
      </trkpt>
      <trkpt lat="48.67226" lon="-3.8981">
        <ele>24.2</ele>
        <time>2024-05-09T12:21:58Z</time>
      </trkpt>
      <trkpt lat="48.67222" lon="-3.89804">
        <ele>24.8</ele>
        <time>2024-05-09T12:22:02Z</time>
      </trkpt>
      <trkpt lat="48.67223" lon="-3.89803">
        <ele>25</ele>
        <time>2024-05-09T12:22:03Z</time>
      </trkpt>
      <trkpt lat="48.67223" lon="-3.898">
        <ele>25.4</ele>
        <time>2024-05-09T12:22:05Z</time>
      </trkpt>
      <trkpt lat="48.67225" lon="-3.89799">
        <ele>25.6</ele>
        <time>2024-05-09T12:22:07Z</time>
      </trkpt>
      <trkpt lat="48.67236" lon="-3.89801">
        <ele>25</ele>
        <time>2024-05-09T12:22:14Z</time>
      </trkpt>
      <trkpt lat="48.67249" lon="-3.89804">
        <ele>24.4</ele>
        <time>2024-05-09T12:22:23Z</time>
      </trkpt>
      <trkpt lat="48.67251" lon="-3.89804">
        <ele>24.2</ele>
        <time>2024-05-09T12:22:25Z</time>
      </trkpt>
      <trkpt lat="48.67253" lon="-3.89803">
        <ele>24</ele>
        <time>2024-05-09T12:22:28Z</time>
      </trkpt>
      <trkpt lat="48.67254" lon="-3.89806">
        <ele>24</ele>
        <time>2024-05-09T12:22:34Z</time>
      </trkpt>
      <trkpt lat="48.67255" lon="-3.89806">
        <ele>23.8</ele>
        <time>2024-05-09T12:22:35Z</time>
      </trkpt>
      <trkpt lat="48.67267" lon="-3.89812">
        <ele>23.4</ele>
        <time>2024-05-09T12:22:43Z</time>
      </trkpt>
      <trkpt lat="48.67278" lon="-3.89818">
        <ele>23.4</ele>
        <time>2024-05-09T12:22:52Z</time>
      </trkpt>
      <trkpt lat="48.67289" lon="-3.89825">
        <ele>23.6</ele>
        <time>2024-05-09T12:23:00Z</time>
      </trkpt>
      <trkpt lat="48.67301" lon="-3.89834">
        <ele>24</ele>
        <time>2024-05-09T12:23:10Z</time>
      </trkpt>
      <trkpt lat="48.67305" lon="-3.89846">
        <ele>24</ele>
        <time>2024-05-09T12:23:17Z</time>
      </trkpt>
      <trkpt lat="48.67309" lon="-3.89857">
        <ele>25</ele>
        <time>2024-05-09T12:23:25Z</time>
      </trkpt>
      <trkpt lat="48.67315" lon="-3.89867">
        <ele>25.4</ele>
        <time>2024-05-09T12:23:32Z</time>
      </trkpt>
      <trkpt lat="48.67328" lon="-3.89876">
        <ele>25.6</ele>
        <time>2024-05-09T12:23:42Z</time>
      </trkpt>
      <trkpt lat="48.6733" lon="-3.89876">
        <ele>26</ele>
        <time>2024-05-09T12:23:44Z</time>
      </trkpt>
      <trkpt lat="48.67334" lon="-3.89877">
        <ele>26.4</ele>
        <time>2024-05-09T12:23:47Z</time>
      </trkpt>
      <trkpt lat="48.67335" lon="-3.89878">
        <ele>26.4</ele>
        <time>2024-05-09T12:23:48Z</time>
      </trkpt>
      <trkpt lat="48.67339" lon="-3.89881">
        <ele>27</ele>
        <time>2024-05-09T12:23:55Z</time>
      </trkpt>
      <trkpt lat="48.67339" lon="-3.89881">
        <ele>27</ele>
        <time>2024-05-09T12:23:56Z</time>
      </trkpt>
      <trkpt lat="48.67334" lon="-3.8988">
        <ele>26.8</ele>
        <time>2024-05-09T12:25:59Z</time>
      </trkpt>
      <trkpt lat="48.6733" lon="-3.89876">
        <ele>25.6</ele>
        <time>2024-05-09T12:26:11Z</time>
      </trkpt>
      <trkpt lat="48.6732" lon="-3.89868">
        <ele>25</ele>
        <time>2024-05-09T12:26:18Z</time>
      </trkpt>
      <trkpt lat="48.67313" lon="-3.89861">
        <ele>24.6</ele>
        <time>2024-05-09T12:26:24Z</time>
      </trkpt>
      <trkpt lat="48.67311" lon="-3.89856">
        <ele>24.2</ele>
        <time>2024-05-09T12:26:27Z</time>
      </trkpt>
      <trkpt lat="48.67309" lon="-3.89853">
        <ele>24</ele>
        <time>2024-05-09T12:26:29Z</time>
      </trkpt>
      <trkpt lat="48.67305" lon="-3.89842">
        <ele>23</ele>
        <time>2024-05-09T12:26:36Z</time>
      </trkpt>
      <trkpt lat="48.67304" lon="-3.89841">
        <ele>22.8</ele>
        <time>2024-05-09T12:26:37Z</time>
      </trkpt>
      <trkpt lat="48.67299" lon="-3.89829">
        <ele>22.6</ele>
        <time>2024-05-09T12:26:44Z</time>
      </trkpt>
      <trkpt lat="48.67296" lon="-3.89827">
        <ele>22.2</ele>
        <time>2024-05-09T12:26:46Z</time>
      </trkpt>
      <trkpt lat="48.67285" lon="-3.89818">
        <ele>22.4</ele>
        <time>2024-05-09T12:26:55Z</time>
      </trkpt>
      <trkpt lat="48.67276" lon="-3.89816">
        <ele>22.2</ele>
        <time>2024-05-09T12:27:02Z</time>
      </trkpt>
      <trkpt lat="48.67275" lon="-3.89815">
        <ele>22</ele>
        <time>2024-05-09T12:27:03Z</time>
      </trkpt>
      <trkpt lat="48.6727" lon="-3.89809">
        <ele>22.2</ele>
        <time>2024-05-09T12:27:08Z</time>
      </trkpt>
      <trkpt lat="48.67256" lon="-3.89802">
        <ele>22.2</ele>
        <time>2024-05-09T12:27:19Z</time>
      </trkpt>
      <trkpt lat="48.67241" lon="-3.898">
        <ele>22.8</ele>
        <time>2024-05-09T12:27:30Z</time>
      </trkpt>
      <trkpt lat="48.67229" lon="-3.89792">
        <ele>23.8</ele>
        <time>2024-05-09T12:27:41Z</time>
      </trkpt>
      <trkpt lat="48.67227" lon="-3.89776">
        <ele>24.4</ele>
        <time>2024-05-09T12:27:50Z</time>
      </trkpt>
      <trkpt lat="48.67222" lon="-3.89769">
        <ele>23</ele>
        <time>2024-05-09T12:27:56Z</time>
      </trkpt>
      <trkpt lat="48.67222" lon="-3.89767">
        <ele>22.8</ele>
        <time>2024-05-09T12:27:57Z</time>
      </trkpt>
      <trkpt lat="48.67216" lon="-3.89758">
        <ele>21.8</ele>
        <time>2024-05-09T12:28:04Z</time>
      </trkpt>
      <trkpt lat="48.67215" lon="-3.89755">
        <ele>21.2</ele>
        <time>2024-05-09T12:28:06Z</time>
      </trkpt>
      <trkpt lat="48.67215" lon="-3.89753">
        <ele>20.4</ele>
        <time>2024-05-09T12:28:09Z</time>
      </trkpt>
      <trkpt lat="48.67214" lon="-3.89751">
        <ele>19.6</ele>
        <time>2024-05-09T12:28:11Z</time>
      </trkpt>
      <trkpt lat="48.67213" lon="-3.8975">
        <ele>19.2</ele>
        <time>2024-05-09T12:28:12Z</time>
      </trkpt>
      <trkpt lat="48.67213" lon="-3.89746">
        <ele>18</ele>
        <time>2024-05-09T12:28:15Z</time>
      </trkpt>
      <trkpt lat="48.67213" lon="-3.89744">
        <ele>17.8</ele>
        <time>2024-05-09T12:28:17Z</time>
      </trkpt>
      <trkpt lat="48.67212" lon="-3.89739">
        <ele>17</ele>
        <time>2024-05-09T12:28:21Z</time>
      </trkpt>
      <trkpt lat="48.67209" lon="-3.89733">
        <ele>16.8</ele>
        <time>2024-05-09T12:28:26Z</time>
      </trkpt>
      <trkpt lat="48.67208" lon="-3.89727">
        <ele>17.4</ele>
        <time>2024-05-09T12:28:33Z</time>
      </trkpt>
      <trkpt lat="48.67207" lon="-3.89725">
        <ele>18.4</ele>
        <time>2024-05-09T12:28:36Z</time>
      </trkpt>
      <trkpt lat="48.67205" lon="-3.89722">
        <ele>19.4</ele>
        <time>2024-05-09T12:28:39Z</time>
      </trkpt>
      <trkpt lat="48.67205" lon="-3.89721">
        <ele>19.8</ele>
        <time>2024-05-09T12:28:40Z</time>
      </trkpt>
      <trkpt lat="48.67203" lon="-3.89721">
        <ele>20.6</ele>
        <time>2024-05-09T12:28:45Z</time>
      </trkpt>
      <trkpt lat="48.67203" lon="-3.8972">
        <ele>20.4</ele>
        <time>2024-05-09T12:28:52Z</time>
      </trkpt>
      <trkpt lat="48.67202" lon="-3.89714">
        <ele>18.8</ele>
        <time>2024-05-09T12:28:58Z</time>
      </trkpt>
      <trkpt lat="48.67201" lon="-3.89713">
        <ele>18.6</ele>
        <time>2024-05-09T12:28:59Z</time>
      </trkpt>
      <trkpt lat="48.67198" lon="-3.89708">
        <ele>17.4</ele>
        <time>2024-05-09T12:29:04Z</time>
      </trkpt>
      <trkpt lat="48.67193" lon="-3.89702">
        <ele>16.4</ele>
        <time>2024-05-09T12:29:10Z</time>
      </trkpt>
      <trkpt lat="48.67193" lon="-3.89701">
        <ele>16.4</ele>
        <time>2024-05-09T12:29:11Z</time>
      </trkpt>
      <trkpt lat="48.6719" lon="-3.89691">
        <ele>15.8</ele>
        <time>2024-05-09T12:29:17Z</time>
      </trkpt>
      <trkpt lat="48.67189" lon="-3.89688">
        <ele>15.6</ele>
        <time>2024-05-09T12:29:19Z</time>
      </trkpt>
      <trkpt lat="48.67187" lon="-3.89684">
        <ele>15.4</ele>
        <time>2024-05-09T12:29:22Z</time>
      </trkpt>
      <trkpt lat="48.67186" lon="-3.89681">
        <ele>15</ele>
        <time>2024-05-09T12:29:24Z</time>
      </trkpt>
      <trkpt lat="48.67185" lon="-3.89677">
        <ele>14.6</ele>
        <time>2024-05-09T12:29:26Z</time>
      </trkpt>
      <trkpt lat="48.67183" lon="-3.89673">
        <ele>14.2</ele>
        <time>2024-05-09T12:29:30Z</time>
      </trkpt>
      <trkpt lat="48.67183" lon="-3.89671">
        <ele>14</ele>
        <time>2024-05-09T12:29:31Z</time>
      </trkpt>
      <trkpt lat="48.67182" lon="-3.89666">
        <ele>13.6</ele>
        <time>2024-05-09T12:29:34Z</time>
      </trkpt>
      <trkpt lat="48.67181" lon="-3.8966">
        <ele>13.2</ele>
        <time>2024-05-09T12:29:37Z</time>
      </trkpt>
      <trkpt lat="48.67181" lon="-3.89646">
        <ele>13</ele>
        <time>2024-05-09T12:29:44Z</time>
      </trkpt>
      <trkpt lat="48.67177" lon="-3.8964">
        <ele>13</ele>
        <time>2024-05-09T12:29:49Z</time>
      </trkpt>
      <trkpt lat="48.67176" lon="-3.8964">
        <ele>13.2</ele>
        <time>2024-05-09T12:29:50Z</time>
      </trkpt>
      <trkpt lat="48.67171" lon="-3.89638">
        <ele>14.2</ele>
        <time>2024-05-09T12:29:56Z</time>
      </trkpt>
      <trkpt lat="48.6717" lon="-3.89638">
        <ele>14.6</ele>
        <time>2024-05-09T12:29:57Z</time>
      </trkpt>
      <trkpt lat="48.67166" lon="-3.89635">
        <ele>15.6</ele>
        <time>2024-05-09T12:30:01Z</time>
      </trkpt>
      <trkpt lat="48.67165" lon="-3.89634">
        <ele>16.2</ele>
        <time>2024-05-09T12:30:04Z</time>
      </trkpt>
      <trkpt lat="48.67163" lon="-3.89631">
        <ele>16.6</ele>
        <time>2024-05-09T12:30:06Z</time>
      </trkpt>
      <trkpt lat="48.67159" lon="-3.89625">
        <ele>17.6</ele>
        <time>2024-05-09T12:30:12Z</time>
      </trkpt>
      <trkpt lat="48.67158" lon="-3.89622">
        <ele>17.6</ele>
        <time>2024-05-09T12:30:14Z</time>
      </trkpt>
      <trkpt lat="48.67157" lon="-3.89617">
        <ele>17.6</ele>
        <time>2024-05-09T12:30:17Z</time>
      </trkpt>
      <trkpt lat="48.67154" lon="-3.89612">
        <ele>17.4</ele>
        <time>2024-05-09T12:30:21Z</time>
      </trkpt>
      <trkpt lat="48.67154" lon="-3.89607">
        <ele>17.4</ele>
        <time>2024-05-09T12:30:23Z</time>
      </trkpt>
      <trkpt lat="48.67154" lon="-3.89604">
        <ele>17.6</ele>
        <time>2024-05-09T12:30:25Z</time>
      </trkpt>
      <trkpt lat="48.67152" lon="-3.89604">
        <ele>17.6</ele>
        <time>2024-05-09T12:30:27Z</time>
      </trkpt>
      <trkpt lat="48.67149" lon="-3.89599">
        <ele>18.6</ele>
        <time>2024-05-09T12:30:33Z</time>
      </trkpt>
      <trkpt lat="48.67149" lon="-3.89598">
        <ele>18.8</ele>
        <time>2024-05-09T12:30:34Z</time>
      </trkpt>
      <trkpt lat="48.67148" lon="-3.89596">
        <ele>18.8</ele>
        <time>2024-05-09T12:30:35Z</time>
      </trkpt>
      <trkpt lat="48.67148" lon="-3.8959">
        <ele>17.8</ele>
        <time>2024-05-09T12:30:39Z</time>
      </trkpt>
      <trkpt lat="48.67148" lon="-3.89589">
        <ele>17.8</ele>
        <time>2024-05-09T12:30:40Z</time>
      </trkpt>
      <trkpt lat="48.67147" lon="-3.8958">
        <ele>16.8</ele>
        <time>2024-05-09T12:30:46Z</time>
      </trkpt>
      <trkpt lat="48.67147" lon="-3.89579">
        <ele>16.6</ele>
        <time>2024-05-09T12:30:47Z</time>
      </trkpt>
      <trkpt lat="48.67146" lon="-3.89574">
        <ele>16.4</ele>
        <time>2024-05-09T12:30:52Z</time>
      </trkpt>
      <trkpt lat="48.67146" lon="-3.89573">
        <ele>16.2</ele>
        <time>2024-05-09T12:30:53Z</time>
      </trkpt>
      <trkpt lat="48.67146" lon="-3.89571">
        <ele>15.6</ele>
        <time>2024-05-09T12:30:55Z</time>
      </trkpt>
      <trkpt lat="48.67146" lon="-3.8957">
        <ele>15.4</ele>
        <time>2024-05-09T12:30:56Z</time>
      </trkpt>
      <trkpt lat="48.67147" lon="-3.89564">
        <ele>14.2</ele>
        <time>2024-05-09T12:31:00Z</time>
      </trkpt>
      <trkpt lat="48.67148" lon="-3.89561">
        <ele>14</ele>
        <time>2024-05-09T12:31:01Z</time>
      </trkpt>
      <trkpt lat="48.67148" lon="-3.8956">
        <ele>14</ele>
        <time>2024-05-09T12:31:02Z</time>
      </trkpt>
      <trkpt lat="48.67148" lon="-3.89556">
        <ele>13.6</ele>
        <time>2024-05-09T12:31:04Z</time>
      </trkpt>
      <trkpt lat="48.67148" lon="-3.89554">
        <ele>13.2</ele>
        <time>2024-05-09T12:31:05Z</time>
      </trkpt>
      <trkpt lat="48.67149" lon="-3.89549">
        <ele>13</ele>
        <time>2024-05-09T12:31:08Z</time>
      </trkpt>
      <trkpt lat="48.67151" lon="-3.89542">
        <ele>12.8</ele>
        <time>2024-05-09T12:31:11Z</time>
      </trkpt>
      <trkpt lat="48.6715" lon="-3.89535">
        <ele>12.2</ele>
        <time>2024-05-09T12:31:15Z</time>
      </trkpt>
      <trkpt lat="48.67149" lon="-3.89534">
        <ele>12.2</ele>
        <time>2024-05-09T12:31:16Z</time>
      </trkpt>
      <trkpt lat="48.67149" lon="-3.89528">
        <ele>12</ele>
        <time>2024-05-09T12:31:20Z</time>
      </trkpt>
      <trkpt lat="48.67149" lon="-3.89524">
        <ele>11.6</ele>
        <time>2024-05-09T12:31:23Z</time>
      </trkpt>
      <trkpt lat="48.67149" lon="-3.89518">
        <ele>11.2</ele>
        <time>2024-05-09T12:31:26Z</time>
      </trkpt>
      <trkpt lat="48.67149" lon="-3.89515">
        <ele>11</ele>
        <time>2024-05-09T12:31:27Z</time>
      </trkpt>
      <trkpt lat="48.67149" lon="-3.89512">
        <ele>10.8</ele>
        <time>2024-05-09T12:31:29Z</time>
      </trkpt>
      <trkpt lat="48.67151" lon="-3.89505">
        <ele>10.4</ele>
        <time>2024-05-09T12:31:32Z</time>
      </trkpt>
      <trkpt lat="48.6715" lon="-3.89497">
        <ele>10.2</ele>
        <time>2024-05-09T12:31:35Z</time>
      </trkpt>
      <trkpt lat="48.67148" lon="-3.89491">
        <ele>10.6</ele>
        <time>2024-05-09T12:31:40Z</time>
      </trkpt>
      <trkpt lat="48.67148" lon="-3.89487">
        <ele>10.8</ele>
        <time>2024-05-09T12:31:42Z</time>
      </trkpt>
      <trkpt lat="48.67148" lon="-3.89486">
        <ele>10.8</ele>
        <time>2024-05-09T12:31:43Z</time>
      </trkpt>
      <trkpt lat="48.67144" lon="-3.89482">
        <ele>11.2</ele>
        <time>2024-05-09T12:31:47Z</time>
      </trkpt>
      <trkpt lat="48.67145" lon="-3.8948">
        <ele>11.4</ele>
        <time>2024-05-09T12:31:48Z</time>
      </trkpt>
      <trkpt lat="48.67147" lon="-3.89472">
        <ele>11</ele>
        <time>2024-05-09T12:31:51Z</time>
      </trkpt>
      <trkpt lat="48.67144" lon="-3.89462">
        <ele>10.6</ele>
        <time>2024-05-09T12:31:56Z</time>
      </trkpt>
      <trkpt lat="48.6714" lon="-3.89447">
        <ele>10.6</ele>
        <time>2024-05-09T12:32:03Z</time>
      </trkpt>
      <trkpt lat="48.67138" lon="-3.89435">
        <ele>11</ele>
        <time>2024-05-09T12:32:09Z</time>
      </trkpt>
      <trkpt lat="48.67136" lon="-3.89433">
        <ele>11</ele>
        <time>2024-05-09T12:32:10Z</time>
      </trkpt>
      <trkpt lat="48.67132" lon="-3.89426">
        <ele>11.4</ele>
        <time>2024-05-09T12:32:15Z</time>
      </trkpt>
      <trkpt lat="48.6713" lon="-3.89422">
        <ele>11.6</ele>
        <time>2024-05-09T12:32:17Z</time>
      </trkpt>
      <trkpt lat="48.67123" lon="-3.89408">
        <ele>12</ele>
        <time>2024-05-09T12:32:25Z</time>
      </trkpt>
      <trkpt lat="48.6712" lon="-3.89403">
        <ele>12.2</ele>
        <time>2024-05-09T12:32:29Z</time>
      </trkpt>
      <trkpt lat="48.67119" lon="-3.89402">
        <ele>12.8</ele>
        <time>2024-05-09T12:32:31Z</time>
      </trkpt>
      <trkpt lat="48.67116" lon="-3.89399">
        <ele>13.4</ele>
        <time>2024-05-09T12:32:34Z</time>
      </trkpt>
      <trkpt lat="48.67112" lon="-3.89394">
        <ele>14.4</ele>
        <time>2024-05-09T12:32:38Z</time>
      </trkpt>
      <trkpt lat="48.6711" lon="-3.89391">
        <ele>14.4</ele>
        <time>2024-05-09T12:32:40Z</time>
      </trkpt>
      <trkpt lat="48.67106" lon="-3.89384">
        <ele>15.8</ele>
        <time>2024-05-09T12:32:46Z</time>
      </trkpt>
      <trkpt lat="48.67102" lon="-3.89381">
        <ele>16.6</ele>
        <time>2024-05-09T12:32:50Z</time>
      </trkpt>
      <trkpt lat="48.67103" lon="-3.89375">
        <ele>16.8</ele>
        <time>2024-05-09T12:32:53Z</time>
      </trkpt>
      <trkpt lat="48.67101" lon="-3.89366">
        <ele>16.4</ele>
        <time>2024-05-09T12:32:58Z</time>
      </trkpt>
      <trkpt lat="48.671" lon="-3.89358">
        <ele>16.6</ele>
        <time>2024-05-09T12:33:02Z</time>
      </trkpt>
      <trkpt lat="48.671" lon="-3.89353">
        <ele>16.6</ele>
        <time>2024-05-09T12:33:04Z</time>
      </trkpt>
      <trkpt lat="48.671" lon="-3.89349">
        <ele>16.6</ele>
        <time>2024-05-09T12:33:06Z</time>
      </trkpt>
      <trkpt lat="48.671" lon="-3.89345">
        <ele>16.6</ele>
        <time>2024-05-09T12:33:08Z</time>
      </trkpt>
      <trkpt lat="48.67099" lon="-3.89339">
        <ele>16.6</ele>
        <time>2024-05-09T12:33:11Z</time>
      </trkpt>
      <trkpt lat="48.67098" lon="-3.89335">
        <ele>16.8</ele>
        <time>2024-05-09T12:33:13Z</time>
      </trkpt>
      <trkpt lat="48.67098" lon="-3.89331">
        <ele>16.6</ele>
        <time>2024-05-09T12:33:15Z</time>
      </trkpt>
      <trkpt lat="48.67097" lon="-3.89323">
        <ele>15.6</ele>
        <time>2024-05-09T12:33:19Z</time>
      </trkpt>
      <trkpt lat="48.67097" lon="-3.89321">
        <ele>15.4</ele>
        <time>2024-05-09T12:33:20Z</time>
      </trkpt>
      <trkpt lat="48.67096" lon="-3.89318">
        <ele>15.2</ele>
        <time>2024-05-09T12:33:22Z</time>
      </trkpt>
      <trkpt lat="48.67093" lon="-3.8931">
        <ele>14.6</ele>
        <time>2024-05-09T12:33:26Z</time>
      </trkpt>
      <trkpt lat="48.67092" lon="-3.89307">
        <ele>14.2</ele>
        <time>2024-05-09T12:33:28Z</time>
      </trkpt>
      <trkpt lat="48.67092" lon="-3.89305">
        <ele>14.2</ele>
        <time>2024-05-09T12:33:29Z</time>
      </trkpt>
      <trkpt lat="48.67091" lon="-3.89302">
        <ele>14.2</ele>
        <time>2024-05-09T12:33:30Z</time>
      </trkpt>
      <trkpt lat="48.67091" lon="-3.89292">
        <ele>14.6</ele>
        <time>2024-05-09T12:33:35Z</time>
      </trkpt>
      <trkpt lat="48.67091" lon="-3.89284">
        <ele>14.4</ele>
        <time>2024-05-09T12:33:39Z</time>
      </trkpt>
      <trkpt lat="48.6709" lon="-3.89278">
        <ele>14.4</ele>
        <time>2024-05-09T12:33:42Z</time>
      </trkpt>
      <trkpt lat="48.6709" lon="-3.89266">
        <ele>14.4</ele>
        <time>2024-05-09T12:33:48Z</time>
      </trkpt>
      <trkpt lat="48.67094" lon="-3.89249">
        <ele>14.2</ele>
        <time>2024-05-09T12:33:56Z</time>
      </trkpt>
      <trkpt lat="48.67093" lon="-3.89235">
        <ele>14.6</ele>
        <time>2024-05-09T12:34:03Z</time>
      </trkpt>
      <trkpt lat="48.67093" lon="-3.89231">
        <ele>15.2</ele>
        <time>2024-05-09T12:34:05Z</time>
      </trkpt>
      <trkpt lat="48.67094" lon="-3.89222">
        <ele>15.6</ele>
        <time>2024-05-09T12:34:10Z</time>
      </trkpt>
      <trkpt lat="48.67097" lon="-3.89209">
        <ele>15.2</ele>
        <time>2024-05-09T12:34:17Z</time>
      </trkpt>
      <trkpt lat="48.67097" lon="-3.89207">
        <ele>15</ele>
        <time>2024-05-09T12:34:18Z</time>
      </trkpt>
      <trkpt lat="48.67099" lon="-3.89198">
        <ele>13.6</ele>
        <time>2024-05-09T12:34:23Z</time>
      </trkpt>
      <trkpt lat="48.671" lon="-3.89192">
        <ele>12.6</ele>
        <time>2024-05-09T12:34:26Z</time>
      </trkpt>
      <trkpt lat="48.67099" lon="-3.89179">
        <ele>12.6</ele>
        <time>2024-05-09T12:34:33Z</time>
      </trkpt>
      <trkpt lat="48.67099" lon="-3.89178">
        <ele>12.6</ele>
        <time>2024-05-09T12:34:34Z</time>
      </trkpt>
      <trkpt lat="48.67099" lon="-3.89177">
        <ele>12.6</ele>
        <time>2024-05-09T12:34:35Z</time>
      </trkpt>
      <trkpt lat="48.67099" lon="-3.89171">
        <ele>13.4</ele>
        <time>2024-05-09T12:34:39Z</time>
      </trkpt>
      <trkpt lat="48.671" lon="-3.89161">
        <ele>14.2</ele>
        <time>2024-05-09T12:34:45Z</time>
      </trkpt>
      <trkpt lat="48.67099" lon="-3.89159">
        <ele>14.4</ele>
        <time>2024-05-09T12:34:47Z</time>
      </trkpt>
      <trkpt lat="48.67098" lon="-3.89157">
        <ele>14.8</ele>
        <time>2024-05-09T12:34:48Z</time>
      </trkpt>
      <trkpt lat="48.67097" lon="-3.89152">
        <ele>16</ele>
        <time>2024-05-09T12:34:52Z</time>
      </trkpt>
      <trkpt lat="48.67097" lon="-3.89149">
        <ele>16.2</ele>
        <time>2024-05-09T12:34:54Z</time>
      </trkpt>
      <trkpt lat="48.67097" lon="-3.89146">
        <ele>16.4</ele>
        <time>2024-05-09T12:34:56Z</time>
      </trkpt>
      <trkpt lat="48.67097" lon="-3.89139">
        <ele>16.8</ele>
        <time>2024-05-09T12:35:00Z</time>
      </trkpt>
      <trkpt lat="48.67097" lon="-3.89123">
        <ele>17</ele>
        <time>2024-05-09T12:35:07Z</time>
      </trkpt>
      <trkpt lat="48.67097" lon="-3.89121">
        <ele>17</ele>
        <time>2024-05-09T12:35:08Z</time>
      </trkpt>
      <trkpt lat="48.67092" lon="-3.89113">
        <ele>17.2</ele>
        <time>2024-05-09T12:35:14Z</time>
      </trkpt>
      <trkpt lat="48.67082" lon="-3.8911">
        <ele>18</ele>
        <time>2024-05-09T12:35:22Z</time>
      </trkpt>
      <trkpt lat="48.67082" lon="-3.8911">
        <ele>18</ele>
        <time>2024-05-09T12:35:23Z</time>
      </trkpt>
      <trkpt lat="48.6708" lon="-3.8911">
        <ele>18.2</ele>
        <time>2024-05-09T12:35:24Z</time>
      </trkpt>
      <trkpt lat="48.67074" lon="-3.89109">
        <ele>18.8</ele>
        <time>2024-05-09T12:35:29Z</time>
      </trkpt>
      <trkpt lat="48.67071" lon="-3.8911">
        <ele>19</ele>
        <time>2024-05-09T12:35:31Z</time>
      </trkpt>
      <trkpt lat="48.67072" lon="-3.89109">
        <ele>19.2</ele>
        <time>2024-05-09T12:35:35Z</time>
      </trkpt>
      <trkpt lat="48.67073" lon="-3.89109">
        <ele>19</ele>
        <time>2024-05-09T12:35:36Z</time>
      </trkpt>
      <trkpt lat="48.67079" lon="-3.8911">
        <ele>17.8</ele>
        <time>2024-05-09T12:35:41Z</time>
      </trkpt>
      <trkpt lat="48.6709" lon="-3.89114">
        <ele>17.2</ele>
        <time>2024-05-09T12:35:50Z</time>
      </trkpt>
      <trkpt lat="48.67096" lon="-3.89117">
        <ele>16.8</ele>
        <time>2024-05-09T12:35:59Z</time>
      </trkpt>
      <trkpt lat="48.67097" lon="-3.89117">
        <ele>16.8</ele>
        <time>2024-05-09T12:36:00Z</time>
      </trkpt>
      <trkpt lat="48.67098" lon="-3.89116">
        <ele>16.6</ele>
        <time>2024-05-09T12:36:04Z</time>
      </trkpt>
      <trkpt lat="48.67098" lon="-3.89117">
        <ele>15.8</ele>
        <time>2024-05-09T12:36:11Z</time>
      </trkpt>
      <trkpt lat="48.67098" lon="-3.89117">
        <ele>15.8</ele>
        <time>2024-05-09T12:36:12Z</time>
      </trkpt>
      <trkpt lat="48.67098" lon="-3.89117">
        <ele>14.2</ele>
        <time>2024-05-09T12:36:17Z</time>
      </trkpt>
      <trkpt lat="48.67098" lon="-3.89117">
        <ele>13.2</ele>
        <time>2024-05-09T12:36:22Z</time>
      </trkpt>
      <trkpt lat="48.67098" lon="-3.89114">
        <ele>12</ele>
        <time>2024-05-09T12:36:26Z</time>
      </trkpt>
      <trkpt lat="48.67098" lon="-3.89109">
        <ele>11.6</ele>
        <time>2024-05-09T12:36:28Z</time>
      </trkpt>
      <trkpt lat="48.67098" lon="-3.89101">
        <ele>11.4</ele>
        <time>2024-05-09T12:36:31Z</time>
      </trkpt>
      <trkpt lat="48.67096" lon="-3.89096">
        <ele>11.4</ele>
        <time>2024-05-09T12:36:34Z</time>
      </trkpt>
      <trkpt lat="48.67091" lon="-3.89089">
        <ele>11.8</ele>
        <time>2024-05-09T12:36:40Z</time>
      </trkpt>
      <trkpt lat="48.67081" lon="-3.89085">
        <ele>12.8</ele>
        <time>2024-05-09T12:36:49Z</time>
      </trkpt>
      <trkpt lat="48.67081" lon="-3.89085">
        <ele>13</ele>
        <time>2024-05-09T12:36:50Z</time>
      </trkpt>
      <trkpt lat="48.67081" lon="-3.89084">
        <ele>13.2</ele>
        <time>2024-05-09T12:36:51Z</time>
      </trkpt>
      <trkpt lat="48.6708" lon="-3.89083">
        <ele>13</ele>
        <time>2024-05-09T12:36:54Z</time>
      </trkpt>
      <trkpt lat="48.6708" lon="-3.89079">
        <ele>12.6</ele>
        <time>2024-05-09T12:36:58Z</time>
      </trkpt>
      <trkpt lat="48.67081" lon="-3.89078">
        <ele>12.2</ele>
        <time>2024-05-09T12:36:59Z</time>
      </trkpt>
      <trkpt lat="48.67081" lon="-3.89077">
        <ele>12</ele>
        <time>2024-05-09T12:37:00Z</time>
      </trkpt>
      <trkpt lat="48.67083" lon="-3.89072">
        <ele>11</ele>
        <time>2024-05-09T12:37:03Z</time>
      </trkpt>
      <trkpt lat="48.67083" lon="-3.89069">
        <ele>10.4</ele>
        <time>2024-05-09T12:37:05Z</time>
      </trkpt>
      <trkpt lat="48.67084" lon="-3.89067">
        <ele>9.6</ele>
        <time>2024-05-09T12:37:07Z</time>
      </trkpt>
      <trkpt lat="48.67084" lon="-3.89064">
        <ele>9</ele>
        <time>2024-05-09T12:37:09Z</time>
      </trkpt>
      <trkpt lat="48.67082" lon="-3.89061">
        <ele>8.6</ele>
        <time>2024-05-09T12:37:11Z</time>
      </trkpt>
      <trkpt lat="48.67079" lon="-3.8906">
        <ele>8.6</ele>
        <time>2024-05-09T12:37:13Z</time>
      </trkpt>
      <trkpt lat="48.67067" lon="-3.89058">
        <ele>8.4</ele>
        <time>2024-05-09T12:37:23Z</time>
      </trkpt>
      <trkpt lat="48.67062" lon="-3.89056">
        <ele>8.2</ele>
        <time>2024-05-09T12:37:30Z</time>
      </trkpt>
      <trkpt lat="48.67063" lon="-3.89054">
        <ele>8.2</ele>
        <time>2024-05-09T12:37:33Z</time>
      </trkpt>
      <trkpt lat="48.67063" lon="-3.89054">
        <ele>7.8</ele>
        <time>2024-05-09T12:37:49Z</time>
      </trkpt>
      <trkpt lat="48.67061" lon="-3.89056">
        <ele>7.8</ele>
        <time>2024-05-09T12:37:53Z</time>
      </trkpt>
      <trkpt lat="48.67055" lon="-3.8906">
        <ele>7.8</ele>
        <time>2024-05-09T12:37:58Z</time>
      </trkpt>
      <trkpt lat="48.67046" lon="-3.89059">
        <ele>7.8</ele>
        <time>2024-05-09T12:38:04Z</time>
      </trkpt>
      <trkpt lat="48.67044" lon="-3.89061">
        <ele>7.8</ele>
        <time>2024-05-09T12:38:06Z</time>
      </trkpt>
      <trkpt lat="48.67043" lon="-3.89063">
        <ele>8</ele>
        <time>2024-05-09T12:38:09Z</time>
      </trkpt>
      <trkpt lat="48.67042" lon="-3.89069">
        <ele>9.2</ele>
        <time>2024-05-09T12:38:14Z</time>
      </trkpt>
      <trkpt lat="48.67042" lon="-3.8907">
        <ele>9.6</ele>
        <time>2024-05-09T12:38:15Z</time>
      </trkpt>
      <trkpt lat="48.67041" lon="-3.89073">
        <ele>10.8</ele>
        <time>2024-05-09T12:38:19Z</time>
      </trkpt>
      <trkpt lat="48.6704" lon="-3.89073">
        <ele>11</ele>
        <time>2024-05-09T12:38:20Z</time>
      </trkpt>
      <trkpt lat="48.67037" lon="-3.89072">
        <ele>11.4</ele>
        <time>2024-05-09T12:38:23Z</time>
      </trkpt>
      <trkpt lat="48.67035" lon="-3.89071">
        <ele>11.6</ele>
        <time>2024-05-09T12:38:25Z</time>
      </trkpt>
      <trkpt lat="48.67032" lon="-3.89064">
        <ele>11.6</ele>
        <time>2024-05-09T12:38:30Z</time>
      </trkpt>
      <trkpt lat="48.67031" lon="-3.89061">
        <ele>11.4</ele>
        <time>2024-05-09T12:38:32Z</time>
      </trkpt>
      <trkpt lat="48.67027" lon="-3.89056">
        <ele>10.6</ele>
        <time>2024-05-09T12:38:36Z</time>
      </trkpt>
      <trkpt lat="48.67022" lon="-3.89053">
        <ele>9.8</ele>
        <time>2024-05-09T12:38:39Z</time>
      </trkpt>
      <trkpt lat="48.67018" lon="-3.8905">
        <ele>9.2</ele>
        <time>2024-05-09T12:38:42Z</time>
      </trkpt>
      <trkpt lat="48.6701" lon="-3.8905">
        <ele>8.6</ele>
        <time>2024-05-09T12:38:46Z</time>
      </trkpt>
      <trkpt lat="48.67008" lon="-3.8905">
        <ele>8.6</ele>
        <time>2024-05-09T12:38:47Z</time>
      </trkpt>
      <trkpt lat="48.67004" lon="-3.89049">
        <ele>8.4</ele>
        <time>2024-05-09T12:38:50Z</time>
      </trkpt>
      <trkpt lat="48.66996" lon="-3.89056">
        <ele>9</ele>
        <time>2024-05-09T12:38:57Z</time>
      </trkpt>
      <trkpt lat="48.66994" lon="-3.89059">
        <ele>9.8</ele>
        <time>2024-05-09T12:39:00Z</time>
      </trkpt>
      <trkpt lat="48.66991" lon="-3.89062">
        <ele>10.2</ele>
        <time>2024-05-09T12:39:03Z</time>
      </trkpt>
      <trkpt lat="48.6699" lon="-3.89062">
        <ele>10.2</ele>
        <time>2024-05-09T12:39:04Z</time>
      </trkpt>
      <trkpt lat="48.66985" lon="-3.89064">
        <ele>10.8</ele>
        <time>2024-05-09T12:39:08Z</time>
      </trkpt>
      <trkpt lat="48.66984" lon="-3.89066">
        <ele>11</ele>
        <time>2024-05-09T12:39:10Z</time>
      </trkpt>
      <trkpt lat="48.66983" lon="-3.89066">
        <ele>11.2</ele>
        <time>2024-05-09T12:39:11Z</time>
      </trkpt>
      <trkpt lat="48.66979" lon="-3.8907">
        <ele>12</ele>
        <time>2024-05-09T12:39:14Z</time>
      </trkpt>
      <trkpt lat="48.66977" lon="-3.89071">
        <ele>12.2</ele>
        <time>2024-05-09T12:39:16Z</time>
      </trkpt>
      <trkpt lat="48.66966" lon="-3.89073">
        <ele>13</ele>
        <time>2024-05-09T12:39:24Z</time>
      </trkpt>
      <trkpt lat="48.66959" lon="-3.89076">
        <ele>13</ele>
        <time>2024-05-09T12:39:30Z</time>
      </trkpt>
      <trkpt lat="48.6695" lon="-3.8908">
        <ele>14.2</ele>
        <time>2024-05-09T12:39:36Z</time>
      </trkpt>
      <trkpt lat="48.66947" lon="-3.8908">
        <ele>14.6</ele>
        <time>2024-05-09T12:39:38Z</time>
      </trkpt>
      <trkpt lat="48.66945" lon="-3.89079">
        <ele>14.8</ele>
        <time>2024-05-09T12:39:40Z</time>
      </trkpt>
      <trkpt lat="48.66937" lon="-3.89075">
        <ele>14.6</ele>
        <time>2024-05-09T12:39:45Z</time>
      </trkpt>
      <trkpt lat="48.66927" lon="-3.89067">
        <ele>14.2</ele>
        <time>2024-05-09T12:39:52Z</time>
      </trkpt>
      <trkpt lat="48.6692" lon="-3.89062">
        <ele>14</ele>
        <time>2024-05-09T12:39:59Z</time>
      </trkpt>
      <trkpt lat="48.66919" lon="-3.8906">
        <ele>14</ele>
        <time>2024-05-09T12:40:00Z</time>
      </trkpt>
      <trkpt lat="48.66914" lon="-3.89053">
        <ele>13.6</ele>
        <time>2024-05-09T12:40:05Z</time>
      </trkpt>
      <trkpt lat="48.66912" lon="-3.89048">
        <ele>13.2</ele>
        <time>2024-05-09T12:40:08Z</time>
      </trkpt>
      <trkpt lat="48.66909" lon="-3.89039">
        <ele>12</ele>
        <time>2024-05-09T12:40:12Z</time>
      </trkpt>
      <trkpt lat="48.66906" lon="-3.8903">
        <ele>11.4</ele>
        <time>2024-05-09T12:40:16Z</time>
      </trkpt>
      <trkpt lat="48.66903" lon="-3.89025">
        <ele>10.8</ele>
        <time>2024-05-09T12:40:18Z</time>
      </trkpt>
      <trkpt lat="48.66897" lon="-3.89016">
        <ele>10.6</ele>
        <time>2024-05-09T12:40:23Z</time>
      </trkpt>
      <trkpt lat="48.66887" lon="-3.89005">
        <ele>10.4</ele>
        <time>2024-05-09T12:40:31Z</time>
      </trkpt>
      <trkpt lat="48.66882" lon="-3.89005">
        <ele>10.2</ele>
        <time>2024-05-09T12:40:34Z</time>
      </trkpt>
      <trkpt lat="48.6688" lon="-3.89006">
        <ele>10</ele>
        <time>2024-05-09T12:40:36Z</time>
      </trkpt>
      <trkpt lat="48.66877" lon="-3.89008">
        <ele>10</ele>
        <time>2024-05-09T12:40:38Z</time>
      </trkpt>
      <trkpt lat="48.66874" lon="-3.89012">
        <ele>9.8</ele>
        <time>2024-05-09T12:40:40Z</time>
      </trkpt>
      <trkpt lat="48.66872" lon="-3.89012">
        <ele>9.8</ele>
        <time>2024-05-09T12:40:42Z</time>
      </trkpt>
      <trkpt lat="48.66859" lon="-3.8902">
        <ele>10.2</ele>
        <time>2024-05-09T12:40:50Z</time>
      </trkpt>
      <trkpt lat="48.66852" lon="-3.8902">
        <ele>10.2</ele>
        <time>2024-05-09T12:40:56Z</time>
      </trkpt>
      <trkpt lat="48.6685" lon="-3.89018">
        <ele>10.2</ele>
        <time>2024-05-09T12:40:57Z</time>
      </trkpt>
      <trkpt lat="48.66841" lon="-3.8901">
        <ele>9.6</ele>
        <time>2024-05-09T12:41:05Z</time>
      </trkpt>
      <trkpt lat="48.66839" lon="-3.8901">
        <ele>9.6</ele>
        <time>2024-05-09T12:41:07Z</time>
      </trkpt>
      <trkpt lat="48.66836" lon="-3.8901">
        <ele>9.8</ele>
        <time>2024-05-09T12:41:09Z</time>
      </trkpt>
      <trkpt lat="48.66833" lon="-3.89008">
        <ele>9.8</ele>
        <time>2024-05-09T12:41:11Z</time>
      </trkpt>
      <trkpt lat="48.66821" lon="-3.8901">
        <ele>11</ele>
        <time>2024-05-09T12:41:20Z</time>
      </trkpt>
      <trkpt lat="48.6682" lon="-3.89012">
        <ele>11</ele>
        <time>2024-05-09T12:41:21Z</time>
      </trkpt>
      <trkpt lat="48.66818" lon="-3.89014">
        <ele>11.2</ele>
        <time>2024-05-09T12:41:23Z</time>
      </trkpt>
      <trkpt lat="48.66816" lon="-3.89018">
        <ele>11.8</ele>
        <time>2024-05-09T12:41:26Z</time>
      </trkpt>
      <trkpt lat="48.66815" lon="-3.89018">
        <ele>12</ele>
        <time>2024-05-09T12:41:27Z</time>
      </trkpt>
      <trkpt lat="48.66813" lon="-3.89019">
        <ele>12.2</ele>
        <time>2024-05-09T12:41:29Z</time>
      </trkpt>
      <trkpt lat="48.66812" lon="-3.8902">
        <ele>12.2</ele>
        <time>2024-05-09T12:41:30Z</time>
      </trkpt>
      <trkpt lat="48.66811" lon="-3.89021">
        <ele>12.2</ele>
        <time>2024-05-09T12:41:32Z</time>
      </trkpt>
      <trkpt lat="48.66807" lon="-3.8902">
        <ele>11.8</ele>
        <time>2024-05-09T12:41:34Z</time>
      </trkpt>
      <trkpt lat="48.66805" lon="-3.8902">
        <ele>11.6</ele>
        <time>2024-05-09T12:41:36Z</time>
      </trkpt>
      <trkpt lat="48.66803" lon="-3.89024">
        <ele>11.6</ele>
        <time>2024-05-09T12:41:38Z</time>
      </trkpt>
      <trkpt lat="48.66801" lon="-3.89025">
        <ele>11.6</ele>
        <time>2024-05-09T12:41:39Z</time>
      </trkpt>
      <trkpt lat="48.66795" lon="-3.89028">
        <ele>11.6</ele>
        <time>2024-05-09T12:41:43Z</time>
      </trkpt>
      <trkpt lat="48.66794" lon="-3.89031">
        <ele>11.6</ele>
        <time>2024-05-09T12:41:45Z</time>
      </trkpt>
      <trkpt lat="48.66792" lon="-3.89032">
        <ele>11.8</ele>
        <time>2024-05-09T12:41:46Z</time>
      </trkpt>
      <trkpt lat="48.66787" lon="-3.89033">
        <ele>11.8</ele>
        <time>2024-05-09T12:41:50Z</time>
      </trkpt>
      <trkpt lat="48.66779" lon="-3.89035">
        <ele>10.8</ele>
        <time>2024-05-09T12:41:56Z</time>
      </trkpt>
      <trkpt lat="48.66778" lon="-3.89035">
        <ele>10.8</ele>
        <time>2024-05-09T12:41:57Z</time>
      </trkpt>
      <trkpt lat="48.66777" lon="-3.89036">
        <ele>10.8</ele>
        <time>2024-05-09T12:41:58Z</time>
      </trkpt>
      <trkpt lat="48.66771" lon="-3.89044">
        <ele>11.2</ele>
        <time>2024-05-09T12:42:05Z</time>
      </trkpt>
      <trkpt lat="48.66769" lon="-3.89047">
        <ele>11.2</ele>
        <time>2024-05-09T12:42:08Z</time>
      </trkpt>
      <trkpt lat="48.66769" lon="-3.89049">
        <ele>11.4</ele>
        <time>2024-05-09T12:42:10Z</time>
      </trkpt>
      <trkpt lat="48.66768" lon="-3.8905">
        <ele>11.6</ele>
        <time>2024-05-09T12:42:11Z</time>
      </trkpt>
      <trkpt lat="48.66767" lon="-3.89051">
        <ele>11.8</ele>
        <time>2024-05-09T12:42:13Z</time>
      </trkpt>
      <trkpt lat="48.66767" lon="-3.89052">
        <ele>12.2</ele>
        <time>2024-05-09T12:42:14Z</time>
      </trkpt>
      <trkpt lat="48.66766" lon="-3.89056">
        <ele>12.4</ele>
        <time>2024-05-09T12:42:17Z</time>
      </trkpt>
      <trkpt lat="48.66765" lon="-3.89057">
        <ele>12.6</ele>
        <time>2024-05-09T12:42:19Z</time>
      </trkpt>
      <trkpt lat="48.66764" lon="-3.89061">
        <ele>13</ele>
        <time>2024-05-09T12:42:22Z</time>
      </trkpt>
      <trkpt lat="48.66764" lon="-3.89063">
        <ele>13.2</ele>
        <time>2024-05-09T12:42:23Z</time>
      </trkpt>
      <trkpt lat="48.66763" lon="-3.89066">
        <ele>13.4</ele>
        <time>2024-05-09T12:42:25Z</time>
      </trkpt>
      <trkpt lat="48.66756" lon="-3.89073">
        <ele>13.4</ele>
        <time>2024-05-09T12:42:32Z</time>
      </trkpt>
      <trkpt lat="48.66752" lon="-3.89078">
        <ele>13.4</ele>
        <time>2024-05-09T12:42:37Z</time>
      </trkpt>
      <trkpt lat="48.6675" lon="-3.89079">
        <ele>13.2</ele>
        <time>2024-05-09T12:42:39Z</time>
      </trkpt>
      <trkpt lat="48.66749" lon="-3.8908">
        <ele>13.2</ele>
        <time>2024-05-09T12:42:40Z</time>
      </trkpt>
      <trkpt lat="48.66744" lon="-3.89083">
        <ele>13.4</ele>
        <time>2024-05-09T12:42:45Z</time>
      </trkpt>
      <trkpt lat="48.66743" lon="-3.89084">
        <ele>13.4</ele>
        <time>2024-05-09T12:42:46Z</time>
      </trkpt>
      <trkpt lat="48.66739" lon="-3.89086">
        <ele>13.6</ele>
        <time>2024-05-09T12:42:49Z</time>
      </trkpt>
      <trkpt lat="48.66736" lon="-3.89089">
        <ele>13.4</ele>
        <time>2024-05-09T12:42:51Z</time>
      </trkpt>
      <trkpt lat="48.66725" lon="-3.89092">
        <ele>13</ele>
        <time>2024-05-09T12:42:59Z</time>
      </trkpt>
      <trkpt lat="48.66721" lon="-3.89093">
        <ele>12.6</ele>
        <time>2024-05-09T12:43:02Z</time>
      </trkpt>
      <trkpt lat="48.66719" lon="-3.89092">
        <ele>12</ele>
        <time>2024-05-09T12:43:04Z</time>
      </trkpt>
      <trkpt lat="48.66718" lon="-3.89092">
        <ele>11.8</ele>
        <time>2024-05-09T12:43:05Z</time>
      </trkpt>
      <trkpt lat="48.66716" lon="-3.89093">
        <ele>11.6</ele>
        <time>2024-05-09T12:43:07Z</time>
      </trkpt>
      <trkpt lat="48.66712" lon="-3.89094">
        <ele>11</ele>
        <time>2024-05-09T12:43:10Z</time>
      </trkpt>
      <trkpt lat="48.66709" lon="-3.89095">
        <ele>10.4</ele>
        <time>2024-05-09T12:43:12Z</time>
      </trkpt>
      <trkpt lat="48.66708" lon="-3.89096">
        <ele>10.2</ele>
        <time>2024-05-09T12:43:13Z</time>
      </trkpt>
      <trkpt lat="48.66707" lon="-3.89097">
        <ele>10</ele>
        <time>2024-05-09T12:43:14Z</time>
      </trkpt>
      <trkpt lat="48.66705" lon="-3.89101">
        <ele>9.8</ele>
        <time>2024-05-09T12:43:17Z</time>
      </trkpt>
      <trkpt lat="48.66703" lon="-3.89106">
        <ele>9.6</ele>
        <time>2024-05-09T12:43:20Z</time>
      </trkpt>
      <trkpt lat="48.66701" lon="-3.89108">
        <ele>8.8</ele>
        <time>2024-05-09T12:43:25Z</time>
      </trkpt>
      <trkpt lat="48.66702" lon="-3.8911">
        <ele>8.8</ele>
        <time>2024-05-09T12:44:35Z</time>
      </trkpt>
      <trkpt lat="48.66697" lon="-3.89112">
        <ele>8.8</ele>
        <time>2024-05-09T12:44:38Z</time>
      </trkpt>
      <trkpt lat="48.66693" lon="-3.89123">
        <ele>8.6</ele>
        <time>2024-05-09T12:44:45Z</time>
      </trkpt>
      <trkpt lat="48.66694" lon="-3.8913">
        <ele>9.6</ele>
        <time>2024-05-09T12:44:52Z</time>
      </trkpt>
      <trkpt lat="48.66693" lon="-3.89133">
        <ele>9.6</ele>
        <time>2024-05-09T12:44:54Z</time>
      </trkpt>
      <trkpt lat="48.66692" lon="-3.89136">
        <ele>9.8</ele>
        <time>2024-05-09T12:44:56Z</time>
      </trkpt>
      <trkpt lat="48.66693" lon="-3.89138">
        <ele>9.6</ele>
        <time>2024-05-09T12:44:59Z</time>
      </trkpt>
      <trkpt lat="48.66693" lon="-3.89138">
        <ele>9.6</ele>
        <time>2024-05-09T12:45:00Z</time>
      </trkpt>
      <trkpt lat="48.66694" lon="-3.89137">
        <ele>9.6</ele>
        <time>2024-05-09T12:45:10Z</time>
      </trkpt>
      <trkpt lat="48.66692" lon="-3.89144">
        <ele>9.6</ele>
        <time>2024-05-09T12:45:16Z</time>
      </trkpt>
      <trkpt lat="48.66693" lon="-3.89154">
        <ele>9.8</ele>
        <time>2024-05-09T12:45:22Z</time>
      </trkpt>
      <trkpt lat="48.66692" lon="-3.89163">
        <ele>10.2</ele>
        <time>2024-05-09T12:45:27Z</time>
      </trkpt>
      <trkpt lat="48.66692" lon="-3.89165">
        <ele>10.2</ele>
        <time>2024-05-09T12:45:28Z</time>
      </trkpt>
      <trkpt lat="48.66688" lon="-3.89172">
        <ele>10.4</ele>
        <time>2024-05-09T12:45:32Z</time>
      </trkpt>
      <trkpt lat="48.66686" lon="-3.89178">
        <ele>10.4</ele>
        <time>2024-05-09T12:45:35Z</time>
      </trkpt>
      <trkpt lat="48.66685" lon="-3.89181">
        <ele>10.2</ele>
        <time>2024-05-09T12:45:38Z</time>
      </trkpt>
      <trkpt lat="48.66682" lon="-3.89185">
        <ele>10</ele>
        <time>2024-05-09T12:45:41Z</time>
      </trkpt>
      <trkpt lat="48.66678" lon="-3.89192">
        <ele>9.8</ele>
        <time>2024-05-09T12:45:44Z</time>
      </trkpt>
      <trkpt lat="48.66671" lon="-3.89202">
        <ele>9.4</ele>
        <time>2024-05-09T12:45:51Z</time>
      </trkpt>
      <trkpt lat="48.6667" lon="-3.89202">
        <ele>9.2</ele>
        <time>2024-05-09T12:45:52Z</time>
      </trkpt>
      <trkpt lat="48.66668" lon="-3.89203">
        <ele>8.6</ele>
        <time>2024-05-09T12:45:55Z</time>
      </trkpt>
      <trkpt lat="48.66667" lon="-3.89203">
        <ele>8.4</ele>
        <time>2024-05-09T12:45:56Z</time>
      </trkpt>
      <trkpt lat="48.66666" lon="-3.89201">
        <ele>7.6</ele>
        <time>2024-05-09T12:45:59Z</time>
      </trkpt>
      <trkpt lat="48.66666" lon="-3.89202">
        <ele>7.2</ele>
        <time>2024-05-09T12:46:00Z</time>
      </trkpt>
      <trkpt lat="48.66664" lon="-3.89201">
        <ele>6.2</ele>
        <time>2024-05-09T12:46:03Z</time>
      </trkpt>
      <trkpt lat="48.66662" lon="-3.89204">
        <ele>5.2</ele>
        <time>2024-05-09T12:46:06Z</time>
      </trkpt>
      <trkpt lat="48.66662" lon="-3.89207">
        <ele>5</ele>
        <time>2024-05-09T12:46:07Z</time>
      </trkpt>
      <trkpt lat="48.66661" lon="-3.89224">
        <ele>4.2</ele>
        <time>2024-05-09T12:46:15Z</time>
      </trkpt>
      <trkpt lat="48.66661" lon="-3.89226">
        <ele>4</ele>
        <time>2024-05-09T12:46:16Z</time>
      </trkpt>
      <trkpt lat="48.66659" lon="-3.89235">
        <ele>3.6</ele>
        <time>2024-05-09T12:46:21Z</time>
      </trkpt>
      <trkpt lat="48.66657" lon="-3.89247">
        <ele>4</ele>
        <time>2024-05-09T12:46:27Z</time>
      </trkpt>
      <trkpt lat="48.66657" lon="-3.89248">
        <ele>4.2</ele>
        <time>2024-05-09T12:46:28Z</time>
      </trkpt>
      <trkpt lat="48.66653" lon="-3.8926">
        <ele>4.6</ele>
        <time>2024-05-09T12:46:35Z</time>
      </trkpt>
      <trkpt lat="48.66648" lon="-3.89276">
        <ele>4.6</ele>
        <time>2024-05-09T12:46:43Z</time>
      </trkpt>
      <trkpt lat="48.66648" lon="-3.89286">
        <ele>4.6</ele>
        <time>2024-05-09T12:46:48Z</time>
      </trkpt>
      <trkpt lat="48.6665" lon="-3.89291">
        <ele>4.6</ele>
        <time>2024-05-09T12:46:50Z</time>
      </trkpt>
      <trkpt lat="48.66651" lon="-3.89296">
        <ele>4.8</ele>
        <time>2024-05-09T12:46:53Z</time>
      </trkpt>
      <trkpt lat="48.66652" lon="-3.89299">
        <ele>4.8</ele>
        <time>2024-05-09T12:46:55Z</time>
      </trkpt>
      <trkpt lat="48.66658" lon="-3.89316">
        <ele>4.4</ele>
        <time>2024-05-09T12:47:03Z</time>
      </trkpt>
      <trkpt lat="48.66661" lon="-3.8933">
        <ele>4.4</ele>
        <time>2024-05-09T12:47:10Z</time>
      </trkpt>
      <trkpt lat="48.66661" lon="-3.89337">
        <ele>4.4</ele>
        <time>2024-05-09T12:47:13Z</time>
      </trkpt>
      <trkpt lat="48.66665" lon="-3.89344">
        <ele>4.4</ele>
        <time>2024-05-09T12:47:17Z</time>
      </trkpt>
      <trkpt lat="48.66665" lon="-3.89346">
        <ele>4.6</ele>
        <time>2024-05-09T12:47:18Z</time>
      </trkpt>
      <trkpt lat="48.66667" lon="-3.89355">
        <ele>4.6</ele>
        <time>2024-05-09T12:47:23Z</time>
      </trkpt>
      <trkpt lat="48.66667" lon="-3.89359">
        <ele>4.6</ele>
        <time>2024-05-09T12:47:25Z</time>
      </trkpt>
      <trkpt lat="48.6667" lon="-3.89369">
        <ele>4.6</ele>
        <time>2024-05-09T12:47:30Z</time>
      </trkpt>
      <trkpt lat="48.66671" lon="-3.89386">
        <ele>4.4</ele>
        <time>2024-05-09T12:47:38Z</time>
      </trkpt>
      <trkpt lat="48.66672" lon="-3.89405">
        <ele>4.4</ele>
        <time>2024-05-09T12:47:46Z</time>
      </trkpt>
      <trkpt lat="48.66672" lon="-3.89414">
        <ele>4.2</ele>
        <time>2024-05-09T12:47:50Z</time>
      </trkpt>
      <trkpt lat="48.66672" lon="-3.89418">
        <ele>4.2</ele>
        <time>2024-05-09T12:47:52Z</time>
      </trkpt>
      <trkpt lat="48.66672" lon="-3.8942">
        <ele>4.4</ele>
        <time>2024-05-09T12:47:53Z</time>
      </trkpt>
      <trkpt lat="48.66673" lon="-3.89429">
        <ele>4.4</ele>
        <time>2024-05-09T12:47:57Z</time>
      </trkpt>
      <trkpt lat="48.66673" lon="-3.89446">
        <ele>4.6</ele>
        <time>2024-05-09T12:48:04Z</time>
      </trkpt>
      <trkpt lat="48.66673" lon="-3.89448">
        <ele>4.6</ele>
        <time>2024-05-09T12:48:05Z</time>
      </trkpt>
      <trkpt lat="48.66671" lon="-3.89456">
        <ele>4.4</ele>
        <time>2024-05-09T12:48:09Z</time>
      </trkpt>
      <trkpt lat="48.66668" lon="-3.89478">
        <ele>4.4</ele>
        <time>2024-05-09T12:48:18Z</time>
      </trkpt>
      <trkpt lat="48.66668" lon="-3.89488">
        <ele>4</ele>
        <time>2024-05-09T12:48:24Z</time>
      </trkpt>
      <trkpt lat="48.66666" lon="-3.89485">
        <ele>4</ele>
        <time>2024-05-09T12:48:27Z</time>
      </trkpt>
      <trkpt lat="48.66666" lon="-3.89471">
        <ele>3</ele>
        <time>2024-05-09T12:48:32Z</time>
      </trkpt>
      <trkpt lat="48.66666" lon="-3.89467">
        <ele>2.6</ele>
        <time>2024-05-09T12:48:34Z</time>
      </trkpt>
      <trkpt lat="48.66663" lon="-3.8946">
        <ele>2</ele>
        <time>2024-05-09T12:48:38Z</time>
      </trkpt>
      <trkpt lat="48.66662" lon="-3.89458">
        <ele>1.6</ele>
        <time>2024-05-09T12:48:39Z</time>
      </trkpt>
      <trkpt lat="48.66659" lon="-3.89456">
        <ele>1.2</ele>
        <time>2024-05-09T12:48:41Z</time>
      </trkpt>
      <trkpt lat="48.66658" lon="-3.89455">
        <ele>1</ele>
        <time>2024-05-09T12:48:42Z</time>
      </trkpt>
      <trkpt lat="48.66653" lon="-3.89461">
        <ele>0.60000000000002</ele>
        <time>2024-05-09T12:48:46Z</time>
      </trkpt>
      <trkpt lat="48.66652" lon="-3.89462">
        <ele>0.60000000000002</ele>
        <time>2024-05-09T12:48:47Z</time>
      </trkpt>
      <trkpt lat="48.66646" lon="-3.89465">
        <ele>-0.60000000000002</ele>
        <time>2024-05-09T12:48:52Z</time>
      </trkpt>
      <trkpt lat="48.66643" lon="-3.89467">
        <ele>-0.80000000000001</ele>
        <time>2024-05-09T12:48:54Z</time>
      </trkpt>
      <trkpt lat="48.66627" lon="-3.89477">
        <ele>-0.80000000000001</ele>
        <time>2024-05-09T12:49:05Z</time>
      </trkpt>
      <trkpt lat="48.66615" lon="-3.89487">
        <ele>-1.6</ele>
        <time>2024-05-09T12:49:14Z</time>
      </trkpt>
      <trkpt lat="48.66612" lon="-3.89488">
        <ele>-2</ele>
        <time>2024-05-09T12:49:16Z</time>
      </trkpt>
      <trkpt lat="48.66606" lon="-3.89499">
        <ele>-2.2</ele>
        <time>2024-05-09T12:49:23Z</time>
      </trkpt>
      <trkpt lat="48.66604" lon="-3.89516">
        <ele>-2.6</ele>
        <time>2024-05-09T12:49:31Z</time>
      </trkpt>
      <trkpt lat="48.66604" lon="-3.8952">
        <ele>-2.8</ele>
        <time>2024-05-09T12:49:33Z</time>
      </trkpt>
      <trkpt lat="48.66604" lon="-3.89537">
        <ele>-2.4</ele>
        <time>2024-05-09T12:49:42Z</time>
      </trkpt>
      <trkpt lat="48.66598" lon="-3.8955">
        <ele>-2.6</ele>
        <time>2024-05-09T12:49:51Z</time>
      </trkpt>
      <trkpt lat="48.66593" lon="-3.89558">
        <ele>-2.2</ele>
        <time>2024-05-09T12:49:58Z</time>
      </trkpt>
      <trkpt lat="48.66589" lon="-3.89568">
        <ele>-1.6</ele>
        <time>2024-05-09T12:50:04Z</time>
      </trkpt>
      <trkpt lat="48.66588" lon="-3.89573">
        <ele>-1.8</ele>
        <time>2024-05-09T12:50:07Z</time>
      </trkpt>
      <trkpt lat="48.66588" lon="-3.89574">
        <ele>-2</ele>
        <time>2024-05-09T12:50:08Z</time>
      </trkpt>
      <trkpt lat="48.6659" lon="-3.89576">
        <ele>-2</ele>
        <time>2024-05-09T12:50:10Z</time>
      </trkpt>
      <trkpt lat="48.66591" lon="-3.89576">
        <ele>-2</ele>
        <time>2024-05-09T12:50:11Z</time>
      </trkpt>
      <trkpt lat="48.66603" lon="-3.89578">
        <ele>-2</ele>
        <time>2024-05-09T12:50:21Z</time>
      </trkpt>
      <trkpt lat="48.66611" lon="-3.89583">
        <ele>-1.2</ele>
        <time>2024-05-09T12:50:30Z</time>
      </trkpt>
      <trkpt lat="48.66615" lon="-3.89587">
        <ele>-0.60000000000002</ele>
        <time>2024-05-09T12:50:34Z</time>
      </trkpt>
      <trkpt lat="48.66617" lon="-3.89591">
        <ele>-0.60000000000002</ele>
        <time>2024-05-09T12:50:37Z</time>
      </trkpt>
      <trkpt lat="48.66617" lon="-3.89593">
        <ele>0.19999999999999</ele>
        <time>2024-05-09T12:50:38Z</time>
      </trkpt>
      <trkpt lat="48.66617" lon="-3.89599">
        <ele>0.60000000000002</ele>
        <time>2024-05-09T12:50:41Z</time>
      </trkpt>
      <trkpt lat="48.66616" lon="-3.89601">
        <ele>0.60000000000002</ele>
        <time>2024-05-09T12:50:42Z</time>
      </trkpt>
      <trkpt lat="48.66613" lon="-3.8962">
        <ele>0.60000000000002</ele>
        <time>2024-05-09T12:50:52Z</time>
      </trkpt>
      <trkpt lat="48.66612" lon="-3.89632">
        <ele>1.2</ele>
        <time>2024-05-09T12:50:58Z</time>
      </trkpt>
      <trkpt lat="48.66612" lon="-3.89635">
        <ele>1.2</ele>
        <time>2024-05-09T12:51:00Z</time>
      </trkpt>
      <trkpt lat="48.6661" lon="-3.89636">
        <ele>1</ele>
        <time>2024-05-09T12:51:01Z</time>
      </trkpt>
      <trkpt lat="48.66608" lon="-3.89642">
        <ele>0.80000000000001</ele>
        <time>2024-05-09T12:51:04Z</time>
      </trkpt>
      <trkpt lat="48.666" lon="-3.89657">
        <ele>0.60000000000002</ele>
        <time>2024-05-09T12:51:13Z</time>
      </trkpt>
      <trkpt lat="48.66593" lon="-3.89671">
        <ele>0.19999999999999</ele>
        <time>2024-05-09T12:51:22Z</time>
      </trkpt>
      <trkpt lat="48.6659" lon="-3.89676">
        <ele>0.39999999999998</ele>
        <time>2024-05-09T12:51:30Z</time>
      </trkpt>
      <trkpt lat="48.6659" lon="-3.89676">
        <ele>0.60000000000002</ele>
        <time>2024-05-09T12:51:36Z</time>
      </trkpt>
      <trkpt lat="48.66587" lon="-3.89682">
        <ele>0.19999999999999</ele>
        <time>2024-05-09T12:51:43Z</time>
      </trkpt>
      <trkpt lat="48.66586" lon="-3.89685">
        <ele>0.19999999999999</ele>
        <time>2024-05-09T12:51:48Z</time>
      </trkpt>
      <trkpt lat="48.66584" lon="-3.89685">
        <ele>0.19999999999999</ele>
        <time>2024-05-09T12:51:54Z</time>
      </trkpt>
      <trkpt lat="48.66584" lon="-3.89688">
        <ele>0.19999999999999</ele>
        <time>2024-05-09T12:51:56Z</time>
      </trkpt>
      <trkpt lat="48.66583" lon="-3.89692">
        <ele>0.19999999999999</ele>
        <time>2024-05-09T12:52:00Z</time>
      </trkpt>
      <trkpt lat="48.6658" lon="-3.89706">
        <ele>0.19999999999999</ele>
        <time>2024-05-09T12:52:09Z</time>
      </trkpt>
      <trkpt lat="48.66576" lon="-3.8972">
        <ele>0.39999999999998</ele>
        <time>2024-05-09T12:52:17Z</time>
      </trkpt>
      <trkpt lat="48.66577" lon="-3.89727">
        <ele>0.60000000000002</ele>
        <time>2024-05-09T12:52:21Z</time>
      </trkpt>
      <trkpt lat="48.66579" lon="-3.89729">
        <ele>0.80000000000001</ele>
        <time>2024-05-09T12:52:23Z</time>
      </trkpt>
      <trkpt lat="48.6658" lon="-3.89729">
        <ele>1</ele>
        <time>2024-05-09T12:52:24Z</time>
      </trkpt>
      <trkpt lat="48.66582" lon="-3.8973">
        <ele>1.8</ele>
        <time>2024-05-09T12:52:26Z</time>
      </trkpt>
      <trkpt lat="48.66584" lon="-3.89738">
        <ele>2.6</ele>
        <time>2024-05-09T12:52:31Z</time>
      </trkpt>
      <trkpt lat="48.66584" lon="-3.89739">
        <ele>2.8</ele>
        <time>2024-05-09T12:52:32Z</time>
      </trkpt>
      <trkpt lat="48.66583" lon="-3.89742">
        <ele>3</ele>
        <time>2024-05-09T12:52:35Z</time>
      </trkpt>
      <trkpt lat="48.66583" lon="-3.89744">
        <ele>3.2</ele>
        <time>2024-05-09T12:52:36Z</time>
      </trkpt>
      <trkpt lat="48.66579" lon="-3.89753">
        <ele>3.4</ele>
        <time>2024-05-09T12:52:42Z</time>
      </trkpt>
      <trkpt lat="48.66574" lon="-3.89771">
        <ele>3.2</ele>
        <time>2024-05-09T12:52:52Z</time>
      </trkpt>
      <trkpt lat="48.66568" lon="-3.89787">
        <ele>2.4</ele>
        <time>2024-05-09T12:53:01Z</time>
      </trkpt>
      <trkpt lat="48.66561" lon="-3.89797">
        <ele>3.4</ele>
        <time>2024-05-09T12:53:10Z</time>
      </trkpt>
      <trkpt lat="48.66554" lon="-3.8981">
        <ele>3.6</ele>
        <time>2024-05-09T12:53:18Z</time>
      </trkpt>
      <trkpt lat="48.66553" lon="-3.89814">
        <ele>3.8</ele>
        <time>2024-05-09T12:53:20Z</time>
      </trkpt>
      <trkpt lat="48.66553" lon="-3.89818">
        <ele>3.8</ele>
        <time>2024-05-09T12:53:22Z</time>
      </trkpt>
      <trkpt lat="48.66552" lon="-3.89823">
        <ele>4</ele>
        <time>2024-05-09T12:53:25Z</time>
      </trkpt>
      <trkpt lat="48.66551" lon="-3.89829">
        <ele>4</ele>
        <time>2024-05-09T12:53:29Z</time>
      </trkpt>
      <trkpt lat="48.6655" lon="-3.8983">
        <ele>4</ele>
        <time>2024-05-09T12:53:30Z</time>
      </trkpt>
      <trkpt lat="48.66548" lon="-3.89833">
        <ele>4.2</ele>
        <time>2024-05-09T12:53:32Z</time>
      </trkpt>
      <trkpt lat="48.66547" lon="-3.89834">
        <ele>4.2</ele>
        <time>2024-05-09T12:53:33Z</time>
      </trkpt>
      <trkpt lat="48.66546" lon="-3.89835">
        <ele>4.4</ele>
        <time>2024-05-09T12:53:34Z</time>
      </trkpt>
      <trkpt lat="48.66544" lon="-3.89836">
        <ele>4.4</ele>
        <time>2024-05-09T12:53:36Z</time>
      </trkpt>
      <trkpt lat="48.66543" lon="-3.89839">
        <ele>4.4</ele>
        <time>2024-05-09T12:53:41Z</time>
      </trkpt>
      <trkpt lat="48.66543" lon="-3.89842">
        <ele>4.8</ele>
        <time>2024-05-09T12:53:44Z</time>
      </trkpt>
      <trkpt lat="48.66542" lon="-3.89843">
        <ele>5</ele>
        <time>2024-05-09T12:53:45Z</time>
      </trkpt>
      <trkpt lat="48.66533" lon="-3.89848">
        <ele>6</ele>
        <time>2024-05-09T12:53:52Z</time>
      </trkpt>
      <trkpt lat="48.66527" lon="-3.89853">
        <ele>6.8</ele>
        <time>2024-05-09T12:53:57Z</time>
      </trkpt>
      <trkpt lat="48.66527" lon="-3.89855">
        <ele>7.2</ele>
        <time>2024-05-09T12:53:58Z</time>
      </trkpt>
      <trkpt lat="48.66526" lon="-3.89858">
        <ele>8</ele>
        <time>2024-05-09T12:54:00Z</time>
      </trkpt>
      <trkpt lat="48.66526" lon="-3.89862">
        <ele>8.2</ele>
        <time>2024-05-09T12:54:02Z</time>
      </trkpt>
      <trkpt lat="48.66526" lon="-3.89866">
        <ele>8.2</ele>
        <time>2024-05-09T12:54:04Z</time>
      </trkpt>
      <trkpt lat="48.66526" lon="-3.89871">
        <ele>8.4</ele>
        <time>2024-05-09T12:54:06Z</time>
      </trkpt>
      <trkpt lat="48.66526" lon="-3.89877">
        <ele>9</ele>
        <time>2024-05-09T12:54:09Z</time>
      </trkpt>
      <trkpt lat="48.66528" lon="-3.89882">
        <ele>9.4</ele>
        <time>2024-05-09T12:54:12Z</time>
      </trkpt>
      <trkpt lat="48.66532" lon="-3.89888">
        <ele>10.6</ele>
        <time>2024-05-09T12:54:16Z</time>
      </trkpt>
      <trkpt lat="48.66533" lon="-3.89893">
        <ele>10.8</ele>
        <time>2024-05-09T12:54:19Z</time>
      </trkpt>
      <trkpt lat="48.66538" lon="-3.89902">
        <ele>11.4</ele>
        <time>2024-05-09T12:54:25Z</time>
      </trkpt>
      <trkpt lat="48.66539" lon="-3.89904">
        <ele>11.6</ele>
        <time>2024-05-09T12:54:26Z</time>
      </trkpt>
      <trkpt lat="48.66543" lon="-3.89913">
        <ele>12.2</ele>
        <time>2024-05-09T12:54:31Z</time>
      </trkpt>
      <trkpt lat="48.66545" lon="-3.89917">
        <ele>12.6</ele>
        <time>2024-05-09T12:54:34Z</time>
      </trkpt>
      <trkpt lat="48.66552" lon="-3.8992">
        <ele>13.6</ele>
        <time>2024-05-09T12:54:39Z</time>
      </trkpt>
      <trkpt lat="48.66553" lon="-3.89922">
        <ele>13.6</ele>
        <time>2024-05-09T12:54:41Z</time>
      </trkpt>
      <trkpt lat="48.66557" lon="-3.89931">
        <ele>14.6</ele>
        <time>2024-05-09T12:54:46Z</time>
      </trkpt>
      <trkpt lat="48.66566" lon="-3.89937">
        <ele>15.6</ele>
        <time>2024-05-09T12:54:53Z</time>
      </trkpt>
      <trkpt lat="48.66566" lon="-3.89938">
        <ele>15.8</ele>
        <time>2024-05-09T12:54:54Z</time>
      </trkpt>
      <trkpt lat="48.66571" lon="-3.89946">
        <ele>16.8</ele>
        <time>2024-05-09T12:55:00Z</time>
      </trkpt>
      <trkpt lat="48.66573" lon="-3.89948">
        <ele>17</ele>
        <time>2024-05-09T12:55:02Z</time>
      </trkpt>
      <trkpt lat="48.66576" lon="-3.89953">
        <ele>17.8</ele>
        <time>2024-05-09T12:55:06Z</time>
      </trkpt>
      <trkpt lat="48.66582" lon="-3.8996">
        <ele>18.6</ele>
        <time>2024-05-09T12:55:12Z</time>
      </trkpt>
      <trkpt lat="48.66585" lon="-3.89965">
        <ele>19</ele>
        <time>2024-05-09T12:55:15Z</time>
      </trkpt>
      <trkpt lat="48.6659" lon="-3.89971">
        <ele>19.6</ele>
        <time>2024-05-09T12:55:20Z</time>
      </trkpt>
      <trkpt lat="48.66592" lon="-3.89973">
        <ele>20.2</ele>
        <time>2024-05-09T12:55:22Z</time>
      </trkpt>
      <trkpt lat="48.66593" lon="-3.89975">
        <ele>20.6</ele>
        <time>2024-05-09T12:55:24Z</time>
      </trkpt>
      <trkpt lat="48.66593" lon="-3.8998">
        <ele>21.2</ele>
        <time>2024-05-09T12:55:27Z</time>
      </trkpt>
      <trkpt lat="48.66603" lon="-3.89989">
        <ele>22.2</ele>
        <time>2024-05-09T12:55:34Z</time>
      </trkpt>
      <trkpt lat="48.66611" lon="-3.89997">
        <ele>23.2</ele>
        <time>2024-05-09T12:55:42Z</time>
      </trkpt>
      <trkpt lat="48.66612" lon="-3.89997">
        <ele>23.4</ele>
        <time>2024-05-09T12:55:43Z</time>
      </trkpt>
      <trkpt lat="48.66613" lon="-3.89998">
        <ele>23.6</ele>
        <time>2024-05-09T12:55:44Z</time>
      </trkpt>
      <trkpt lat="48.66619" lon="-3.90004">
        <ele>24.6</ele>
        <time>2024-05-09T12:55:49Z</time>
      </trkpt>
      <trkpt lat="48.66624" lon="-3.90013">
        <ele>25.6</ele>
        <time>2024-05-09T12:55:56Z</time>
      </trkpt>
      <trkpt lat="48.66626" lon="-3.90016">
        <ele>26</ele>
        <time>2024-05-09T12:55:58Z</time>
      </trkpt>
      <trkpt lat="48.66631" lon="-3.90019">
        <ele>26.8</ele>
        <time>2024-05-09T12:56:03Z</time>
      </trkpt>
      <trkpt lat="48.66634" lon="-3.90022">
        <ele>27</ele>
        <time>2024-05-09T12:56:06Z</time>
      </trkpt>
      <trkpt lat="48.66638" lon="-3.90027">
        <ele>27.8</ele>
        <time>2024-05-09T12:56:11Z</time>
      </trkpt>
      <trkpt lat="48.66641" lon="-3.90029">
        <ele>28</ele>
        <time>2024-05-09T12:56:13Z</time>
      </trkpt>
      <trkpt lat="48.66644" lon="-3.90033">
        <ele>29</ele>
        <time>2024-05-09T12:56:17Z</time>
      </trkpt>
      <trkpt lat="48.66649" lon="-3.90035">
        <ele>30</ele>
        <time>2024-05-09T12:56:21Z</time>
      </trkpt>
      <trkpt lat="48.66656" lon="-3.90042">
        <ele>31.2</ele>
        <time>2024-05-09T12:56:28Z</time>
      </trkpt>
      <trkpt lat="48.66658" lon="-3.90043">
        <ele>31.4</ele>
        <time>2024-05-09T12:56:30Z</time>
      </trkpt>
      <trkpt lat="48.66665" lon="-3.90053">
        <ele>32.4</ele>
        <time>2024-05-09T12:56:36Z</time>
      </trkpt>
      <trkpt lat="48.66666" lon="-3.90055">
        <ele>32.4</ele>
        <time>2024-05-09T12:56:38Z</time>
      </trkpt>
      <trkpt lat="48.66666" lon="-3.9006">
        <ele>32.4</ele>
        <time>2024-05-09T12:56:40Z</time>
      </trkpt>
      <trkpt lat="48.66664" lon="-3.90064">
        <ele>32.2</ele>
        <time>2024-05-09T12:56:42Z</time>
      </trkpt>
      <trkpt lat="48.66661" lon="-3.90085">
        <ele>31.2</ele>
        <time>2024-05-09T12:56:51Z</time>
      </trkpt>
      <trkpt lat="48.6666" lon="-3.90089">
        <ele>31</ele>
        <time>2024-05-09T12:56:53Z</time>
      </trkpt>
      <trkpt lat="48.66656" lon="-3.90105">
        <ele>31</ele>
        <time>2024-05-09T12:57:01Z</time>
      </trkpt>
      <trkpt lat="48.66651" lon="-3.90126">
        <ele>31.4</ele>
        <time>2024-05-09T12:57:10Z</time>
      </trkpt>
      <trkpt lat="48.66647" lon="-3.90147">
        <ele>30.8</ele>
        <time>2024-05-09T12:57:20Z</time>
      </trkpt>
      <trkpt lat="48.66645" lon="-3.90162">
        <ele>30.6</ele>
        <time>2024-05-09T12:57:27Z</time>
      </trkpt>
      <trkpt lat="48.66641" lon="-3.90175">
        <ele>30.6</ele>
        <time>2024-05-09T12:57:33Z</time>
      </trkpt>
      <trkpt lat="48.66638" lon="-3.90196">
        <ele>30.6</ele>
        <time>2024-05-09T12:57:43Z</time>
      </trkpt>
      <trkpt lat="48.66637" lon="-3.90197">
        <ele>30.4</ele>
        <time>2024-05-09T12:57:45Z</time>
      </trkpt>
      <trkpt lat="48.66634" lon="-3.90195">
        <ele>30.2</ele>
        <time>2024-05-09T12:57:47Z</time>
      </trkpt>
      <trkpt lat="48.66632" lon="-3.90194">
        <ele>30.2</ele>
        <time>2024-05-09T12:57:48Z</time>
      </trkpt>
      <trkpt lat="48.66625" lon="-3.90183">
        <ele>29.2</ele>
        <time>2024-05-09T12:57:55Z</time>
      </trkpt>
      <trkpt lat="48.66622" lon="-3.90179">
        <ele>28.6</ele>
        <time>2024-05-09T12:57:58Z</time>
      </trkpt>
      <trkpt lat="48.66619" lon="-3.90175">
        <ele>28</ele>
        <time>2024-05-09T12:58:01Z</time>
      </trkpt>
      <trkpt lat="48.66612" lon="-3.90165">
        <ele>27.4</ele>
        <time>2024-05-09T12:58:07Z</time>
      </trkpt>
      <trkpt lat="48.66607" lon="-3.90161">
        <ele>26.8</ele>
        <time>2024-05-09T12:58:11Z</time>
      </trkpt>
      <trkpt lat="48.66602" lon="-3.90154">
        <ele>25.6</ele>
        <time>2024-05-09T12:58:15Z</time>
      </trkpt>
      <trkpt lat="48.66601" lon="-3.90153">
        <ele>25.4</ele>
        <time>2024-05-09T12:58:16Z</time>
      </trkpt>
      <trkpt lat="48.66597" lon="-3.90144">
        <ele>24.4</ele>
        <time>2024-05-09T12:58:21Z</time>
      </trkpt>
      <trkpt lat="48.66593" lon="-3.90137">
        <ele>23.6</ele>
        <time>2024-05-09T12:58:25Z</time>
      </trkpt>
      <trkpt lat="48.6659" lon="-3.90133">
        <ele>23.4</ele>
        <time>2024-05-09T12:58:28Z</time>
      </trkpt>
      <trkpt lat="48.66583" lon="-3.90124">
        <ele>22.8</ele>
        <time>2024-05-09T12:58:34Z</time>
      </trkpt>
      <trkpt lat="48.66581" lon="-3.9012">
        <ele>22.4</ele>
        <time>2024-05-09T12:58:36Z</time>
      </trkpt>
      <trkpt lat="48.66576" lon="-3.90112">
        <ele>21.2</ele>
        <time>2024-05-09T12:58:41Z</time>
      </trkpt>
      <trkpt lat="48.66572" lon="-3.90103">
        <ele>20.6</ele>
        <time>2024-05-09T12:58:45Z</time>
      </trkpt>
      <trkpt lat="48.66567" lon="-3.90091">
        <ele>20</ele>
        <time>2024-05-09T12:58:51Z</time>
      </trkpt>
      <trkpt lat="48.66563" lon="-3.90085">
        <ele>19</ele>
        <time>2024-05-09T12:58:55Z</time>
      </trkpt>
      <trkpt lat="48.66562" lon="-3.90084">
        <ele>18.6</ele>
        <time>2024-05-09T12:58:56Z</time>
      </trkpt>
      <trkpt lat="48.66557" lon="-3.90081">
        <ele>18</ele>
        <time>2024-05-09T12:59:00Z</time>
      </trkpt>
      <trkpt lat="48.66555" lon="-3.90079">
        <ele>17.8</ele>
        <time>2024-05-09T12:59:02Z</time>
      </trkpt>
      <trkpt lat="48.66555" lon="-3.90076">
        <ele>17.2</ele>
        <time>2024-05-09T12:59:04Z</time>
      </trkpt>
      <trkpt lat="48.66552" lon="-3.90071">
        <ele>16.6</ele>
        <time>2024-05-09T12:59:07Z</time>
      </trkpt>
      <trkpt lat="48.66549" lon="-3.90062">
        <ele>15.6</ele>
        <time>2024-05-09T12:59:12Z</time>
      </trkpt>
      <trkpt lat="48.66549" lon="-3.90061">
        <ele>15.2</ele>
        <time>2024-05-09T12:59:13Z</time>
      </trkpt>
      <trkpt lat="48.66547" lon="-3.90057">
        <ele>14.6</ele>
        <time>2024-05-09T12:59:15Z</time>
      </trkpt>
      <trkpt lat="48.66542" lon="-3.90049">
        <ele>13.2</ele>
        <time>2024-05-09T12:59:20Z</time>
      </trkpt>
      <trkpt lat="48.6654" lon="-3.90046">
        <ele>12.8</ele>
        <time>2024-05-09T12:59:22Z</time>
      </trkpt>
      <trkpt lat="48.6654" lon="-3.90043">
        <ele>12.2</ele>
        <time>2024-05-09T12:59:25Z</time>
      </trkpt>
      <trkpt lat="48.66541" lon="-3.90041">
        <ele>11</ele>
        <time>2024-05-09T12:59:28Z</time>
      </trkpt>
      <trkpt lat="48.66538" lon="-3.90041">
        <ele>9.8</ele>
        <time>2024-05-09T12:59:31Z</time>
      </trkpt>
      <trkpt lat="48.66536" lon="-3.90043">
        <ele>9</ele>
        <time>2024-05-09T12:59:33Z</time>
      </trkpt>
      <trkpt lat="48.66535" lon="-3.90044">
        <ele>8.6</ele>
        <time>2024-05-09T12:59:34Z</time>
      </trkpt>
      <trkpt lat="48.66533" lon="-3.90044">
        <ele>7.2</ele>
        <time>2024-05-09T12:59:37Z</time>
      </trkpt>
      <trkpt lat="48.66532" lon="-3.90043">
        <ele>6.8</ele>
        <time>2024-05-09T12:59:38Z</time>
      </trkpt>
      <trkpt lat="48.6653" lon="-3.90041">
        <ele>6</ele>
        <time>2024-05-09T12:59:40Z</time>
      </trkpt>
      <trkpt lat="48.66527" lon="-3.90041">
        <ele>5</ele>
        <time>2024-05-09T12:59:42Z</time>
      </trkpt>
      <trkpt lat="48.66526" lon="-3.90043">
        <ele>4.8</ele>
        <time>2024-05-09T12:59:43Z</time>
      </trkpt>
      <trkpt lat="48.66519" lon="-3.90054">
        <ele>4.4</ele>
        <time>2024-05-09T12:59:51Z</time>
      </trkpt>
      <trkpt lat="48.66515" lon="-3.9007">
        <ele>4.8</ele>
        <time>2024-05-09T13:00:00Z</time>
      </trkpt>
      <trkpt lat="48.66509" lon="-3.90082">
        <ele>4.8</ele>
        <time>2024-05-09T13:00:07Z</time>
      </trkpt>
      <trkpt lat="48.66508" lon="-3.90084">
        <ele>4.8</ele>
        <time>2024-05-09T13:00:08Z</time>
      </trkpt>
      <trkpt lat="48.66503" lon="-3.90102">
        <ele>4.8</ele>
        <time>2024-05-09T13:00:18Z</time>
      </trkpt>
      <trkpt lat="48.66502" lon="-3.90104">
        <ele>4.8</ele>
        <time>2024-05-09T13:00:23Z</time>
      </trkpt>
      <trkpt lat="48.66498" lon="-3.90114">
        <ele>4.6</ele>
        <time>2024-05-09T13:00:29Z</time>
      </trkpt>
      <trkpt lat="48.6649" lon="-3.90129">
        <ele>5</ele>
        <time>2024-05-09T13:00:37Z</time>
      </trkpt>
      <trkpt lat="48.66484" lon="-3.90138">
        <ele>4.8</ele>
        <time>2024-05-09T13:00:42Z</time>
      </trkpt>
      <trkpt lat="48.66482" lon="-3.90144">
        <ele>4.8</ele>
        <time>2024-05-09T13:00:45Z</time>
      </trkpt>
      <trkpt lat="48.66477" lon="-3.90158">
        <ele>4.4</ele>
        <time>2024-05-09T13:00:52Z</time>
      </trkpt>
      <trkpt lat="48.66476" lon="-3.90175">
        <ele>4</ele>
        <time>2024-05-09T13:01:00Z</time>
      </trkpt>
      <trkpt lat="48.66476" lon="-3.90178">
        <ele>4.2</ele>
        <time>2024-05-09T13:01:02Z</time>
      </trkpt>
      <trkpt lat="48.66478" lon="-3.90189">
        <ele>4.4</ele>
        <time>2024-05-09T13:01:07Z</time>
      </trkpt>
      <trkpt lat="48.6648" lon="-3.90193">
        <ele>4.4</ele>
        <time>2024-05-09T13:01:09Z</time>
      </trkpt>
      <trkpt lat="48.66483" lon="-3.90207">
        <ele>4.4</ele>
        <time>2024-05-09T13:01:16Z</time>
      </trkpt>
      <trkpt lat="48.66487" lon="-3.90222">
        <ele>4.4</ele>
        <time>2024-05-09T13:01:23Z</time>
      </trkpt>
      <trkpt lat="48.66489" lon="-3.90227">
        <ele>4.2</ele>
        <time>2024-05-09T13:01:26Z</time>
      </trkpt>
      <trkpt lat="48.66491" lon="-3.90238">
        <ele>4</ele>
        <time>2024-05-09T13:01:31Z</time>
      </trkpt>
      <trkpt lat="48.66493" lon="-3.9025">
        <ele>4.6</ele>
        <time>2024-05-09T13:01:37Z</time>
      </trkpt>
      <trkpt lat="48.66494" lon="-3.90251">
        <ele>4.6</ele>
        <time>2024-05-09T13:01:38Z</time>
      </trkpt>
      <trkpt lat="48.66495" lon="-3.90253">
        <ele>4.6</ele>
        <time>2024-05-09T13:01:39Z</time>
      </trkpt>
      <trkpt lat="48.66495" lon="-3.90257">
        <ele>4.6</ele>
        <time>2024-05-09T13:01:41Z</time>
      </trkpt>
      <trkpt lat="48.66494" lon="-3.90259">
        <ele>4.6</ele>
        <time>2024-05-09T13:01:42Z</time>
      </trkpt>
      <trkpt lat="48.6649" lon="-3.90278">
        <ele>4.6</ele>
        <time>2024-05-09T13:01:51Z</time>
      </trkpt>
      <trkpt lat="48.66486" lon="-3.90301">
        <ele>4.6</ele>
        <time>2024-05-09T13:02:02Z</time>
      </trkpt>
      <trkpt lat="48.66479" lon="-3.90321">
        <ele>4.6</ele>
        <time>2024-05-09T13:02:13Z</time>
      </trkpt>
      <trkpt lat="48.66474" lon="-3.90339">
        <ele>4.6</ele>
        <time>2024-05-09T13:02:22Z</time>
      </trkpt>
      <trkpt lat="48.66473" lon="-3.90343">
        <ele>4.6</ele>
        <time>2024-05-09T13:02:24Z</time>
      </trkpt>
      <trkpt lat="48.66471" lon="-3.90349">
        <ele>4.6</ele>
        <time>2024-05-09T13:02:27Z</time>
      </trkpt>
      <trkpt lat="48.66465" lon="-3.90366">
        <ele>4.6</ele>
        <time>2024-05-09T13:02:36Z</time>
      </trkpt>
      <trkpt lat="48.66459" lon="-3.90381">
        <ele>4.6</ele>
        <time>2024-05-09T13:02:44Z</time>
      </trkpt>
      <trkpt lat="48.66455" lon="-3.90387">
        <ele>4.6</ele>
        <time>2024-05-09T13:02:48Z</time>
      </trkpt>
      <trkpt lat="48.66452" lon="-3.90384">
        <ele>4.6</ele>
        <time>2024-05-09T13:02:50Z</time>
      </trkpt>
      <trkpt lat="48.66449" lon="-3.90386">
        <ele>4.6</ele>
        <time>2024-05-09T13:02:52Z</time>
      </trkpt>
      <trkpt lat="48.66447" lon="-3.90391">
        <ele>4.6</ele>
        <time>2024-05-09T13:02:54Z</time>
      </trkpt>
      <trkpt lat="48.66442" lon="-3.9041">
        <ele>4.6</ele>
        <time>2024-05-09T13:03:02Z</time>
      </trkpt>
      <trkpt lat="48.66441" lon="-3.90423">
        <ele>4.6</ele>
        <time>2024-05-09T13:03:08Z</time>
      </trkpt>
      <trkpt lat="48.66442" lon="-3.90427">
        <ele>4.6</ele>
        <time>2024-05-09T13:03:11Z</time>
      </trkpt>
      <trkpt lat="48.66446" lon="-3.90428">
        <ele>4.6</ele>
        <time>2024-05-09T13:03:14Z</time>
      </trkpt>
      <trkpt lat="48.66448" lon="-3.90426">
        <ele>4.6</ele>
        <time>2024-05-09T13:03:16Z</time>
      </trkpt>
      <trkpt lat="48.66458" lon="-3.90422">
        <ele>7.8</ele>
        <time>2024-05-09T13:03:23Z</time>
      </trkpt>
      <trkpt lat="48.6646" lon="-3.90421">
        <ele>7.8</ele>
        <time>2024-05-09T13:03:24Z</time>
      </trkpt>
      <trkpt lat="48.66471" lon="-3.9042">
        <ele>8</ele>
        <time>2024-05-09T13:03:32Z</time>
      </trkpt>
      <trkpt lat="48.66478" lon="-3.90416">
        <ele>8.2</ele>
        <time>2024-05-09T13:03:39Z</time>
      </trkpt>
      <trkpt lat="48.66484" lon="-3.90414">
        <ele>8.8</ele>
        <time>2024-05-09T13:03:43Z</time>
      </trkpt>
      <trkpt lat="48.66485" lon="-3.90414">
        <ele>9</ele>
        <time>2024-05-09T13:03:44Z</time>
      </trkpt>
      <trkpt lat="48.66487" lon="-3.90414">
        <ele>9.2</ele>
        <time>2024-05-09T13:03:46Z</time>
      </trkpt>
      <trkpt lat="48.66494" lon="-3.90412">
        <ele>10</ele>
        <time>2024-05-09T13:03:51Z</time>
      </trkpt>
      <trkpt lat="48.66497" lon="-3.90411">
        <ele>10</ele>
        <time>2024-05-09T13:03:54Z</time>
      </trkpt>
      <trkpt lat="48.665" lon="-3.90409">
        <ele>11</ele>
        <time>2024-05-09T13:03:56Z</time>
      </trkpt>
      <trkpt lat="48.66508" lon="-3.90407">
        <ele>12</ele>
        <time>2024-05-09T13:04:03Z</time>
      </trkpt>
      <trkpt lat="48.66522" lon="-3.90404">
        <ele>13</ele>
        <time>2024-05-09T13:04:13Z</time>
      </trkpt>
      <trkpt lat="48.66524" lon="-3.90404">
        <ele>13.4</ele>
        <time>2024-05-09T13:04:15Z</time>
      </trkpt>
      <trkpt lat="48.66528" lon="-3.90402">
        <ele>14.2</ele>
        <time>2024-05-09T13:04:18Z</time>
      </trkpt>
      <trkpt lat="48.66531" lon="-3.90402">
        <ele>15.2</ele>
        <time>2024-05-09T13:04:21Z</time>
      </trkpt>
      <trkpt lat="48.66537" lon="-3.90403">
        <ele>15.8</ele>
        <time>2024-05-09T13:04:24Z</time>
      </trkpt>
      <trkpt lat="48.66539" lon="-3.90405">
        <ele>16.2</ele>
        <time>2024-05-09T13:04:26Z</time>
      </trkpt>
      <trkpt lat="48.66541" lon="-3.90405">
        <ele>16.2</ele>
        <time>2024-05-09T13:04:27Z</time>
      </trkpt>
      <trkpt lat="48.66548" lon="-3.90408">
        <ele>17.4</ele>
        <time>2024-05-09T13:04:32Z</time>
      </trkpt>
      <trkpt lat="48.6655" lon="-3.90409">
        <ele>17.6</ele>
        <time>2024-05-09T13:04:33Z</time>
      </trkpt>
      <trkpt lat="48.66557" lon="-3.90412">
        <ele>18.2</ele>
        <time>2024-05-09T13:04:40Z</time>
      </trkpt>
      <trkpt lat="48.66559" lon="-3.90413">
        <ele>18.6</ele>
        <time>2024-05-09T13:04:42Z</time>
      </trkpt>
      <trkpt lat="48.66563" lon="-3.90415">
        <ele>19.4</ele>
        <time>2024-05-09T13:04:46Z</time>
      </trkpt>
      <trkpt lat="48.66564" lon="-3.90415">
        <ele>19.8</ele>
        <time>2024-05-09T13:04:47Z</time>
      </trkpt>
      <trkpt lat="48.66567" lon="-3.90417">
        <ele>20</ele>
        <time>2024-05-09T13:04:49Z</time>
      </trkpt>
      <trkpt lat="48.6657" lon="-3.90424">
        <ele>20.4</ele>
        <time>2024-05-09T13:04:54Z</time>
      </trkpt>
      <trkpt lat="48.66571" lon="-3.90429">
        <ele>20.8</ele>
        <time>2024-05-09T13:04:57Z</time>
      </trkpt>
      <trkpt lat="48.66572" lon="-3.90441">
        <ele>21.6</ele>
        <time>2024-05-09T13:05:03Z</time>
      </trkpt>
      <trkpt lat="48.6657" lon="-3.9045">
        <ele>22</ele>
        <time>2024-05-09T13:05:07Z</time>
      </trkpt>
      <trkpt lat="48.66569" lon="-3.90454">
        <ele>22.2</ele>
        <time>2024-05-09T13:05:09Z</time>
      </trkpt>
      <trkpt lat="48.66566" lon="-3.90471">
        <ele>23</ele>
        <time>2024-05-09T13:05:18Z</time>
      </trkpt>
      <trkpt lat="48.66565" lon="-3.90474">
        <ele>23.2</ele>
        <time>2024-05-09T13:05:19Z</time>
      </trkpt>
      <trkpt lat="48.66561" lon="-3.90493">
        <ele>23.8</ele>
        <time>2024-05-09T13:05:28Z</time>
      </trkpt>
      <trkpt lat="48.66559" lon="-3.90499">
        <ele>23.8</ele>
        <time>2024-05-09T13:05:31Z</time>
      </trkpt>
      <trkpt lat="48.66559" lon="-3.90503">
        <ele>24</ele>
        <time>2024-05-09T13:05:33Z</time>
      </trkpt>
      <trkpt lat="48.66556" lon="-3.90512">
        <ele>24.2</ele>
        <time>2024-05-09T13:05:37Z</time>
      </trkpt>
      <trkpt lat="48.66555" lon="-3.90519">
        <ele>24.4</ele>
        <time>2024-05-09T13:05:40Z</time>
      </trkpt>
      <trkpt lat="48.66549" lon="-3.90535">
        <ele>24.8</ele>
        <time>2024-05-09T13:05:48Z</time>
      </trkpt>
      <trkpt lat="48.66547" lon="-3.90554">
        <ele>24.8</ele>
        <time>2024-05-09T13:05:56Z</time>
      </trkpt>
      <trkpt lat="48.66543" lon="-3.90572">
        <ele>24.8</ele>
        <time>2024-05-09T13:06:05Z</time>
      </trkpt>
      <trkpt lat="48.66539" lon="-3.90588">
        <ele>24</ele>
        <time>2024-05-09T13:06:13Z</time>
      </trkpt>
      <trkpt lat="48.66535" lon="-3.90605">
        <ele>23.2</ele>
        <time>2024-05-09T13:06:21Z</time>
      </trkpt>
      <trkpt lat="48.66531" lon="-3.90618">
        <ele>22.8</ele>
        <time>2024-05-09T13:06:28Z</time>
      </trkpt>
      <trkpt lat="48.66531" lon="-3.90627">
        <ele>23</ele>
        <time>2024-05-09T13:06:32Z</time>
      </trkpt>
      <trkpt lat="48.66528" lon="-3.90631">
        <ele>23</ele>
        <time>2024-05-09T13:06:35Z</time>
      </trkpt>
      <trkpt lat="48.66523" lon="-3.90638">
        <ele>23.4</ele>
        <time>2024-05-09T13:06:41Z</time>
      </trkpt>
      <trkpt lat="48.66513" lon="-3.90652">
        <ele>23.6</ele>
        <time>2024-05-09T13:06:50Z</time>
      </trkpt>
      <trkpt lat="48.6651" lon="-3.90661">
        <ele>24.2</ele>
        <time>2024-05-09T13:06:56Z</time>
      </trkpt>
      <trkpt lat="48.66509" lon="-3.90663">
        <ele>24.2</ele>
        <time>2024-05-09T13:06:57Z</time>
      </trkpt>
      <trkpt lat="48.66502" lon="-3.90674">
        <ele>25</ele>
        <time>2024-05-09T13:07:05Z</time>
      </trkpt>
      <trkpt lat="48.665" lon="-3.90677">
        <ele>25.2</ele>
        <time>2024-05-09T13:07:07Z</time>
      </trkpt>
      <trkpt lat="48.66498" lon="-3.90679">
        <ele>25.4</ele>
        <time>2024-05-09T13:07:09Z</time>
      </trkpt>
      <trkpt lat="48.66495" lon="-3.9068">
        <ele>25.6</ele>
        <time>2024-05-09T13:07:11Z</time>
      </trkpt>
      <trkpt lat="48.66493" lon="-3.90683">
        <ele>26</ele>
        <time>2024-05-09T13:07:14Z</time>
      </trkpt>
      <trkpt lat="48.66491" lon="-3.90685">
        <ele>26.2</ele>
        <time>2024-05-09T13:07:16Z</time>
      </trkpt>
      <trkpt lat="48.6649" lon="-3.90686">
        <ele>26.4</ele>
        <time>2024-05-09T13:07:17Z</time>
      </trkpt>
      <trkpt lat="48.66481" lon="-3.90694">
        <ele>27.2</ele>
        <time>2024-05-09T13:07:25Z</time>
      </trkpt>
      <trkpt lat="48.6648" lon="-3.90696">
        <ele>27.4</ele>
        <time>2024-05-09T13:07:26Z</time>
      </trkpt>
      <trkpt lat="48.66477" lon="-3.90702">
        <ele>28.4</ele>
        <time>2024-05-09T13:07:31Z</time>
      </trkpt>
      <trkpt lat="48.66471" lon="-3.90708">
        <ele>29.4</ele>
        <time>2024-05-09T13:07:35Z</time>
      </trkpt>
      <trkpt lat="48.66468" lon="-3.90712">
        <ele>30</ele>
        <time>2024-05-09T13:07:38Z</time>
      </trkpt>
      <trkpt lat="48.66466" lon="-3.90716">
        <ele>30.8</ele>
        <time>2024-05-09T13:07:41Z</time>
      </trkpt>
      <trkpt lat="48.66462" lon="-3.9072">
        <ele>31.4</ele>
        <time>2024-05-09T13:07:44Z</time>
      </trkpt>
      <trkpt lat="48.66451" lon="-3.90731">
        <ele>31.6</ele>
        <time>2024-05-09T13:07:53Z</time>
      </trkpt>
      <trkpt lat="48.66448" lon="-3.90734">
        <ele>31.8</ele>
        <time>2024-05-09T13:07:55Z</time>
      </trkpt>
      <trkpt lat="48.66446" lon="-3.90743">
        <ele>32.2</ele>
        <time>2024-05-09T13:07:59Z</time>
      </trkpt>
      <trkpt lat="48.6644" lon="-3.9076">
        <ele>32.6</ele>
        <time>2024-05-09T13:08:08Z</time>
      </trkpt>
      <trkpt lat="48.66439" lon="-3.90762">
        <ele>32.8</ele>
        <time>2024-05-09T13:08:09Z</time>
      </trkpt>
      <trkpt lat="48.66438" lon="-3.90764">
        <ele>32.8</ele>
        <time>2024-05-09T13:08:10Z</time>
      </trkpt>
      <trkpt lat="48.66437" lon="-3.90772">
        <ele>33.2</ele>
        <time>2024-05-09T13:08:14Z</time>
      </trkpt>
      <trkpt lat="48.66435" lon="-3.9078">
        <ele>33.4</ele>
        <time>2024-05-09T13:08:18Z</time>
      </trkpt>
      <trkpt lat="48.66434" lon="-3.90783">
        <ele>33.8</ele>
        <time>2024-05-09T13:08:20Z</time>
      </trkpt>
      <trkpt lat="48.66433" lon="-3.90788">
        <ele>34</ele>
        <time>2024-05-09T13:08:22Z</time>
      </trkpt>
      <trkpt lat="48.6643" lon="-3.90797">
        <ele>34.2</ele>
        <time>2024-05-09T13:08:27Z</time>
      </trkpt>
      <trkpt lat="48.66429" lon="-3.90802">
        <ele>34.4</ele>
        <time>2024-05-09T13:08:29Z</time>
      </trkpt>
      <trkpt lat="48.66429" lon="-3.90806">
        <ele>34.6</ele>
        <time>2024-05-09T13:08:31Z</time>
      </trkpt>
      <trkpt lat="48.66426" lon="-3.90813">
        <ele>35</ele>
        <time>2024-05-09T13:08:34Z</time>
      </trkpt>
      <trkpt lat="48.66425" lon="-3.90815">
        <ele>35</ele>
        <time>2024-05-09T13:08:36Z</time>
      </trkpt>
      <trkpt lat="48.6642" lon="-3.90824">
        <ele>35.4</ele>
        <time>2024-05-09T13:08:42Z</time>
      </trkpt>
      <trkpt lat="48.66419" lon="-3.90826">
        <ele>35.4</ele>
        <time>2024-05-09T13:08:43Z</time>
      </trkpt>
      <trkpt lat="48.66409" lon="-3.9084">
        <ele>35.8</ele>
        <time>2024-05-09T13:08:51Z</time>
      </trkpt>
      <trkpt lat="48.66404" lon="-3.90846">
        <ele>36.2</ele>
        <time>2024-05-09T13:08:55Z</time>
      </trkpt>
      <trkpt lat="48.664" lon="-3.90852">
        <ele>36.4</ele>
        <time>2024-05-09T13:08:59Z</time>
      </trkpt>
      <trkpt lat="48.66393" lon="-3.90863">
        <ele>36.8</ele>
        <time>2024-05-09T13:09:06Z</time>
      </trkpt>
      <trkpt lat="48.66383" lon="-3.90873">
        <ele>36.8</ele>
        <time>2024-05-09T13:09:13Z</time>
      </trkpt>
      <trkpt lat="48.66382" lon="-3.90874">
        <ele>36.8</ele>
        <time>2024-05-09T13:09:14Z</time>
      </trkpt>
      <trkpt lat="48.66377" lon="-3.90879">
        <ele>36.4</ele>
        <time>2024-05-09T13:09:18Z</time>
      </trkpt>
      <trkpt lat="48.66373" lon="-3.90885">
        <ele>36.2</ele>
        <time>2024-05-09T13:09:22Z</time>
      </trkpt>
      <trkpt lat="48.66364" lon="-3.90896">
        <ele>35.8</ele>
        <time>2024-05-09T13:09:30Z</time>
      </trkpt>
      <trkpt lat="48.66362" lon="-3.90901">
        <ele>35.8</ele>
        <time>2024-05-09T13:09:32Z</time>
      </trkpt>
      <trkpt lat="48.66356" lon="-3.90917">
        <ele>35.4</ele>
        <time>2024-05-09T13:09:41Z</time>
      </trkpt>
      <trkpt lat="48.6635" lon="-3.90934">
        <ele>35.4</ele>
        <time>2024-05-09T13:09:50Z</time>
      </trkpt>
      <trkpt lat="48.66343" lon="-3.90942">
        <ele>35.4</ele>
        <time>2024-05-09T13:09:56Z</time>
      </trkpt>
      <trkpt lat="48.66342" lon="-3.90945">
        <ele>35.4</ele>
        <time>2024-05-09T13:09:58Z</time>
      </trkpt>
      <trkpt lat="48.66337" lon="-3.90957">
        <ele>35.4</ele>
        <time>2024-05-09T13:10:06Z</time>
      </trkpt>
      <trkpt lat="48.66332" lon="-3.90975">
        <ele>35.4</ele>
        <time>2024-05-09T13:10:15Z</time>
      </trkpt>
      <trkpt lat="48.66331" lon="-3.90976">
        <ele>35.4</ele>
        <time>2024-05-09T13:10:16Z</time>
      </trkpt>
      <trkpt lat="48.66329" lon="-3.90981">
        <ele>35.4</ele>
        <time>2024-05-09T13:10:18Z</time>
      </trkpt>
      <trkpt lat="48.66327" lon="-3.90985">
        <ele>35.4</ele>
        <time>2024-05-09T13:10:20Z</time>
      </trkpt>
      <trkpt lat="48.66326" lon="-3.90993">
        <ele>35.4</ele>
        <time>2024-05-09T13:10:24Z</time>
      </trkpt>
      <trkpt lat="48.66325" lon="-3.90999">
        <ele>35.4</ele>
        <time>2024-05-09T13:10:27Z</time>
      </trkpt>
      <trkpt lat="48.66324" lon="-3.91015">
        <ele>41.6</ele>
        <time>2024-05-09T13:10:34Z</time>
      </trkpt>
      <trkpt lat="48.66317" lon="-3.91033">
        <ele>42.6</ele>
        <time>2024-05-09T13:10:43Z</time>
      </trkpt>
      <trkpt lat="48.66316" lon="-3.91037">
        <ele>42.6</ele>
        <time>2024-05-09T13:10:45Z</time>
      </trkpt>
      <trkpt lat="48.66315" lon="-3.9104">
        <ele>42.8</ele>
        <time>2024-05-09T13:10:47Z</time>
      </trkpt>
      <trkpt lat="48.66315" lon="-3.91042">
        <ele>42.8</ele>
        <time>2024-05-09T13:10:48Z</time>
      </trkpt>
      <trkpt lat="48.66318" lon="-3.9106">
        <ele>43.2</ele>
        <time>2024-05-09T13:10:56Z</time>
      </trkpt>
      <trkpt lat="48.66321" lon="-3.91072">
        <ele>44</ele>
        <time>2024-05-09T13:11:02Z</time>
      </trkpt>
      <trkpt lat="48.66322" lon="-3.91076">
        <ele>44.2</ele>
        <time>2024-05-09T13:11:04Z</time>
      </trkpt>
      <trkpt lat="48.66322" lon="-3.91081">
        <ele>44.2</ele>
        <time>2024-05-09T13:11:06Z</time>
      </trkpt>
      <trkpt lat="48.66322" lon="-3.91088">
        <ele>44.8</ele>
        <time>2024-05-09T13:11:09Z</time>
      </trkpt>
      <trkpt lat="48.66322" lon="-3.91091">
        <ele>45</ele>
        <time>2024-05-09T13:11:10Z</time>
      </trkpt>
      <trkpt lat="48.66322" lon="-3.91105">
        <ele>45.8</ele>
        <time>2024-05-09T13:11:17Z</time>
      </trkpt>
      <trkpt lat="48.66322" lon="-3.91109">
        <ele>46.2</ele>
        <time>2024-05-09T13:11:19Z</time>
      </trkpt>
      <trkpt lat="48.66321" lon="-3.91123">
        <ele>46.6</ele>
        <time>2024-05-09T13:11:25Z</time>
      </trkpt>
      <trkpt lat="48.66321" lon="-3.91133">
        <ele>46.8</ele>
        <time>2024-05-09T13:11:29Z</time>
      </trkpt>
      <trkpt lat="48.66319" lon="-3.91138">
        <ele>47</ele>
        <time>2024-05-09T13:11:31Z</time>
      </trkpt>
      <trkpt lat="48.66318" lon="-3.91141">
        <ele>47.2</ele>
        <time>2024-05-09T13:11:32Z</time>
      </trkpt>
      <trkpt lat="48.66316" lon="-3.91153">
        <ele>48</ele>
        <time>2024-05-09T13:11:38Z</time>
      </trkpt>
      <trkpt lat="48.66315" lon="-3.91164">
        <ele>48.4</ele>
        <time>2024-05-09T13:11:43Z</time>
      </trkpt>
      <trkpt lat="48.66315" lon="-3.91166">
        <ele>48.6</ele>
        <time>2024-05-09T13:11:44Z</time>
      </trkpt>
      <trkpt lat="48.6631" lon="-3.91177">
        <ele>49</ele>
        <time>2024-05-09T13:11:51Z</time>
      </trkpt>
      <trkpt lat="48.66308" lon="-3.91179">
        <ele>49.2</ele>
        <time>2024-05-09T13:11:53Z</time>
      </trkpt>
      <trkpt lat="48.66302" lon="-3.9118">
        <ele>49.4</ele>
        <time>2024-05-09T13:11:57Z</time>
      </trkpt>
      <trkpt lat="48.66295" lon="-3.9118">
        <ele>49.6</ele>
        <time>2024-05-09T13:12:01Z</time>
      </trkpt>
      <trkpt lat="48.66287" lon="-3.91178">
        <ele>49.6</ele>
        <time>2024-05-09T13:12:07Z</time>
      </trkpt>
      <trkpt lat="48.66274" lon="-3.91172">
        <ele>49.4</ele>
        <time>2024-05-09T13:12:16Z</time>
      </trkpt>
      <trkpt lat="48.66264" lon="-3.91167">
        <ele>48.8</ele>
        <time>2024-05-09T13:12:23Z</time>
      </trkpt>
      <trkpt lat="48.66261" lon="-3.91167">
        <ele>48.4</ele>
        <time>2024-05-09T13:12:25Z</time>
      </trkpt>
      <trkpt lat="48.66254" lon="-3.91168">
        <ele>47.8</ele>
        <time>2024-05-09T13:12:30Z</time>
      </trkpt>
      <trkpt lat="48.66242" lon="-3.91167">
        <ele>48</ele>
        <time>2024-05-09T13:12:38Z</time>
      </trkpt>
      <trkpt lat="48.66223" lon="-3.9116">
        <ele>48</ele>
        <time>2024-05-09T13:12:49Z</time>
      </trkpt>
      <trkpt lat="48.66212" lon="-3.91161">
        <ele>47.8</ele>
        <time>2024-05-09T13:12:56Z</time>
      </trkpt>
      <trkpt lat="48.66205" lon="-3.91161">
        <ele>48</ele>
        <time>2024-05-09T13:13:01Z</time>
      </trkpt>
      <trkpt lat="48.66204" lon="-3.91159">
        <ele>48</ele>
        <time>2024-05-09T13:13:02Z</time>
      </trkpt>
      <trkpt lat="48.66192" lon="-3.91159">
        <ele>48</ele>
        <time>2024-05-09T13:13:10Z</time>
      </trkpt>
      <trkpt lat="48.6618" lon="-3.91166">
        <ele>49</ele>
        <time>2024-05-09T13:13:19Z</time>
      </trkpt>
      <trkpt lat="48.6618" lon="-3.91167">
        <ele>49.2</ele>
        <time>2024-05-09T13:13:20Z</time>
      </trkpt>
      <trkpt lat="48.66179" lon="-3.9117">
        <ele>49.2</ele>
        <time>2024-05-09T13:13:22Z</time>
      </trkpt>
      <trkpt lat="48.66177" lon="-3.91171">
        <ele>49.4</ele>
        <time>2024-05-09T13:13:23Z</time>
      </trkpt>
      <trkpt lat="48.66166" lon="-3.91175">
        <ele>49.8</ele>
        <time>2024-05-09T13:13:31Z</time>
      </trkpt>
      <trkpt lat="48.66154" lon="-3.91174">
        <ele>50.4</ele>
        <time>2024-05-09T13:13:40Z</time>
      </trkpt>
      <trkpt lat="48.66142" lon="-3.91173">
        <ele>50.2</ele>
        <time>2024-05-09T13:13:48Z</time>
      </trkpt>
      <trkpt lat="48.66128" lon="-3.91173">
        <ele>50.4</ele>
        <time>2024-05-09T13:13:57Z</time>
      </trkpt>
      <trkpt lat="48.66119" lon="-3.91172">
        <ele>50.4</ele>
        <time>2024-05-09T13:14:03Z</time>
      </trkpt>
      <trkpt lat="48.66108" lon="-3.91171">
        <ele>50.6</ele>
        <time>2024-05-09T13:14:11Z</time>
      </trkpt>
      <trkpt lat="48.66094" lon="-3.91173">
        <ele>51</ele>
        <time>2024-05-09T13:14:21Z</time>
      </trkpt>
      <trkpt lat="48.66085" lon="-3.91179">
        <ele>51.2</ele>
        <time>2024-05-09T13:14:27Z</time>
      </trkpt>
      <trkpt lat="48.66073" lon="-3.91184">
        <ele>51.2</ele>
        <time>2024-05-09T13:14:35Z</time>
      </trkpt>
      <trkpt lat="48.66067" lon="-3.91188">
        <ele>51.6</ele>
        <time>2024-05-09T13:14:39Z</time>
      </trkpt>
      <trkpt lat="48.6606" lon="-3.91189">
        <ele>51.8</ele>
        <time>2024-05-09T13:14:44Z</time>
      </trkpt>
      <trkpt lat="48.66047" lon="-3.91195">
        <ele>52</ele>
        <time>2024-05-09T13:14:53Z</time>
      </trkpt>
      <trkpt lat="48.66035" lon="-3.91202">
        <ele>52.2</ele>
        <time>2024-05-09T13:15:02Z</time>
      </trkpt>
      <trkpt lat="48.66026" lon="-3.91206">
        <ele>52.6</ele>
        <time>2024-05-09T13:15:08Z</time>
      </trkpt>
      <trkpt lat="48.66015" lon="-3.91214">
        <ele>53.2</ele>
        <time>2024-05-09T13:15:17Z</time>
      </trkpt>
      <trkpt lat="48.66013" lon="-3.91217">
        <ele>53.2</ele>
        <time>2024-05-09T13:15:19Z</time>
      </trkpt>
      <trkpt lat="48.66012" lon="-3.91219">
        <ele>53.2</ele>
        <time>2024-05-09T13:15:21Z</time>
      </trkpt>
      <trkpt lat="48.66011" lon="-3.91221">
        <ele>53.6</ele>
        <time>2024-05-09T13:15:23Z</time>
      </trkpt>
      <trkpt lat="48.6601" lon="-3.91222">
        <ele>53.6</ele>
        <time>2024-05-09T13:15:24Z</time>
      </trkpt>
      <trkpt lat="48.66003" lon="-3.91232">
        <ele>54</ele>
        <time>2024-05-09T13:15:31Z</time>
      </trkpt>
      <trkpt lat="48.65998" lon="-3.91247">
        <ele>54.2</ele>
        <time>2024-05-09T13:15:37Z</time>
      </trkpt>
      <trkpt lat="48.65995" lon="-3.91253">
        <ele>54.4</ele>
        <time>2024-05-09T13:15:40Z</time>
      </trkpt>
      <trkpt lat="48.65993" lon="-3.91259">
        <ele>54.6</ele>
        <time>2024-05-09T13:15:43Z</time>
      </trkpt>
      <trkpt lat="48.65993" lon="-3.91261">
        <ele>54.6</ele>
        <time>2024-05-09T13:15:44Z</time>
      </trkpt>
      <trkpt lat="48.65991" lon="-3.91275">
        <ele>55.4</ele>
        <time>2024-05-09T13:15:50Z</time>
      </trkpt>
      <trkpt lat="48.65988" lon="-3.91292">
        <ele>55.4</ele>
        <time>2024-05-09T13:15:58Z</time>
      </trkpt>
      <trkpt lat="48.65987" lon="-3.91296">
        <ele>55.4</ele>
        <time>2024-05-09T13:16:00Z</time>
      </trkpt>
      <trkpt lat="48.65986" lon="-3.91303">
        <ele>55.6</ele>
        <time>2024-05-09T13:16:03Z</time>
      </trkpt>
      <trkpt lat="48.65983" lon="-3.91318">
        <ele>55.6</ele>
        <time>2024-05-09T13:16:10Z</time>
      </trkpt>
      <trkpt lat="48.65981" lon="-3.91322">
        <ele>55.6</ele>
        <time>2024-05-09T13:16:12Z</time>
      </trkpt>
      <trkpt lat="48.65981" lon="-3.91324">
        <ele>55.8</ele>
        <time>2024-05-09T13:16:13Z</time>
      </trkpt>
      <trkpt lat="48.6598" lon="-3.9133">
        <ele>55.8</ele>
        <time>2024-05-09T13:16:16Z</time>
      </trkpt>
      <trkpt lat="48.65977" lon="-3.91343">
        <ele>56</ele>
        <time>2024-05-09T13:16:23Z</time>
      </trkpt>
      <trkpt lat="48.65975" lon="-3.91363">
        <ele>56.4</ele>
        <time>2024-05-09T13:16:32Z</time>
      </trkpt>
      <trkpt lat="48.65975" lon="-3.91365">
        <ele>56.4</ele>
        <time>2024-05-09T13:16:33Z</time>
      </trkpt>
      <trkpt lat="48.65978" lon="-3.91373">
        <ele>56.6</ele>
        <time>2024-05-09T13:16:37Z</time>
      </trkpt>
      <trkpt lat="48.65988" lon="-3.91388">
        <ele>56</ele>
        <time>2024-05-09T13:16:46Z</time>
      </trkpt>
      <trkpt lat="48.65996" lon="-3.91398">
        <ele>55.8</ele>
        <time>2024-05-09T13:16:53Z</time>
      </trkpt>
      <trkpt lat="48.66011" lon="-3.91414">
        <ele>56</ele>
        <time>2024-05-09T13:17:05Z</time>
      </trkpt>
      <trkpt lat="48.66021" lon="-3.91426">
        <ele>55.6</ele>
        <time>2024-05-09T13:17:14Z</time>
      </trkpt>
      <trkpt lat="48.66032" lon="-3.91432">
        <ele>55.2</ele>
        <time>2024-05-09T13:17:22Z</time>
      </trkpt>
      <trkpt lat="48.66043" lon="-3.91442">
        <ele>55.2</ele>
        <time>2024-05-09T13:17:30Z</time>
      </trkpt>
      <trkpt lat="48.66049" lon="-3.91446">
        <ele>54.8</ele>
        <time>2024-05-09T13:17:34Z</time>
      </trkpt>
      <trkpt lat="48.66056" lon="-3.91452">
        <ele>54.4</ele>
        <time>2024-05-09T13:17:39Z</time>
      </trkpt>
      <trkpt lat="48.6607" lon="-3.91462">
        <ele>55</ele>
        <time>2024-05-09T13:17:49Z</time>
      </trkpt>
      <trkpt lat="48.66084" lon="-3.9147">
        <ele>54.2</ele>
        <time>2024-05-09T13:17:59Z</time>
      </trkpt>
      <trkpt lat="48.66098" lon="-3.91478">
        <ele>55.2</ele>
        <time>2024-05-09T13:18:08Z</time>
      </trkpt>
      <trkpt lat="48.66103" lon="-3.91483">
        <ele>54.8</ele>
        <time>2024-05-09T13:18:12Z</time>
      </trkpt>
      <trkpt lat="48.66108" lon="-3.91485">
        <ele>54</ele>
        <time>2024-05-09T13:18:15Z</time>
      </trkpt>
      <trkpt lat="48.66121" lon="-3.91492">
        <ele>54.6</ele>
        <time>2024-05-09T13:18:24Z</time>
      </trkpt>
      <trkpt lat="48.66132" lon="-3.91497">
        <ele>54.4</ele>
        <time>2024-05-09T13:18:32Z</time>
      </trkpt>
      <trkpt lat="48.66146" lon="-3.91502">
        <ele>54.6</ele>
        <time>2024-05-09T13:18:41Z</time>
      </trkpt>
      <trkpt lat="48.66147" lon="-3.91502">
        <ele>54.6</ele>
        <time>2024-05-09T13:18:42Z</time>
      </trkpt>
      <trkpt lat="48.66161" lon="-3.91508">
        <ele>54.8</ele>
        <time>2024-05-09T13:18:50Z</time>
      </trkpt>
      <trkpt lat="48.66168" lon="-3.91526">
        <ele>54.6</ele>
        <time>2024-05-09T13:18:59Z</time>
      </trkpt>
      <trkpt lat="48.66167" lon="-3.91529">
        <ele>54.6</ele>
        <time>2024-05-09T13:19:01Z</time>
      </trkpt>
      <trkpt lat="48.66165" lon="-3.91533">
        <ele>54.6</ele>
        <time>2024-05-09T13:19:03Z</time>
      </trkpt>
      <trkpt lat="48.66156" lon="-3.91543">
        <ele>55</ele>
        <time>2024-05-09T13:19:10Z</time>
      </trkpt>
      <trkpt lat="48.66141" lon="-3.91558">
        <ele>55</ele>
        <time>2024-05-09T13:19:22Z</time>
      </trkpt>
      <trkpt lat="48.66129" lon="-3.91567">
        <ele>55.2</ele>
        <time>2024-05-09T13:19:30Z</time>
      </trkpt>
      <trkpt lat="48.66118" lon="-3.91576">
        <ele>55.4</ele>
        <time>2024-05-09T13:19:38Z</time>
      </trkpt>
      <trkpt lat="48.66115" lon="-3.9158">
        <ele>55.6</ele>
        <time>2024-05-09T13:19:41Z</time>
      </trkpt>
      <trkpt lat="48.6611" lon="-3.91586">
        <ele>55.6</ele>
        <time>2024-05-09T13:19:45Z</time>
      </trkpt>
      <trkpt lat="48.66098" lon="-3.91597">
        <ele>55.4</ele>
        <time>2024-05-09T13:19:54Z</time>
      </trkpt>
      <trkpt lat="48.66085" lon="-3.91607">
        <ele>55</ele>
        <time>2024-05-09T13:20:04Z</time>
      </trkpt>
      <trkpt lat="48.66072" lon="-3.91618">
        <ele>55</ele>
        <time>2024-05-09T13:20:14Z</time>
      </trkpt>
      <trkpt lat="48.6606" lon="-3.91631">
        <ele>55.2</ele>
        <time>2024-05-09T13:20:24Z</time>
      </trkpt>
      <trkpt lat="48.66056" lon="-3.91634">
        <ele>55.2</ele>
        <time>2024-05-09T13:20:27Z</time>
      </trkpt>
      <trkpt lat="48.66045" lon="-3.91644">
        <ele>54.6</ele>
        <time>2024-05-09T13:20:35Z</time>
      </trkpt>
      <trkpt lat="48.6603" lon="-3.91657">
        <ele>54.6</ele>
        <time>2024-05-09T13:20:46Z</time>
      </trkpt>
      <trkpt lat="48.66022" lon="-3.91665">
        <ele>54.6</ele>
        <time>2024-05-09T13:20:53Z</time>
      </trkpt>
      <trkpt lat="48.66018" lon="-3.91668">
        <ele>54.6</ele>
        <time>2024-05-09T13:20:56Z</time>
      </trkpt>
      <trkpt lat="48.66005" lon="-3.91677">
        <ele>54.8</ele>
        <time>2024-05-09T13:21:05Z</time>
      </trkpt>
      <trkpt lat="48.65992" lon="-3.91686">
        <ele>55</ele>
        <time>2024-05-09T13:21:15Z</time>
      </trkpt>
      <trkpt lat="48.65978" lon="-3.91695">
        <ele>54.8</ele>
        <time>2024-05-09T13:21:25Z</time>
      </trkpt>
      <trkpt lat="48.65977" lon="-3.91696">
        <ele>54.8</ele>
        <time>2024-05-09T13:21:26Z</time>
      </trkpt>
      <trkpt lat="48.6597" lon="-3.917">
        <ele>54.6</ele>
        <time>2024-05-09T13:21:31Z</time>
      </trkpt>
      <trkpt lat="48.65953" lon="-3.91713">
        <ele>54.4</ele>
        <time>2024-05-09T13:21:43Z</time>
      </trkpt>
      <trkpt lat="48.65946" lon="-3.91726">
        <ele>54.2</ele>
        <time>2024-05-09T13:21:50Z</time>
      </trkpt>
      <trkpt lat="48.65946" lon="-3.91729">
        <ele>54.2</ele>
        <time>2024-05-09T13:21:52Z</time>
      </trkpt>
      <trkpt lat="48.65942" lon="-3.91744">
        <ele>54.2</ele>
        <time>2024-05-09T13:21:59Z</time>
      </trkpt>
      <trkpt lat="48.65937" lon="-3.91762">
        <ele>54.2</ele>
        <time>2024-05-09T13:22:08Z</time>
      </trkpt>
      <trkpt lat="48.65936" lon="-3.91764">
        <ele>54.2</ele>
        <time>2024-05-09T13:22:09Z</time>
      </trkpt>
      <trkpt lat="48.65934" lon="-3.9177">
        <ele>54.2</ele>
        <time>2024-05-09T13:22:12Z</time>
      </trkpt>
      <trkpt lat="48.65933" lon="-3.9178">
        <ele>54.2</ele>
        <time>2024-05-09T13:22:16Z</time>
      </trkpt>
      <trkpt lat="48.6593" lon="-3.91798">
        <ele>54.2</ele>
        <time>2024-05-09T13:22:24Z</time>
      </trkpt>
      <trkpt lat="48.65927" lon="-3.91813">
        <ele>54.2</ele>
        <time>2024-05-09T13:22:31Z</time>
      </trkpt>
      <trkpt lat="48.65922" lon="-3.91831">
        <ele>54.2</ele>
        <time>2024-05-09T13:22:39Z</time>
      </trkpt>
      <trkpt lat="48.6592" lon="-3.91848">
        <ele>54.2</ele>
        <time>2024-05-09T13:22:47Z</time>
      </trkpt>
      <trkpt lat="48.65917" lon="-3.91868">
        <ele>54.2</ele>
        <time>2024-05-09T13:22:56Z</time>
      </trkpt>
      <trkpt lat="48.65916" lon="-3.91872">
        <ele>54.2</ele>
        <time>2024-05-09T13:22:58Z</time>
      </trkpt>
    </trkseg>
  </trk>
</gpx>